<?xml version="1.0" encoding="UTF-8" standalone="no" ?>
<gpx xmlns="http://www.topografix.com/GPX/1/1" xmlns:xsi="http://www.w3.org/2001/XMLSchema-instance" xsi:schemaLocation="http://www.topografix.com/GPX/1/1 http://www.topografix.com/GPX/1/1/gpx.xsd" version="1.1" creator="VisuGPX - https://www.visugpx.com">
  <metadata>
    <name>Roanne -&amp;gt; Paray-le-Monial</name>
  </metadata>
  <trk>
    <name><![CDATA[Roanne -> Paray-le-Monial]]></name>
    <extensions>
      <line xmlns="http://www.topografix.com/GPX/gpx_style/0/2">
        <color>0000FF</color>
        <width>4</width>
      </line>
    </extensions>
    <trkseg>
      <trkpt lat="46.03936" lon="4.06344">
        <ele>332.864078</ele>
        <time>2023-09-29T08:25:25.214Z</time>
      </trkpt>
      <trkpt lat="46.03933" lon="4.06357">
        <ele>332.864078</ele>
        <time>2023-09-29T08:25:29.203Z</time>
      </trkpt>
      <trkpt lat="46.03936" lon="4.06377">
        <ele>332.864078</ele>
        <time>2023-09-29T08:26:04.208Z</time>
      </trkpt>
      <trkpt lat="46.0394" lon="4.0639">
        <ele>332.864078</ele>
        <time>2023-09-29T08:26:07.212Z</time>
      </trkpt>
      <trkpt lat="46.03941" lon="4.06408">
        <ele>332.864078</ele>
        <time>2023-09-29T08:26:10.243Z</time>
      </trkpt>
      <trkpt lat="46.0394" lon="4.06427">
        <ele>332.864078</ele>
        <time>2023-09-29T08:26:13.195Z</time>
      </trkpt>
      <trkpt lat="46.03939" lon="4.06443">
        <ele>332.864078</ele>
        <time>2023-09-29T08:26:16.225Z</time>
      </trkpt>
      <trkpt lat="46.03938" lon="4.06464">
        <ele>332.864078</ele>
        <time>2023-09-29T08:28:01.228Z</time>
      </trkpt>
      <trkpt lat="46.03937" lon="4.06479">
        <ele>332.856462</ele>
        <time>2023-09-29T08:28:04.216Z</time>
      </trkpt>
      <trkpt lat="46.03937" lon="4.06495">
        <ele>332.840051</ele>
        <time>2023-09-29T08:28:08.222Z</time>
      </trkpt>
      <trkpt lat="46.03936" lon="4.06508">
        <ele>332.826924</ele>
        <time>2023-09-29T08:28:11.210Z</time>
      </trkpt>
      <trkpt lat="46.03936" lon="4.06527">
        <ele>332.808303</ele>
        <time>2023-09-29T08:28:14.206Z</time>
      </trkpt>
      <trkpt lat="46.03934" lon="4.06546">
        <ele>332.790117</ele>
        <time>2023-09-29T08:28:17.209Z</time>
      </trkpt>
      <trkpt lat="46.03934" lon="4.06559">
        <ele>332.777127</ele>
        <time>2023-09-29T08:28:19.227Z</time>
      </trkpt>
      <trkpt lat="46.03934" lon="4.06574">
        <ele>332.761787</ele>
        <time>2023-09-29T08:28:21.219Z</time>
      </trkpt>
      <trkpt lat="46.03935" lon="4.06589">
        <ele>332.747229</ele>
        <time>2023-09-29T08:28:23.185Z</time>
      </trkpt>
      <trkpt lat="46.03934" lon="4.06603">
        <ele>332.733673</ele>
        <time>2023-09-29T08:28:25.206Z</time>
      </trkpt>
      <trkpt lat="46.03934" lon="4.06617">
        <ele>332.719518</ele>
        <time>2023-09-29T08:28:27.202Z</time>
      </trkpt>
      <trkpt lat="46.03933" lon="4.0663">
        <ele>332.706587</ele>
        <time>2023-09-29T08:28:29.226Z</time>
      </trkpt>
      <trkpt lat="46.03932" lon="4.06643">
        <ele>332.693586</ele>
        <time>2023-09-29T08:28:31.210Z</time>
      </trkpt>
      <trkpt lat="46.03932" lon="4.0666">
        <ele>332.676972</ele>
        <time>2023-09-29T08:28:34.193Z</time>
      </trkpt>
      <trkpt lat="46.03931" lon="4.06674">
        <ele>332.66242</ele>
        <time>2023-09-29T08:28:38.226Z</time>
      </trkpt>
      <trkpt lat="46.03933" lon="4.067">
        <ele>332.636951</ele>
        <time>2023-09-29T08:28:59.205Z</time>
      </trkpt>
      <trkpt lat="46.03933" lon="4.06714">
        <ele>332.622614</ele>
        <time>2023-09-29T08:29:02.228Z</time>
      </trkpt>
      <trkpt lat="46.03934" lon="4.06732">
        <ele>332.617898</ele>
        <time>2023-09-29T08:29:05.219Z</time>
      </trkpt>
      <trkpt lat="46.03933" lon="4.06751">
        <ele>332.681571</ele>
        <time>2023-09-29T08:29:08.219Z</time>
      </trkpt>
      <trkpt lat="46.0393" lon="4.0677">
        <ele>332.746665</ele>
        <time>2023-09-29T08:29:11.199Z</time>
      </trkpt>
      <trkpt lat="46.03923" lon="4.06785">
        <ele>332.809189</ele>
        <time>2023-09-29T08:29:14.199Z</time>
      </trkpt>
      <trkpt lat="46.03926" lon="4.06802">
        <ele>332.869039</ele>
        <time>2023-09-29T08:29:17.217Z</time>
      </trkpt>
      <trkpt lat="46.03932" lon="4.06813">
        <ele>332.914576</ele>
        <time>2023-09-29T08:29:19.258Z</time>
      </trkpt>
      <trkpt lat="46.03935" lon="4.06826">
        <ele>332.960405</ele>
        <time>2023-09-29T08:29:21.217Z</time>
      </trkpt>
      <trkpt lat="46.03935" lon="4.06841">
        <ele>333.010589</ele>
        <time>2023-09-29T08:29:23.247Z</time>
      </trkpt>
      <trkpt lat="46.03934" lon="4.06855">
        <ele>333.059905</ele>
        <time>2023-09-29T08:29:25.209Z</time>
      </trkpt>
      <trkpt lat="46.03933" lon="4.06871">
        <ele>333.11142</ele>
        <time>2023-09-29T08:29:27.194Z</time>
      </trkpt>
      <trkpt lat="46.03932" lon="4.06887">
        <ele>333.166281</ele>
        <time>2023-09-29T08:29:29.218Z</time>
      </trkpt>
      <trkpt lat="46.03931" lon="4.06901">
        <ele>333.214891</ele>
        <time>2023-09-29T08:29:31.219Z</time>
      </trkpt>
      <trkpt lat="46.03931" lon="4.06916">
        <ele>333.263442</ele>
        <time>2023-09-29T08:29:33.224Z</time>
      </trkpt>
      <trkpt lat="46.0393" lon="4.0693">
        <ele>333.310648</ele>
        <time>2023-09-29T08:29:35.229Z</time>
      </trkpt>
      <trkpt lat="46.0393" lon="4.06943">
        <ele>333.354427</ele>
        <time>2023-09-29T08:29:37.186Z</time>
      </trkpt>
      <trkpt lat="46.03931" lon="4.06956">
        <ele>333.401202</ele>
        <time>2023-09-29T08:29:41.217Z</time>
      </trkpt>
      <trkpt lat="46.03931" lon="4.06975">
        <ele>333.465536</ele>
        <time>2023-09-29T08:30:15.209Z</time>
      </trkpt>
      <trkpt lat="46.03931" lon="4.06991">
        <ele>333.449533</ele>
        <time>2023-09-29T08:30:18.203Z</time>
      </trkpt>
      <trkpt lat="46.03932" lon="4.0701">
        <ele>333.396747</ele>
        <time>2023-09-29T08:30:21.212Z</time>
      </trkpt>
      <trkpt lat="46.03933" lon="4.07029">
        <ele>333.345741</ele>
        <time>2023-09-29T08:30:24.212Z</time>
      </trkpt>
      <trkpt lat="46.03933" lon="4.07046">
        <ele>333.297757</ele>
        <time>2023-09-29T08:30:27.210Z</time>
      </trkpt>
      <trkpt lat="46.03935" lon="4.07061">
        <ele>333.255806</ele>
        <time>2023-09-29T08:30:29.219Z</time>
      </trkpt>
      <trkpt lat="46.03936" lon="4.07075">
        <ele>333.218625</ele>
        <time>2023-09-29T08:30:31.222Z</time>
      </trkpt>
      <trkpt lat="46.03934" lon="4.07089">
        <ele>333.180988</ele>
        <time>2023-09-29T08:30:33.197Z</time>
      </trkpt>
      <trkpt lat="46.03934" lon="4.07108">
        <ele>333.128023</ele>
        <time>2023-09-29T08:30:36.205Z</time>
      </trkpt>
      <trkpt lat="46.03931" lon="4.07126">
        <ele>333.076381</ele>
        <time>2023-09-29T08:30:39.214Z</time>
      </trkpt>
      <trkpt lat="46.03927" lon="4.07144">
        <ele>333.023934</ele>
        <time>2023-09-29T08:30:42.205Z</time>
      </trkpt>
      <trkpt lat="46.03921" lon="4.07161">
        <ele>332.974166</ele>
        <time>2023-09-29T08:30:45.219Z</time>
      </trkpt>
      <trkpt lat="46.03922" lon="4.07174">
        <ele>332.937021</ele>
        <time>2023-09-29T08:30:47.221Z</time>
      </trkpt>
      <trkpt lat="46.0393" lon="4.0719">
        <ele>332.884268</ele>
        <time>2023-09-29T08:30:50.209Z</time>
      </trkpt>
      <trkpt lat="46.03936" lon="4.072">
        <ele>332.848238</ele>
        <time>2023-09-29T08:30:52.216Z</time>
      </trkpt>
      <trkpt lat="46.03944" lon="4.07214">
        <ele>332.797751</ele>
        <time>2023-09-29T08:30:55.207Z</time>
      </trkpt>
      <trkpt lat="46.03954" lon="4.07223">
        <ele>332.682724</ele>
        <time>2023-09-29T08:30:58.205Z</time>
      </trkpt>
      <trkpt lat="46.03966" lon="4.07228">
        <ele>332.463387</ele>
        <time>2023-09-29T08:31:01.210Z</time>
      </trkpt>
      <trkpt lat="46.03976" lon="4.07234">
        <ele>332.262675</ele>
        <time>2023-09-29T08:31:04.208Z</time>
      </trkpt>
      <trkpt lat="46.03986" lon="4.07244">
        <ele>332.037079</ele>
        <time>2023-09-29T08:31:07.211Z</time>
      </trkpt>
      <trkpt lat="46.03993" lon="4.07261">
        <ele>331.792586</ele>
        <time>2023-09-29T08:31:10.213Z</time>
      </trkpt>
      <trkpt lat="46.03996" lon="4.07278">
        <ele>331.566323</ele>
        <time>2023-09-29T08:31:13.192Z</time>
      </trkpt>
      <trkpt lat="46.04004" lon="4.0729">
        <ele>331.353205</ele>
        <time>2023-09-29T08:31:16.208Z</time>
      </trkpt>
      <trkpt lat="46.04012" lon="4.07305">
        <ele>331.112235</ele>
        <time>2023-09-29T08:31:19.206Z</time>
      </trkpt>
      <trkpt lat="46.04015" lon="4.07317">
        <ele>330.941956</ele>
        <time>2023-09-29T08:31:21.206Z</time>
      </trkpt>
      <trkpt lat="46.0402" lon="4.0733">
        <ele>330.758133</ele>
        <time>2023-09-29T08:31:23.237Z</time>
      </trkpt>
      <trkpt lat="46.04026" lon="4.07342">
        <ele>330.563195</ele>
        <time>2023-09-29T08:31:25.297Z</time>
      </trkpt>
      <trkpt lat="46.04032" lon="4.07356">
        <ele>330.360763</ele>
        <time>2023-09-29T08:31:27.222Z</time>
      </trkpt>
      <trkpt lat="46.04038" lon="4.0737">
        <ele>330.156133</ele>
        <time>2023-09-29T08:31:29.196Z</time>
      </trkpt>
      <trkpt lat="46.04042" lon="4.07385">
        <ele>329.945582</ele>
        <time>2023-09-29T08:31:31.208Z</time>
      </trkpt>
      <trkpt lat="46.04045" lon="4.074">
        <ele>329.742273</ele>
        <time>2023-09-29T08:31:33.228Z</time>
      </trkpt>
      <trkpt lat="46.04048" lon="4.07413">
        <ele>329.568966</ele>
        <time>2023-09-29T08:31:35.194Z</time>
      </trkpt>
      <trkpt lat="46.04051" lon="4.07426">
        <ele>329.417021</ele>
        <time>2023-09-29T08:31:38.215Z</time>
      </trkpt>
      <trkpt lat="46.04054" lon="4.07441">
        <ele>329.272014</ele>
        <time>2023-09-29T08:31:42.219Z</time>
      </trkpt>
      <trkpt lat="46.04058" lon="4.07453">
        <ele>329.152605</ele>
        <time>2023-09-29T08:31:45.202Z</time>
      </trkpt>
      <trkpt lat="46.0406" lon="4.07467">
        <ele>329.019953</ele>
        <time>2023-09-29T08:31:48.194Z</time>
      </trkpt>
      <trkpt lat="46.04065" lon="4.07482">
        <ele>328.871627</ele>
        <time>2023-09-29T08:31:51.219Z</time>
      </trkpt>
      <trkpt lat="46.04068" lon="4.07499">
        <ele>328.711019</ele>
        <time>2023-09-29T08:31:54.213Z</time>
      </trkpt>
      <trkpt lat="46.04069" lon="4.07516">
        <ele>328.552446</ele>
        <time>2023-09-29T08:31:57.191Z</time>
      </trkpt>
      <trkpt lat="46.04065" lon="4.07531">
        <ele>328.410329</ele>
        <time>2023-09-29T08:32:00.204Z</time>
      </trkpt>
      <trkpt lat="46.04061" lon="4.07543">
        <ele>328.282584</ele>
        <time>2023-09-29T08:32:03.195Z</time>
      </trkpt>
      <trkpt lat="46.04059" lon="4.07557">
        <ele>328.152094</ele>
        <time>2023-09-29T08:32:08.206Z</time>
      </trkpt>
      <trkpt lat="46.04057" lon="4.07573">
        <ele>328.000736</ele>
        <time>2023-09-29T08:32:27.210Z</time>
      </trkpt>
      <trkpt lat="46.04055" lon="4.07588">
        <ele>327.864998</ele>
        <time>2023-09-29T08:32:30.217Z</time>
      </trkpt>
      <trkpt lat="46.04053" lon="4.07603">
        <ele>327.719528</ele>
        <time>2023-09-29T08:32:32.211Z</time>
      </trkpt>
      <trkpt lat="46.04056" lon="4.07616">
        <ele>327.592562</ele>
        <time>2023-09-29T08:32:34.209Z</time>
      </trkpt>
      <trkpt lat="46.04061" lon="4.07627">
        <ele>327.470669</ele>
        <time>2023-09-29T08:32:36.235Z</time>
      </trkpt>
      <trkpt lat="46.04068" lon="4.07641">
        <ele>327.314093</ele>
        <time>2023-09-29T08:32:39.228Z</time>
      </trkpt>
      <trkpt lat="46.04074" lon="4.07652">
        <ele>327.178783</ele>
        <time>2023-09-29T08:32:42.208Z</time>
      </trkpt>
      <trkpt lat="46.04082" lon="4.07663">
        <ele>326.997764</ele>
        <time>2023-09-29T08:32:45.218Z</time>
      </trkpt>
      <trkpt lat="46.04089" lon="4.07677">
        <ele>326.723908</ele>
        <time>2023-09-29T08:32:48.225Z</time>
      </trkpt>
      <trkpt lat="46.04096" lon="4.0769">
        <ele>326.44546</ele>
        <time>2023-09-29T08:32:51.225Z</time>
      </trkpt>
      <trkpt lat="46.04103" lon="4.07705">
        <ele>326.152901</ele>
        <time>2023-09-29T08:32:54.234Z</time>
      </trkpt>
      <trkpt lat="46.04111" lon="4.07719">
        <ele>325.855707</ele>
        <time>2023-09-29T08:32:57.223Z</time>
      </trkpt>
      <trkpt lat="46.04116" lon="4.07731">
        <ele>325.631047</ele>
        <time>2023-09-29T08:32:59.288Z</time>
      </trkpt>
      <trkpt lat="46.04122" lon="4.07742">
        <ele>325.398508</ele>
        <time>2023-09-29T08:33:01.201Z</time>
      </trkpt>
      <trkpt lat="46.04129" lon="4.07754">
        <ele>325.146606</ele>
        <time>2023-09-29T08:33:03.218Z</time>
      </trkpt>
      <trkpt lat="46.04135" lon="4.07768">
        <ele>324.890031</ele>
        <time>2023-09-29T08:33:05.219Z</time>
      </trkpt>
      <trkpt lat="46.04141" lon="4.07782">
        <ele>324.626305</ele>
        <time>2023-09-29T08:33:07.215Z</time>
      </trkpt>
      <trkpt lat="46.04141" lon="4.07799">
        <ele>324.341492</ele>
        <time>2023-09-29T08:33:09.188Z</time>
      </trkpt>
      <trkpt lat="46.04133" lon="4.07817">
        <ele>323.984732</ele>
        <time>2023-09-29T08:33:11.201Z</time>
      </trkpt>
      <trkpt lat="46.04123" lon="4.07834">
        <ele>323.61902</ele>
        <time>2023-09-29T08:33:13.233Z</time>
      </trkpt>
      <trkpt lat="46.04112" lon="4.07851">
        <ele>323.244652</ele>
        <time>2023-09-29T08:33:15.195Z</time>
      </trkpt>
      <trkpt lat="46.04102" lon="4.07868">
        <ele>322.88256</ele>
        <time>2023-09-29T08:33:17.205Z</time>
      </trkpt>
      <trkpt lat="46.04091" lon="4.07884">
        <ele>322.780126</ele>
        <time>2023-09-29T08:33:19.215Z</time>
      </trkpt>
      <trkpt lat="46.04081" lon="4.07899">
        <ele>322.691172</ele>
        <time>2023-09-29T08:33:21.184Z</time>
      </trkpt>
      <trkpt lat="46.04071" lon="4.07915">
        <ele>322.60062</ele>
        <time>2023-09-29T08:33:23.212Z</time>
      </trkpt>
      <trkpt lat="46.04062" lon="4.0793">
        <ele>322.513188</ele>
        <time>2023-09-29T08:33:25.212Z</time>
      </trkpt>
      <trkpt lat="46.04053" lon="4.07945">
        <ele>322.426937</ele>
        <time>2023-09-29T08:33:27.209Z</time>
      </trkpt>
      <trkpt lat="46.04045" lon="4.07959">
        <ele>322.348406</ele>
        <time>2023-09-29T08:33:29.229Z</time>
      </trkpt>
      <trkpt lat="46.04036" lon="4.07973">
        <ele>322.270681</ele>
        <time>2023-09-29T08:33:31.213Z</time>
      </trkpt>
      <trkpt lat="46.0403" lon="4.07983">
        <ele>322.210174</ele>
        <time>2023-09-29T08:33:33.219Z</time>
      </trkpt>
      <trkpt lat="46.04021" lon="4.07994">
        <ele>322.139768</ele>
        <time>2023-09-29T08:33:36.216Z</time>
      </trkpt>
      <trkpt lat="46.04013" lon="4.08007">
        <ele>322.064638</ele>
        <time>2023-09-29T08:34:06.219Z</time>
      </trkpt>
      <trkpt lat="46.04007" lon="4.08018">
        <ele>322.003153</ele>
        <time>2023-09-29T08:34:09.215Z</time>
      </trkpt>
      <trkpt lat="46.04001" lon="4.08033">
        <ele>321.926439</ele>
        <time>2023-09-29T08:34:12.206Z</time>
      </trkpt>
      <trkpt lat="46.03994" lon="4.08049">
        <ele>321.848272</ele>
        <time>2023-09-29T08:34:15.221Z</time>
      </trkpt>
      <trkpt lat="46.03988" lon="4.08059">
        <ele>321.789977</ele>
        <time>2023-09-29T08:34:17.208Z</time>
      </trkpt>
      <trkpt lat="46.03981" lon="4.08069">
        <ele>321.722014</ele>
        <time>2023-09-29T08:34:19.181Z</time>
      </trkpt>
      <trkpt lat="46.03974" lon="4.08079">
        <ele>321.635597</ele>
        <time>2023-09-29T08:34:21.208Z</time>
      </trkpt>
      <trkpt lat="46.03968" lon="4.0809">
        <ele>321.553377</ele>
        <time>2023-09-29T08:34:23.209Z</time>
      </trkpt>
      <trkpt lat="46.03961" lon="4.081">
        <ele>321.471571</ele>
        <time>2023-09-29T08:34:25.230Z</time>
      </trkpt>
      <trkpt lat="46.03954" lon="4.08111">
        <ele>321.385575</ele>
        <time>2023-09-29T08:34:27.209Z</time>
      </trkpt>
      <trkpt lat="46.03948" lon="4.08121">
        <ele>321.304476</ele>
        <time>2023-09-29T08:34:29.219Z</time>
      </trkpt>
      <trkpt lat="46.03942" lon="4.08132">
        <ele>321.220434</ele>
        <time>2023-09-29T08:34:31.225Z</time>
      </trkpt>
      <trkpt lat="46.03936" lon="4.08143">
        <ele>321.138415</ele>
        <time>2023-09-29T08:34:33.209Z</time>
      </trkpt>
      <trkpt lat="46.03929" lon="4.08154">
        <ele>321.053666</ele>
        <time>2023-09-29T08:34:35.236Z</time>
      </trkpt>
      <trkpt lat="46.03923" lon="4.08166">
        <ele>320.968105</ele>
        <time>2023-09-29T08:34:37.213Z</time>
      </trkpt>
      <trkpt lat="46.03917" lon="4.08176">
        <ele>320.888674</ele>
        <time>2023-09-29T08:34:39.208Z</time>
      </trkpt>
      <trkpt lat="46.0391" lon="4.08185">
        <ele>320.809516</ele>
        <time>2023-09-29T08:34:41.227Z</time>
      </trkpt>
      <trkpt lat="46.03903" lon="4.08195">
        <ele>320.723939</ele>
        <time>2023-09-29T08:34:44.213Z</time>
      </trkpt>
      <trkpt lat="46.03906" lon="4.0821">
        <ele>320.631652</ele>
        <time>2023-09-29T08:34:48.214Z</time>
      </trkpt>
      <trkpt lat="46.03918" lon="4.08219">
        <ele>320.524111</ele>
        <time>2023-09-29T08:34:51.200Z</time>
      </trkpt>
      <trkpt lat="46.03926" lon="4.08225">
        <ele>320.446645</ele>
        <time>2023-09-29T08:34:53.214Z</time>
      </trkpt>
      <trkpt lat="46.03937" lon="4.08234">
        <ele>320.333425</ele>
        <time>2023-09-29T08:34:56.209Z</time>
      </trkpt>
      <trkpt lat="46.0395" lon="4.08243">
        <ele>320.262077</ele>
        <time>2023-09-29T08:34:59.234Z</time>
      </trkpt>
      <trkpt lat="46.03958" lon="4.0825">
        <ele>320.337266</ele>
        <time>2023-09-29T08:35:01.214Z</time>
      </trkpt>
      <trkpt lat="46.03966" lon="4.08255">
        <ele>320.413451</ele>
        <time>2023-09-29T08:35:03.210Z</time>
      </trkpt>
      <trkpt lat="46.03975" lon="4.08262">
        <ele>320.497004</ele>
        <time>2023-09-29T08:35:05.214Z</time>
      </trkpt>
      <trkpt lat="46.03983" lon="4.08269">
        <ele>320.574716</ele>
        <time>2023-09-29T08:35:07.200Z</time>
      </trkpt>
      <trkpt lat="46.03992" lon="4.08275">
        <ele>320.658451</ele>
        <time>2023-09-29T08:35:09.212Z</time>
      </trkpt>
      <trkpt lat="46.04" lon="4.08282">
        <ele>320.73911</ele>
        <time>2023-09-29T08:35:11.221Z</time>
      </trkpt>
      <trkpt lat="46.04009" lon="4.08289">
        <ele>320.819769</ele>
        <time>2023-09-29T08:35:13.209Z</time>
      </trkpt>
      <trkpt lat="46.04018" lon="4.08297">
        <ele>320.904895</ele>
        <time>2023-09-29T08:35:15.221Z</time>
      </trkpt>
      <trkpt lat="46.04026" lon="4.08304">
        <ele>320.985557</ele>
        <time>2023-09-29T08:35:17.206Z</time>
      </trkpt>
      <trkpt lat="46.04032" lon="4.08315">
        <ele>321.06705</ele>
        <time>2023-09-29T08:35:19.215Z</time>
      </trkpt>
      <trkpt lat="46.04037" lon="4.08327">
        <ele>321.148793</ele>
        <time>2023-09-29T08:35:21.235Z</time>
      </trkpt>
      <trkpt lat="46.0404" lon="4.08341">
        <ele>321.228293</ele>
        <time>2023-09-29T08:35:23.200Z</time>
      </trkpt>
      <trkpt lat="46.04041" lon="4.08354">
        <ele>321.307879</ele>
        <time>2023-09-29T08:35:25.227Z</time>
      </trkpt>
      <trkpt lat="46.04043" lon="4.08367">
        <ele>321.383782</ele>
        <time>2023-09-29T08:35:27.240Z</time>
      </trkpt>
      <trkpt lat="46.04048" lon="4.08382">
        <ele>321.483857</ele>
        <time>2023-09-29T08:35:30.207Z</time>
      </trkpt>
      <trkpt lat="46.04056" lon="4.08392">
        <ele>321.568581</ele>
        <time>2023-09-29T08:35:33.209Z</time>
      </trkpt>
      <trkpt lat="46.04065" lon="4.084">
        <ele>321.653225</ele>
        <time>2023-09-29T08:35:36.197Z</time>
      </trkpt>
      <trkpt lat="46.04073" lon="4.08407">
        <ele>321.732305</ele>
        <time>2023-09-29T08:35:39.225Z</time>
      </trkpt>
      <trkpt lat="46.04076" lon="4.0842">
        <ele>321.78657</ele>
        <time>2023-09-29T08:35:43.192Z</time>
      </trkpt>
      <trkpt lat="46.04071" lon="4.08434">
        <ele>321.847994</ele>
        <time>2023-09-29T08:35:47.219Z</time>
      </trkpt>
      <trkpt lat="46.04072" lon="4.08449">
        <ele>321.906132</ele>
        <time>2023-09-29T08:35:50.204Z</time>
      </trkpt>
      <trkpt lat="46.04076" lon="4.08462">
        <ele>321.95884</ele>
        <time>2023-09-29T08:35:54.196Z</time>
      </trkpt>
      <trkpt lat="46.04085" lon="4.08469">
        <ele>322.017789</ele>
        <time>2023-09-29T08:35:58.211Z</time>
      </trkpt>
      <trkpt lat="46.04094" lon="4.0848">
        <ele>322.082084</ele>
        <time>2023-09-29T08:36:02.196Z</time>
      </trkpt>
      <trkpt lat="46.04105" lon="4.08489">
        <ele>322.150856</ele>
        <time>2023-09-29T08:36:05.203Z</time>
      </trkpt>
      <trkpt lat="46.04117" lon="4.08498">
        <ele>322.223013</ele>
        <time>2023-09-29T08:36:08.215Z</time>
      </trkpt>
      <trkpt lat="46.04125" lon="4.08504">
        <ele>322.272799</ele>
        <time>2023-09-29T08:36:10.220Z</time>
      </trkpt>
      <trkpt lat="46.04133" lon="4.0851">
        <ele>322.322782</ele>
        <time>2023-09-29T08:36:12.217Z</time>
      </trkpt>
      <trkpt lat="46.04141" lon="4.08517">
        <ele>322.375884</ele>
        <time>2023-09-29T08:36:14.217Z</time>
      </trkpt>
      <trkpt lat="46.0415" lon="4.08523">
        <ele>322.429139</ele>
        <time>2023-09-29T08:36:16.221Z</time>
      </trkpt>
      <trkpt lat="46.04159" lon="4.08529">
        <ele>322.481237</ele>
        <time>2023-09-29T08:36:18.219Z</time>
      </trkpt>
      <trkpt lat="46.04167" lon="4.08536">
        <ele>322.533772</ele>
        <time>2023-09-29T08:36:20.205Z</time>
      </trkpt>
      <trkpt lat="46.04175" lon="4.08543">
        <ele>322.58518</ele>
        <time>2023-09-29T08:36:22.207Z</time>
      </trkpt>
      <trkpt lat="46.04183" lon="4.08549">
        <ele>322.63811</ele>
        <time>2023-09-29T08:36:24.233Z</time>
      </trkpt>
      <trkpt lat="46.04192" lon="4.08555">
        <ele>322.688079</ele>
        <time>2023-09-29T08:36:26.222Z</time>
      </trkpt>
      <trkpt lat="46.04199" lon="4.08561">
        <ele>322.729072</ele>
        <time>2023-09-29T08:36:28.221Z</time>
      </trkpt>
      <trkpt lat="46.0421" lon="4.08569">
        <ele>322.75337</ele>
        <time>2023-09-29T08:36:31.222Z</time>
      </trkpt>
      <trkpt lat="46.0422" lon="4.08577">
        <ele>322.776939</ele>
        <time>2023-09-29T08:36:34.203Z</time>
      </trkpt>
      <trkpt lat="46.0423" lon="4.08585">
        <ele>322.79863</ele>
        <time>2023-09-29T08:36:37.228Z</time>
      </trkpt>
      <trkpt lat="46.04241" lon="4.08592">
        <ele>322.824042</ele>
        <time>2023-09-29T08:36:40.220Z</time>
      </trkpt>
      <trkpt lat="46.04252" lon="4.08601">
        <ele>322.84907</ele>
        <time>2023-09-29T08:36:43.213Z</time>
      </trkpt>
      <trkpt lat="46.04264" lon="4.08611">
        <ele>322.876079</ele>
        <time>2023-09-29T08:36:46.218Z</time>
      </trkpt>
      <trkpt lat="46.04275" lon="4.0862">
        <ele>322.901666</ele>
        <time>2023-09-29T08:36:49.205Z</time>
      </trkpt>
      <trkpt lat="46.04287" lon="4.08629">
        <ele>322.92871</ele>
        <time>2023-09-29T08:36:52.210Z</time>
      </trkpt>
      <trkpt lat="46.04295" lon="4.08636">
        <ele>322.948447</ele>
        <time>2023-09-29T08:36:54.214Z</time>
      </trkpt>
      <trkpt lat="46.04304" lon="4.08642">
        <ele>322.968122</ele>
        <time>2023-09-29T08:36:56.207Z</time>
      </trkpt>
      <trkpt lat="46.04312" lon="4.08648">
        <ele>322.986787</ele>
        <time>2023-09-29T08:36:58.230Z</time>
      </trkpt>
      <trkpt lat="46.04323" lon="4.08656">
        <ele>323.011372</ele>
        <time>2023-09-29T08:37:01.205Z</time>
      </trkpt>
      <trkpt lat="46.04337" lon="4.08667">
        <ele>323.043334</ele>
        <time>2023-09-29T08:37:24.208Z</time>
      </trkpt>
      <trkpt lat="46.04348" lon="4.08675">
        <ele>323.067499</ele>
        <time>2023-09-29T08:37:28.203Z</time>
      </trkpt>
      <trkpt lat="46.04358" lon="4.08684">
        <ele>323.068194</ele>
        <time>2023-09-29T08:37:31.216Z</time>
      </trkpt>
      <trkpt lat="46.04369" lon="4.08693">
        <ele>322.989379</ele>
        <time>2023-09-29T08:37:34.211Z</time>
      </trkpt>
      <trkpt lat="46.04378" lon="4.08702">
        <ele>322.9163</ele>
        <time>2023-09-29T08:37:37.206Z</time>
      </trkpt>
      <trkpt lat="46.0438" lon="4.08715">
        <ele>322.858478</ele>
        <time>2023-09-29T08:37:40.189Z</time>
      </trkpt>
      <trkpt lat="46.04385" lon="4.08727">
        <ele>322.797681</ele>
        <time>2023-09-29T08:37:44.213Z</time>
      </trkpt>
      <trkpt lat="46.04394" lon="4.08738">
        <ele>322.722274</ele>
        <time>2023-09-29T08:37:48.200Z</time>
      </trkpt>
      <trkpt lat="46.04402" lon="4.08748">
        <ele>322.654967</ele>
        <time>2023-09-29T08:37:51.219Z</time>
      </trkpt>
      <trkpt lat="46.04412" lon="4.08758">
        <ele>322.578847</ele>
        <time>2023-09-29T08:37:54.200Z</time>
      </trkpt>
      <trkpt lat="46.04421" lon="4.0877">
        <ele>322.500563</ele>
        <time>2023-09-29T08:37:57.215Z</time>
      </trkpt>
      <trkpt lat="46.04432" lon="4.08782">
        <ele>322.415132</ele>
        <time>2023-09-29T08:38:00.209Z</time>
      </trkpt>
      <trkpt lat="46.04439" lon="4.0879">
        <ele>322.357979</ele>
        <time>2023-09-29T08:38:02.220Z</time>
      </trkpt>
      <trkpt lat="46.04447" lon="4.08796">
        <ele>322.298716</ele>
        <time>2023-09-29T08:38:04.214Z</time>
      </trkpt>
      <trkpt lat="46.04456" lon="4.08802">
        <ele>322.23696</ele>
        <time>2023-09-29T08:38:06.208Z</time>
      </trkpt>
      <trkpt lat="46.04465" lon="4.08807">
        <ele>322.175203</ele>
        <time>2023-09-29T08:38:08.222Z</time>
      </trkpt>
      <trkpt lat="46.04476" lon="4.08812">
        <ele>322.107943</ele>
        <time>2023-09-29T08:38:10.214Z</time>
      </trkpt>
      <trkpt lat="46.04486" lon="4.08816">
        <ele>322.037651</ele>
        <time>2023-09-29T08:38:12.204Z</time>
      </trkpt>
      <trkpt lat="46.04496" lon="4.08822">
        <ele>321.970034</ele>
        <time>2023-09-29T08:38:14.212Z</time>
      </trkpt>
      <trkpt lat="46.04506" lon="4.08828">
        <ele>321.88499</ele>
        <time>2023-09-29T08:38:16.215Z</time>
      </trkpt>
      <trkpt lat="46.04515" lon="4.08834">
        <ele>321.789814</ele>
        <time>2023-09-29T08:38:18.210Z</time>
      </trkpt>
      <trkpt lat="46.04524" lon="4.0884">
        <ele>321.700624</ele>
        <time>2023-09-29T08:38:20.204Z</time>
      </trkpt>
      <trkpt lat="46.04533" lon="4.08848">
        <ele>321.610209</ele>
        <time>2023-09-29T08:38:22.220Z</time>
      </trkpt>
      <trkpt lat="46.04542" lon="4.08855">
        <ele>321.516928</ele>
        <time>2023-09-29T08:38:24.240Z</time>
      </trkpt>
      <trkpt lat="46.0455" lon="4.08862">
        <ele>321.425283</ele>
        <time>2023-09-29T08:38:26.214Z</time>
      </trkpt>
      <trkpt lat="46.04559" lon="4.08869">
        <ele>321.335683</ele>
        <time>2023-09-29T08:38:28.194Z</time>
      </trkpt>
      <trkpt lat="46.04568" lon="4.08876">
        <ele>321.248684</ele>
        <time>2023-09-29T08:38:30.215Z</time>
      </trkpt>
      <trkpt lat="46.04575" lon="4.08882">
        <ele>321.164883</ele>
        <time>2023-09-29T08:38:32.206Z</time>
      </trkpt>
      <trkpt lat="46.04583" lon="4.0889">
        <ele>321.080087</ele>
        <time>2023-09-29T08:38:34.235Z</time>
      </trkpt>
      <trkpt lat="46.04592" lon="4.08897">
        <ele>320.993628</ele>
        <time>2023-09-29T08:38:36.216Z</time>
      </trkpt>
      <trkpt lat="46.04599" lon="4.08905">
        <ele>320.908617</ele>
        <time>2023-09-29T08:38:38.212Z</time>
      </trkpt>
      <trkpt lat="46.0461" lon="4.08916">
        <ele>320.790119</ele>
        <time>2023-09-29T08:38:41.207Z</time>
      </trkpt>
      <trkpt lat="46.04617" lon="4.08923">
        <ele>320.705453</ele>
        <time>2023-09-29T08:38:43.216Z</time>
      </trkpt>
      <trkpt lat="46.04626" lon="4.0893">
        <ele>320.619759</ele>
        <time>2023-09-29T08:38:45.196Z</time>
      </trkpt>
      <trkpt lat="46.04634" lon="4.08935">
        <ele>320.536476</ele>
        <time>2023-09-29T08:38:47.198Z</time>
      </trkpt>
      <trkpt lat="46.04644" lon="4.08942">
        <ele>320.440492</ele>
        <time>2023-09-29T08:38:49.189Z</time>
      </trkpt>
      <trkpt lat="46.04654" lon="4.08947">
        <ele>320.3432</ele>
        <time>2023-09-29T08:38:51.210Z</time>
      </trkpt>
      <trkpt lat="46.04665" lon="4.08954">
        <ele>320.401188</ele>
        <time>2023-09-29T08:38:53.202Z</time>
      </trkpt>
      <trkpt lat="46.04674" lon="4.08964">
        <ele>320.508443</ele>
        <time>2023-09-29T08:38:55.192Z</time>
      </trkpt>
      <trkpt lat="46.0468" lon="4.08978">
        <ele>320.61673</ele>
        <time>2023-09-29T08:38:57.209Z</time>
      </trkpt>
      <trkpt lat="46.04688" lon="4.08992">
        <ele>320.731252</ele>
        <time>2023-09-29T08:38:59.218Z</time>
      </trkpt>
      <trkpt lat="46.04695" lon="4.09002">
        <ele>320.823405</ele>
        <time>2023-09-29T08:39:01.195Z</time>
      </trkpt>
      <trkpt lat="46.04702" lon="4.09012">
        <ele>320.912425</ele>
        <time>2023-09-29T08:39:03.227Z</time>
      </trkpt>
      <trkpt lat="46.0471" lon="4.09027">
        <ele>321.033318</ele>
        <time>2023-09-29T08:39:06.204Z</time>
      </trkpt>
      <trkpt lat="46.04716" lon="4.0904">
        <ele>321.136811</ele>
        <time>2023-09-29T08:39:09.229Z</time>
      </trkpt>
      <trkpt lat="46.04722" lon="4.09056">
        <ele>321.248153</ele>
        <time>2023-09-29T08:39:12.208Z</time>
      </trkpt>
      <trkpt lat="46.04728" lon="4.09069">
        <ele>321.354264</ele>
        <time>2023-09-29T08:39:15.220Z</time>
      </trkpt>
      <trkpt lat="46.04734" lon="4.09084">
        <ele>321.460706</ele>
        <time>2023-09-29T08:39:18.208Z</time>
      </trkpt>
      <trkpt lat="46.0474" lon="4.09099">
        <ele>321.573974</ele>
        <time>2023-09-29T08:39:21.211Z</time>
      </trkpt>
      <trkpt lat="46.04746" lon="4.09114">
        <ele>321.682432</ele>
        <time>2023-09-29T08:39:24.212Z</time>
      </trkpt>
      <trkpt lat="46.0475" lon="4.09128">
        <ele>321.779816</ele>
        <time>2023-09-29T08:39:27.212Z</time>
      </trkpt>
      <trkpt lat="46.04754" lon="4.09141">
        <ele>321.872272</ele>
        <time>2023-09-29T08:39:29.212Z</time>
      </trkpt>
      <trkpt lat="46.04758" lon="4.09153">
        <ele>321.957181</ele>
        <time>2023-09-29T08:39:31.215Z</time>
      </trkpt>
      <trkpt lat="46.04763" lon="4.0917">
        <ele>321.923914</ele>
        <time>2023-09-29T08:39:34.223Z</time>
      </trkpt>
      <trkpt lat="46.04767" lon="4.09187">
        <ele>321.862979</ele>
        <time>2023-09-29T08:39:37.213Z</time>
      </trkpt>
      <trkpt lat="46.0477" lon="4.09205">
        <ele>321.799669</ele>
        <time>2023-09-29T08:39:40.213Z</time>
      </trkpt>
      <trkpt lat="46.04775" lon="4.09223">
        <ele>321.737335</ele>
        <time>2023-09-29T08:39:43.215Z</time>
      </trkpt>
      <trkpt lat="46.04779" lon="4.09241">
        <ele>321.67405</ele>
        <time>2023-09-29T08:39:46.216Z</time>
      </trkpt>
      <trkpt lat="46.04782" lon="4.09253">
        <ele>321.629989</ele>
        <time>2023-09-29T08:39:48.209Z</time>
      </trkpt>
      <trkpt lat="46.04787" lon="4.09271">
        <ele>321.565222</ele>
        <time>2023-09-29T08:39:51.218Z</time>
      </trkpt>
      <trkpt lat="46.04791" lon="4.09289">
        <ele>321.502869</ele>
        <time>2023-09-29T08:39:54.205Z</time>
      </trkpt>
      <trkpt lat="46.04797" lon="4.09306">
        <ele>321.43897</ele>
        <time>2023-09-29T08:39:57.220Z</time>
      </trkpt>
      <trkpt lat="46.04801" lon="4.09324">
        <ele>321.37601</ele>
        <time>2023-09-29T08:40:00.190Z</time>
      </trkpt>
      <trkpt lat="46.04806" lon="4.09342">
        <ele>321.313773</ele>
        <time>2023-09-29T08:40:03.212Z</time>
      </trkpt>
      <trkpt lat="46.0481" lon="4.0936">
        <ele>321.249824</ele>
        <time>2023-09-29T08:40:06.212Z</time>
      </trkpt>
      <trkpt lat="46.04813" lon="4.09372">
        <ele>321.206342</ele>
        <time>2023-09-29T08:40:08.210Z</time>
      </trkpt>
      <trkpt lat="46.04816" lon="4.09385">
        <ele>321.161829</ele>
        <time>2023-09-29T08:40:10.201Z</time>
      </trkpt>
      <trkpt lat="46.04821" lon="4.09402">
        <ele>321.0781</ele>
        <time>2023-09-29T08:40:13.205Z</time>
      </trkpt>
      <trkpt lat="46.04825" lon="4.0942">
        <ele>320.909549</ele>
        <time>2023-09-29T08:40:16.202Z</time>
      </trkpt>
      <trkpt lat="46.04829" lon="4.09438">
        <ele>320.73275</ele>
        <time>2023-09-29T08:40:19.214Z</time>
      </trkpt>
      <trkpt lat="46.04832" lon="4.0945">
        <ele>320.61083</ele>
        <time>2023-09-29T08:40:21.203Z</time>
      </trkpt>
      <trkpt lat="46.04835" lon="4.09463">
        <ele>320.489993</ele>
        <time>2023-09-29T08:40:23.211Z</time>
      </trkpt>
      <trkpt lat="46.04839" lon="4.09475">
        <ele>320.361327</ele>
        <time>2023-09-29T08:40:25.222Z</time>
      </trkpt>
      <trkpt lat="46.04842" lon="4.09489">
        <ele>320.230698</ele>
        <time>2023-09-29T08:40:27.215Z</time>
      </trkpt>
      <trkpt lat="46.04845" lon="4.09502">
        <ele>320.103328</ele>
        <time>2023-09-29T08:40:29.214Z</time>
      </trkpt>
      <trkpt lat="46.04847" lon="4.09515">
        <ele>319.982086</ele>
        <time>2023-09-29T08:40:31.277Z</time>
      </trkpt>
      <trkpt lat="46.0485" lon="4.09528">
        <ele>319.856848</ele>
        <time>2023-09-29T08:40:33.230Z</time>
      </trkpt>
      <trkpt lat="46.04852" lon="4.09541">
        <ele>319.73656</ele>
        <time>2023-09-29T08:40:35.217Z</time>
      </trkpt>
      <trkpt lat="46.04858" lon="4.09558">
        <ele>319.561354</ele>
        <time>2023-09-29T08:40:38.217Z</time>
      </trkpt>
      <trkpt lat="46.04862" lon="4.09573">
        <ele>319.411973</ele>
        <time>2023-09-29T08:40:41.216Z</time>
      </trkpt>
      <trkpt lat="46.04866" lon="4.09584">
        <ele>319.291748</ele>
        <time>2023-09-29T08:40:47.201Z</time>
      </trkpt>
      <trkpt lat="46.04866" lon="4.09585">
        <ele>319.285758</ele>
        <time>2023-09-29T08:40:50.948Z</time>
      </trkpt>
      <trkpt lat="46.04868" lon="4.09599">
        <ele>319.151533</ele>
        <time>2023-09-29T08:41:32.232Z</time>
      </trkpt>
      <trkpt lat="46.04872" lon="4.09613">
        <ele>319.012093</ele>
        <time>2023-09-29T08:41:36.214Z</time>
      </trkpt>
      <trkpt lat="46.04876" lon="4.09626">
        <ele>318.881359</ele>
        <time>2023-09-29T08:41:39.208Z</time>
      </trkpt>
      <trkpt lat="46.0488" lon="4.09641">
        <ele>318.737153</ele>
        <time>2023-09-29T08:41:42.223Z</time>
      </trkpt>
      <trkpt lat="46.04885" lon="4.09657">
        <ele>318.759687</ele>
        <time>2023-09-29T08:41:45.226Z</time>
      </trkpt>
      <trkpt lat="46.0489" lon="4.09673">
        <ele>318.801548</ele>
        <time>2023-09-29T08:41:48.229Z</time>
      </trkpt>
      <trkpt lat="46.04893" lon="4.09689">
        <ele>318.842571</ele>
        <time>2023-09-29T08:41:51.226Z</time>
      </trkpt>
      <trkpt lat="46.04895" lon="4.09702">
        <ele>318.875914</ele>
        <time>2023-09-29T08:41:53.226Z</time>
      </trkpt>
      <trkpt lat="46.04898" lon="4.09716">
        <ele>318.911288</ele>
        <time>2023-09-29T08:41:55.227Z</time>
      </trkpt>
      <trkpt lat="46.049" lon="4.09729">
        <ele>318.945523</ele>
        <time>2023-09-29T08:41:57.233Z</time>
      </trkpt>
      <trkpt lat="46.04903" lon="4.09743">
        <ele>318.980897</ele>
        <time>2023-09-29T08:41:59.212Z</time>
      </trkpt>
      <trkpt lat="46.04907" lon="4.09757">
        <ele>319.017249</ele>
        <time>2023-09-29T08:42:01.213Z</time>
      </trkpt>
      <trkpt lat="46.04912" lon="4.09769">
        <ele>319.052487</ele>
        <time>2023-09-29T08:42:03.197Z</time>
      </trkpt>
      <trkpt lat="46.04916" lon="4.09782">
        <ele>319.087036</ele>
        <time>2023-09-29T08:42:05.207Z</time>
      </trkpt>
      <trkpt lat="46.04921" lon="4.09795">
        <ele>319.124527</ele>
        <time>2023-09-29T08:42:07.216Z</time>
      </trkpt>
      <trkpt lat="46.04925" lon="4.09809">
        <ele>319.160961</ele>
        <time>2023-09-29T08:42:09.222Z</time>
      </trkpt>
      <trkpt lat="46.04929" lon="4.09823">
        <ele>319.198979</ele>
        <time>2023-09-29T08:42:11.228Z</time>
      </trkpt>
      <trkpt lat="46.04934" lon="4.09838">
        <ele>319.237813</ele>
        <time>2023-09-29T08:42:13.229Z</time>
      </trkpt>
      <trkpt lat="46.04938" lon="4.09852">
        <ele>319.276121</ele>
        <time>2023-09-29T08:42:15.219Z</time>
      </trkpt>
      <trkpt lat="46.04943" lon="4.09866">
        <ele>319.31604</ele>
        <time>2023-09-29T08:42:17.215Z</time>
      </trkpt>
      <trkpt lat="46.04949" lon="4.0988">
        <ele>319.355142</ele>
        <time>2023-09-29T08:42:19.219Z</time>
      </trkpt>
      <trkpt lat="46.04956" lon="4.09898">
        <ele>319.442047</ele>
        <time>2023-09-29T08:42:22.223Z</time>
      </trkpt>
      <trkpt lat="46.04961" lon="4.09912">
        <ele>319.507282</ele>
        <time>2023-09-29T08:42:24.217Z</time>
      </trkpt>
      <trkpt lat="46.04966" lon="4.09925">
        <ele>319.570872</ele>
        <time>2023-09-29T08:42:26.211Z</time>
      </trkpt>
      <trkpt lat="46.0497" lon="4.09938">
        <ele>319.635674</ele>
        <time>2023-09-29T08:42:28.215Z</time>
      </trkpt>
      <trkpt lat="46.04975" lon="4.09952">
        <ele>319.70299</ele>
        <time>2023-09-29T08:42:30.212Z</time>
      </trkpt>
      <trkpt lat="46.04979" lon="4.09967">
        <ele>319.769667</ele>
        <time>2023-09-29T08:42:32.192Z</time>
      </trkpt>
      <trkpt lat="46.04984" lon="4.09982">
        <ele>319.839949</ele>
        <time>2023-09-29T08:42:34.206Z</time>
      </trkpt>
      <trkpt lat="46.04988" lon="4.09996">
        <ele>319.906092</ele>
        <time>2023-09-29T08:42:36.215Z</time>
      </trkpt>
      <trkpt lat="46.04993" lon="4.10009">
        <ele>319.972413</ele>
        <time>2023-09-29T08:42:38.208Z</time>
      </trkpt>
      <trkpt lat="46.04999" lon="4.10023">
        <ele>320.039892</ele>
        <time>2023-09-29T08:42:40.203Z</time>
      </trkpt>
      <trkpt lat="46.05004" lon="4.10037">
        <ele>320.107075</ele>
        <time>2023-09-29T08:42:42.214Z</time>
      </trkpt>
      <trkpt lat="46.05008" lon="4.10051">
        <ele>320.174391</ele>
        <time>2023-09-29T08:42:44.226Z</time>
      </trkpt>
      <trkpt lat="46.05012" lon="4.10066">
        <ele>320.239729</ele>
        <time>2023-09-29T08:42:46.214Z</time>
      </trkpt>
      <trkpt lat="46.05016" lon="4.1008">
        <ele>320.304741</ele>
        <time>2023-09-29T08:42:48.212Z</time>
      </trkpt>
      <trkpt lat="46.05022" lon="4.10093">
        <ele>320.373722</ele>
        <time>2023-09-29T08:42:50.214Z</time>
      </trkpt>
      <trkpt lat="46.05027" lon="4.10107">
        <ele>320.438723</ele>
        <time>2023-09-29T08:42:52.220Z</time>
      </trkpt>
      <trkpt lat="46.05031" lon="4.1012">
        <ele>320.428608</ele>
        <time>2023-09-29T08:42:54.211Z</time>
      </trkpt>
      <trkpt lat="46.05035" lon="4.10134">
        <ele>320.359862</ele>
        <time>2023-09-29T08:42:56.208Z</time>
      </trkpt>
      <trkpt lat="46.05039" lon="4.10147">
        <ele>320.293277</ele>
        <time>2023-09-29T08:42:58.215Z</time>
      </trkpt>
      <trkpt lat="46.05045" lon="4.1016">
        <ele>320.227119</ele>
        <time>2023-09-29T08:43:00.202Z</time>
      </trkpt>
      <trkpt lat="46.05049" lon="4.10173">
        <ele>320.160251</ele>
        <time>2023-09-29T08:43:02.214Z</time>
      </trkpt>
      <trkpt lat="46.05054" lon="4.10186">
        <ele>320.092503</ele>
        <time>2023-09-29T08:43:04.225Z</time>
      </trkpt>
      <trkpt lat="46.05058" lon="4.10201">
        <ele>320.023246</ele>
        <time>2023-09-29T08:43:06.218Z</time>
      </trkpt>
      <trkpt lat="46.05063" lon="4.10214">
        <ele>319.955393</ele>
        <time>2023-09-29T08:43:08.213Z</time>
      </trkpt>
      <trkpt lat="46.05067" lon="4.10227">
        <ele>319.889625</ele>
        <time>2023-09-29T08:43:10.222Z</time>
      </trkpt>
      <trkpt lat="46.05072" lon="4.1024">
        <ele>319.823874</ele>
        <time>2023-09-29T08:43:12.217Z</time>
      </trkpt>
      <trkpt lat="46.05076" lon="4.10253">
        <ele>319.757229</ele>
        <time>2023-09-29T08:43:14.214Z</time>
      </trkpt>
      <trkpt lat="46.05081" lon="4.10268">
        <ele>319.684906</ele>
        <time>2023-09-29T08:43:16.228Z</time>
      </trkpt>
      <trkpt lat="46.05085" lon="4.10281">
        <ele>319.618444</ele>
        <time>2023-09-29T08:43:18.210Z</time>
      </trkpt>
      <trkpt lat="46.05091" lon="4.10294">
        <ele>319.550957</ele>
        <time>2023-09-29T08:43:20.234Z</time>
      </trkpt>
      <trkpt lat="46.05095" lon="4.10308">
        <ele>319.480138</ele>
        <time>2023-09-29T08:43:22.226Z</time>
      </trkpt>
      <trkpt lat="46.051" lon="4.10322">
        <ele>319.410262</ele>
        <time>2023-09-29T08:43:24.214Z</time>
      </trkpt>
      <trkpt lat="46.05105" lon="4.10335">
        <ele>319.343215</ele>
        <time>2023-09-29T08:43:26.217Z</time>
      </trkpt>
      <trkpt lat="46.0511" lon="4.10348">
        <ele>319.292054</ele>
        <time>2023-09-29T08:43:28.213Z</time>
      </trkpt>
      <trkpt lat="46.05116" lon="4.1036">
        <ele>319.282949</ele>
        <time>2023-09-29T08:43:30.214Z</time>
      </trkpt>
      <trkpt lat="46.05123" lon="4.10373">
        <ele>319.273692</ele>
        <time>2023-09-29T08:43:32.212Z</time>
      </trkpt>
      <trkpt lat="46.05129" lon="4.10385">
        <ele>319.264411</ele>
        <time>2023-09-29T08:43:34.246Z</time>
      </trkpt>
      <trkpt lat="46.05137" lon="4.10395">
        <ele>319.255481</ele>
        <time>2023-09-29T08:43:36.212Z</time>
      </trkpt>
      <trkpt lat="46.05144" lon="4.10406">
        <ele>319.246528</ele>
        <time>2023-09-29T08:43:38.233Z</time>
      </trkpt>
      <trkpt lat="46.05151" lon="4.10416">
        <ele>319.238357</ele>
        <time>2023-09-29T08:43:40.213Z</time>
      </trkpt>
      <trkpt lat="46.05158" lon="4.10425">
        <ele>319.229997</ele>
        <time>2023-09-29T08:43:42.232Z</time>
      </trkpt>
      <trkpt lat="46.05166" lon="4.10435">
        <ele>319.221393</ele>
        <time>2023-09-29T08:43:44.207Z</time>
      </trkpt>
      <trkpt lat="46.05174" lon="4.10444">
        <ele>319.212593</ele>
        <time>2023-09-29T08:43:46.220Z</time>
      </trkpt>
      <trkpt lat="46.05182" lon="4.10453">
        <ele>319.203722</ele>
        <time>2023-09-29T08:43:48.217Z</time>
      </trkpt>
      <trkpt lat="46.0519" lon="4.10461">
        <ele>319.195195</ele>
        <time>2023-09-29T08:43:50.227Z</time>
      </trkpt>
      <trkpt lat="46.05199" lon="4.10468">
        <ele>319.186565</ele>
        <time>2023-09-29T08:43:52.220Z</time>
      </trkpt>
      <trkpt lat="46.05209" lon="4.10477">
        <ele>319.176911</ele>
        <time>2023-09-29T08:43:54.220Z</time>
      </trkpt>
      <trkpt lat="46.05219" lon="4.10485">
        <ele>319.167411</ele>
        <time>2023-09-29T08:43:56.232Z</time>
      </trkpt>
      <trkpt lat="46.05229" lon="4.10492">
        <ele>319.15748</ele>
        <time>2023-09-29T08:43:58.212Z</time>
      </trkpt>
      <trkpt lat="46.05239" lon="4.105">
        <ele>319.147741</ele>
        <time>2023-09-29T08:44:00.242Z</time>
      </trkpt>
      <trkpt lat="46.05248" lon="4.10507">
        <ele>319.132802</ele>
        <time>2023-09-29T08:44:02.224Z</time>
      </trkpt>
      <trkpt lat="46.05257" lon="4.10511">
        <ele>319.086935</ele>
        <time>2023-09-29T08:44:04.218Z</time>
      </trkpt>
      <trkpt lat="46.05267" lon="4.10512">
        <ele>319.041634</ele>
        <time>2023-09-29T08:44:06.210Z</time>
      </trkpt>
      <trkpt lat="46.05277" lon="4.10514">
        <ele>318.998599</ele>
        <time>2023-09-29T08:44:08.201Z</time>
      </trkpt>
      <trkpt lat="46.05289" lon="4.10519">
        <ele>318.940435</ele>
        <time>2023-09-29T08:44:11.231Z</time>
      </trkpt>
      <trkpt lat="46.05302" lon="4.10522">
        <ele>318.877034</ele>
        <time>2023-09-29T08:44:14.207Z</time>
      </trkpt>
      <trkpt lat="46.05314" lon="4.10526">
        <ele>318.825019</ele>
        <time>2023-09-29T08:44:16.225Z</time>
      </trkpt>
      <trkpt lat="46.05325" lon="4.10526">
        <ele>318.77242</ele>
        <time>2023-09-29T08:44:18.224Z</time>
      </trkpt>
      <trkpt lat="46.05336" lon="4.10527">
        <ele>318.721665</ele>
        <time>2023-09-29T08:44:20.223Z</time>
      </trkpt>
      <trkpt lat="46.05347" lon="4.10527">
        <ele>318.67091</ele>
        <time>2023-09-29T08:44:22.211Z</time>
      </trkpt>
      <trkpt lat="46.05358" lon="4.10527">
        <ele>318.621992</ele>
        <time>2023-09-29T08:44:24.213Z</time>
      </trkpt>
      <trkpt lat="46.05369" lon="4.10525">
        <ele>318.572418</ele>
        <time>2023-09-29T08:44:26.224Z</time>
      </trkpt>
      <trkpt lat="46.05379" lon="4.10524">
        <ele>318.526031</ele>
        <time>2023-09-29T08:44:28.214Z</time>
      </trkpt>
      <trkpt lat="46.05389" lon="4.10523">
        <ele>318.478417</ele>
        <time>2023-09-29T08:44:30.224Z</time>
      </trkpt>
      <trkpt lat="46.054" lon="4.1052">
        <ele>318.428969</ele>
        <time>2023-09-29T08:44:32.209Z</time>
      </trkpt>
      <trkpt lat="46.0541" lon="4.10517">
        <ele>318.381557</ele>
        <time>2023-09-29T08:44:34.229Z</time>
      </trkpt>
      <trkpt lat="46.0542" lon="4.10514">
        <ele>318.333833</ele>
        <time>2023-09-29T08:44:36.213Z</time>
      </trkpt>
      <trkpt lat="46.05431" lon="4.1051">
        <ele>318.276181</ele>
        <time>2023-09-29T08:44:38.201Z</time>
      </trkpt>
      <trkpt lat="46.0544" lon="4.10506">
        <ele>318.218482</ele>
        <time>2023-09-29T08:44:40.199Z</time>
      </trkpt>
      <trkpt lat="46.0545" lon="4.10501">
        <ele>318.161604</ele>
        <time>2023-09-29T08:44:42.226Z</time>
      </trkpt>
      <trkpt lat="46.0546" lon="4.10497">
        <ele>318.101034</ele>
        <time>2023-09-29T08:44:44.195Z</time>
      </trkpt>
      <trkpt lat="46.0547" lon="4.10492">
        <ele>318.038633</ele>
        <time>2023-09-29T08:44:46.192Z</time>
      </trkpt>
      <trkpt lat="46.05481" lon="4.10487">
        <ele>317.973778</ele>
        <time>2023-09-29T08:44:48.214Z</time>
      </trkpt>
      <trkpt lat="46.05492" lon="4.10482">
        <ele>317.908662</ele>
        <time>2023-09-29T08:44:50.206Z</time>
      </trkpt>
      <trkpt lat="46.05503" lon="4.10478">
        <ele>317.843587</ele>
        <time>2023-09-29T08:44:52.187Z</time>
      </trkpt>
      <trkpt lat="46.05513" lon="4.10473">
        <ele>317.781372</ele>
        <time>2023-09-29T08:44:54.207Z</time>
      </trkpt>
      <trkpt lat="46.05523" lon="4.10468">
        <ele>317.720017</ele>
        <time>2023-09-29T08:44:56.212Z</time>
      </trkpt>
      <trkpt lat="46.05534" lon="4.10463">
        <ele>317.656814</ele>
        <time>2023-09-29T08:44:58.301Z</time>
      </trkpt>
      <trkpt lat="46.05544" lon="4.1046">
        <ele>317.596646</ele>
        <time>2023-09-29T08:45:00.221Z</time>
      </trkpt>
      <trkpt lat="46.05554" lon="4.10456">
        <ele>317.53442</ele>
        <time>2023-09-29T08:45:02.216Z</time>
      </trkpt>
      <trkpt lat="46.05565" lon="4.10451">
        <ele>317.471433</ele>
        <time>2023-09-29T08:45:04.206Z</time>
      </trkpt>
      <trkpt lat="46.05575" lon="4.10446">
        <ele>317.409983</ele>
        <time>2023-09-29T08:45:06.212Z</time>
      </trkpt>
      <trkpt lat="46.05585" lon="4.10442">
        <ele>317.349719</ele>
        <time>2023-09-29T08:45:08.220Z</time>
      </trkpt>
      <trkpt lat="46.05595" lon="4.10439">
        <ele>317.293123</ele>
        <time>2023-09-29T08:45:10.195Z</time>
      </trkpt>
      <trkpt lat="46.05605" lon="4.10434">
        <ele>317.350131</ele>
        <time>2023-09-29T08:45:12.225Z</time>
      </trkpt>
      <trkpt lat="46.05615" lon="4.10429">
        <ele>317.419393</ele>
        <time>2023-09-29T08:45:14.218Z</time>
      </trkpt>
      <trkpt lat="46.05624" lon="4.10425">
        <ele>317.48664</ele>
        <time>2023-09-29T08:45:16.194Z</time>
      </trkpt>
      <trkpt lat="46.05635" lon="4.10421">
        <ele>317.556621</ele>
        <time>2023-09-29T08:45:18.222Z</time>
      </trkpt>
      <trkpt lat="46.05645" lon="4.10416">
        <ele>317.630372</ele>
        <time>2023-09-29T08:45:20.209Z</time>
      </trkpt>
      <trkpt lat="46.05656" lon="4.10412">
        <ele>317.701859</ele>
        <time>2023-09-29T08:45:22.209Z</time>
      </trkpt>
      <trkpt lat="46.05666" lon="4.10407">
        <ele>317.771956</ele>
        <time>2023-09-29T08:45:24.210Z</time>
      </trkpt>
      <trkpt lat="46.05676" lon="4.10403">
        <ele>317.842681</ele>
        <time>2023-09-29T08:45:26.215Z</time>
      </trkpt>
      <trkpt lat="46.05687" lon="4.10399">
        <ele>317.912017</ele>
        <time>2023-09-29T08:45:28.233Z</time>
      </trkpt>
      <trkpt lat="46.05697" lon="4.10395">
        <ele>317.985768</ele>
        <time>2023-09-29T08:45:30.224Z</time>
      </trkpt>
      <trkpt lat="46.05709" lon="4.10392">
        <ele>318.064755</ele>
        <time>2023-09-29T08:45:33.213Z</time>
      </trkpt>
      <trkpt lat="46.0572" lon="4.10387">
        <ele>318.136361</ele>
        <time>2023-09-29T08:45:37.218Z</time>
      </trkpt>
      <trkpt lat="46.05731" lon="4.10381">
        <ele>318.215014</ele>
        <time>2023-09-29T08:45:41.219Z</time>
      </trkpt>
      <trkpt lat="46.05741" lon="4.10376">
        <ele>318.28296</ele>
        <time>2023-09-29T08:45:43.186Z</time>
      </trkpt>
      <trkpt lat="46.05753" lon="4.1037">
        <ele>318.370784</ele>
        <time>2023-09-29T08:45:45.193Z</time>
      </trkpt>
      <trkpt lat="46.05766" lon="4.10364">
        <ele>318.460484</ele>
        <time>2023-09-29T08:45:47.219Z</time>
      </trkpt>
      <trkpt lat="46.05779" lon="4.10359">
        <ele>318.499749</ele>
        <time>2023-09-29T08:45:49.215Z</time>
      </trkpt>
      <trkpt lat="46.05791" lon="4.10354">
        <ele>318.532342</ele>
        <time>2023-09-29T08:45:51.222Z</time>
      </trkpt>
      <trkpt lat="46.05803" lon="4.10349">
        <ele>318.563804</ele>
        <time>2023-09-29T08:45:53.224Z</time>
      </trkpt>
      <trkpt lat="46.05813" lon="4.10342">
        <ele>318.593502</ele>
        <time>2023-09-29T08:45:55.214Z</time>
      </trkpt>
      <trkpt lat="46.05824" lon="4.10337">
        <ele>318.623436</ele>
        <time>2023-09-29T08:45:57.207Z</time>
      </trkpt>
      <trkpt lat="46.05835" lon="4.10334">
        <ele>318.652687</ele>
        <time>2023-09-29T08:45:59.185Z</time>
      </trkpt>
      <trkpt lat="46.05846" lon="4.1033">
        <ele>318.680173</ele>
        <time>2023-09-29T08:46:01.222Z</time>
      </trkpt>
      <trkpt lat="46.05856" lon="4.10325">
        <ele>318.708744</ele>
        <time>2023-09-29T08:46:03.209Z</time>
      </trkpt>
      <trkpt lat="46.05866" lon="4.10321">
        <ele>318.735702</ele>
        <time>2023-09-29T08:46:05.211Z</time>
      </trkpt>
      <trkpt lat="46.05876" lon="4.10317">
        <ele>318.762893</ele>
        <time>2023-09-29T08:46:07.200Z</time>
      </trkpt>
      <trkpt lat="46.05887" lon="4.10311">
        <ele>318.79161</ele>
        <time>2023-09-29T08:46:09.227Z</time>
      </trkpt>
      <trkpt lat="46.05897" lon="4.10306">
        <ele>318.82008</ele>
        <time>2023-09-29T08:46:11.234Z</time>
      </trkpt>
      <trkpt lat="46.05907" lon="4.10302">
        <ele>318.847271</ele>
        <time>2023-09-29T08:46:13.198Z</time>
      </trkpt>
      <trkpt lat="46.05918" lon="4.10298">
        <ele>318.874897</ele>
        <time>2023-09-29T08:46:15.193Z</time>
      </trkpt>
      <trkpt lat="46.05928" lon="4.10294">
        <ele>318.901959</ele>
        <time>2023-09-29T08:46:17.223Z</time>
      </trkpt>
      <trkpt lat="46.05938" lon="4.10291">
        <ele>318.928605</ele>
        <time>2023-09-29T08:46:19.233Z</time>
      </trkpt>
      <trkpt lat="46.05948" lon="4.10286">
        <ele>318.944621</ele>
        <time>2023-09-29T08:46:21.216Z</time>
      </trkpt>
      <trkpt lat="46.05959" lon="4.10282">
        <ele>318.958205</ele>
        <time>2023-09-29T08:46:23.295Z</time>
      </trkpt>
      <trkpt lat="46.05969" lon="4.10277">
        <ele>318.971404</ele>
        <time>2023-09-29T08:46:25.187Z</time>
      </trkpt>
      <trkpt lat="46.05979" lon="4.10272">
        <ele>318.984231</ele>
        <time>2023-09-29T08:46:27.186Z</time>
      </trkpt>
      <trkpt lat="46.0599" lon="4.10269">
        <ele>318.997009</ele>
        <time>2023-09-29T08:46:29.230Z</time>
      </trkpt>
      <trkpt lat="46.06" lon="4.10264">
        <ele>319.009783</ele>
        <time>2023-09-29T08:46:31.224Z</time>
      </trkpt>
      <trkpt lat="46.06009" lon="4.10261">
        <ele>319.021612</ele>
        <time>2023-09-29T08:46:33.201Z</time>
      </trkpt>
      <trkpt lat="46.06019" lon="4.10257">
        <ele>319.033771</ele>
        <time>2023-09-29T08:46:35.227Z</time>
      </trkpt>
      <trkpt lat="46.06028" lon="4.10252">
        <ele>319.045485</ele>
        <time>2023-09-29T08:46:37.212Z</time>
      </trkpt>
      <trkpt lat="46.06039" lon="4.10243">
        <ele>319.061444</ele>
        <time>2023-09-29T08:46:40.204Z</time>
      </trkpt>
      <trkpt lat="46.06049" lon="4.10235">
        <ele>319.075281</ele>
        <time>2023-09-29T08:46:43.221Z</time>
      </trkpt>
      <trkpt lat="46.06059" lon="4.10227">
        <ele>319.088201</ele>
        <time>2023-09-29T08:46:46.229Z</time>
      </trkpt>
      <trkpt lat="46.06074" lon="4.10209">
        <ele>319.112161</ele>
        <time>2023-09-29T08:47:13.230Z</time>
      </trkpt>
      <trkpt lat="46.06081" lon="4.102">
        <ele>319.124001</ele>
        <time>2023-09-29T08:47:16.214Z</time>
      </trkpt>
      <trkpt lat="46.0609" lon="4.1019">
        <ele>319.137247</ele>
        <time>2023-09-29T08:47:19.205Z</time>
      </trkpt>
      <trkpt lat="46.06096" lon="4.1018">
        <ele>319.149412</ele>
        <time>2023-09-29T08:47:22.232Z</time>
      </trkpt>
      <trkpt lat="46.06105" lon="4.10166">
        <ele>319.035455</ele>
        <time>2023-09-29T08:47:25.211Z</time>
      </trkpt>
      <trkpt lat="46.06115" lon="4.10154">
        <ele>318.874717</ele>
        <time>2023-09-29T08:47:28.206Z</time>
      </trkpt>
      <trkpt lat="46.06125" lon="4.10142">
        <ele>318.715545</ele>
        <time>2023-09-29T08:47:31.227Z</time>
      </trkpt>
      <trkpt lat="46.06133" lon="4.10133">
        <ele>318.603287</ele>
        <time>2023-09-29T08:47:33.213Z</time>
      </trkpt>
      <trkpt lat="46.0614" lon="4.10124">
        <ele>318.489767</ele>
        <time>2023-09-29T08:47:35.210Z</time>
      </trkpt>
      <trkpt lat="46.06147" lon="4.10115">
        <ele>318.373451</ele>
        <time>2023-09-29T08:47:37.215Z</time>
      </trkpt>
      <trkpt lat="46.06154" lon="4.10105">
        <ele>318.25743</ele>
        <time>2023-09-29T08:47:39.216Z</time>
      </trkpt>
      <trkpt lat="46.06161" lon="4.10096">
        <ele>318.138679</ele>
        <time>2023-09-29T08:47:41.230Z</time>
      </trkpt>
      <trkpt lat="46.06169" lon="4.10087">
        <ele>318.019386</ele>
        <time>2023-09-29T08:47:43.229Z</time>
      </trkpt>
      <trkpt lat="46.06177" lon="4.10077">
        <ele>317.893763</ele>
        <time>2023-09-29T08:47:45.213Z</time>
      </trkpt>
      <trkpt lat="46.06185" lon="4.10067">
        <ele>317.76724</ele>
        <time>2023-09-29T08:47:47.227Z</time>
      </trkpt>
      <trkpt lat="46.06192" lon="4.10056">
        <ele>317.644861</ele>
        <time>2023-09-29T08:47:49.231Z</time>
      </trkpt>
      <trkpt lat="46.062" lon="4.10046">
        <ele>317.524531</ele>
        <time>2023-09-29T08:47:51.211Z</time>
      </trkpt>
      <trkpt lat="46.06206" lon="4.10037">
        <ele>317.411653</ele>
        <time>2023-09-29T08:47:53.221Z</time>
      </trkpt>
      <trkpt lat="46.06213" lon="4.10026">
        <ele>317.297033</ele>
        <time>2023-09-29T08:47:55.216Z</time>
      </trkpt>
      <trkpt lat="46.06223" lon="4.10014">
        <ele>317.139573</ele>
        <time>2023-09-29T08:47:58.213Z</time>
      </trkpt>
      <trkpt lat="46.06232" lon="4.10002">
        <ele>316.999444</ele>
        <time>2023-09-29T08:48:01.212Z</time>
      </trkpt>
      <trkpt lat="46.06239" lon="4.09993">
        <ele>316.974759</ele>
        <time>2023-09-29T08:48:03.221Z</time>
      </trkpt>
      <trkpt lat="46.06248" lon="4.09981">
        <ele>316.940666</ele>
        <time>2023-09-29T08:48:06.222Z</time>
      </trkpt>
      <trkpt lat="46.06256" lon="4.09971">
        <ele>316.913203</ele>
        <time>2023-09-29T08:48:09.229Z</time>
      </trkpt>
      <trkpt lat="46.06265" lon="4.09961">
        <ele>316.883802</ele>
        <time>2023-09-29T08:48:28.219Z</time>
      </trkpt>
      <trkpt lat="46.06272" lon="4.09952">
        <ele>316.857248</ele>
        <time>2023-09-29T08:48:31.212Z</time>
      </trkpt>
      <trkpt lat="46.06281" lon="4.0994">
        <ele>316.824131</ele>
        <time>2023-09-29T08:48:34.219Z</time>
      </trkpt>
      <trkpt lat="46.06288" lon="4.0993">
        <ele>316.799265</ele>
        <time>2023-09-29T08:48:36.215Z</time>
      </trkpt>
      <trkpt lat="46.06298" lon="4.09918">
        <ele>316.761969</ele>
        <time>2023-09-29T08:48:39.212Z</time>
      </trkpt>
      <trkpt lat="46.06305" lon="4.09909">
        <ele>316.737298</ele>
        <time>2023-09-29T08:48:41.211Z</time>
      </trkpt>
      <trkpt lat="46.06312" lon="4.099">
        <ele>316.710938</ele>
        <time>2023-09-29T08:48:43.213Z</time>
      </trkpt>
      <trkpt lat="46.0632" lon="4.0989">
        <ele>316.683233</ele>
        <time>2023-09-29T08:48:45.212Z</time>
      </trkpt>
      <trkpt lat="46.06328" lon="4.0988">
        <ele>316.654507</ele>
        <time>2023-09-29T08:48:47.221Z</time>
      </trkpt>
      <trkpt lat="46.06336" lon="4.0987">
        <ele>316.626194</ele>
        <time>2023-09-29T08:48:49.215Z</time>
      </trkpt>
      <trkpt lat="46.06343" lon="4.09859">
        <ele>316.597946</ele>
        <time>2023-09-29T08:48:51.226Z</time>
      </trkpt>
      <trkpt lat="46.06351" lon="4.09849">
        <ele>316.570546</ele>
        <time>2023-09-29T08:48:53.225Z</time>
      </trkpt>
      <trkpt lat="46.06358" lon="4.0984">
        <ele>316.544958</ele>
        <time>2023-09-29T08:48:55.202Z</time>
      </trkpt>
      <trkpt lat="46.06365" lon="4.09831">
        <ele>316.518925</ele>
        <time>2023-09-29T08:48:57.213Z</time>
      </trkpt>
      <trkpt lat="46.06373" lon="4.09822">
        <ele>316.612849</ele>
        <time>2023-09-29T08:48:59.204Z</time>
      </trkpt>
      <trkpt lat="46.06381" lon="4.09812">
        <ele>316.716399</ele>
        <time>2023-09-29T08:49:01.216Z</time>
      </trkpt>
      <trkpt lat="46.06389" lon="4.09802">
        <ele>316.820998</ele>
        <time>2023-09-29T08:49:03.212Z</time>
      </trkpt>
      <trkpt lat="46.06397" lon="4.09791">
        <ele>316.928899</ele>
        <time>2023-09-29T08:49:05.232Z</time>
      </trkpt>
      <trkpt lat="46.06405" lon="4.0978">
        <ele>317.035622</ele>
        <time>2023-09-29T08:49:07.220Z</time>
      </trkpt>
      <trkpt lat="46.06413" lon="4.09771">
        <ele>317.135796</ele>
        <time>2023-09-29T08:49:09.220Z</time>
      </trkpt>
      <trkpt lat="46.06421" lon="4.09761">
        <ele>317.23951</ele>
        <time>2023-09-29T08:49:11.218Z</time>
      </trkpt>
      <trkpt lat="46.06429" lon="4.09751">
        <ele>317.346611</ele>
        <time>2023-09-29T08:49:13.216Z</time>
      </trkpt>
      <trkpt lat="46.06438" lon="4.0974">
        <ele>317.454321</ele>
        <time>2023-09-29T08:49:15.237Z</time>
      </trkpt>
      <trkpt lat="46.06446" lon="4.09729">
        <ele>317.565718</ele>
        <time>2023-09-29T08:49:17.229Z</time>
      </trkpt>
      <trkpt lat="46.06456" lon="4.09722">
        <ele>317.674004</ele>
        <time>2023-09-29T08:49:19.210Z</time>
      </trkpt>
      <trkpt lat="46.06465" lon="4.09714">
        <ele>317.78058</ele>
        <time>2023-09-29T08:49:22.225Z</time>
      </trkpt>
      <trkpt lat="46.06474" lon="4.09705">
        <ele>317.884547</ele>
        <time>2023-09-29T08:49:26.210Z</time>
      </trkpt>
      <trkpt lat="46.06478" lon="4.09691">
        <ele>317.987173</ele>
        <time>2023-09-29T08:49:31.206Z</time>
      </trkpt>
      <trkpt lat="46.06487" lon="4.0968">
        <ele>318.103199</ele>
        <time>2023-09-29T08:49:34.205Z</time>
      </trkpt>
      <trkpt lat="46.06495" lon="4.09668">
        <ele>318.219419</ele>
        <time>2023-09-29T08:49:36.202Z</time>
      </trkpt>
      <trkpt lat="46.06505" lon="4.09653">
        <ele>318.185865</ele>
        <time>2023-09-29T08:49:38.207Z</time>
      </trkpt>
      <trkpt lat="46.06515" lon="4.09639">
        <ele>318.027647</ele>
        <time>2023-09-29T08:49:40.220Z</time>
      </trkpt>
      <trkpt lat="46.06526" lon="4.09625">
        <ele>317.871564</ele>
        <time>2023-09-29T08:49:42.220Z</time>
      </trkpt>
      <trkpt lat="46.06536" lon="4.09612">
        <ele>317.719569</ele>
        <time>2023-09-29T08:49:44.216Z</time>
      </trkpt>
      <trkpt lat="46.06546" lon="4.09598">
        <ele>317.570388</ele>
        <time>2023-09-29T08:49:46.227Z</time>
      </trkpt>
      <trkpt lat="46.06556" lon="4.09585">
        <ele>317.424627</ele>
        <time>2023-09-29T08:49:48.208Z</time>
      </trkpt>
      <trkpt lat="46.06565" lon="4.09574">
        <ele>317.28445</ele>
        <time>2023-09-29T08:49:50.219Z</time>
      </trkpt>
      <trkpt lat="46.06575" lon="4.09562">
        <ele>317.14461</ele>
        <time>2023-09-29T08:49:52.224Z</time>
      </trkpt>
      <trkpt lat="46.06584" lon="4.0955">
        <ele>317.010722</ele>
        <time>2023-09-29T08:49:54.216Z</time>
      </trkpt>
      <trkpt lat="46.06593" lon="4.09539">
        <ele>316.879532</ele>
        <time>2023-09-29T08:49:56.209Z</time>
      </trkpt>
      <trkpt lat="46.06602" lon="4.09527">
        <ele>316.753086</ele>
        <time>2023-09-29T08:49:58.226Z</time>
      </trkpt>
      <trkpt lat="46.0661" lon="4.09516">
        <ele>316.621853</ele>
        <time>2023-09-29T08:50:00.213Z</time>
      </trkpt>
      <trkpt lat="46.06619" lon="4.09504">
        <ele>316.493255</ele>
        <time>2023-09-29T08:50:02.210Z</time>
      </trkpt>
      <trkpt lat="46.06627" lon="4.09494">
        <ele>316.372028</ele>
        <time>2023-09-29T08:50:04.232Z</time>
      </trkpt>
      <trkpt lat="46.06636" lon="4.09483">
        <ele>316.306272</ele>
        <time>2023-09-29T08:50:06.229Z</time>
      </trkpt>
      <trkpt lat="46.06644" lon="4.09473">
        <ele>316.328593</ele>
        <time>2023-09-29T08:50:08.212Z</time>
      </trkpt>
      <trkpt lat="46.06653" lon="4.09463">
        <ele>316.3505</ele>
        <time>2023-09-29T08:50:10.213Z</time>
      </trkpt>
      <trkpt lat="46.06662" lon="4.09452">
        <ele>316.372696</ele>
        <time>2023-09-29T08:50:12.217Z</time>
      </trkpt>
      <trkpt lat="46.0667" lon="4.09442">
        <ele>316.394843</ele>
        <time>2023-09-29T08:50:14.213Z</time>
      </trkpt>
      <trkpt lat="46.06679" lon="4.09431">
        <ele>316.416471</ele>
        <time>2023-09-29T08:50:16.226Z</time>
      </trkpt>
      <trkpt lat="46.06687" lon="4.09422">
        <ele>316.437727</ele>
        <time>2023-09-29T08:50:18.190Z</time>
      </trkpt>
      <trkpt lat="46.06695" lon="4.09411">
        <ele>316.459186</ele>
        <time>2023-09-29T08:50:20.215Z</time>
      </trkpt>
      <trkpt lat="46.06703" lon="4.094">
        <ele>316.480358</ele>
        <time>2023-09-29T08:50:22.207Z</time>
      </trkpt>
      <trkpt lat="46.06711" lon="4.09389">
        <ele>316.502625</ele>
        <time>2023-09-29T08:50:24.212Z</time>
      </trkpt>
      <trkpt lat="46.06719" lon="4.09378">
        <ele>316.524367</ele>
        <time>2023-09-29T08:50:26.226Z</time>
      </trkpt>
      <trkpt lat="46.06726" lon="4.09367">
        <ele>316.545252</ele>
        <time>2023-09-29T08:50:28.226Z</time>
      </trkpt>
      <trkpt lat="46.06735" lon="4.09357">
        <ele>316.567151</ele>
        <time>2023-09-29T08:50:30.210Z</time>
      </trkpt>
      <trkpt lat="46.06742" lon="4.09346">
        <ele>316.588656</ele>
        <time>2023-09-29T08:50:32.220Z</time>
      </trkpt>
      <trkpt lat="46.0675" lon="4.09335">
        <ele>316.61017</ele>
        <time>2023-09-29T08:50:34.215Z</time>
      </trkpt>
      <trkpt lat="46.06758" lon="4.09324">
        <ele>316.632147</ele>
        <time>2023-09-29T08:50:36.202Z</time>
      </trkpt>
      <trkpt lat="46.06766" lon="4.09314">
        <ele>316.655965</ele>
        <time>2023-09-29T08:50:38.219Z</time>
      </trkpt>
      <trkpt lat="46.06774" lon="4.09304">
        <ele>316.726722</ele>
        <time>2023-09-29T08:50:40.213Z</time>
      </trkpt>
      <trkpt lat="46.06782" lon="4.09293">
        <ele>316.800656</ele>
        <time>2023-09-29T08:50:42.219Z</time>
      </trkpt>
      <trkpt lat="46.0679" lon="4.09283">
        <ele>316.872426</ele>
        <time>2023-09-29T08:50:44.225Z</time>
      </trkpt>
      <trkpt lat="46.06798" lon="4.09273">
        <ele>316.945022</ele>
        <time>2023-09-29T08:50:46.221Z</time>
      </trkpt>
      <trkpt lat="46.06806" lon="4.09262">
        <ele>317.019383</ele>
        <time>2023-09-29T08:50:48.233Z</time>
      </trkpt>
      <trkpt lat="46.06813" lon="4.09252">
        <ele>317.089964</ele>
        <time>2023-09-29T08:50:50.236Z</time>
      </trkpt>
      <trkpt lat="46.06821" lon="4.09242">
        <ele>317.163197</ele>
        <time>2023-09-29T08:50:52.212Z</time>
      </trkpt>
      <trkpt lat="46.0683" lon="4.0923">
        <ele>317.245619</ele>
        <time>2023-09-29T08:50:54.215Z</time>
      </trkpt>
      <trkpt lat="46.06836" lon="4.09215">
        <ele>317.327631</ele>
        <time>2023-09-29T08:50:56.203Z</time>
      </trkpt>
      <trkpt lat="46.06844" lon="4.09203">
        <ele>317.407095</ele>
        <time>2023-09-29T08:50:58.219Z</time>
      </trkpt>
      <trkpt lat="46.06854" lon="4.09195">
        <ele>317.485138</ele>
        <time>2023-09-29T08:51:00.202Z</time>
      </trkpt>
      <trkpt lat="46.06864" lon="4.09186">
        <ele>317.562756</ele>
        <time>2023-09-29T08:51:02.215Z</time>
      </trkpt>
      <trkpt lat="46.06873" lon="4.09178">
        <ele>317.63448</ele>
        <time>2023-09-29T08:51:04.205Z</time>
      </trkpt>
      <trkpt lat="46.06881" lon="4.0917">
        <ele>317.705372</ele>
        <time>2023-09-29T08:51:06.224Z</time>
      </trkpt>
      <trkpt lat="46.0689" lon="4.09162">
        <ele>317.778761</ele>
        <time>2023-09-29T08:51:08.220Z</time>
      </trkpt>
      <trkpt lat="46.06899" lon="4.09154">
        <ele>317.849327</ele>
        <time>2023-09-29T08:51:10.214Z</time>
      </trkpt>
      <trkpt lat="46.06908" lon="4.09146">
        <ele>317.897911</ele>
        <time>2023-09-29T08:51:12.227Z</time>
      </trkpt>
      <trkpt lat="46.06916" lon="4.09138">
        <ele>317.9249</ele>
        <time>2023-09-29T08:51:14.217Z</time>
      </trkpt>
      <trkpt lat="46.06925" lon="4.09131">
        <ele>317.95173</ele>
        <time>2023-09-29T08:51:16.212Z</time>
      </trkpt>
      <trkpt lat="46.06935" lon="4.09125">
        <ele>317.979406</ele>
        <time>2023-09-29T08:51:18.218Z</time>
      </trkpt>
      <trkpt lat="46.06944" lon="4.09118">
        <ele>318.00708</ele>
        <time>2023-09-29T08:51:20.220Z</time>
      </trkpt>
      <trkpt lat="46.06954" lon="4.09112">
        <ele>318.035249</ele>
        <time>2023-09-29T08:51:22.222Z</time>
      </trkpt>
      <trkpt lat="46.06963" lon="4.09107">
        <ele>318.062088</ele>
        <time>2023-09-29T08:51:24.222Z</time>
      </trkpt>
      <trkpt lat="46.06973" lon="4.09102">
        <ele>318.089373</ele>
        <time>2023-09-29T08:51:26.213Z</time>
      </trkpt>
      <trkpt lat="46.06983" lon="4.09097">
        <ele>318.116597</ele>
        <time>2023-09-29T08:51:28.210Z</time>
      </trkpt>
      <trkpt lat="46.06992" lon="4.09091">
        <ele>318.143512</ele>
        <time>2023-09-29T08:51:30.216Z</time>
      </trkpt>
      <trkpt lat="46.07002" lon="4.09089">
        <ele>318.168715</ele>
        <time>2023-09-29T08:51:32.228Z</time>
      </trkpt>
      <trkpt lat="46.07012" lon="4.09085">
        <ele>318.196457</ele>
        <time>2023-09-29T08:51:34.216Z</time>
      </trkpt>
      <trkpt lat="46.07022" lon="4.09081">
        <ele>318.223291</ele>
        <time>2023-09-29T08:51:36.213Z</time>
      </trkpt>
      <trkpt lat="46.07031" lon="4.09078">
        <ele>318.249647</ele>
        <time>2023-09-29T08:51:38.213Z</time>
      </trkpt>
      <trkpt lat="46.07042" lon="4.09075">
        <ele>318.277295</ele>
        <time>2023-09-29T08:51:40.228Z</time>
      </trkpt>
      <trkpt lat="46.07052" lon="4.09073">
        <ele>318.304755</ele>
        <time>2023-09-29T08:51:42.206Z</time>
      </trkpt>
      <trkpt lat="46.07062" lon="4.09072">
        <ele>318.331629</ele>
        <time>2023-09-29T08:51:44.202Z</time>
      </trkpt>
      <trkpt lat="46.07072" lon="4.0907">
        <ele>318.359003</ele>
        <time>2023-09-29T08:51:46.211Z</time>
      </trkpt>
      <trkpt lat="46.07083" lon="4.09068">
        <ele>318.294485</ele>
        <time>2023-09-29T08:51:48.226Z</time>
      </trkpt>
      <trkpt lat="46.07093" lon="4.09067">
        <ele>318.227926</ele>
        <time>2023-09-29T08:51:50.210Z</time>
      </trkpt>
      <trkpt lat="46.07103" lon="4.09066">
        <ele>318.163832</ele>
        <time>2023-09-29T08:51:52.217Z</time>
      </trkpt>
      <trkpt lat="46.07113" lon="4.09065">
        <ele>318.099702</ele>
        <time>2023-09-29T08:51:54.217Z</time>
      </trkpt>
      <trkpt lat="46.07123" lon="4.09063">
        <ele>318.036085</ele>
        <time>2023-09-29T08:51:56.211Z</time>
      </trkpt>
      <trkpt lat="46.07133" lon="4.09061">
        <ele>317.969194</ele>
        <time>2023-09-29T08:51:58.218Z</time>
      </trkpt>
      <trkpt lat="46.07144" lon="4.0906">
        <ele>317.90322</ele>
        <time>2023-09-29T08:52:00.213Z</time>
      </trkpt>
      <trkpt lat="46.07154" lon="4.0906">
        <ele>317.838618</ele>
        <time>2023-09-29T08:52:02.216Z</time>
      </trkpt>
      <trkpt lat="46.07164" lon="4.09058">
        <ele>317.7725</ele>
        <time>2023-09-29T08:52:04.202Z</time>
      </trkpt>
      <trkpt lat="46.07175" lon="4.09058">
        <ele>317.705303</ele>
        <time>2023-09-29T08:52:06.211Z</time>
      </trkpt>
      <trkpt lat="46.07185" lon="4.09057">
        <ele>317.640718</ele>
        <time>2023-09-29T08:52:08.229Z</time>
      </trkpt>
      <trkpt lat="46.07195" lon="4.09056">
        <ele>317.575381</ele>
        <time>2023-09-29T08:52:10.215Z</time>
      </trkpt>
      <trkpt lat="46.07205" lon="4.09055">
        <ele>317.507949</ele>
        <time>2023-09-29T08:52:12.211Z</time>
      </trkpt>
      <trkpt lat="46.07215" lon="4.09053">
        <ele>317.444418</ele>
        <time>2023-09-29T08:52:14.223Z</time>
      </trkpt>
      <trkpt lat="46.07226" lon="4.09053">
        <ele>317.37793</ele>
        <time>2023-09-29T08:52:16.215Z</time>
      </trkpt>
      <trkpt lat="46.07236" lon="4.09052">
        <ele>317.313308</ele>
        <time>2023-09-29T08:52:18.201Z</time>
      </trkpt>
      <trkpt lat="46.07246" lon="4.09051">
        <ele>317.248608</ele>
        <time>2023-09-29T08:52:20.218Z</time>
      </trkpt>
      <trkpt lat="46.07256" lon="4.09051">
        <ele>317.214423</ele>
        <time>2023-09-29T08:52:22.223Z</time>
      </trkpt>
      <trkpt lat="46.07266" lon="4.0905">
        <ele>317.223655</ele>
        <time>2023-09-29T08:52:24.213Z</time>
      </trkpt>
      <trkpt lat="46.07277" lon="4.09048">
        <ele>317.233082</ele>
        <time>2023-09-29T08:52:26.218Z</time>
      </trkpt>
      <trkpt lat="46.07287" lon="4.09047">
        <ele>317.242521</ele>
        <time>2023-09-29T08:52:28.213Z</time>
      </trkpt>
      <trkpt lat="46.07297" lon="4.09046">
        <ele>317.251762</ele>
        <time>2023-09-29T08:52:30.226Z</time>
      </trkpt>
      <trkpt lat="46.07308" lon="4.09045">
        <ele>317.261338</ele>
        <time>2023-09-29T08:52:32.222Z</time>
      </trkpt>
      <trkpt lat="46.07318" lon="4.09044">
        <ele>317.270669</ele>
        <time>2023-09-29T08:52:34.216Z</time>
      </trkpt>
      <trkpt lat="46.07329" lon="4.09043">
        <ele>317.280078</ele>
        <time>2023-09-29T08:52:36.211Z</time>
      </trkpt>
      <trkpt lat="46.07339" lon="4.09042">
        <ele>317.288942</ele>
        <time>2023-09-29T08:52:38.228Z</time>
      </trkpt>
      <trkpt lat="46.07349" lon="4.09041">
        <ele>317.298099</ele>
        <time>2023-09-29T08:52:40.193Z</time>
      </trkpt>
      <trkpt lat="46.07359" lon="4.0904">
        <ele>317.307227</ele>
        <time>2023-09-29T08:52:42.217Z</time>
      </trkpt>
      <trkpt lat="46.07369" lon="4.09039">
        <ele>317.316486</ele>
        <time>2023-09-29T08:52:44.219Z</time>
      </trkpt>
      <trkpt lat="46.07379" lon="4.09038">
        <ele>317.325434</ele>
        <time>2023-09-29T08:52:46.224Z</time>
      </trkpt>
      <trkpt lat="46.07389" lon="4.09037">
        <ele>317.334431</ele>
        <time>2023-09-29T08:52:48.225Z</time>
      </trkpt>
      <trkpt lat="46.07399" lon="4.09036">
        <ele>317.343655</ele>
        <time>2023-09-29T08:52:50.204Z</time>
      </trkpt>
      <trkpt lat="46.07409" lon="4.09035">
        <ele>317.352717</ele>
        <time>2023-09-29T08:52:52.213Z</time>
      </trkpt>
      <trkpt lat="46.07419" lon="4.09034">
        <ele>317.361665</ele>
        <time>2023-09-29T08:52:54.215Z</time>
      </trkpt>
      <trkpt lat="46.07428" lon="4.09032">
        <ele>317.370399</ele>
        <time>2023-09-29T08:52:56.208Z</time>
      </trkpt>
      <trkpt lat="46.07438" lon="4.09032">
        <ele>317.375003</ele>
        <time>2023-09-29T08:52:58.215Z</time>
      </trkpt>
      <trkpt lat="46.07448" lon="4.0903">
        <ele>317.378015</ele>
        <time>2023-09-29T08:53:00.212Z</time>
      </trkpt>
      <trkpt lat="46.07458" lon="4.09029">
        <ele>317.380992</ele>
        <time>2023-09-29T08:53:02.219Z</time>
      </trkpt>
      <trkpt lat="46.07469" lon="4.09028">
        <ele>317.384107</ele>
        <time>2023-09-29T08:53:04.224Z</time>
      </trkpt>
      <trkpt lat="46.07479" lon="4.09026">
        <ele>317.387123</ele>
        <time>2023-09-29T08:53:06.200Z</time>
      </trkpt>
      <trkpt lat="46.07489" lon="4.09026">
        <ele>317.390087</ele>
        <time>2023-09-29T08:53:08.207Z</time>
      </trkpt>
      <trkpt lat="46.07498" lon="4.09025">
        <ele>317.393053</ele>
        <time>2023-09-29T08:53:10.209Z</time>
      </trkpt>
      <trkpt lat="46.07508" lon="4.09025">
        <ele>317.396017</ele>
        <time>2023-09-29T08:53:12.212Z</time>
      </trkpt>
      <trkpt lat="46.07518" lon="4.09024">
        <ele>317.398895</ele>
        <time>2023-09-29T08:53:14.208Z</time>
      </trkpt>
      <trkpt lat="46.07527" lon="4.09021">
        <ele>317.401764</ele>
        <time>2023-09-29T08:53:16.229Z</time>
      </trkpt>
      <trkpt lat="46.07537" lon="4.09016">
        <ele>317.404883</ele>
        <time>2023-09-29T08:53:18.208Z</time>
      </trkpt>
      <trkpt lat="46.07548" lon="4.09012">
        <ele>317.408163</ele>
        <time>2023-09-29T08:53:20.213Z</time>
      </trkpt>
      <trkpt lat="46.07559" lon="4.09011">
        <ele>317.411403</ele>
        <time>2023-09-29T08:53:22.210Z</time>
      </trkpt>
      <trkpt lat="46.07569" lon="4.0901">
        <ele>317.414623</ele>
        <time>2023-09-29T08:53:24.221Z</time>
      </trkpt>
      <trkpt lat="46.07578" lon="4.09009">
        <ele>317.417348</ele>
        <time>2023-09-29T08:53:26.220Z</time>
      </trkpt>
      <trkpt lat="46.07588" lon="4.09014">
        <ele>317.420413</ele>
        <time>2023-09-29T08:53:28.227Z</time>
      </trkpt>
      <trkpt lat="46.07599" lon="4.09015">
        <ele>317.423711</ele>
        <time>2023-09-29T08:53:30.202Z</time>
      </trkpt>
      <trkpt lat="46.0761" lon="4.09012">
        <ele>317.427307</ele>
        <time>2023-09-29T08:53:32.221Z</time>
      </trkpt>
      <trkpt lat="46.0762" lon="4.09011">
        <ele>317.435712</ele>
        <time>2023-09-29T08:53:34.234Z</time>
      </trkpt>
      <trkpt lat="46.07631" lon="4.09012">
        <ele>317.444204</ele>
        <time>2023-09-29T08:53:36.214Z</time>
      </trkpt>
      <trkpt lat="46.0764" lon="4.09012">
        <ele>317.45203</ele>
        <time>2023-09-29T08:53:38.217Z</time>
      </trkpt>
      <trkpt lat="46.07649" lon="4.09011">
        <ele>317.459401</ele>
        <time>2023-09-29T08:53:40.214Z</time>
      </trkpt>
      <trkpt lat="46.07659" lon="4.0901">
        <ele>317.467005</ele>
        <time>2023-09-29T08:53:42.218Z</time>
      </trkpt>
      <trkpt lat="46.07669" lon="4.09008">
        <ele>317.475176</ele>
        <time>2023-09-29T08:53:44.218Z</time>
      </trkpt>
      <trkpt lat="46.07678" lon="4.09007">
        <ele>317.48296</ele>
        <time>2023-09-29T08:53:46.213Z</time>
      </trkpt>
      <trkpt lat="46.07688" lon="4.09006">
        <ele>317.490801</ele>
        <time>2023-09-29T08:53:48.231Z</time>
      </trkpt>
      <trkpt lat="46.07698" lon="4.09005">
        <ele>317.498717</ele>
        <time>2023-09-29T08:53:50.199Z</time>
      </trkpt>
      <trkpt lat="46.07708" lon="4.09005">
        <ele>317.506706</ele>
        <time>2023-09-29T08:53:52.212Z</time>
      </trkpt>
      <trkpt lat="46.07718" lon="4.09004">
        <ele>317.514551</ele>
        <time>2023-09-29T08:53:54.215Z</time>
      </trkpt>
      <trkpt lat="46.07727" lon="4.09003">
        <ele>317.522554</ele>
        <time>2023-09-29T08:53:56.212Z</time>
      </trkpt>
      <trkpt lat="46.07738" lon="4.09002">
        <ele>317.530953</ele>
        <time>2023-09-29T08:53:58.218Z</time>
      </trkpt>
      <trkpt lat="46.07748" lon="4.09001">
        <ele>317.539039</ele>
        <time>2023-09-29T08:54:00.211Z</time>
      </trkpt>
      <trkpt lat="46.07757" lon="4.09">
        <ele>317.546818</ele>
        <time>2023-09-29T08:54:02.213Z</time>
      </trkpt>
      <trkpt lat="46.07767" lon="4.08999">
        <ele>317.554265</ele>
        <time>2023-09-29T08:54:04.225Z</time>
      </trkpt>
      <trkpt lat="46.07776" lon="4.08999">
        <ele>317.562176</ele>
        <time>2023-09-29T08:54:06.206Z</time>
      </trkpt>
      <trkpt lat="46.07786" lon="4.08998">
        <ele>317.56994</ele>
        <time>2023-09-29T08:54:08.214Z</time>
      </trkpt>
      <trkpt lat="46.07795" lon="4.08996">
        <ele>317.598649</ele>
        <time>2023-09-29T08:54:10.207Z</time>
      </trkpt>
      <trkpt lat="46.07805" lon="4.08995">
        <ele>317.637061</ele>
        <time>2023-09-29T08:54:12.222Z</time>
      </trkpt>
      <trkpt lat="46.07815" lon="4.08995">
        <ele>317.675728</ele>
        <time>2023-09-29T08:54:14.206Z</time>
      </trkpt>
      <trkpt lat="46.07824" lon="4.08994">
        <ele>317.713686</ele>
        <time>2023-09-29T08:54:16.227Z</time>
      </trkpt>
      <trkpt lat="46.07834" lon="4.08992">
        <ele>317.754139</ele>
        <time>2023-09-29T08:54:18.219Z</time>
      </trkpt>
      <trkpt lat="46.07845" lon="4.08992">
        <ele>317.794786</ele>
        <time>2023-09-29T08:54:20.223Z</time>
      </trkpt>
      <trkpt lat="46.07855" lon="4.0899">
        <ele>317.834123</ele>
        <time>2023-09-29T08:54:22.213Z</time>
      </trkpt>
      <trkpt lat="46.07865" lon="4.0899">
        <ele>317.874376</ele>
        <time>2023-09-29T08:54:24.211Z</time>
      </trkpt>
      <trkpt lat="46.07875" lon="4.08989">
        <ele>317.913139</ele>
        <time>2023-09-29T08:54:26.211Z</time>
      </trkpt>
      <trkpt lat="46.07885" lon="4.08987">
        <ele>317.952807</ele>
        <time>2023-09-29T08:54:28.218Z</time>
      </trkpt>
      <trkpt lat="46.07895" lon="4.08986">
        <ele>317.994388</ele>
        <time>2023-09-29T08:54:30.224Z</time>
      </trkpt>
      <trkpt lat="46.07905" lon="4.08984">
        <ele>318.035358</ele>
        <time>2023-09-29T08:54:32.216Z</time>
      </trkpt>
      <trkpt lat="46.07915" lon="4.08983">
        <ele>318.075419</ele>
        <time>2023-09-29T08:54:34.215Z</time>
      </trkpt>
      <trkpt lat="46.07925" lon="4.08983">
        <ele>318.114874</ele>
        <time>2023-09-29T08:54:36.214Z</time>
      </trkpt>
      <trkpt lat="46.07935" lon="4.0898">
        <ele>318.153753</ele>
        <time>2023-09-29T08:54:38.214Z</time>
      </trkpt>
      <trkpt lat="46.07945" lon="4.08977">
        <ele>318.19289</ele>
        <time>2023-09-29T08:54:40.194Z</time>
      </trkpt>
      <trkpt lat="46.07954" lon="4.08973">
        <ele>318.231062</ele>
        <time>2023-09-29T08:54:42.229Z</time>
      </trkpt>
      <trkpt lat="46.07964" lon="4.08971">
        <ele>318.271364</ele>
        <time>2023-09-29T08:54:44.197Z</time>
      </trkpt>
      <trkpt lat="46.07974" lon="4.08968">
        <ele>318.331959</ele>
        <time>2023-09-29T08:54:46.204Z</time>
      </trkpt>
      <trkpt lat="46.07984" lon="4.08965">
        <ele>318.406567</ele>
        <time>2023-09-29T08:54:48.210Z</time>
      </trkpt>
      <trkpt lat="46.07993" lon="4.08963">
        <ele>318.476722</ele>
        <time>2023-09-29T08:54:50.207Z</time>
      </trkpt>
      <trkpt lat="46.08003" lon="4.0896">
        <ele>318.547916</ele>
        <time>2023-09-29T08:54:52.209Z</time>
      </trkpt>
      <trkpt lat="46.08013" lon="4.08959">
        <ele>318.621276</ele>
        <time>2023-09-29T08:54:54.214Z</time>
      </trkpt>
      <trkpt lat="46.08023" lon="4.08957">
        <ele>318.694363</ele>
        <time>2023-09-29T08:54:56.215Z</time>
      </trkpt>
      <trkpt lat="46.08033" lon="4.08954">
        <ele>318.766101</ele>
        <time>2023-09-29T08:54:58.211Z</time>
      </trkpt>
      <trkpt lat="46.08043" lon="4.08952">
        <ele>318.838992</ele>
        <time>2023-09-29T08:55:00.216Z</time>
      </trkpt>
      <trkpt lat="46.08052" lon="4.08949">
        <ele>318.909566</ele>
        <time>2023-09-29T08:55:02.215Z</time>
      </trkpt>
      <trkpt lat="46.08062" lon="4.08946">
        <ele>318.983607</ele>
        <time>2023-09-29T08:55:04.219Z</time>
      </trkpt>
      <trkpt lat="46.08072" lon="4.08944">
        <ele>319.054373</ele>
        <time>2023-09-29T08:55:06.207Z</time>
      </trkpt>
      <trkpt lat="46.08082" lon="4.08941">
        <ele>319.125481</ele>
        <time>2023-09-29T08:55:08.222Z</time>
      </trkpt>
      <trkpt lat="46.08091" lon="4.08938">
        <ele>319.195539</ele>
        <time>2023-09-29T08:55:10.215Z</time>
      </trkpt>
      <trkpt lat="46.08102" lon="4.08936">
        <ele>319.270698</ele>
        <time>2023-09-29T08:55:12.193Z</time>
      </trkpt>
      <trkpt lat="46.08111" lon="4.08934">
        <ele>319.342357</ele>
        <time>2023-09-29T08:55:14.217Z</time>
      </trkpt>
      <trkpt lat="46.08121" lon="4.08931">
        <ele>319.414251</ele>
        <time>2023-09-29T08:55:16.227Z</time>
      </trkpt>
      <trkpt lat="46.08131" lon="4.08929">
        <ele>319.483851</ele>
        <time>2023-09-29T08:55:18.235Z</time>
      </trkpt>
      <trkpt lat="46.0814" lon="4.08926">
        <ele>319.55381</ele>
        <time>2023-09-29T08:55:20.214Z</time>
      </trkpt>
      <trkpt lat="46.0815" lon="4.08923">
        <ele>319.53569</ele>
        <time>2023-09-29T08:55:22.200Z</time>
      </trkpt>
      <trkpt lat="46.08159" lon="4.08921">
        <ele>319.467213</ele>
        <time>2023-09-29T08:55:24.211Z</time>
      </trkpt>
      <trkpt lat="46.08169" lon="4.08919">
        <ele>319.397828</ele>
        <time>2023-09-29T08:55:26.241Z</time>
      </trkpt>
      <trkpt lat="46.08178" lon="4.08917">
        <ele>319.329453</ele>
        <time>2023-09-29T08:55:28.214Z</time>
      </trkpt>
      <trkpt lat="46.08187" lon="4.08914">
        <ele>319.264768</ele>
        <time>2023-09-29T08:55:30.214Z</time>
      </trkpt>
      <trkpt lat="46.08197" lon="4.08911">
        <ele>319.196301</ele>
        <time>2023-09-29T08:55:32.208Z</time>
      </trkpt>
      <trkpt lat="46.08206" lon="4.08908">
        <ele>319.125928</ele>
        <time>2023-09-29T08:55:34.208Z</time>
      </trkpt>
      <trkpt lat="46.08215" lon="4.08907">
        <ele>319.060409</ele>
        <time>2023-09-29T08:55:36.237Z</time>
      </trkpt>
      <trkpt lat="46.08225" lon="4.08904">
        <ele>318.992912</ele>
        <time>2023-09-29T08:55:38.231Z</time>
      </trkpt>
      <trkpt lat="46.08235" lon="4.08902">
        <ele>318.918113</ele>
        <time>2023-09-29T08:55:40.225Z</time>
      </trkpt>
      <trkpt lat="46.08245" lon="4.08899">
        <ele>318.84725</ele>
        <time>2023-09-29T08:55:42.236Z</time>
      </trkpt>
      <trkpt lat="46.08254" lon="4.08896">
        <ele>318.779389</ele>
        <time>2023-09-29T08:55:44.216Z</time>
      </trkpt>
      <trkpt lat="46.08264" lon="4.08894">
        <ele>318.708364</ele>
        <time>2023-09-29T08:55:46.202Z</time>
      </trkpt>
      <trkpt lat="46.08273" lon="4.08892">
        <ele>318.64219</ele>
        <time>2023-09-29T08:55:48.214Z</time>
      </trkpt>
      <trkpt lat="46.08282" lon="4.08889">
        <ele>318.573903</ele>
        <time>2023-09-29T08:55:50.233Z</time>
      </trkpt>
      <trkpt lat="46.08292" lon="4.08887">
        <ele>318.505934</ele>
        <time>2023-09-29T08:55:52.218Z</time>
      </trkpt>
      <trkpt lat="46.08301" lon="4.08885">
        <ele>318.437558</ele>
        <time>2023-09-29T08:55:54.221Z</time>
      </trkpt>
      <trkpt lat="46.08311" lon="4.08882">
        <ele>318.368197</ele>
        <time>2023-09-29T08:55:56.218Z</time>
      </trkpt>
      <trkpt lat="46.0832" lon="4.08879">
        <ele>318.299822</ele>
        <time>2023-09-29T08:55:58.218Z</time>
      </trkpt>
      <trkpt lat="46.0833" lon="4.08878">
        <ele>318.374513</ele>
        <time>2023-09-29T08:56:00.223Z</time>
      </trkpt>
      <trkpt lat="46.0834" lon="4.08876">
        <ele>318.462583</ele>
        <time>2023-09-29T08:56:02.217Z</time>
      </trkpt>
      <trkpt lat="46.08349" lon="4.08873">
        <ele>318.548834</ele>
        <time>2023-09-29T08:56:04.220Z</time>
      </trkpt>
      <trkpt lat="46.08359" lon="4.08871">
        <ele>318.633884</ele>
        <time>2023-09-29T08:56:06.233Z</time>
      </trkpt>
      <trkpt lat="46.08369" lon="4.08868">
        <ele>318.725225</ele>
        <time>2023-09-29T08:56:08.213Z</time>
      </trkpt>
      <trkpt lat="46.08379" lon="4.08865">
        <ele>318.81592</ele>
        <time>2023-09-29T08:56:10.227Z</time>
      </trkpt>
      <trkpt lat="46.08389" lon="4.08862">
        <ele>318.901949</ele>
        <time>2023-09-29T08:56:12.208Z</time>
      </trkpt>
      <trkpt lat="46.08399" lon="4.08859">
        <ele>318.991898</ele>
        <time>2023-09-29T08:56:14.206Z</time>
      </trkpt>
      <trkpt lat="46.08408" lon="4.08857">
        <ele>319.079454</ele>
        <time>2023-09-29T08:56:16.214Z</time>
      </trkpt>
      <trkpt lat="46.08418" lon="4.08855">
        <ele>319.164503</ele>
        <time>2023-09-29T08:56:18.230Z</time>
      </trkpt>
      <trkpt lat="46.08428" lon="4.08852">
        <ele>319.256931</ele>
        <time>2023-09-29T08:56:20.210Z</time>
      </trkpt>
      <trkpt lat="46.08438" lon="4.08849">
        <ele>319.343719</ele>
        <time>2023-09-29T08:56:22.210Z</time>
      </trkpt>
      <trkpt lat="46.08448" lon="4.08847">
        <ele>319.433434</ele>
        <time>2023-09-29T08:56:24.228Z</time>
      </trkpt>
      <trkpt lat="46.08457" lon="4.08844">
        <ele>319.519569</ele>
        <time>2023-09-29T08:56:26.232Z</time>
      </trkpt>
      <trkpt lat="46.08467" lon="4.08842">
        <ele>319.606158</ele>
        <time>2023-09-29T08:56:28.219Z</time>
      </trkpt>
      <trkpt lat="46.08477" lon="4.08839">
        <ele>319.69316</ele>
        <time>2023-09-29T08:56:30.228Z</time>
      </trkpt>
      <trkpt lat="46.08486" lon="4.08837">
        <ele>319.778318</ele>
        <time>2023-09-29T08:56:32.213Z</time>
      </trkpt>
      <trkpt lat="46.08496" lon="4.08834">
        <ele>319.865974</ele>
        <time>2023-09-29T08:56:34.216Z</time>
      </trkpt>
      <trkpt lat="46.08506" lon="4.08832">
        <ele>319.766773</ele>
        <time>2023-09-29T08:56:36.212Z</time>
      </trkpt>
      <trkpt lat="46.08515" lon="4.08828">
        <ele>319.637765</ele>
        <time>2023-09-29T08:56:38.205Z</time>
      </trkpt>
      <trkpt lat="46.08525" lon="4.08826">
        <ele>319.499976</ele>
        <time>2023-09-29T08:56:40.214Z</time>
      </trkpt>
      <trkpt lat="46.08535" lon="4.08823">
        <ele>319.361548</ele>
        <time>2023-09-29T08:56:42.210Z</time>
      </trkpt>
      <trkpt lat="46.08545" lon="4.08821">
        <ele>319.220405</ele>
        <time>2023-09-29T08:56:44.232Z</time>
      </trkpt>
      <trkpt lat="46.08554" lon="4.08818">
        <ele>319.084518</ele>
        <time>2023-09-29T08:56:46.212Z</time>
      </trkpt>
      <trkpt lat="46.08564" lon="4.08815">
        <ele>318.952122</ele>
        <time>2023-09-29T08:56:48.201Z</time>
      </trkpt>
      <trkpt lat="46.08574" lon="4.08813">
        <ele>318.815664</ele>
        <time>2023-09-29T08:56:50.217Z</time>
      </trkpt>
      <trkpt lat="46.08583" lon="4.0881">
        <ele>318.680849</ele>
        <time>2023-09-29T08:56:52.215Z</time>
      </trkpt>
      <trkpt lat="46.08592" lon="4.08807">
        <ele>318.55089</ele>
        <time>2023-09-29T08:56:54.211Z</time>
      </trkpt>
      <trkpt lat="46.08602" lon="4.08806">
        <ele>318.417789</ele>
        <time>2023-09-29T08:56:56.218Z</time>
      </trkpt>
      <trkpt lat="46.08611" lon="4.08803">
        <ele>318.286138</ele>
        <time>2023-09-29T08:56:58.217Z</time>
      </trkpt>
      <trkpt lat="46.08621" lon="4.08801">
        <ele>318.157696</ele>
        <time>2023-09-29T08:57:00.213Z</time>
      </trkpt>
      <trkpt lat="46.0863" lon="4.08799">
        <ele>318.028458</ele>
        <time>2023-09-29T08:57:02.214Z</time>
      </trkpt>
      <trkpt lat="46.0864" lon="4.08797">
        <ele>317.889862</ele>
        <time>2023-09-29T08:57:04.213Z</time>
      </trkpt>
      <trkpt lat="46.0865" lon="4.08795">
        <ele>317.747179</ele>
        <time>2023-09-29T08:57:06.210Z</time>
      </trkpt>
      <trkpt lat="46.0866" lon="4.08792">
        <ele>317.604171</ele>
        <time>2023-09-29T08:57:08.214Z</time>
      </trkpt>
      <trkpt lat="46.0867" lon="4.08789">
        <ele>317.469459</ele>
        <time>2023-09-29T08:57:10.214Z</time>
      </trkpt>
      <trkpt lat="46.0868" lon="4.08786">
        <ele>317.469426</ele>
        <time>2023-09-29T08:57:12.204Z</time>
      </trkpt>
      <trkpt lat="46.08689" lon="4.08782">
        <ele>317.598216</ele>
        <time>2023-09-29T08:57:14.222Z</time>
      </trkpt>
      <trkpt lat="46.08699" lon="4.08779">
        <ele>317.730926</ele>
        <time>2023-09-29T08:57:16.214Z</time>
      </trkpt>
      <trkpt lat="46.08708" lon="4.08777">
        <ele>317.856363</ele>
        <time>2023-09-29T08:57:18.197Z</time>
      </trkpt>
      <trkpt lat="46.08717" lon="4.08773">
        <ele>317.984387</ele>
        <time>2023-09-29T08:57:20.211Z</time>
      </trkpt>
      <trkpt lat="46.08727" lon="4.08767">
        <ele>318.119218</ele>
        <time>2023-09-29T08:57:22.196Z</time>
      </trkpt>
      <trkpt lat="46.08737" lon="4.08764">
        <ele>318.249853</ele>
        <time>2023-09-29T08:57:24.216Z</time>
      </trkpt>
      <trkpt lat="46.08746" lon="4.08765">
        <ele>318.380433</ele>
        <time>2023-09-29T08:57:26.209Z</time>
      </trkpt>
      <trkpt lat="46.08756" lon="4.08763">
        <ele>318.510391</ele>
        <time>2023-09-29T08:57:28.220Z</time>
      </trkpt>
      <trkpt lat="46.08769" lon="4.08761">
        <ele>318.676048</ele>
        <time>2023-09-29T08:57:31.217Z</time>
      </trkpt>
      <trkpt lat="46.0878" lon="4.08759">
        <ele>318.830998</ele>
        <time>2023-09-29T08:57:34.210Z</time>
      </trkpt>
      <trkpt lat="46.08792" lon="4.08755">
        <ele>318.98193</ele>
        <time>2023-09-29T08:57:37.226Z</time>
      </trkpt>
      <trkpt lat="46.08802" lon="4.08753">
        <ele>319.123425</ele>
        <time>2023-09-29T08:57:40.245Z</time>
      </trkpt>
      <trkpt lat="46.08811" lon="4.08751">
        <ele>319.244678</ele>
        <time>2023-09-29T08:57:43.225Z</time>
      </trkpt>
      <trkpt lat="46.0882" lon="4.08748">
        <ele>319.363135</ele>
        <time>2023-09-29T08:57:46.220Z</time>
      </trkpt>
      <trkpt lat="46.08831" lon="4.08746">
        <ele>319.507838</ele>
        <time>2023-09-29T08:57:50.209Z</time>
      </trkpt>
      <trkpt lat="46.08841" lon="4.08743">
        <ele>319.637943</ele>
        <time>2023-09-29T08:57:54.216Z</time>
      </trkpt>
      <trkpt lat="46.0885" lon="4.08741">
        <ele>319.759196</ele>
        <time>2023-09-29T08:57:58.214Z</time>
      </trkpt>
      <trkpt lat="46.0886" lon="4.08738">
        <ele>319.624148</ele>
        <time>2023-09-29T08:58:03.226Z</time>
      </trkpt>
      <trkpt lat="46.08871" lon="4.08734">
        <ele>319.454673</ele>
        <time>2023-09-29T08:58:07.209Z</time>
      </trkpt>
      <trkpt lat="46.08881" lon="4.08732">
        <ele>319.307472</ele>
        <time>2023-09-29T08:58:10.216Z</time>
      </trkpt>
      <trkpt lat="46.0889" lon="4.08729">
        <ele>319.15554</ele>
        <time>2023-09-29T08:58:13.224Z</time>
      </trkpt>
      <trkpt lat="46.089" lon="4.08726">
        <ele>319.002294</ele>
        <time>2023-09-29T08:58:16.229Z</time>
      </trkpt>
      <trkpt lat="46.0891" lon="4.08724">
        <ele>318.843983</ele>
        <time>2023-09-29T08:58:19.223Z</time>
      </trkpt>
      <trkpt lat="46.0892" lon="4.08721">
        <ele>318.683885</ele>
        <time>2023-09-29T08:58:22.232Z</time>
      </trkpt>
      <trkpt lat="46.08931" lon="4.08719">
        <ele>318.514762</ele>
        <time>2023-09-29T08:58:25.217Z</time>
      </trkpt>
      <trkpt lat="46.08944" lon="4.08716">
        <ele>318.317217</ele>
        <time>2023-09-29T08:58:28.212Z</time>
      </trkpt>
      <trkpt lat="46.08957" lon="4.08713">
        <ele>318.116429</ele>
        <time>2023-09-29T08:58:31.214Z</time>
      </trkpt>
      <trkpt lat="46.08966" lon="4.08711">
        <ele>317.976216</ele>
        <time>2023-09-29T08:58:33.217Z</time>
      </trkpt>
      <trkpt lat="46.08978" lon="4.08708">
        <ele>317.784184</ele>
        <time>2023-09-29T08:58:36.213Z</time>
      </trkpt>
      <trkpt lat="46.08991" lon="4.08704">
        <ele>317.586429</ele>
        <time>2023-09-29T08:58:39.216Z</time>
      </trkpt>
      <trkpt lat="46.09004" lon="4.08701">
        <ele>317.386393</ele>
        <time>2023-09-29T08:58:42.221Z</time>
      </trkpt>
      <trkpt lat="46.09013" lon="4.08699">
        <ele>317.245823</ele>
        <time>2023-09-29T08:58:44.221Z</time>
      </trkpt>
      <trkpt lat="46.09026" lon="4.08696">
        <ele>317.036576</ele>
        <time>2023-09-29T08:58:47.217Z</time>
      </trkpt>
      <trkpt lat="46.09035" lon="4.08693">
        <ele>316.962729</ele>
        <time>2023-09-29T08:58:49.211Z</time>
      </trkpt>
      <trkpt lat="46.09044" lon="4.08691">
        <ele>316.90498</ele>
        <time>2023-09-29T08:58:51.221Z</time>
      </trkpt>
      <trkpt lat="46.09054" lon="4.08688">
        <ele>316.844158</ele>
        <time>2023-09-29T08:58:53.216Z</time>
      </trkpt>
      <trkpt lat="46.09063" lon="4.08686">
        <ele>316.787244</ele>
        <time>2023-09-29T08:58:55.215Z</time>
      </trkpt>
      <trkpt lat="46.09072" lon="4.08684">
        <ele>316.728107</ele>
        <time>2023-09-29T08:58:57.215Z</time>
      </trkpt>
      <trkpt lat="46.09082" lon="4.08681">
        <ele>316.66705</ele>
        <time>2023-09-29T08:58:59.213Z</time>
      </trkpt>
      <trkpt lat="46.09091" lon="4.08678">
        <ele>316.608964</ele>
        <time>2023-09-29T08:59:01.218Z</time>
      </trkpt>
      <trkpt lat="46.09104" lon="4.08675">
        <ele>316.526162</ele>
        <time>2023-09-29T08:59:04.195Z</time>
      </trkpt>
      <trkpt lat="46.09113" lon="4.08673">
        <ele>316.469249</ele>
        <time>2023-09-29T08:59:06.230Z</time>
      </trkpt>
      <trkpt lat="46.09122" lon="4.08671">
        <ele>316.408568</ele>
        <time>2023-09-29T08:59:08.214Z</time>
      </trkpt>
      <trkpt lat="46.09132" lon="4.08668">
        <ele>316.347746</ele>
        <time>2023-09-29T08:59:10.206Z</time>
      </trkpt>
      <trkpt lat="46.09141" lon="4.08667">
        <ele>316.288607</ele>
        <time>2023-09-29T08:59:12.209Z</time>
      </trkpt>
      <trkpt lat="46.09151" lon="4.08665">
        <ele>316.226141</ele>
        <time>2023-09-29T08:59:14.231Z</time>
      </trkpt>
      <trkpt lat="46.09161" lon="4.08662">
        <ele>316.167532</ele>
        <time>2023-09-29T08:59:16.228Z</time>
      </trkpt>
      <trkpt lat="46.0917" lon="4.08659">
        <ele>316.106635</ele>
        <time>2023-09-29T08:59:18.210Z</time>
      </trkpt>
      <trkpt lat="46.0918" lon="4.08657">
        <ele>316.046702</ele>
        <time>2023-09-29T08:59:20.214Z</time>
      </trkpt>
      <trkpt lat="46.0919" lon="4.08655">
        <ele>315.983737</ele>
        <time>2023-09-29T08:59:22.237Z</time>
      </trkpt>
      <trkpt lat="46.09199" lon="4.08653">
        <ele>315.925826</ele>
        <time>2023-09-29T08:59:24.213Z</time>
      </trkpt>
      <trkpt lat="46.09209" lon="4.08651">
        <ele>315.897168</ele>
        <time>2023-09-29T08:59:26.229Z</time>
      </trkpt>
      <trkpt lat="46.09219" lon="4.08648">
        <ele>315.925787</ele>
        <time>2023-09-29T08:59:28.190Z</time>
      </trkpt>
      <trkpt lat="46.09228" lon="4.08645">
        <ele>315.953374</ele>
        <time>2023-09-29T08:59:30.215Z</time>
      </trkpt>
      <trkpt lat="46.09238" lon="4.08643">
        <ele>315.982132</ele>
        <time>2023-09-29T08:59:32.213Z</time>
      </trkpt>
      <trkpt lat="46.09248" lon="4.0864">
        <ele>316.011236</ele>
        <time>2023-09-29T08:59:34.216Z</time>
      </trkpt>
      <trkpt lat="46.09259" lon="4.08638">
        <ele>316.041113</ele>
        <time>2023-09-29T08:59:36.219Z</time>
      </trkpt>
      <trkpt lat="46.09269" lon="4.08635">
        <ele>316.07068</ele>
        <time>2023-09-29T08:59:38.227Z</time>
      </trkpt>
      <trkpt lat="46.09279" lon="4.08633">
        <ele>316.100172</ele>
        <time>2023-09-29T08:59:40.212Z</time>
      </trkpt>
      <trkpt lat="46.0929" lon="4.0863">
        <ele>316.129681</ele>
        <time>2023-09-29T08:59:42.215Z</time>
      </trkpt>
      <trkpt lat="46.09299" lon="4.08627">
        <ele>316.1581</ele>
        <time>2023-09-29T08:59:44.210Z</time>
      </trkpt>
      <trkpt lat="46.09309" lon="4.08624">
        <ele>316.186788</ele>
        <time>2023-09-29T08:59:46.218Z</time>
      </trkpt>
      <trkpt lat="46.09319" lon="4.0862">
        <ele>316.215106</ele>
        <time>2023-09-29T08:59:48.210Z</time>
      </trkpt>
      <trkpt lat="46.09329" lon="4.08618">
        <ele>316.24296</ele>
        <time>2023-09-29T08:59:50.225Z</time>
      </trkpt>
      <trkpt lat="46.09338" lon="4.08615">
        <ele>316.271102</ele>
        <time>2023-09-29T08:59:52.216Z</time>
      </trkpt>
      <trkpt lat="46.09348" lon="4.08613">
        <ele>316.299021</ele>
        <time>2023-09-29T08:59:54.212Z</time>
      </trkpt>
      <trkpt lat="46.09358" lon="4.0861">
        <ele>316.326527</ele>
        <time>2023-09-29T08:59:56.216Z</time>
      </trkpt>
      <trkpt lat="46.09367" lon="4.08607">
        <ele>316.354273</ele>
        <time>2023-09-29T08:59:58.221Z</time>
      </trkpt>
      <trkpt lat="46.09377" lon="4.08605">
        <ele>316.382471</ele>
        <time>2023-09-29T09:00:00.234Z</time>
      </trkpt>
      <trkpt lat="46.09387" lon="4.08603">
        <ele>316.363028</ele>
        <time>2023-09-29T09:00:02.201Z</time>
      </trkpt>
      <trkpt lat="46.09397" lon="4.086">
        <ele>316.300636</ele>
        <time>2023-09-29T09:00:04.203Z</time>
      </trkpt>
      <trkpt lat="46.09406" lon="4.08598">
        <ele>316.243017</ele>
        <time>2023-09-29T09:00:06.221Z</time>
      </trkpt>
      <trkpt lat="46.09416" lon="4.08595">
        <ele>316.180872</ele>
        <time>2023-09-29T09:00:08.214Z</time>
      </trkpt>
      <trkpt lat="46.09425" lon="4.08593">
        <ele>316.120032</ele>
        <time>2023-09-29T09:00:10.215Z</time>
      </trkpt>
      <trkpt lat="46.09434" lon="4.08591">
        <ele>316.062623</ele>
        <time>2023-09-29T09:00:12.221Z</time>
      </trkpt>
      <trkpt lat="46.09444" lon="4.08589">
        <ele>316.004043</ele>
        <time>2023-09-29T09:00:14.214Z</time>
      </trkpt>
      <trkpt lat="46.09455" lon="4.08585">
        <ele>315.929757</ele>
        <time>2023-09-29T09:00:17.212Z</time>
      </trkpt>
      <trkpt lat="46.09468" lon="4.08582">
        <ele>315.852422</ele>
        <time>2023-09-29T09:00:20.219Z</time>
      </trkpt>
      <trkpt lat="46.09476" lon="4.08579">
        <ele>315.796484</ele>
        <time>2023-09-29T09:00:22.199Z</time>
      </trkpt>
      <trkpt lat="46.09485" lon="4.08577">
        <ele>315.739008</ele>
        <time>2023-09-29T09:00:24.230Z</time>
      </trkpt>
      <trkpt lat="46.09495" lon="4.08575">
        <ele>315.679749</ele>
        <time>2023-09-29T09:00:26.192Z</time>
      </trkpt>
      <trkpt lat="46.09504" lon="4.08573">
        <ele>315.621441</ele>
        <time>2023-09-29T09:00:28.219Z</time>
      </trkpt>
      <trkpt lat="46.09514" lon="4.0857">
        <ele>315.558069</ele>
        <time>2023-09-29T09:00:30.222Z</time>
      </trkpt>
      <trkpt lat="46.09524" lon="4.08568">
        <ele>315.495163</ele>
        <time>2023-09-29T09:00:32.213Z</time>
      </trkpt>
      <trkpt lat="46.09534" lon="4.08566">
        <ele>315.430402</ele>
        <time>2023-09-29T09:00:34.211Z</time>
      </trkpt>
      <trkpt lat="46.09545" lon="4.08564">
        <ele>315.365261</ele>
        <time>2023-09-29T09:00:36.210Z</time>
      </trkpt>
      <trkpt lat="46.09554" lon="4.0856">
        <ele>315.303004</ele>
        <time>2023-09-29T09:00:38.210Z</time>
      </trkpt>
      <trkpt lat="46.09564" lon="4.08558">
        <ele>315.281613</ele>
        <time>2023-09-29T09:00:40.212Z</time>
      </trkpt>
      <trkpt lat="46.09574" lon="4.08555">
        <ele>315.295274</ele>
        <time>2023-09-29T09:00:42.223Z</time>
      </trkpt>
      <trkpt lat="46.09584" lon="4.08552">
        <ele>315.308505</ele>
        <time>2023-09-29T09:00:44.228Z</time>
      </trkpt>
      <trkpt lat="46.09593" lon="4.0855">
        <ele>315.321536</ele>
        <time>2023-09-29T09:00:46.216Z</time>
      </trkpt>
      <trkpt lat="46.09604" lon="4.08548">
        <ele>315.335413</ele>
        <time>2023-09-29T09:00:48.211Z</time>
      </trkpt>
      <trkpt lat="46.09614" lon="4.08545">
        <ele>315.349367</ele>
        <time>2023-09-29T09:00:50.210Z</time>
      </trkpt>
      <trkpt lat="46.09624" lon="4.08542">
        <ele>315.363029</ele>
        <time>2023-09-29T09:00:52.214Z</time>
      </trkpt>
      <trkpt lat="46.09634" lon="4.0854">
        <ele>315.376208</ele>
        <time>2023-09-29T09:00:54.213Z</time>
      </trkpt>
      <trkpt lat="46.09644" lon="4.08538">
        <ele>315.389751</ele>
        <time>2023-09-29T09:00:56.215Z</time>
      </trkpt>
      <trkpt lat="46.09654" lon="4.08535">
        <ele>315.403605</ele>
        <time>2023-09-29T09:00:58.223Z</time>
      </trkpt>
      <trkpt lat="46.09664" lon="4.08533">
        <ele>315.417518</ele>
        <time>2023-09-29T09:01:00.215Z</time>
      </trkpt>
      <trkpt lat="46.09675" lon="4.0853">
        <ele>315.431761</ele>
        <time>2023-09-29T09:01:02.230Z</time>
      </trkpt>
      <trkpt lat="46.09684" lon="4.08527">
        <ele>315.44486</ele>
        <time>2023-09-29T09:01:04.215Z</time>
      </trkpt>
      <trkpt lat="46.09694" lon="4.08524">
        <ele>315.458933</ele>
        <time>2023-09-29T09:01:06.210Z</time>
      </trkpt>
      <trkpt lat="46.09705" lon="4.08521">
        <ele>315.472859</ele>
        <time>2023-09-29T09:01:08.212Z</time>
      </trkpt>
      <trkpt lat="46.09715" lon="4.08518">
        <ele>315.487294</ele>
        <time>2023-09-29T09:01:10.220Z</time>
      </trkpt>
      <trkpt lat="46.09725" lon="4.08515">
        <ele>315.501148</ele>
        <time>2023-09-29T09:01:12.222Z</time>
      </trkpt>
      <trkpt lat="46.09736" lon="4.08513">
        <ele>315.517013</ele>
        <time>2023-09-29T09:01:14.216Z</time>
      </trkpt>
      <trkpt lat="46.09746" lon="4.0851">
        <ele>315.696275</ele>
        <time>2023-09-29T09:01:16.216Z</time>
      </trkpt>
      <trkpt lat="46.09756" lon="4.08508">
        <ele>315.876862</ele>
        <time>2023-09-29T09:01:18.215Z</time>
      </trkpt>
      <trkpt lat="46.09766" lon="4.08505">
        <ele>316.050197</ele>
        <time>2023-09-29T09:01:20.228Z</time>
      </trkpt>
      <trkpt lat="46.09775" lon="4.08503">
        <ele>316.210701</ele>
        <time>2023-09-29T09:01:22.228Z</time>
      </trkpt>
      <trkpt lat="46.09788" lon="4.08498">
        <ele>316.435607</ele>
        <time>2023-09-29T09:01:25.221Z</time>
      </trkpt>
      <trkpt lat="46.098" lon="4.08495">
        <ele>316.649282</ele>
        <time>2023-09-29T09:01:28.220Z</time>
      </trkpt>
      <trkpt lat="46.09812" lon="4.08492">
        <ele>316.854376</ele>
        <time>2023-09-29T09:01:31.233Z</time>
      </trkpt>
      <trkpt lat="46.09822" lon="4.08489">
        <ele>317.03693</ele>
        <time>2023-09-29T09:01:34.216Z</time>
      </trkpt>
      <trkpt lat="46.09831" lon="4.08486">
        <ele>317.204932</ele>
        <time>2023-09-29T09:01:37.209Z</time>
      </trkpt>
      <trkpt lat="46.09841" lon="4.08484">
        <ele>317.365488</ele>
        <time>2023-09-29T09:01:40.212Z</time>
      </trkpt>
      <trkpt lat="46.09851" lon="4.08481">
        <ele>317.543229</ele>
        <time>2023-09-29T09:01:44.218Z</time>
      </trkpt>
      <trkpt lat="46.0986" lon="4.08476">
        <ele>317.711113</ele>
        <time>2023-09-29T09:01:47.194Z</time>
      </trkpt>
      <trkpt lat="46.0987" lon="4.08469">
        <ele>317.913111</ele>
        <time>2023-09-29T09:01:50.217Z</time>
      </trkpt>
      <trkpt lat="46.09883" lon="4.0847">
        <ele>318.134968</ele>
        <time>2023-09-29T09:01:53.209Z</time>
      </trkpt>
      <trkpt lat="46.09892" lon="4.08471">
        <ele>318.29319</ele>
        <time>2023-09-29T09:01:55.215Z</time>
      </trkpt>
      <trkpt lat="46.09905" lon="4.08469">
        <ele>318.517423</ele>
        <time>2023-09-29T09:01:58.210Z</time>
      </trkpt>
      <trkpt lat="46.09918" lon="4.08466">
        <ele>318.539502</ele>
        <time>2023-09-29T09:02:01.228Z</time>
      </trkpt>
      <trkpt lat="46.09931" lon="4.08464">
        <ele>318.352997</ele>
        <time>2023-09-29T09:02:04.215Z</time>
      </trkpt>
      <trkpt lat="46.09941" lon="4.08462">
        <ele>318.223975</ele>
        <time>2023-09-29T09:02:06.209Z</time>
      </trkpt>
      <trkpt lat="46.0995" lon="4.08459">
        <ele>318.091289</ele>
        <time>2023-09-29T09:02:08.215Z</time>
      </trkpt>
      <trkpt lat="46.09959" lon="4.08457">
        <ele>317.960226</ele>
        <time>2023-09-29T09:02:10.213Z</time>
      </trkpt>
      <trkpt lat="46.09969" lon="4.08455">
        <ele>317.825438</ele>
        <time>2023-09-29T09:02:12.220Z</time>
      </trkpt>
      <trkpt lat="46.09978" lon="4.08452">
        <ele>317.689824</ele>
        <time>2023-09-29T09:02:14.212Z</time>
      </trkpt>
      <trkpt lat="46.09988" lon="4.08449">
        <ele>317.548778</ele>
        <time>2023-09-29T09:02:16.217Z</time>
      </trkpt>
      <trkpt lat="46.09998" lon="4.08444">
        <ele>317.40731</ele>
        <time>2023-09-29T09:02:18.220Z</time>
      </trkpt>
      <trkpt lat="46.10006" lon="4.08437">
        <ele>317.271329</ele>
        <time>2023-09-29T09:02:20.227Z</time>
      </trkpt>
      <trkpt lat="46.10016" lon="4.08432">
        <ele>317.127505</ele>
        <time>2023-09-29T09:02:22.220Z</time>
      </trkpt>
      <trkpt lat="46.10025" lon="4.08426">
        <ele>316.986045</ele>
        <time>2023-09-29T09:02:24.222Z</time>
      </trkpt>
      <trkpt lat="46.10034" lon="4.08419">
        <ele>316.843787</ele>
        <time>2023-09-29T09:02:26.209Z</time>
      </trkpt>
      <trkpt lat="46.10044" lon="4.08412">
        <ele>316.696888</ele>
        <time>2023-09-29T09:02:28.207Z</time>
      </trkpt>
      <trkpt lat="46.10052" lon="4.08404">
        <ele>316.558649</ele>
        <time>2023-09-29T09:02:30.216Z</time>
      </trkpt>
      <trkpt lat="46.1006" lon="4.08396">
        <ele>316.420859</ele>
        <time>2023-09-29T09:02:32.217Z</time>
      </trkpt>
      <trkpt lat="46.10069" lon="4.08387">
        <ele>316.276869</ele>
        <time>2023-09-29T09:02:34.209Z</time>
      </trkpt>
      <trkpt lat="46.10077" lon="4.08378">
        <ele>316.133979</ele>
        <time>2023-09-29T09:02:36.223Z</time>
      </trkpt>
      <trkpt lat="46.10085" lon="4.08369">
        <ele>316.203419</ele>
        <time>2023-09-29T09:02:38.215Z</time>
      </trkpt>
      <trkpt lat="46.10093" lon="4.0836">
        <ele>316.281443</ele>
        <time>2023-09-29T09:02:40.226Z</time>
      </trkpt>
      <trkpt lat="46.10101" lon="4.08352">
        <ele>316.358828</ele>
        <time>2023-09-29T09:02:42.222Z</time>
      </trkpt>
      <trkpt lat="46.1011" lon="4.08345">
        <ele>316.437081</ele>
        <time>2023-09-29T09:02:44.218Z</time>
      </trkpt>
      <trkpt lat="46.10119" lon="4.08338">
        <ele>316.516182</ele>
        <time>2023-09-29T09:02:46.210Z</time>
      </trkpt>
      <trkpt lat="46.10128" lon="4.08331">
        <ele>316.594551</ele>
        <time>2023-09-29T09:02:48.206Z</time>
      </trkpt>
      <trkpt lat="46.10138" lon="4.08325">
        <ele>316.675049</ele>
        <time>2023-09-29T09:02:50.215Z</time>
      </trkpt>
      <trkpt lat="46.10148" lon="4.08321">
        <ele>316.755806</ele>
        <time>2023-09-29T09:02:52.204Z</time>
      </trkpt>
      <trkpt lat="46.10157" lon="4.08316">
        <ele>316.832255</ele>
        <time>2023-09-29T09:02:54.210Z</time>
      </trkpt>
      <trkpt lat="46.10167" lon="4.08313">
        <ele>316.910087</ele>
        <time>2023-09-29T09:02:56.204Z</time>
      </trkpt>
      <trkpt lat="46.10178" lon="4.08311">
        <ele>316.990632</ele>
        <time>2023-09-29T09:02:58.223Z</time>
      </trkpt>
      <trkpt lat="46.10188" lon="4.08308">
        <ele>317.06881</ele>
        <time>2023-09-29T09:03:00.235Z</time>
      </trkpt>
      <trkpt lat="46.10198" lon="4.08306">
        <ele>317.147322</ele>
        <time>2023-09-29T09:03:02.213Z</time>
      </trkpt>
      <trkpt lat="46.10208" lon="4.08305">
        <ele>317.227638</ele>
        <time>2023-09-29T09:03:04.210Z</time>
      </trkpt>
      <trkpt lat="46.10219" lon="4.08305">
        <ele>317.309255</ele>
        <time>2023-09-29T09:03:06.204Z</time>
      </trkpt>
      <trkpt lat="46.10229" lon="4.08307">
        <ele>317.386505</ele>
        <time>2023-09-29T09:03:08.220Z</time>
      </trkpt>
      <trkpt lat="46.10239" lon="4.08308">
        <ele>317.46601</ele>
        <time>2023-09-29T09:03:10.211Z</time>
      </trkpt>
      <trkpt lat="46.10249" lon="4.08309">
        <ele>317.535279</ele>
        <time>2023-09-29T09:03:12.226Z</time>
      </trkpt>
      <trkpt lat="46.1026" lon="4.08312">
        <ele>317.59008</ele>
        <time>2023-09-29T09:03:14.207Z</time>
      </trkpt>
      <trkpt lat="46.10269" lon="4.08316">
        <ele>317.643478</ele>
        <time>2023-09-29T09:03:16.231Z</time>
      </trkpt>
      <trkpt lat="46.10279" lon="4.08321">
        <ele>317.697416</ele>
        <time>2023-09-29T09:03:18.217Z</time>
      </trkpt>
      <trkpt lat="46.10289" lon="4.08326">
        <ele>317.751731</ele>
        <time>2023-09-29T09:03:20.225Z</time>
      </trkpt>
      <trkpt lat="46.10298" lon="4.08331">
        <ele>317.802837</ele>
        <time>2023-09-29T09:03:22.236Z</time>
      </trkpt>
      <trkpt lat="46.10307" lon="4.08337">
        <ele>317.856391</ele>
        <time>2023-09-29T09:03:24.210Z</time>
      </trkpt>
      <trkpt lat="46.10316" lon="4.08343">
        <ele>317.909599</ele>
        <time>2023-09-29T09:03:26.215Z</time>
      </trkpt>
      <trkpt lat="46.10325" lon="4.08351">
        <ele>317.965531</ele>
        <time>2023-09-29T09:03:28.205Z</time>
      </trkpt>
      <trkpt lat="46.10336" lon="4.08354">
        <ele>318.023617</ele>
        <time>2023-09-29T09:03:30.207Z</time>
      </trkpt>
      <trkpt lat="46.10346" lon="4.08358">
        <ele>318.079233</ele>
        <time>2023-09-29T09:03:32.227Z</time>
      </trkpt>
      <trkpt lat="46.10356" lon="4.08363">
        <ele>318.132568</ele>
        <time>2023-09-29T09:03:34.214Z</time>
      </trkpt>
      <trkpt lat="46.10366" lon="4.08369">
        <ele>318.189606</ele>
        <time>2023-09-29T09:03:36.206Z</time>
      </trkpt>
      <trkpt lat="46.10375" lon="4.08375">
        <ele>318.24379</ele>
        <time>2023-09-29T09:03:38.202Z</time>
      </trkpt>
      <trkpt lat="46.10384" lon="4.08382">
        <ele>318.296364</ele>
        <time>2023-09-29T09:03:40.194Z</time>
      </trkpt>
      <trkpt lat="46.10393" lon="4.08387">
        <ele>318.347996</ele>
        <time>2023-09-29T09:03:42.192Z</time>
      </trkpt>
      <trkpt lat="46.10403" lon="4.08394">
        <ele>318.405006</ele>
        <time>2023-09-29T09:03:45.217Z</time>
      </trkpt>
      <trkpt lat="46.10411" lon="4.08401">
        <ele>318.45642</ele>
        <time>2023-09-29T09:03:48.217Z</time>
      </trkpt>
      <trkpt lat="46.10425" lon="4.08408">
        <ele>318.110831</ele>
        <time>2023-09-29T09:03:51.199Z</time>
      </trkpt>
      <trkpt lat="46.10436" lon="4.08414">
        <ele>317.787488</ele>
        <time>2023-09-29T09:03:53.215Z</time>
      </trkpt>
      <trkpt lat="46.1045" lon="4.08422">
        <ele>317.404849</ele>
        <time>2023-09-29T09:03:55.226Z</time>
      </trkpt>
      <trkpt lat="46.10464" lon="4.0843">
        <ele>317.02842</ele>
        <time>2023-09-29T09:03:57.213Z</time>
      </trkpt>
      <trkpt lat="46.10476" lon="4.08438">
        <ele>316.678137</ele>
        <time>2023-09-29T09:03:59.224Z</time>
      </trkpt>
      <trkpt lat="46.10489" lon="4.08445">
        <ele>316.325075</ele>
        <time>2023-09-29T09:04:01.228Z</time>
      </trkpt>
      <trkpt lat="46.10501" lon="4.08453">
        <ele>315.982596</ele>
        <time>2023-09-29T09:04:03.215Z</time>
      </trkpt>
      <trkpt lat="46.10513" lon="4.08461">
        <ele>315.650616</ele>
        <time>2023-09-29T09:04:05.211Z</time>
      </trkpt>
      <trkpt lat="46.10524" lon="4.08468">
        <ele>315.327014</ele>
        <time>2023-09-29T09:04:07.224Z</time>
      </trkpt>
      <trkpt lat="46.10536" lon="4.08475">
        <ele>315.008954</ele>
        <time>2023-09-29T09:04:09.218Z</time>
      </trkpt>
      <trkpt lat="46.10547" lon="4.08482">
        <ele>314.705535</ele>
        <time>2023-09-29T09:04:11.222Z</time>
      </trkpt>
      <trkpt lat="46.10558" lon="4.08489">
        <ele>314.39799</ele>
        <time>2023-09-29T09:04:13.219Z</time>
      </trkpt>
      <trkpt lat="46.10568" lon="4.08495">
        <ele>314.104361</ele>
        <time>2023-09-29T09:04:15.215Z</time>
      </trkpt>
      <trkpt lat="46.10579" lon="4.08502">
        <ele>313.820141</ele>
        <time>2023-09-29T09:04:17.218Z</time>
      </trkpt>
      <trkpt lat="46.10589" lon="4.0851">
        <ele>313.647733</ele>
        <time>2023-09-29T09:04:19.222Z</time>
      </trkpt>
      <trkpt lat="46.10599" lon="4.08516">
        <ele>313.478394</ele>
        <time>2023-09-29T09:04:21.208Z</time>
      </trkpt>
      <trkpt lat="46.1061" lon="4.08523">
        <ele>313.313118</ele>
        <time>2023-09-29T09:04:23.212Z</time>
      </trkpt>
      <trkpt lat="46.1062" lon="4.08529">
        <ele>313.142813</ele>
        <time>2023-09-29T09:04:25.200Z</time>
      </trkpt>
      <trkpt lat="46.1063" lon="4.08535">
        <ele>312.984657</ele>
        <time>2023-09-29T09:04:27.215Z</time>
      </trkpt>
      <trkpt lat="46.1064" lon="4.08541">
        <ele>312.822763</ele>
        <time>2023-09-29T09:04:29.214Z</time>
      </trkpt>
      <trkpt lat="46.10651" lon="4.08546">
        <ele>312.654214</ele>
        <time>2023-09-29T09:04:31.208Z</time>
      </trkpt>
      <trkpt lat="46.10662" lon="4.08552">
        <ele>312.482436</ele>
        <time>2023-09-29T09:04:33.218Z</time>
      </trkpt>
      <trkpt lat="46.10673" lon="4.08556">
        <ele>312.312165</ele>
        <time>2023-09-29T09:04:35.213Z</time>
      </trkpt>
      <trkpt lat="46.10684" lon="4.08561">
        <ele>312.131875</ele>
        <time>2023-09-29T09:04:37.214Z</time>
      </trkpt>
      <trkpt lat="46.10696" lon="4.08564">
        <ele>311.963382</ele>
        <time>2023-09-29T09:04:39.210Z</time>
      </trkpt>
      <trkpt lat="46.10707" lon="4.08567">
        <ele>311.794562</ele>
        <time>2023-09-29T09:04:41.220Z</time>
      </trkpt>
      <trkpt lat="46.10718" lon="4.08569">
        <ele>311.627988</ele>
        <time>2023-09-29T09:04:43.218Z</time>
      </trkpt>
      <trkpt lat="46.10729" lon="4.0857">
        <ele>311.46122</ele>
        <time>2023-09-29T09:04:45.221Z</time>
      </trkpt>
      <trkpt lat="46.1074" lon="4.08571">
        <ele>311.297476</ele>
        <time>2023-09-29T09:04:47.204Z</time>
      </trkpt>
      <trkpt lat="46.10751" lon="4.0857">
        <ele>311.156742</ele>
        <time>2023-09-29T09:04:49.221Z</time>
      </trkpt>
      <trkpt lat="46.10762" lon="4.08569">
        <ele>311.121344</ele>
        <time>2023-09-29T09:04:51.218Z</time>
      </trkpt>
      <trkpt lat="46.10772" lon="4.08567">
        <ele>311.088538</ele>
        <time>2023-09-29T09:04:53.217Z</time>
      </trkpt>
      <trkpt lat="46.10784" lon="4.08565">
        <ele>311.052233</ele>
        <time>2023-09-29T09:04:55.211Z</time>
      </trkpt>
      <trkpt lat="46.10795" lon="4.08562">
        <ele>311.01686</ele>
        <time>2023-09-29T09:04:57.210Z</time>
      </trkpt>
      <trkpt lat="46.10806" lon="4.08559">
        <ele>310.980549</ele>
        <time>2023-09-29T09:04:59.215Z</time>
      </trkpt>
      <trkpt lat="46.10816" lon="4.08554">
        <ele>310.945478</ele>
        <time>2023-09-29T09:05:01.200Z</time>
      </trkpt>
      <trkpt lat="46.10826" lon="4.08548">
        <ele>310.911078</ele>
        <time>2023-09-29T09:05:03.214Z</time>
      </trkpt>
      <trkpt lat="46.10836" lon="4.08542">
        <ele>310.876826</ele>
        <time>2023-09-29T09:05:05.194Z</time>
      </trkpt>
      <trkpt lat="46.10845" lon="4.08535">
        <ele>310.843143</ele>
        <time>2023-09-29T09:05:07.213Z</time>
      </trkpt>
      <trkpt lat="46.10855" lon="4.08528">
        <ele>310.810306</ele>
        <time>2023-09-29T09:05:09.214Z</time>
      </trkpt>
      <trkpt lat="46.10864" lon="4.0852">
        <ele>310.777101</ele>
        <time>2023-09-29T09:05:11.229Z</time>
      </trkpt>
      <trkpt lat="46.10872" lon="4.08512">
        <ele>310.744131</ele>
        <time>2023-09-29T09:05:13.199Z</time>
      </trkpt>
      <trkpt lat="46.10881" lon="4.08503">
        <ele>310.710936</ele>
        <time>2023-09-29T09:05:15.194Z</time>
      </trkpt>
      <trkpt lat="46.10889" lon="4.08493">
        <ele>310.677518</ele>
        <time>2023-09-29T09:05:17.209Z</time>
      </trkpt>
      <trkpt lat="46.10896" lon="4.08483">
        <ele>310.644393</ele>
        <time>2023-09-29T09:05:19.207Z</time>
      </trkpt>
      <trkpt lat="46.10905" lon="4.08474">
        <ele>310.610112</ele>
        <time>2023-09-29T09:05:21.215Z</time>
      </trkpt>
      <trkpt lat="46.10913" lon="4.08464">
        <ele>310.618023</ele>
        <time>2023-09-29T09:05:23.226Z</time>
      </trkpt>
      <trkpt lat="46.10921" lon="4.08455">
        <ele>310.686774</ele>
        <time>2023-09-29T09:05:25.212Z</time>
      </trkpt>
      <trkpt lat="46.10929" lon="4.08445">
        <ele>310.755382</ele>
        <time>2023-09-29T09:05:27.200Z</time>
      </trkpt>
      <trkpt lat="46.10937" lon="4.08435">
        <ele>310.823555</ele>
        <time>2023-09-29T09:05:29.224Z</time>
      </trkpt>
      <trkpt lat="46.10944" lon="4.08425">
        <ele>310.888435</ele>
        <time>2023-09-29T09:05:31.212Z</time>
      </trkpt>
      <trkpt lat="46.10952" lon="4.08414">
        <ele>310.956915</ele>
        <time>2023-09-29T09:05:33.213Z</time>
      </trkpt>
      <trkpt lat="46.10959" lon="4.08403">
        <ele>311.025692</ele>
        <time>2023-09-29T09:05:35.215Z</time>
      </trkpt>
      <trkpt lat="46.10965" lon="4.08391">
        <ele>311.094348</ele>
        <time>2023-09-29T09:05:37.211Z</time>
      </trkpt>
      <trkpt lat="46.10972" lon="4.08379">
        <ele>311.165926</ele>
        <time>2023-09-29T09:05:39.206Z</time>
      </trkpt>
      <trkpt lat="46.1098" lon="4.08368">
        <ele>311.239034</ele>
        <time>2023-09-29T09:05:41.215Z</time>
      </trkpt>
      <trkpt lat="46.10988" lon="4.08356">
        <ele>311.312253</ele>
        <time>2023-09-29T09:05:43.219Z</time>
      </trkpt>
      <trkpt lat="46.10994" lon="4.08344">
        <ele>311.380063</ele>
        <time>2023-09-29T09:05:45.216Z</time>
      </trkpt>
      <trkpt lat="46.11002" lon="4.08333">
        <ele>311.45063</ele>
        <time>2023-09-29T09:05:47.217Z</time>
      </trkpt>
      <trkpt lat="46.11009" lon="4.08322">
        <ele>311.519073</ele>
        <time>2023-09-29T09:05:49.216Z</time>
      </trkpt>
      <trkpt lat="46.11017" lon="4.0831">
        <ele>311.592841</ele>
        <time>2023-09-29T09:05:51.224Z</time>
      </trkpt>
      <trkpt lat="46.11024" lon="4.08299">
        <ele>311.662107</ele>
        <time>2023-09-29T09:05:53.213Z</time>
      </trkpt>
      <trkpt lat="46.1103" lon="4.08287">
        <ele>311.730008</ele>
        <time>2023-09-29T09:05:55.228Z</time>
      </trkpt>
      <trkpt lat="46.11038" lon="4.08277">
        <ele>311.769148</ele>
        <time>2023-09-29T09:05:57.215Z</time>
      </trkpt>
      <trkpt lat="46.11045" lon="4.08265">
        <ele>311.775585</ele>
        <time>2023-09-29T09:05:59.213Z</time>
      </trkpt>
      <trkpt lat="46.11052" lon="4.08254">
        <ele>311.782242</ele>
        <time>2023-09-29T09:06:01.218Z</time>
      </trkpt>
      <trkpt lat="46.11059" lon="4.08243">
        <ele>311.78862</ele>
        <time>2023-09-29T09:06:03.225Z</time>
      </trkpt>
      <trkpt lat="46.11066" lon="4.08232">
        <ele>311.79513</ele>
        <time>2023-09-29T09:06:05.221Z</time>
      </trkpt>
      <trkpt lat="46.11073" lon="4.0822">
        <ele>311.801284</ele>
        <time>2023-09-29T09:06:07.220Z</time>
      </trkpt>
      <trkpt lat="46.1108" lon="4.08209">
        <ele>311.807662</ele>
        <time>2023-09-29T09:06:09.221Z</time>
      </trkpt>
      <trkpt lat="46.11086" lon="4.08199">
        <ele>311.813495</ele>
        <time>2023-09-29T09:06:11.212Z</time>
      </trkpt>
      <trkpt lat="46.11093" lon="4.08188">
        <ele>311.819935</ele>
        <time>2023-09-29T09:06:13.220Z</time>
      </trkpt>
      <trkpt lat="46.11101" lon="4.08177">
        <ele>311.826451</ele>
        <time>2023-09-29T09:06:15.223Z</time>
      </trkpt>
      <trkpt lat="46.11108" lon="4.08166">
        <ele>311.833088</ele>
        <time>2023-09-29T09:06:17.216Z</time>
      </trkpt>
      <trkpt lat="46.11116" lon="4.08156">
        <ele>311.839648</ele>
        <time>2023-09-29T09:06:19.202Z</time>
      </trkpt>
      <trkpt lat="46.11123" lon="4.08145">
        <ele>311.846108</ele>
        <time>2023-09-29T09:06:21.224Z</time>
      </trkpt>
      <trkpt lat="46.1113" lon="4.08135">
        <ele>311.852253</ele>
        <time>2023-09-29T09:06:23.212Z</time>
      </trkpt>
      <trkpt lat="46.11137" lon="4.08124">
        <ele>311.858462</ele>
        <time>2023-09-29T09:06:25.219Z</time>
      </trkpt>
      <trkpt lat="46.11145" lon="4.08114">
        <ele>311.864653</ele>
        <time>2023-09-29T09:06:27.229Z</time>
      </trkpt>
      <trkpt lat="46.11152" lon="4.08104">
        <ele>311.870961</ele>
        <time>2023-09-29T09:06:29.217Z</time>
      </trkpt>
      <trkpt lat="46.11159" lon="4.08093">
        <ele>311.889573</ele>
        <time>2023-09-29T09:06:31.201Z</time>
      </trkpt>
      <trkpt lat="46.11167" lon="4.08083">
        <ele>312.004211</ele>
        <time>2023-09-29T09:06:33.217Z</time>
      </trkpt>
      <trkpt lat="46.11174" lon="4.08072">
        <ele>312.119388</ele>
        <time>2023-09-29T09:06:35.219Z</time>
      </trkpt>
      <trkpt lat="46.11182" lon="4.08064">
        <ele>312.228058</ele>
        <time>2023-09-29T09:06:37.223Z</time>
      </trkpt>
      <trkpt lat="46.11189" lon="4.08054">
        <ele>312.3395</ele>
        <time>2023-09-29T09:06:39.215Z</time>
      </trkpt>
      <trkpt lat="46.11196" lon="4.08042">
        <ele>312.460763</ele>
        <time>2023-09-29T09:06:41.199Z</time>
      </trkpt>
      <trkpt lat="46.11202" lon="4.08029">
        <ele>312.584558</ele>
        <time>2023-09-29T09:06:43.214Z</time>
      </trkpt>
      <trkpt lat="46.11209" lon="4.08018">
        <ele>312.700158</ele>
        <time>2023-09-29T09:06:45.212Z</time>
      </trkpt>
      <trkpt lat="46.11218" lon="4.0801">
        <ele>312.812716</ele>
        <time>2023-09-29T09:06:47.213Z</time>
      </trkpt>
      <trkpt lat="46.11227" lon="4.08004">
        <ele>312.92344</ele>
        <time>2023-09-29T09:06:49.203Z</time>
      </trkpt>
      <trkpt lat="46.11236" lon="4.07997">
        <ele>313.039688</ele>
        <time>2023-09-29T09:06:51.213Z</time>
      </trkpt>
      <trkpt lat="46.11245" lon="4.07993">
        <ele>313.152508</ele>
        <time>2023-09-29T09:06:53.219Z</time>
      </trkpt>
      <trkpt lat="46.11254" lon="4.07989">
        <ele>313.258454</ele>
        <time>2023-09-29T09:06:55.229Z</time>
      </trkpt>
      <trkpt lat="46.11264" lon="4.07983">
        <ele>313.373863</ele>
        <time>2023-09-29T09:06:57.213Z</time>
      </trkpt>
      <trkpt lat="46.11273" lon="4.07978">
        <ele>313.48511</ele>
        <time>2023-09-29T09:06:59.232Z</time>
      </trkpt>
      <trkpt lat="46.11282" lon="4.07972">
        <ele>313.598901</ele>
        <time>2023-09-29T09:07:01.223Z</time>
      </trkpt>
      <trkpt lat="46.11292" lon="4.07966">
        <ele>313.716009</ele>
        <time>2023-09-29T09:07:03.182Z</time>
      </trkpt>
      <trkpt lat="46.11302" lon="4.0796">
        <ele>313.834831</ele>
        <time>2023-09-29T09:07:05.214Z</time>
      </trkpt>
      <trkpt lat="46.11312" lon="4.07955">
        <ele>313.889888</ele>
        <time>2023-09-29T09:07:07.214Z</time>
      </trkpt>
      <trkpt lat="46.11321" lon="4.07949">
        <ele>313.887367</ele>
        <time>2023-09-29T09:07:09.181Z</time>
      </trkpt>
      <trkpt lat="46.11331" lon="4.07943">
        <ele>313.884911</ele>
        <time>2023-09-29T09:07:11.198Z</time>
      </trkpt>
      <trkpt lat="46.11341" lon="4.07939">
        <ele>313.88245</ele>
        <time>2023-09-29T09:07:13.216Z</time>
      </trkpt>
      <trkpt lat="46.11351" lon="4.07934">
        <ele>313.879918</ele>
        <time>2023-09-29T09:07:15.214Z</time>
      </trkpt>
      <trkpt lat="46.1136" lon="4.07928">
        <ele>313.877457</ele>
        <time>2023-09-29T09:07:17.214Z</time>
      </trkpt>
      <trkpt lat="46.11371" lon="4.07923">
        <ele>313.874875</ele>
        <time>2023-09-29T09:07:19.228Z</time>
      </trkpt>
      <trkpt lat="46.11381" lon="4.07918">
        <ele>313.872349</ele>
        <time>2023-09-29T09:07:21.228Z</time>
      </trkpt>
      <trkpt lat="46.1139" lon="4.07913">
        <ele>313.869883</ele>
        <time>2023-09-29T09:07:23.221Z</time>
      </trkpt>
      <trkpt lat="46.114" lon="4.07908">
        <ele>313.867411</ele>
        <time>2023-09-29T09:07:25.229Z</time>
      </trkpt>
      <trkpt lat="46.1141" lon="4.07905">
        <ele>313.865023</ele>
        <time>2023-09-29T09:07:27.231Z</time>
      </trkpt>
      <trkpt lat="46.1142" lon="4.07901">
        <ele>313.862634</ele>
        <time>2023-09-29T09:07:29.216Z</time>
      </trkpt>
      <trkpt lat="46.1143" lon="4.07897">
        <ele>313.860054</ele>
        <time>2023-09-29T09:07:31.224Z</time>
      </trkpt>
      <trkpt lat="46.1144" lon="4.07894">
        <ele>313.857586</ele>
        <time>2023-09-29T09:07:33.214Z</time>
      </trkpt>
      <trkpt lat="46.11451" lon="4.07893">
        <ele>313.855174</ele>
        <time>2023-09-29T09:07:35.210Z</time>
      </trkpt>
      <trkpt lat="46.11461" lon="4.07891">
        <ele>313.852664</ele>
        <time>2023-09-29T09:07:37.214Z</time>
      </trkpt>
      <trkpt lat="46.11471" lon="4.07888">
        <ele>313.850199</ele>
        <time>2023-09-29T09:07:39.205Z</time>
      </trkpt>
      <trkpt lat="46.11481" lon="4.07885">
        <ele>313.837657</ele>
        <time>2023-09-29T09:07:41.212Z</time>
      </trkpt>
      <trkpt lat="46.11494" lon="4.07881">
        <ele>313.773145</ele>
        <time>2023-09-29T09:07:44.227Z</time>
      </trkpt>
      <trkpt lat="46.11504" lon="4.07879">
        <ele>313.726167</ele>
        <time>2023-09-29T09:07:46.208Z</time>
      </trkpt>
      <trkpt lat="46.11515" lon="4.07876">
        <ele>313.675775</ele>
        <time>2023-09-29T09:07:48.206Z</time>
      </trkpt>
      <trkpt lat="46.11525" lon="4.07874">
        <ele>313.627637</ele>
        <time>2023-09-29T09:07:50.213Z</time>
      </trkpt>
      <trkpt lat="46.11535" lon="4.07872">
        <ele>313.576291</ele>
        <time>2023-09-29T09:07:52.199Z</time>
      </trkpt>
      <trkpt lat="46.11546" lon="4.07869">
        <ele>313.527104</ele>
        <time>2023-09-29T09:07:54.232Z</time>
      </trkpt>
      <trkpt lat="46.11556" lon="4.07867">
        <ele>313.478331</ele>
        <time>2023-09-29T09:07:56.234Z</time>
      </trkpt>
      <trkpt lat="46.11566" lon="4.07865">
        <ele>313.428772</ele>
        <time>2023-09-29T09:07:58.218Z</time>
      </trkpt>
      <trkpt lat="46.11576" lon="4.07863">
        <ele>313.380276</ele>
        <time>2023-09-29T09:08:00.213Z</time>
      </trkpt>
      <trkpt lat="46.11587" lon="4.07861">
        <ele>313.331185</ele>
        <time>2023-09-29T09:08:02.211Z</time>
      </trkpt>
      <trkpt lat="46.11598" lon="4.07859">
        <ele>313.27933</ele>
        <time>2023-09-29T09:08:04.210Z</time>
      </trkpt>
      <trkpt lat="46.11608" lon="4.07857">
        <ele>313.231075</ele>
        <time>2023-09-29T09:08:06.213Z</time>
      </trkpt>
      <trkpt lat="46.11618" lon="4.07854">
        <ele>313.181421</ele>
        <time>2023-09-29T09:08:08.209Z</time>
      </trkpt>
      <trkpt lat="46.11628" lon="4.07852">
        <ele>313.133114</ele>
        <time>2023-09-29T09:08:10.212Z</time>
      </trkpt>
      <trkpt lat="46.11639" lon="4.07849">
        <ele>313.083822</ele>
        <time>2023-09-29T09:08:12.212Z</time>
      </trkpt>
      <trkpt lat="46.11649" lon="4.07847">
        <ele>313.032393</ele>
        <time>2023-09-29T09:08:14.206Z</time>
      </trkpt>
      <trkpt lat="46.1166" lon="4.07844">
        <ele>313.012376</ele>
        <time>2023-09-29T09:08:16.222Z</time>
      </trkpt>
      <trkpt lat="46.1167" lon="4.07843">
        <ele>313.043757</ele>
        <time>2023-09-29T09:08:18.230Z</time>
      </trkpt>
      <trkpt lat="46.1168" lon="4.0784">
        <ele>313.075513</ele>
        <time>2023-09-29T09:08:20.216Z</time>
      </trkpt>
      <trkpt lat="46.1169" lon="4.07838">
        <ele>313.107841</ele>
        <time>2023-09-29T09:08:22.208Z</time>
      </trkpt>
      <trkpt lat="46.117" lon="4.07836">
        <ele>313.141768</ele>
        <time>2023-09-29T09:08:24.211Z</time>
      </trkpt>
      <trkpt lat="46.11711" lon="4.07833">
        <ele>313.174566</ele>
        <time>2023-09-29T09:08:26.214Z</time>
      </trkpt>
      <trkpt lat="46.11721" lon="4.0783">
        <ele>313.208494</ele>
        <time>2023-09-29T09:08:28.213Z</time>
      </trkpt>
      <trkpt lat="46.11731" lon="4.07828">
        <ele>313.241445</ele>
        <time>2023-09-29T09:08:30.208Z</time>
      </trkpt>
      <trkpt lat="46.11742" lon="4.07824">
        <ele>313.275646</ele>
        <time>2023-09-29T09:08:32.210Z</time>
      </trkpt>
      <trkpt lat="46.11752" lon="4.0782">
        <ele>313.308157</ele>
        <time>2023-09-29T09:08:34.210Z</time>
      </trkpt>
      <trkpt lat="46.11761" lon="4.07818">
        <ele>313.339041</ele>
        <time>2023-09-29T09:08:36.198Z</time>
      </trkpt>
      <trkpt lat="46.11772" lon="4.07815">
        <ele>313.372432</ele>
        <time>2023-09-29T09:08:38.201Z</time>
      </trkpt>
      <trkpt lat="46.11782" lon="4.07812">
        <ele>313.405469</ele>
        <time>2023-09-29T09:08:40.209Z</time>
      </trkpt>
      <trkpt lat="46.11792" lon="4.07809">
        <ele>313.437619</ele>
        <time>2023-09-29T09:08:42.226Z</time>
      </trkpt>
      <trkpt lat="46.11802" lon="4.07805">
        <ele>313.470892</ele>
        <time>2023-09-29T09:08:44.212Z</time>
      </trkpt>
      <trkpt lat="46.11812" lon="4.07802">
        <ele>313.503294</ele>
        <time>2023-09-29T09:08:46.222Z</time>
      </trkpt>
      <trkpt lat="46.11822" lon="4.07798">
        <ele>313.537088</ele>
        <time>2023-09-29T09:08:48.192Z</time>
      </trkpt>
      <trkpt lat="46.11833" lon="4.07795">
        <ele>313.570671</ele>
        <time>2023-09-29T09:08:50.203Z</time>
      </trkpt>
      <trkpt lat="46.11843" lon="4.07792">
        <ele>313.600528</ele>
        <time>2023-09-29T09:08:52.227Z</time>
      </trkpt>
      <trkpt lat="46.11853" lon="4.0779">
        <ele>313.629081</ele>
        <time>2023-09-29T09:08:54.225Z</time>
      </trkpt>
      <trkpt lat="46.11863" lon="4.07786">
        <ele>313.659258</ele>
        <time>2023-09-29T09:08:56.209Z</time>
      </trkpt>
      <trkpt lat="46.11873" lon="4.07781">
        <ele>313.688229</ele>
        <time>2023-09-29T09:08:58.206Z</time>
      </trkpt>
      <trkpt lat="46.11882" lon="4.07776">
        <ele>313.715824</ele>
        <time>2023-09-29T09:09:00.228Z</time>
      </trkpt>
      <trkpt lat="46.11891" lon="4.07769">
        <ele>313.744776</ele>
        <time>2023-09-29T09:09:02.185Z</time>
      </trkpt>
      <trkpt lat="46.11901" lon="4.07762">
        <ele>313.775438</ele>
        <time>2023-09-29T09:09:04.203Z</time>
      </trkpt>
      <trkpt lat="46.1191" lon="4.07754">
        <ele>313.806127</ele>
        <time>2023-09-29T09:09:06.219Z</time>
      </trkpt>
      <trkpt lat="46.11919" lon="4.07745">
        <ele>313.83658</ele>
        <time>2023-09-29T09:09:08.209Z</time>
      </trkpt>
      <trkpt lat="46.11927" lon="4.07736">
        <ele>313.865978</ele>
        <time>2023-09-29T09:09:10.209Z</time>
      </trkpt>
      <trkpt lat="46.11934" lon="4.07727">
        <ele>313.893006</ele>
        <time>2023-09-29T09:09:12.208Z</time>
      </trkpt>
      <trkpt lat="46.11942" lon="4.07718">
        <ele>313.921433</ele>
        <time>2023-09-29T09:09:14.210Z</time>
      </trkpt>
      <trkpt lat="46.11949" lon="4.07709">
        <ele>313.948347</ele>
        <time>2023-09-29T09:09:16.209Z</time>
      </trkpt>
      <trkpt lat="46.11957" lon="4.077">
        <ele>313.976873</ele>
        <time>2023-09-29T09:09:18.211Z</time>
      </trkpt>
      <trkpt lat="46.11965" lon="4.07691">
        <ele>314.005768</ele>
        <time>2023-09-29T09:09:20.208Z</time>
      </trkpt>
      <trkpt lat="46.11972" lon="4.07682">
        <ele>314.033414</ele>
        <time>2023-09-29T09:09:22.233Z</time>
      </trkpt>
      <trkpt lat="46.1198" lon="4.07673">
        <ele>314.060441</ele>
        <time>2023-09-29T09:09:24.206Z</time>
      </trkpt>
      <trkpt lat="46.11989" lon="4.07668">
        <ele>314.08069</ele>
        <time>2023-09-29T09:09:26.225Z</time>
      </trkpt>
      <trkpt lat="46.11998" lon="4.07665">
        <ele>314.08288</ele>
        <time>2023-09-29T09:09:28.197Z</time>
      </trkpt>
      <trkpt lat="46.12008" lon="4.07661">
        <ele>314.085321</ele>
        <time>2023-09-29T09:09:30.206Z</time>
      </trkpt>
      <trkpt lat="46.12017" lon="4.07658">
        <ele>314.087504</ele>
        <time>2023-09-29T09:09:32.202Z</time>
      </trkpt>
      <trkpt lat="46.12027" lon="4.07658">
        <ele>314.089711</ele>
        <time>2023-09-29T09:09:34.209Z</time>
      </trkpt>
      <trkpt lat="46.12037" lon="4.07656">
        <ele>314.092001</ele>
        <time>2023-09-29T09:09:36.208Z</time>
      </trkpt>
      <trkpt lat="46.12047" lon="4.07655">
        <ele>314.094283</ele>
        <time>2023-09-29T09:09:38.239Z</time>
      </trkpt>
      <trkpt lat="46.12057" lon="4.07654">
        <ele>314.096511</ele>
        <time>2023-09-29T09:09:40.217Z</time>
      </trkpt>
      <trkpt lat="46.12066" lon="4.07655">
        <ele>314.098625</ele>
        <time>2023-09-29T09:09:42.216Z</time>
      </trkpt>
      <trkpt lat="46.12076" lon="4.07654">
        <ele>314.100899</ele>
        <time>2023-09-29T09:09:44.210Z</time>
      </trkpt>
      <trkpt lat="46.12085" lon="4.07654">
        <ele>314.103104</ele>
        <time>2023-09-29T09:09:46.210Z</time>
      </trkpt>
      <trkpt lat="46.12095" lon="4.07654">
        <ele>314.105355</ele>
        <time>2023-09-29T09:09:48.205Z</time>
      </trkpt>
      <trkpt lat="46.12105" lon="4.07655">
        <ele>314.10763</ele>
        <time>2023-09-29T09:09:50.206Z</time>
      </trkpt>
      <trkpt lat="46.12115" lon="4.07656">
        <ele>314.109929</ele>
        <time>2023-09-29T09:09:52.199Z</time>
      </trkpt>
      <trkpt lat="46.12125" lon="4.07656">
        <ele>314.112205</ele>
        <time>2023-09-29T09:09:54.217Z</time>
      </trkpt>
      <trkpt lat="46.12134" lon="4.07656">
        <ele>314.11441</ele>
        <time>2023-09-29T09:09:56.212Z</time>
      </trkpt>
      <trkpt lat="46.12145" lon="4.07656">
        <ele>314.116731</ele>
        <time>2023-09-29T09:09:58.210Z</time>
      </trkpt>
      <trkpt lat="46.12155" lon="4.07657">
        <ele>314.119121</ele>
        <time>2023-09-29T09:10:00.219Z</time>
      </trkpt>
      <trkpt lat="46.12165" lon="4.07657">
        <ele>314.12144</ele>
        <time>2023-09-29T09:10:02.212Z</time>
      </trkpt>
      <trkpt lat="46.12175" lon="4.07657">
        <ele>314.147778</ele>
        <time>2023-09-29T09:10:04.198Z</time>
      </trkpt>
      <trkpt lat="46.12185" lon="4.07659">
        <ele>314.175536</ele>
        <time>2023-09-29T09:10:06.211Z</time>
      </trkpt>
      <trkpt lat="46.12195" lon="4.07659">
        <ele>314.203224</ele>
        <time>2023-09-29T09:10:08.216Z</time>
      </trkpt>
      <trkpt lat="46.12206" lon="4.07659">
        <ele>314.23064</ele>
        <time>2023-09-29T09:10:10.215Z</time>
      </trkpt>
      <trkpt lat="46.12216" lon="4.07659">
        <ele>314.257516</ele>
        <time>2023-09-29T09:10:12.215Z</time>
      </trkpt>
      <trkpt lat="46.12226" lon="4.07659">
        <ele>314.285204</ele>
        <time>2023-09-29T09:10:14.203Z</time>
      </trkpt>
      <trkpt lat="46.12236" lon="4.0766">
        <ele>314.312916</ele>
        <time>2023-09-29T09:10:16.209Z</time>
      </trkpt>
      <trkpt lat="46.12247" lon="4.0766">
        <ele>314.341674</ele>
        <time>2023-09-29T09:10:18.209Z</time>
      </trkpt>
      <trkpt lat="46.12257" lon="4.0766">
        <ele>314.36909</ele>
        <time>2023-09-29T09:10:20.197Z</time>
      </trkpt>
      <trkpt lat="46.12267" lon="4.07662">
        <ele>314.396222</ele>
        <time>2023-09-29T09:10:22.203Z</time>
      </trkpt>
      <trkpt lat="46.12278" lon="4.07662">
        <ele>314.42472</ele>
        <time>2023-09-29T09:10:24.234Z</time>
      </trkpt>
      <trkpt lat="46.12288" lon="4.07662">
        <ele>314.453209</ele>
        <time>2023-09-29T09:10:26.215Z</time>
      </trkpt>
      <trkpt lat="46.12299" lon="4.07663">
        <ele>314.480901</ele>
        <time>2023-09-29T09:10:28.221Z</time>
      </trkpt>
      <trkpt lat="46.12309" lon="4.07663">
        <ele>314.509949</ele>
        <time>2023-09-29T09:10:30.212Z</time>
      </trkpt>
      <trkpt lat="46.1232" lon="4.07664">
        <ele>314.537902</ele>
        <time>2023-09-29T09:10:32.224Z</time>
      </trkpt>
      <trkpt lat="46.1233" lon="4.07664">
        <ele>314.5664</ele>
        <time>2023-09-29T09:10:34.203Z</time>
      </trkpt>
      <trkpt lat="46.1234" lon="4.07664">
        <ele>314.593545</ele>
        <time>2023-09-29T09:10:36.223Z</time>
      </trkpt>
      <trkpt lat="46.1235" lon="4.07664">
        <ele>314.656625</ele>
        <time>2023-09-29T09:10:38.226Z</time>
      </trkpt>
      <trkpt lat="46.12361" lon="4.07665">
        <ele>314.749506</ele>
        <time>2023-09-29T09:10:40.208Z</time>
      </trkpt>
      <trkpt lat="46.12371" lon="4.07665">
        <ele>314.843197</ele>
        <time>2023-09-29T09:10:42.192Z</time>
      </trkpt>
      <trkpt lat="46.12382" lon="4.07666">
        <ele>314.938053</ele>
        <time>2023-09-29T09:10:44.229Z</time>
      </trkpt>
      <trkpt lat="46.12392" lon="4.07667">
        <ele>315.031758</ele>
        <time>2023-09-29T09:10:46.210Z</time>
      </trkpt>
      <trkpt lat="46.12403" lon="4.07667">
        <ele>315.123699</ele>
        <time>2023-09-29T09:10:48.211Z</time>
      </trkpt>
      <trkpt lat="46.12413" lon="4.07668">
        <ele>315.21739</ele>
        <time>2023-09-29T09:10:50.209Z</time>
      </trkpt>
      <trkpt lat="46.12424" lon="4.07667">
        <ele>315.311973</ele>
        <time>2023-09-29T09:10:52.221Z</time>
      </trkpt>
      <trkpt lat="46.12434" lon="4.07668">
        <ele>315.403869</ele>
        <time>2023-09-29T09:10:54.224Z</time>
      </trkpt>
      <trkpt lat="46.12444" lon="4.07668">
        <ele>315.491352</ele>
        <time>2023-09-29T09:10:56.226Z</time>
      </trkpt>
      <trkpt lat="46.12454" lon="4.07668">
        <ele>315.58235</ele>
        <time>2023-09-29T09:10:58.213Z</time>
      </trkpt>
      <trkpt lat="46.12465" lon="4.07669">
        <ele>315.676123</ele>
        <time>2023-09-29T09:11:00.218Z</time>
      </trkpt>
      <trkpt lat="46.12475" lon="4.0767">
        <ele>315.766532</ele>
        <time>2023-09-29T09:11:02.223Z</time>
      </trkpt>
      <trkpt lat="46.12485" lon="4.07671">
        <ele>315.859775</ele>
        <time>2023-09-29T09:11:04.211Z</time>
      </trkpt>
      <trkpt lat="46.12495" lon="4.07672">
        <ele>315.947238</ele>
        <time>2023-09-29T09:11:06.212Z</time>
      </trkpt>
      <trkpt lat="46.12505" lon="4.07674">
        <ele>316.036336</ele>
        <time>2023-09-29T09:11:08.209Z</time>
      </trkpt>
      <trkpt lat="46.12515" lon="4.07675">
        <ele>316.126798</ele>
        <time>2023-09-29T09:11:10.232Z</time>
      </trkpt>
      <trkpt lat="46.12525" lon="4.07676">
        <ele>316.203642</ele>
        <time>2023-09-29T09:11:12.230Z</time>
      </trkpt>
      <trkpt lat="46.12535" lon="4.07678">
        <ele>316.126487</ele>
        <time>2023-09-29T09:11:14.214Z</time>
      </trkpt>
      <trkpt lat="46.12545" lon="4.0768">
        <ele>316.047661</ele>
        <time>2023-09-29T09:11:16.219Z</time>
      </trkpt>
      <trkpt lat="46.12555" lon="4.07683">
        <ele>315.968998</ele>
        <time>2023-09-29T09:11:18.224Z</time>
      </trkpt>
      <trkpt lat="46.12566" lon="4.07684">
        <ele>315.891054</ele>
        <time>2023-09-29T09:11:20.225Z</time>
      </trkpt>
      <trkpt lat="46.12575" lon="4.07685">
        <ele>315.818797</ele>
        <time>2023-09-29T09:11:22.212Z</time>
      </trkpt>
      <trkpt lat="46.12584" lon="4.07687">
        <ele>315.745715</ele>
        <time>2023-09-29T09:11:24.220Z</time>
      </trkpt>
      <trkpt lat="46.12594" lon="4.07689">
        <ele>315.671877</ele>
        <time>2023-09-29T09:11:26.225Z</time>
      </trkpt>
      <trkpt lat="46.12603" lon="4.07691">
        <ele>315.599067</ele>
        <time>2023-09-29T09:11:28.212Z</time>
      </trkpt>
      <trkpt lat="46.12613" lon="4.07694">
        <ele>315.526382</ele>
        <time>2023-09-29T09:11:30.222Z</time>
      </trkpt>
      <trkpt lat="46.12622" lon="4.07697">
        <ele>315.453477</ele>
        <time>2023-09-29T09:11:32.231Z</time>
      </trkpt>
      <trkpt lat="46.12632" lon="4.077">
        <ele>315.377812</ele>
        <time>2023-09-29T09:11:34.205Z</time>
      </trkpt>
      <trkpt lat="46.12643" lon="4.07702">
        <ele>315.29318</ele>
        <time>2023-09-29T09:11:36.220Z</time>
      </trkpt>
      <trkpt lat="46.12653" lon="4.07705">
        <ele>315.212589</ele>
        <time>2023-09-29T09:11:38.224Z</time>
      </trkpt>
      <trkpt lat="46.12664" lon="4.07709">
        <ele>315.128885</ele>
        <time>2023-09-29T09:11:40.208Z</time>
      </trkpt>
      <trkpt lat="46.12674" lon="4.07712">
        <ele>315.046495</ele>
        <time>2023-09-29T09:11:42.223Z</time>
      </trkpt>
      <trkpt lat="46.12684" lon="4.07716">
        <ele>314.96661</ele>
        <time>2023-09-29T09:11:44.218Z</time>
      </trkpt>
      <trkpt lat="46.12694" lon="4.0772">
        <ele>314.888784</ele>
        <time>2023-09-29T09:11:46.214Z</time>
      </trkpt>
      <trkpt lat="46.12704" lon="4.07725">
        <ele>314.813749</ele>
        <time>2023-09-29T09:11:48.215Z</time>
      </trkpt>
      <trkpt lat="46.12713" lon="4.07728">
        <ele>314.743265</ele>
        <time>2023-09-29T09:11:50.223Z</time>
      </trkpt>
      <trkpt lat="46.12722" lon="4.07733">
        <ele>314.671769</ele>
        <time>2023-09-29T09:11:52.217Z</time>
      </trkpt>
      <trkpt lat="46.12731" lon="4.07738">
        <ele>314.597994</ele>
        <time>2023-09-29T09:11:54.210Z</time>
      </trkpt>
      <trkpt lat="46.12741" lon="4.07742">
        <ele>314.527029</ele>
        <time>2023-09-29T09:11:56.208Z</time>
      </trkpt>
      <trkpt lat="46.1275" lon="4.07747">
        <ele>314.453468</ele>
        <time>2023-09-29T09:11:58.228Z</time>
      </trkpt>
      <trkpt lat="46.12759" lon="4.07753">
        <ele>314.377671</ele>
        <time>2023-09-29T09:12:00.277Z</time>
      </trkpt>
      <trkpt lat="46.12769" lon="4.07758">
        <ele>314.298721</ele>
        <time>2023-09-29T09:12:02.207Z</time>
      </trkpt>
      <trkpt lat="46.12779" lon="4.07764">
        <ele>314.221469</ele>
        <time>2023-09-29T09:12:04.218Z</time>
      </trkpt>
      <trkpt lat="46.12789" lon="4.07771">
        <ele>314.140838</ele>
        <time>2023-09-29T09:12:06.231Z</time>
      </trkpt>
      <trkpt lat="46.12799" lon="4.07778">
        <ele>314.058863</ele>
        <time>2023-09-29T09:12:08.231Z</time>
      </trkpt>
      <trkpt lat="46.12808" lon="4.07785">
        <ele>313.979833</ele>
        <time>2023-09-29T09:12:10.219Z</time>
      </trkpt>
      <trkpt lat="46.12818" lon="4.07793">
        <ele>313.899112</ele>
        <time>2023-09-29T09:12:12.216Z</time>
      </trkpt>
      <trkpt lat="46.12827" lon="4.078">
        <ele>313.820003</ele>
        <time>2023-09-29T09:12:14.216Z</time>
      </trkpt>
      <trkpt lat="46.12837" lon="4.07808">
        <ele>313.738538</ele>
        <time>2023-09-29T09:12:16.227Z</time>
      </trkpt>
      <trkpt lat="46.12846" lon="4.07814">
        <ele>313.665462</ele>
        <time>2023-09-29T09:12:18.223Z</time>
      </trkpt>
      <trkpt lat="46.12854" lon="4.07821">
        <ele>313.595744</ele>
        <time>2023-09-29T09:12:20.221Z</time>
      </trkpt>
      <trkpt lat="46.12861" lon="4.07828">
        <ele>313.528518</ele>
        <time>2023-09-29T09:12:22.225Z</time>
      </trkpt>
      <trkpt lat="46.12869" lon="4.07836">
        <ele>313.5462</ele>
        <time>2023-09-29T09:12:24.221Z</time>
      </trkpt>
      <trkpt lat="46.12877" lon="4.07844">
        <ele>313.602004</ele>
        <time>2023-09-29T09:12:26.229Z</time>
      </trkpt>
      <trkpt lat="46.12884" lon="4.07853">
        <ele>313.660483</ele>
        <time>2023-09-29T09:12:28.212Z</time>
      </trkpt>
      <trkpt lat="46.12893" lon="4.07859">
        <ele>313.715352</ele>
        <time>2023-09-29T09:12:30.215Z</time>
      </trkpt>
      <trkpt lat="46.12901" lon="4.07865">
        <ele>313.769288</ele>
        <time>2023-09-29T09:12:32.209Z</time>
      </trkpt>
      <trkpt lat="46.12909" lon="4.07871">
        <ele>313.824288</ele>
        <time>2023-09-29T09:12:34.218Z</time>
      </trkpt>
      <trkpt lat="46.12918" lon="4.07877">
        <ele>313.882128</ele>
        <time>2023-09-29T09:12:36.218Z</time>
      </trkpt>
      <trkpt lat="46.12925" lon="4.07886">
        <ele>313.936248</ele>
        <time>2023-09-29T09:12:38.203Z</time>
      </trkpt>
      <trkpt lat="46.12931" lon="4.07897">
        <ele>313.995241</ele>
        <time>2023-09-29T09:12:40.196Z</time>
      </trkpt>
      <trkpt lat="46.12937" lon="4.07907">
        <ele>314.04846</ele>
        <time>2023-09-29T09:12:42.214Z</time>
      </trkpt>
      <trkpt lat="46.12947" lon="4.07921">
        <ele>314.128627</ele>
        <time>2023-09-29T09:12:45.208Z</time>
      </trkpt>
      <trkpt lat="46.12953" lon="4.0793">
        <ele>314.182691</ele>
        <time>2023-09-29T09:12:47.206Z</time>
      </trkpt>
      <trkpt lat="46.12961" lon="4.07937">
        <ele>314.238816</ele>
        <time>2023-09-29T09:12:49.203Z</time>
      </trkpt>
      <trkpt lat="46.12969" lon="4.07945">
        <ele>314.294137</ele>
        <time>2023-09-29T09:12:51.214Z</time>
      </trkpt>
      <trkpt lat="46.12976" lon="4.07954">
        <ele>314.347909</ele>
        <time>2023-09-29T09:12:53.217Z</time>
      </trkpt>
      <trkpt lat="46.12983" lon="4.07961">
        <ele>314.402522</ele>
        <time>2023-09-29T09:12:55.222Z</time>
      </trkpt>
      <trkpt lat="46.12991" lon="4.07969">
        <ele>314.458571</ele>
        <time>2023-09-29T09:12:57.218Z</time>
      </trkpt>
      <trkpt lat="46.12998" lon="4.07977">
        <ele>314.511981</ele>
        <time>2023-09-29T09:12:59.217Z</time>
      </trkpt>
      <trkpt lat="46.13009" lon="4.07988">
        <ele>314.570473</ele>
        <time>2023-09-29T09:13:02.203Z</time>
      </trkpt>
      <trkpt lat="46.13016" lon="4.07997">
        <ele>314.57225</ele>
        <time>2023-09-29T09:13:04.214Z</time>
      </trkpt>
      <trkpt lat="46.13024" lon="4.08005">
        <ele>314.57404</ele>
        <time>2023-09-29T09:13:06.216Z</time>
      </trkpt>
      <trkpt lat="46.13032" lon="4.08014">
        <ele>314.575714</ele>
        <time>2023-09-29T09:13:08.222Z</time>
      </trkpt>
      <trkpt lat="46.13039" lon="4.08021">
        <ele>314.577342</ele>
        <time>2023-09-29T09:13:10.224Z</time>
      </trkpt>
      <trkpt lat="46.1305" lon="4.08033">
        <ele>314.579904</ele>
        <time>2023-09-29T09:13:13.219Z</time>
      </trkpt>
      <trkpt lat="46.13058" lon="4.08041">
        <ele>314.581598</ele>
        <time>2023-09-29T09:13:15.214Z</time>
      </trkpt>
      <trkpt lat="46.13065" lon="4.08049">
        <ele>314.583285</ele>
        <time>2023-09-29T09:13:17.222Z</time>
      </trkpt>
      <trkpt lat="46.13073" lon="4.08057">
        <ele>314.584973</ele>
        <time>2023-09-29T09:13:19.235Z</time>
      </trkpt>
      <trkpt lat="46.1308" lon="4.08066">
        <ele>314.586719</ele>
        <time>2023-09-29T09:13:21.216Z</time>
      </trkpt>
      <trkpt lat="46.13087" lon="4.08075">
        <ele>314.588459</ele>
        <time>2023-09-29T09:13:23.216Z</time>
      </trkpt>
      <trkpt lat="46.13095" lon="4.08083">
        <ele>314.59022</ele>
        <time>2023-09-29T09:13:25.218Z</time>
      </trkpt>
      <trkpt lat="46.13103" lon="4.08092">
        <ele>314.592034</ele>
        <time>2023-09-29T09:13:27.201Z</time>
      </trkpt>
      <trkpt lat="46.13111" lon="4.081">
        <ele>314.59375</ele>
        <time>2023-09-29T09:13:29.225Z</time>
      </trkpt>
      <trkpt lat="46.13118" lon="4.08109">
        <ele>314.595467</ele>
        <time>2023-09-29T09:13:31.230Z</time>
      </trkpt>
      <trkpt lat="46.13125" lon="4.08118">
        <ele>314.597191</ele>
        <time>2023-09-29T09:13:33.223Z</time>
      </trkpt>
      <trkpt lat="46.13132" lon="4.08127">
        <ele>314.598888</ele>
        <time>2023-09-29T09:13:35.230Z</time>
      </trkpt>
      <trkpt lat="46.1314" lon="4.08136">
        <ele>314.600728</ele>
        <time>2023-09-29T09:13:37.211Z</time>
      </trkpt>
      <trkpt lat="46.13147" lon="4.08144">
        <ele>314.602459</ele>
        <time>2023-09-29T09:13:39.213Z</time>
      </trkpt>
      <trkpt lat="46.13158" lon="4.08157">
        <ele>314.625712</ele>
        <time>2023-09-29T09:13:42.205Z</time>
      </trkpt>
      <trkpt lat="46.13169" lon="4.08169">
        <ele>314.650285</ele>
        <time>2023-09-29T09:13:45.218Z</time>
      </trkpt>
      <trkpt lat="46.13177" lon="4.08177">
        <ele>314.667898</ele>
        <time>2023-09-29T09:13:47.221Z</time>
      </trkpt>
      <trkpt lat="46.13186" lon="4.08186">
        <ele>314.686155</ele>
        <time>2023-09-29T09:13:49.230Z</time>
      </trkpt>
      <trkpt lat="46.13193" lon="4.08195">
        <ele>314.703285</ele>
        <time>2023-09-29T09:13:51.210Z</time>
      </trkpt>
      <trkpt lat="46.13201" lon="4.08203">
        <ele>314.720256</ele>
        <time>2023-09-29T09:13:53.222Z</time>
      </trkpt>
      <trkpt lat="46.13209" lon="4.08211">
        <ele>314.736798</ele>
        <time>2023-09-29T09:13:55.212Z</time>
      </trkpt>
      <trkpt lat="46.13216" lon="4.08218">
        <ele>314.753362</ele>
        <time>2023-09-29T09:13:57.190Z</time>
      </trkpt>
      <trkpt lat="46.13224" lon="4.08226">
        <ele>314.770208</ele>
        <time>2023-09-29T09:13:59.224Z</time>
      </trkpt>
      <trkpt lat="46.13233" lon="4.08233">
        <ele>314.787308</ele>
        <time>2023-09-29T09:14:01.227Z</time>
      </trkpt>
      <trkpt lat="46.13241" lon="4.08239">
        <ele>314.803433</ele>
        <time>2023-09-29T09:14:03.219Z</time>
      </trkpt>
      <trkpt lat="46.13253" lon="4.08248">
        <ele>314.826747</ele>
        <time>2023-09-29T09:14:06.229Z</time>
      </trkpt>
      <trkpt lat="46.13261" lon="4.08253">
        <ele>314.842909</ele>
        <time>2023-09-29T09:14:08.221Z</time>
      </trkpt>
      <trkpt lat="46.1327" lon="4.08258">
        <ele>314.860167</ele>
        <time>2023-09-29T09:14:10.209Z</time>
      </trkpt>
      <trkpt lat="46.13279" lon="4.08262">
        <ele>314.876829</ele>
        <time>2023-09-29T09:14:12.193Z</time>
      </trkpt>
      <trkpt lat="46.13289" lon="4.08263">
        <ele>314.893625</ele>
        <time>2023-09-29T09:14:14.200Z</time>
      </trkpt>
      <trkpt lat="46.133" lon="4.08264">
        <ele>314.913632</ele>
        <time>2023-09-29T09:14:16.257Z</time>
      </trkpt>
      <trkpt lat="46.13311" lon="4.08262">
        <ele>314.944994</ele>
        <time>2023-09-29T09:14:18.200Z</time>
      </trkpt>
      <trkpt lat="46.13321" lon="4.08261">
        <ele>314.977399</ele>
        <time>2023-09-29T09:14:20.210Z</time>
      </trkpt>
      <trkpt lat="46.13331" lon="4.08264">
        <ele>315.010089</ele>
        <time>2023-09-29T09:14:22.209Z</time>
      </trkpt>
      <trkpt lat="46.1334" lon="4.08267">
        <ele>315.041865</ele>
        <time>2023-09-29T09:14:24.215Z</time>
      </trkpt>
      <trkpt lat="46.1335" lon="4.08267">
        <ele>315.073878</ele>
        <time>2023-09-29T09:14:26.199Z</time>
      </trkpt>
      <trkpt lat="46.13359" lon="4.08266">
        <ele>315.105677</ele>
        <time>2023-09-29T09:14:28.213Z</time>
      </trkpt>
      <trkpt lat="46.13368" lon="4.08265">
        <ele>315.13649</ele>
        <time>2023-09-29T09:14:30.225Z</time>
      </trkpt>
      <trkpt lat="46.13378" lon="4.08261">
        <ele>315.169057</ele>
        <time>2023-09-29T09:14:32.214Z</time>
      </trkpt>
      <trkpt lat="46.13387" lon="4.08258">
        <ele>315.200135</ele>
        <time>2023-09-29T09:14:34.227Z</time>
      </trkpt>
      <trkpt lat="46.13397" lon="4.08255">
        <ele>315.232938</ele>
        <time>2023-09-29T09:14:36.215Z</time>
      </trkpt>
      <trkpt lat="46.13406" lon="4.08252">
        <ele>315.264982</ele>
        <time>2023-09-29T09:14:38.217Z</time>
      </trkpt>
      <trkpt lat="46.13416" lon="4.0825">
        <ele>315.297672</ele>
        <time>2023-09-29T09:14:40.216Z</time>
      </trkpt>
      <trkpt lat="46.13426" lon="4.08247">
        <ele>315.329824</ele>
        <time>2023-09-29T09:14:42.206Z</time>
      </trkpt>
      <trkpt lat="46.13435" lon="4.08244">
        <ele>315.362145</ele>
        <time>2023-09-29T09:14:44.216Z</time>
      </trkpt>
      <trkpt lat="46.13445" lon="4.08242">
        <ele>315.394122</ele>
        <time>2023-09-29T09:14:46.210Z</time>
      </trkpt>
      <trkpt lat="46.13455" lon="4.08239">
        <ele>315.427438</ele>
        <time>2023-09-29T09:14:48.231Z</time>
      </trkpt>
      <trkpt lat="46.13465" lon="4.08237">
        <ele>315.460133</ele>
        <time>2023-09-29T09:14:50.212Z</time>
      </trkpt>
      <trkpt lat="46.13474" lon="4.08234">
        <ele>315.493663</ele>
        <time>2023-09-29T09:14:52.210Z</time>
      </trkpt>
      <trkpt lat="46.13484" lon="4.08232">
        <ele>315.534152</ele>
        <time>2023-09-29T09:14:54.206Z</time>
      </trkpt>
      <trkpt lat="46.13494" lon="4.08229">
        <ele>315.592913</ele>
        <time>2023-09-29T09:14:56.226Z</time>
      </trkpt>
      <trkpt lat="46.13504" lon="4.08225">
        <ele>315.651173</ele>
        <time>2023-09-29T09:14:58.213Z</time>
      </trkpt>
      <trkpt lat="46.13514" lon="4.08223">
        <ele>315.710322</ele>
        <time>2023-09-29T09:15:00.229Z</time>
      </trkpt>
      <trkpt lat="46.13523" lon="4.08221">
        <ele>315.766805</ele>
        <time>2023-09-29T09:15:02.210Z</time>
      </trkpt>
      <trkpt lat="46.13533" lon="4.08218">
        <ele>315.823776</ele>
        <time>2023-09-29T09:15:04.212Z</time>
      </trkpt>
      <trkpt lat="46.13543" lon="4.08215">
        <ele>315.882811</ele>
        <time>2023-09-29T09:15:06.220Z</time>
      </trkpt>
      <trkpt lat="46.13553" lon="4.08213">
        <ele>315.942744</ele>
        <time>2023-09-29T09:15:08.206Z</time>
      </trkpt>
      <trkpt lat="46.13563" lon="4.08209">
        <ele>316.000757</ele>
        <time>2023-09-29T09:15:10.213Z</time>
      </trkpt>
      <trkpt lat="46.13573" lon="4.08207">
        <ele>316.060365</ele>
        <time>2023-09-29T09:15:12.232Z</time>
      </trkpt>
      <trkpt lat="46.13583" lon="4.08204">
        <ele>316.120418</ele>
        <time>2023-09-29T09:15:14.220Z</time>
      </trkpt>
      <trkpt lat="46.13592" lon="4.08201">
        <ele>316.177917</ele>
        <time>2023-09-29T09:15:16.216Z</time>
      </trkpt>
      <trkpt lat="46.13602" lon="4.08198">
        <ele>316.234162</ele>
        <time>2023-09-29T09:15:18.226Z</time>
      </trkpt>
      <trkpt lat="46.13612" lon="4.08196">
        <ele>316.291055</ele>
        <time>2023-09-29T09:15:20.233Z</time>
      </trkpt>
      <trkpt lat="46.13621" lon="4.08194">
        <ele>316.34852</ele>
        <time>2023-09-29T09:15:22.215Z</time>
      </trkpt>
      <trkpt lat="46.13631" lon="4.08191">
        <ele>316.403547</ele>
        <time>2023-09-29T09:15:24.222Z</time>
      </trkpt>
      <trkpt lat="46.13641" lon="4.08189">
        <ele>316.462653</ele>
        <time>2023-09-29T09:15:26.223Z</time>
      </trkpt>
      <trkpt lat="46.13651" lon="4.08186">
        <ele>316.522768</ele>
        <time>2023-09-29T09:15:28.209Z</time>
      </trkpt>
      <trkpt lat="46.13661" lon="4.08183">
        <ele>316.536009</ele>
        <time>2023-09-29T09:15:30.229Z</time>
      </trkpt>
      <trkpt lat="46.13671" lon="4.0818">
        <ele>316.474969</ele>
        <time>2023-09-29T09:15:32.212Z</time>
      </trkpt>
      <trkpt lat="46.13681" lon="4.08177">
        <ele>316.411965</ele>
        <time>2023-09-29T09:15:34.240Z</time>
      </trkpt>
      <trkpt lat="46.1369" lon="4.08173">
        <ele>316.352141</ele>
        <time>2023-09-29T09:15:36.207Z</time>
      </trkpt>
      <trkpt lat="46.13699" lon="4.0817">
        <ele>316.297563</ele>
        <time>2023-09-29T09:15:38.208Z</time>
      </trkpt>
      <trkpt lat="46.13712" lon="4.08167">
        <ele>316.218506</ele>
        <time>2023-09-29T09:15:41.229Z</time>
      </trkpt>
      <trkpt lat="46.13724" lon="4.08165">
        <ele>316.145908</ele>
        <time>2023-09-29T09:15:44.199Z</time>
      </trkpt>
      <trkpt lat="46.13737" lon="4.08162">
        <ele>316.062965</ele>
        <time>2023-09-29T09:15:47.214Z</time>
      </trkpt>
      <trkpt lat="46.13747" lon="4.0816">
        <ele>316.004</ele>
        <time>2023-09-29T09:15:49.216Z</time>
      </trkpt>
      <trkpt lat="46.13756" lon="4.08157">
        <ele>315.945436</ele>
        <time>2023-09-29T09:15:51.215Z</time>
      </trkpt>
      <trkpt lat="46.13765" lon="4.08155">
        <ele>315.886515</ele>
        <time>2023-09-29T09:15:53.215Z</time>
      </trkpt>
      <trkpt lat="46.13775" lon="4.08152">
        <ele>315.829394</ele>
        <time>2023-09-29T09:15:55.222Z</time>
      </trkpt>
      <trkpt lat="46.13784" lon="4.0815">
        <ele>315.770017</ele>
        <time>2023-09-29T09:15:57.213Z</time>
      </trkpt>
      <trkpt lat="46.13794" lon="4.08147">
        <ele>315.711453</ele>
        <time>2023-09-29T09:15:59.213Z</time>
      </trkpt>
      <trkpt lat="46.13803" lon="4.08145">
        <ele>315.655962</ele>
        <time>2023-09-29T09:16:01.211Z</time>
      </trkpt>
      <trkpt lat="46.13812" lon="4.08142">
        <ele>315.599518</ele>
        <time>2023-09-29T09:16:03.218Z</time>
      </trkpt>
      <trkpt lat="46.13821" lon="4.0814">
        <ele>315.540597</ele>
        <time>2023-09-29T09:16:05.228Z</time>
      </trkpt>
      <trkpt lat="46.1383" lon="4.08137">
        <ele>315.482716</ele>
        <time>2023-09-29T09:16:07.228Z</time>
      </trkpt>
      <trkpt lat="46.1384" lon="4.08134">
        <ele>315.463302</ele>
        <time>2023-09-29T09:16:09.215Z</time>
      </trkpt>
      <trkpt lat="46.1385" lon="4.08132">
        <ele>315.464581</ele>
        <time>2023-09-29T09:16:11.217Z</time>
      </trkpt>
      <trkpt lat="46.13859" lon="4.08128">
        <ele>315.46583</ele>
        <time>2023-09-29T09:16:13.223Z</time>
      </trkpt>
      <trkpt lat="46.13868" lon="4.08124">
        <ele>315.467084</ele>
        <time>2023-09-29T09:16:15.216Z</time>
      </trkpt>
      <trkpt lat="46.13878" lon="4.0812">
        <ele>315.468308</ele>
        <time>2023-09-29T09:16:17.217Z</time>
      </trkpt>
      <trkpt lat="46.13887" lon="4.08116">
        <ele>315.469546</ele>
        <time>2023-09-29T09:16:19.226Z</time>
      </trkpt>
      <trkpt lat="46.13896" lon="4.08112">
        <ele>315.470797</ele>
        <time>2023-09-29T09:16:21.188Z</time>
      </trkpt>
      <trkpt lat="46.13906" lon="4.08109">
        <ele>315.472035</ele>
        <time>2023-09-29T09:16:23.226Z</time>
      </trkpt>
      <trkpt lat="46.13914" lon="4.08104">
        <ele>315.473182</ele>
        <time>2023-09-29T09:16:25.224Z</time>
      </trkpt>
      <trkpt lat="46.13927" lon="4.08098">
        <ele>315.474913</ele>
        <time>2023-09-29T09:16:28.210Z</time>
      </trkpt>
      <trkpt lat="46.13936" lon="4.08094">
        <ele>315.476118</ele>
        <time>2023-09-29T09:16:30.210Z</time>
      </trkpt>
      <trkpt lat="46.13948" lon="4.08088">
        <ele>315.477777</ele>
        <time>2023-09-29T09:16:33.222Z</time>
      </trkpt>
      <trkpt lat="46.13957" lon="4.08086">
        <ele>315.47894</ele>
        <time>2023-09-29T09:16:35.217Z</time>
      </trkpt>
      <trkpt lat="46.13969" lon="4.08085">
        <ele>315.480481</ele>
        <time>2023-09-29T09:16:38.217Z</time>
      </trkpt>
      <trkpt lat="46.13981" lon="4.08079">
        <ele>315.482067</ele>
        <time>2023-09-29T09:16:41.236Z</time>
      </trkpt>
      <trkpt lat="46.13992" lon="4.08075">
        <ele>315.483503</ele>
        <time>2023-09-29T09:16:43.218Z</time>
      </trkpt>
      <trkpt lat="46.14005" lon="4.0807">
        <ele>315.485213</ele>
        <time>2023-09-29T09:16:45.211Z</time>
      </trkpt>
      <trkpt lat="46.14019" lon="4.08065">
        <ele>315.321432</ele>
        <time>2023-09-29T09:16:47.214Z</time>
      </trkpt>
      <trkpt lat="46.14034" lon="4.08059">
        <ele>315.126166</ele>
        <time>2023-09-29T09:16:49.228Z</time>
      </trkpt>
      <trkpt lat="46.14047" lon="4.08054">
        <ele>314.943904</ele>
        <time>2023-09-29T09:16:51.225Z</time>
      </trkpt>
      <trkpt lat="46.1406" lon="4.08049">
        <ele>314.765667</ele>
        <time>2023-09-29T09:16:53.211Z</time>
      </trkpt>
      <trkpt lat="46.14073" lon="4.08045">
        <ele>314.59293</ele>
        <time>2023-09-29T09:16:55.231Z</time>
      </trkpt>
      <trkpt lat="46.14086" lon="4.08039">
        <ele>314.419005</ele>
        <time>2023-09-29T09:16:57.213Z</time>
      </trkpt>
      <trkpt lat="46.14098" lon="4.08034">
        <ele>314.255919</ele>
        <time>2023-09-29T09:16:59.210Z</time>
      </trkpt>
      <trkpt lat="46.14109" lon="4.0803">
        <ele>314.10228</ele>
        <time>2023-09-29T09:17:01.204Z</time>
      </trkpt>
      <trkpt lat="46.1412" lon="4.08025">
        <ele>313.952001</ele>
        <time>2023-09-29T09:17:03.208Z</time>
      </trkpt>
      <trkpt lat="46.14132" lon="4.08021">
        <ele>313.798945</ele>
        <time>2023-09-29T09:17:05.229Z</time>
      </trkpt>
      <trkpt lat="46.14143" lon="4.08018">
        <ele>313.642259</ele>
        <time>2023-09-29T09:17:07.216Z</time>
      </trkpt>
      <trkpt lat="46.14154" lon="4.08013">
        <ele>313.49117</ele>
        <time>2023-09-29T09:17:09.191Z</time>
      </trkpt>
      <trkpt lat="46.14166" lon="4.08009">
        <ele>313.339643</ele>
        <time>2023-09-29T09:17:11.222Z</time>
      </trkpt>
      <trkpt lat="46.14176" lon="4.08006">
        <ele>313.194893</ele>
        <time>2023-09-29T09:17:13.215Z</time>
      </trkpt>
      <trkpt lat="46.14188" lon="4.08002">
        <ele>313.110622</ele>
        <time>2023-09-29T09:17:15.232Z</time>
      </trkpt>
      <trkpt lat="46.14198" lon="4.07998">
        <ele>313.072968</ele>
        <time>2023-09-29T09:17:17.227Z</time>
      </trkpt>
      <trkpt lat="46.14209" lon="4.07994">
        <ele>313.035471</ele>
        <time>2023-09-29T09:17:19.231Z</time>
      </trkpt>
      <trkpt lat="46.14219" lon="4.0799">
        <ele>313.000466</ele>
        <time>2023-09-29T09:17:21.220Z</time>
      </trkpt>
      <trkpt lat="46.14228" lon="4.07987">
        <ele>312.968431</ele>
        <time>2023-09-29T09:17:23.212Z</time>
      </trkpt>
      <trkpt lat="46.14237" lon="4.07986">
        <ele>312.93569</ele>
        <time>2023-09-29T09:17:25.217Z</time>
      </trkpt>
      <trkpt lat="46.14246" lon="4.07984">
        <ele>312.904782</ele>
        <time>2023-09-29T09:17:27.225Z</time>
      </trkpt>
      <trkpt lat="46.14255" lon="4.07985">
        <ele>312.874237</ele>
        <time>2023-09-29T09:17:29.219Z</time>
      </trkpt>
      <trkpt lat="46.14265" lon="4.07985">
        <ele>312.840728</ele>
        <time>2023-09-29T09:17:31.232Z</time>
      </trkpt>
      <trkpt lat="46.14276" lon="4.07985">
        <ele>312.804847</ele>
        <time>2023-09-29T09:17:33.222Z</time>
      </trkpt>
      <trkpt lat="46.14286" lon="4.07985">
        <ele>312.770331</ele>
        <time>2023-09-29T09:17:35.221Z</time>
      </trkpt>
      <trkpt lat="46.14296" lon="4.07986">
        <ele>312.734754</ele>
        <time>2023-09-29T09:17:37.223Z</time>
      </trkpt>
      <trkpt lat="46.14306" lon="4.07985">
        <ele>312.700237</ele>
        <time>2023-09-29T09:17:39.219Z</time>
      </trkpt>
      <trkpt lat="46.14316" lon="4.07986">
        <ele>312.665038</ele>
        <time>2023-09-29T09:17:41.213Z</time>
      </trkpt>
      <trkpt lat="46.14326" lon="4.07985">
        <ele>312.631201</ele>
        <time>2023-09-29T09:17:43.226Z</time>
      </trkpt>
      <trkpt lat="46.14336" lon="4.07985">
        <ele>312.597363</ele>
        <time>2023-09-29T09:17:45.213Z</time>
      </trkpt>
      <trkpt lat="46.14346" lon="4.07986">
        <ele>312.563451</ele>
        <time>2023-09-29T09:17:47.220Z</time>
      </trkpt>
      <trkpt lat="46.14356" lon="4.07986">
        <ele>312.529608</ele>
        <time>2023-09-29T09:17:49.214Z</time>
      </trkpt>
      <trkpt lat="46.14366" lon="4.07987">
        <ele>312.385875</ele>
        <time>2023-09-29T09:17:51.212Z</time>
      </trkpt>
      <trkpt lat="46.14376" lon="4.07987">
        <ele>312.19756</ele>
        <time>2023-09-29T09:17:53.220Z</time>
      </trkpt>
      <trkpt lat="46.14386" lon="4.07988">
        <ele>312.014585</ele>
        <time>2023-09-29T09:17:55.224Z</time>
      </trkpt>
      <trkpt lat="46.14396" lon="4.07989">
        <ele>311.827887</ele>
        <time>2023-09-29T09:17:57.216Z</time>
      </trkpt>
      <trkpt lat="46.14407" lon="4.07991">
        <ele>311.62861</ele>
        <time>2023-09-29T09:17:59.228Z</time>
      </trkpt>
      <trkpt lat="46.14417" lon="4.07993">
        <ele>311.440236</ele>
        <time>2023-09-29T09:18:01.198Z</time>
      </trkpt>
      <trkpt lat="46.14426" lon="4.07995">
        <ele>311.259427</ele>
        <time>2023-09-29T09:18:03.217Z</time>
      </trkpt>
      <trkpt lat="46.14436" lon="4.07997">
        <ele>311.084672</ele>
        <time>2023-09-29T09:18:05.217Z</time>
      </trkpt>
      <trkpt lat="46.14445" lon="4.08001">
        <ele>310.906746</ele>
        <time>2023-09-29T09:18:07.214Z</time>
      </trkpt>
      <trkpt lat="46.14455" lon="4.08004">
        <ele>310.718176</ele>
        <time>2023-09-29T09:18:09.216Z</time>
      </trkpt>
      <trkpt lat="46.14464" lon="4.08006">
        <ele>310.540814</ele>
        <time>2023-09-29T09:18:11.217Z</time>
      </trkpt>
      <trkpt lat="46.14474" lon="4.0801">
        <ele>310.352927</ele>
        <time>2023-09-29T09:18:13.220Z</time>
      </trkpt>
      <trkpt lat="46.14484" lon="4.08014">
        <ele>310.156875</ele>
        <time>2023-09-29T09:18:15.216Z</time>
      </trkpt>
      <trkpt lat="46.14494" lon="4.08017">
        <ele>309.966479</ele>
        <time>2023-09-29T09:18:17.220Z</time>
      </trkpt>
      <trkpt lat="46.14504" lon="4.08021">
        <ele>309.778324</ele>
        <time>2023-09-29T09:18:19.227Z</time>
      </trkpt>
      <trkpt lat="46.14513" lon="4.08025">
        <ele>309.597055</ele>
        <time>2023-09-29T09:18:21.211Z</time>
      </trkpt>
      <trkpt lat="46.14522" lon="4.08031">
        <ele>309.411092</ele>
        <time>2023-09-29T09:18:23.206Z</time>
      </trkpt>
      <trkpt lat="46.14531" lon="4.08038">
        <ele>309.232809</ele>
        <time>2023-09-29T09:18:25.219Z</time>
      </trkpt>
      <trkpt lat="46.1454" lon="4.08046">
        <ele>309.305262</ele>
        <time>2023-09-29T09:18:27.231Z</time>
      </trkpt>
      <trkpt lat="46.14548" lon="4.08054">
        <ele>309.495107</ele>
        <time>2023-09-29T09:18:29.216Z</time>
      </trkpt>
      <trkpt lat="46.14555" lon="4.08064">
        <ele>309.688691</ele>
        <time>2023-09-29T09:18:31.229Z</time>
      </trkpt>
      <trkpt lat="46.14563" lon="4.08074">
        <ele>309.885644</ele>
        <time>2023-09-29T09:18:33.224Z</time>
      </trkpt>
      <trkpt lat="46.14569" lon="4.08084">
        <ele>310.080505</ele>
        <time>2023-09-29T09:18:35.214Z</time>
      </trkpt>
      <trkpt lat="46.14576" lon="4.08096">
        <ele>310.276141</ele>
        <time>2023-09-29T09:18:37.197Z</time>
      </trkpt>
      <trkpt lat="46.14582" lon="4.08107">
        <ele>310.472432</ele>
        <time>2023-09-29T09:18:39.223Z</time>
      </trkpt>
      <trkpt lat="46.14588" lon="4.0812">
        <ele>310.681561</ele>
        <time>2023-09-29T09:18:41.215Z</time>
      </trkpt>
      <trkpt lat="46.14594" lon="4.08133">
        <ele>310.894901</ele>
        <time>2023-09-29T09:18:43.224Z</time>
      </trkpt>
      <trkpt lat="46.14598" lon="4.08147">
        <ele>311.094137</ele>
        <time>2023-09-29T09:18:45.214Z</time>
      </trkpt>
      <trkpt lat="46.14601" lon="4.08159">
        <ele>311.2749</ele>
        <time>2023-09-29T09:18:47.214Z</time>
      </trkpt>
      <trkpt lat="46.14604" lon="4.08173">
        <ele>311.462458</ele>
        <time>2023-09-29T09:18:49.215Z</time>
      </trkpt>
      <trkpt lat="46.14605" lon="4.08187">
        <ele>311.653781</ele>
        <time>2023-09-29T09:18:51.213Z</time>
      </trkpt>
      <trkpt lat="46.14607" lon="4.08201">
        <ele>311.845104</ele>
        <time>2023-09-29T09:18:53.238Z</time>
      </trkpt>
      <trkpt lat="46.14609" lon="4.08215">
        <ele>312.044074</ele>
        <time>2023-09-29T09:18:55.225Z</time>
      </trkpt>
      <trkpt lat="46.1461" lon="4.0823">
        <ele>312.237426</ele>
        <time>2023-09-29T09:18:57.216Z</time>
      </trkpt>
      <trkpt lat="46.14611" lon="4.08243">
        <ele>312.42441</ele>
        <time>2023-09-29T09:18:59.223Z</time>
      </trkpt>
      <trkpt lat="46.14613" lon="4.08257">
        <ele>312.613431</ele>
        <time>2023-09-29T09:19:01.214Z</time>
      </trkpt>
      <trkpt lat="46.14615" lon="4.08271">
        <ele>312.67518</ele>
        <time>2023-09-29T09:19:03.219Z</time>
      </trkpt>
      <trkpt lat="46.14616" lon="4.08285">
        <ele>312.693374</ele>
        <time>2023-09-29T09:19:05.211Z</time>
      </trkpt>
      <trkpt lat="46.14618" lon="4.08299">
        <ele>312.712425</ele>
        <time>2023-09-29T09:19:07.234Z</time>
      </trkpt>
      <trkpt lat="46.1462" lon="4.08313">
        <ele>312.73112</ele>
        <time>2023-09-29T09:19:09.224Z</time>
      </trkpt>
      <trkpt lat="46.14621" lon="4.08326">
        <ele>312.748758</ele>
        <time>2023-09-29T09:19:11.222Z</time>
      </trkpt>
      <trkpt lat="46.14623" lon="4.08339">
        <ele>312.767317</ele>
        <time>2023-09-29T09:19:13.223Z</time>
      </trkpt>
      <trkpt lat="46.14626" lon="4.08353">
        <ele>312.785999</ele>
        <time>2023-09-29T09:19:15.219Z</time>
      </trkpt>
      <trkpt lat="46.14629" lon="4.08366">
        <ele>312.804935</ele>
        <time>2023-09-29T09:19:17.209Z</time>
      </trkpt>
      <trkpt lat="46.14632" lon="4.08379">
        <ele>312.82349</ele>
        <time>2023-09-29T09:19:19.208Z</time>
      </trkpt>
      <trkpt lat="46.14635" lon="4.08392">
        <ele>312.841475</ele>
        <time>2023-09-29T09:19:21.219Z</time>
      </trkpt>
      <trkpt lat="46.14638" lon="4.08404">
        <ele>312.859373</ele>
        <time>2023-09-29T09:19:23.222Z</time>
      </trkpt>
      <trkpt lat="46.14641" lon="4.08417">
        <ele>312.877456</ele>
        <time>2023-09-29T09:19:25.213Z</time>
      </trkpt>
      <trkpt lat="46.14644" lon="4.0843">
        <ele>312.894938</ele>
        <time>2023-09-29T09:19:27.236Z</time>
      </trkpt>
      <trkpt lat="46.14647" lon="4.08442">
        <ele>312.912543</ele>
        <time>2023-09-29T09:19:29.224Z</time>
      </trkpt>
      <trkpt lat="46.14649" lon="4.08455">
        <ele>312.930534</ele>
        <time>2023-09-29T09:19:31.217Z</time>
      </trkpt>
      <trkpt lat="46.14653" lon="4.08467">
        <ele>312.948831</ele>
        <time>2023-09-29T09:19:33.217Z</time>
      </trkpt>
      <trkpt lat="46.14657" lon="4.0848">
        <ele>312.967012</ele>
        <time>2023-09-29T09:19:35.233Z</time>
      </trkpt>
      <trkpt lat="46.1466" lon="4.08492">
        <ele>312.984692</ele>
        <time>2023-09-29T09:19:37.214Z</time>
      </trkpt>
      <trkpt lat="46.14663" lon="4.08505">
        <ele>313.00314</ele>
        <time>2023-09-29T09:19:39.210Z</time>
      </trkpt>
      <trkpt lat="46.14666" lon="4.08519">
        <ele>312.99453</ele>
        <time>2023-09-29T09:19:41.222Z</time>
      </trkpt>
      <trkpt lat="46.1467" lon="4.08532">
        <ele>312.975799</ele>
        <time>2023-09-29T09:19:43.216Z</time>
      </trkpt>
      <trkpt lat="46.14673" lon="4.08545">
        <ele>312.95648</ele>
        <time>2023-09-29T09:19:45.217Z</time>
      </trkpt>
      <trkpt lat="46.14677" lon="4.08558">
        <ele>312.938487</ele>
        <time>2023-09-29T09:19:47.217Z</time>
      </trkpt>
      <trkpt lat="46.1468" lon="4.08571">
        <ele>312.9201</ele>
        <time>2023-09-29T09:19:49.234Z</time>
      </trkpt>
      <trkpt lat="46.14684" lon="4.08584">
        <ele>312.901257</ele>
        <time>2023-09-29T09:19:51.217Z</time>
      </trkpt>
      <trkpt lat="46.14688" lon="4.08596">
        <ele>312.882777</ele>
        <time>2023-09-29T09:19:53.215Z</time>
      </trkpt>
      <trkpt lat="46.14692" lon="4.08609">
        <ele>312.863834</ele>
        <time>2023-09-29T09:19:55.188Z</time>
      </trkpt>
      <trkpt lat="46.14695" lon="4.08622">
        <ele>312.845398</ele>
        <time>2023-09-29T09:19:57.226Z</time>
      </trkpt>
      <trkpt lat="46.14698" lon="4.08636">
        <ele>312.826773</ele>
        <time>2023-09-29T09:19:59.187Z</time>
      </trkpt>
      <trkpt lat="46.14701" lon="4.08649">
        <ele>312.808436</ele>
        <time>2023-09-29T09:20:01.211Z</time>
      </trkpt>
      <trkpt lat="46.14703" lon="4.08663">
        <ele>312.789294</ele>
        <time>2023-09-29T09:20:03.219Z</time>
      </trkpt>
      <trkpt lat="46.14706" lon="4.08676">
        <ele>312.769658</ele>
        <time>2023-09-29T09:20:05.216Z</time>
      </trkpt>
      <trkpt lat="46.1471" lon="4.08689">
        <ele>312.751349</ele>
        <time>2023-09-29T09:20:07.214Z</time>
      </trkpt>
      <trkpt lat="46.14713" lon="4.08707">
        <ele>312.726205</ele>
        <time>2023-09-29T09:20:10.228Z</time>
      </trkpt>
      <trkpt lat="46.14717" lon="4.08723">
        <ele>312.704046</ele>
        <time>2023-09-29T09:20:13.213Z</time>
      </trkpt>
      <trkpt lat="46.14721" lon="4.08737">
        <ele>312.684181</ele>
        <time>2023-09-29T09:20:16.198Z</time>
      </trkpt>
      <trkpt lat="46.14725" lon="4.0875">
        <ele>312.66424</ele>
        <time>2023-09-29T09:20:19.245Z</time>
      </trkpt>
      <trkpt lat="46.1473" lon="4.08763">
        <ele>312.721317</ele>
        <time>2023-09-29T09:20:22.239Z</time>
      </trkpt>
      <trkpt lat="46.14735" lon="4.08777">
        <ele>312.803295</ele>
        <time>2023-09-29T09:20:26.225Z</time>
      </trkpt>
      <trkpt lat="46.1474" lon="4.08788">
        <ele>312.871601</ele>
        <time>2023-09-29T09:20:30.214Z</time>
      </trkpt>
      <trkpt lat="46.14746" lon="4.088">
        <ele>312.943492</ele>
        <time>2023-09-29T09:20:35.206Z</time>
      </trkpt>
      <trkpt lat="46.14752" lon="4.08813">
        <ele>313.0212</ele>
        <time>2023-09-29T09:20:41.225Z</time>
      </trkpt>
      <trkpt lat="46.14758" lon="4.08823">
        <ele>313.090681</ele>
        <time>2023-09-29T09:20:46.208Z</time>
      </trkpt>
      <trkpt lat="46.14763" lon="4.08834">
        <ele>313.156338</ele>
        <time>2023-09-29T09:20:52.201Z</time>
      </trkpt>
      <trkpt lat="46.14771" lon="4.08846">
        <ele>313.239155</ele>
        <time>2023-09-29T09:21:04.228Z</time>
      </trkpt>
      <trkpt lat="46.14778" lon="4.0886">
        <ele>313.32478</ele>
        <time>2023-09-29T09:21:08.205Z</time>
      </trkpt>
      <trkpt lat="46.14782" lon="4.08871">
        <ele>313.391636</ele>
        <time>2023-09-29T09:21:11.226Z</time>
      </trkpt>
      <trkpt lat="46.14787" lon="4.08883">
        <ele>313.460318</ele>
        <time>2023-09-29T09:21:15.216Z</time>
      </trkpt>
      <trkpt lat="46.14794" lon="4.08894">
        <ele>313.536692</ele>
        <time>2023-09-29T09:21:20.210Z</time>
      </trkpt>
      <trkpt lat="46.148" lon="4.08904">
        <ele>313.605886</ele>
        <time>2023-09-29T09:21:25.212Z</time>
      </trkpt>
      <trkpt lat="46.14799" lon="4.0892">
        <ele>313.689216</ele>
        <time>2023-09-29T09:21:30.201Z</time>
      </trkpt>
      <trkpt lat="46.14799" lon="4.08934">
        <ele>313.755441</ele>
        <time>2023-09-29T09:21:43.214Z</time>
      </trkpt>
      <trkpt lat="46.14799" lon="4.0895">
        <ele>313.837366</ele>
        <time>2023-09-29T09:21:48.206Z</time>
      </trkpt>
      <trkpt lat="46.14797" lon="4.08968">
        <ele>313.932137</ele>
        <time>2023-09-29T09:21:51.236Z</time>
      </trkpt>
      <trkpt lat="46.14796" lon="4.08982">
        <ele>313.900468</ele>
        <time>2023-09-29T09:21:53.221Z</time>
      </trkpt>
      <trkpt lat="46.14794" lon="4.08999">
        <ele>313.688202</ele>
        <time>2023-09-29T09:21:55.231Z</time>
      </trkpt>
      <trkpt lat="46.14792" lon="4.09016">
        <ele>313.46485</ele>
        <time>2023-09-29T09:21:57.213Z</time>
      </trkpt>
      <trkpt lat="46.14791" lon="4.09035">
        <ele>313.223636</ele>
        <time>2023-09-29T09:21:59.218Z</time>
      </trkpt>
      <trkpt lat="46.14789" lon="4.09056">
        <ele>312.952802</ele>
        <time>2023-09-29T09:22:01.217Z</time>
      </trkpt>
      <trkpt lat="46.14786" lon="4.09078">
        <ele>312.675975</ele>
        <time>2023-09-29T09:22:03.236Z</time>
      </trkpt>
      <trkpt lat="46.14784" lon="4.091">
        <ele>312.388103</ele>
        <time>2023-09-29T09:22:05.212Z</time>
      </trkpt>
      <trkpt lat="46.14782" lon="4.09124">
        <ele>312.089365</ele>
        <time>2023-09-29T09:22:07.207Z</time>
      </trkpt>
      <trkpt lat="46.1478" lon="4.09147">
        <ele>311.786645</ele>
        <time>2023-09-29T09:22:09.219Z</time>
      </trkpt>
      <trkpt lat="46.14777" lon="4.09171">
        <ele>311.477736</ele>
        <time>2023-09-29T09:22:11.234Z</time>
      </trkpt>
      <trkpt lat="46.14775" lon="4.09195">
        <ele>311.176802</ele>
        <time>2023-09-29T09:22:13.219Z</time>
      </trkpt>
      <trkpt lat="46.14773" lon="4.09218">
        <ele>310.886168</ele>
        <time>2023-09-29T09:22:15.197Z</time>
      </trkpt>
      <trkpt lat="46.1477" lon="4.0924">
        <ele>310.737745</ele>
        <time>2023-09-29T09:22:17.213Z</time>
      </trkpt>
      <trkpt lat="46.14768" lon="4.09261">
        <ele>310.928948</ele>
        <time>2023-09-29T09:22:19.214Z</time>
      </trkpt>
      <trkpt lat="46.14765" lon="4.09281">
        <ele>311.107197</ele>
        <time>2023-09-29T09:22:21.230Z</time>
      </trkpt>
      <trkpt lat="46.14764" lon="4.09301">
        <ele>311.285672</ele>
        <time>2023-09-29T09:22:23.224Z</time>
      </trkpt>
      <trkpt lat="46.14762" lon="4.0932">
        <ele>311.456113</ele>
        <time>2023-09-29T09:22:25.224Z</time>
      </trkpt>
      <trkpt lat="46.1476" lon="4.09338">
        <ele>311.619165</ele>
        <time>2023-09-29T09:22:27.219Z</time>
      </trkpt>
      <trkpt lat="46.14759" lon="4.09357">
        <ele>311.787795</ele>
        <time>2023-09-29T09:22:29.222Z</time>
      </trkpt>
      <trkpt lat="46.14757" lon="4.09375">
        <ele>311.94892</ele>
        <time>2023-09-29T09:22:31.210Z</time>
      </trkpt>
      <trkpt lat="46.14756" lon="4.09393">
        <ele>312.110044</ele>
        <time>2023-09-29T09:22:33.212Z</time>
      </trkpt>
      <trkpt lat="46.14754" lon="4.09411">
        <ele>312.272049</ele>
        <time>2023-09-29T09:22:35.235Z</time>
      </trkpt>
      <trkpt lat="46.14752" lon="4.09428">
        <ele>312.422792</ele>
        <time>2023-09-29T09:22:37.219Z</time>
      </trkpt>
      <trkpt lat="46.14751" lon="4.09443">
        <ele>312.562296</ele>
        <time>2023-09-29T09:22:39.233Z</time>
      </trkpt>
      <trkpt lat="46.14749" lon="4.09458">
        <ele>312.69943</ele>
        <time>2023-09-29T09:22:41.230Z</time>
      </trkpt>
      <trkpt lat="46.14748" lon="4.09473">
        <ele>312.826286</ele>
        <time>2023-09-29T09:22:43.214Z</time>
      </trkpt>
      <trkpt lat="46.14746" lon="4.09486">
        <ele>312.946249</ele>
        <time>2023-09-29T09:22:45.212Z</time>
      </trkpt>
      <trkpt lat="46.14745" lon="4.09502">
        <ele>313.141259</ele>
        <time>2023-09-29T09:22:48.212Z</time>
      </trkpt>
      <trkpt lat="46.14743" lon="4.09518">
        <ele>313.346291</ele>
        <time>2023-09-29T09:22:51.215Z</time>
      </trkpt>
      <trkpt lat="46.14741" lon="4.09534">
        <ele>313.555357</ele>
        <time>2023-09-29T09:22:54.209Z</time>
      </trkpt>
      <trkpt lat="46.1474" lon="4.0955">
        <ele>313.75546</ele>
        <time>2023-09-29T09:22:57.221Z</time>
      </trkpt>
      <trkpt lat="46.14738" lon="4.09566">
        <ele>313.965449</ele>
        <time>2023-09-29T09:23:00.216Z</time>
      </trkpt>
      <trkpt lat="46.14737" lon="4.09581">
        <ele>314.153941</ele>
        <time>2023-09-29T09:23:03.210Z</time>
      </trkpt>
      <trkpt lat="46.14735" lon="4.09596">
        <ele>314.355848</ele>
        <time>2023-09-29T09:23:06.220Z</time>
      </trkpt>
      <trkpt lat="46.14733" lon="4.09612">
        <ele>314.556832</ele>
        <time>2023-09-29T09:23:09.213Z</time>
      </trkpt>
      <trkpt lat="46.14731" lon="4.09627">
        <ele>314.755191</ele>
        <time>2023-09-29T09:23:12.207Z</time>
      </trkpt>
      <trkpt lat="46.1473" lon="4.09643">
        <ele>314.959967</ele>
        <time>2023-09-29T09:23:15.193Z</time>
      </trkpt>
      <trkpt lat="46.14728" lon="4.09658">
        <ele>315.145795</ele>
        <time>2023-09-29T09:23:18.213Z</time>
      </trkpt>
      <trkpt lat="46.14727" lon="4.09672">
        <ele>315.32969</ele>
        <time>2023-09-29T09:23:21.222Z</time>
      </trkpt>
      <trkpt lat="46.14725" lon="4.09687">
        <ele>315.520567</ele>
        <time>2023-09-29T09:23:25.215Z</time>
      </trkpt>
      <trkpt lat="46.14725" lon="4.09695">
        <ele>315.624195</ele>
        <time>2023-09-29T09:23:36.005Z</time>
      </trkpt>
      <trkpt lat="46.14725" lon="4.0971">
        <ele>315.824683</ele>
        <time>2023-09-29T09:26:18.213Z</time>
      </trkpt>
      <trkpt lat="46.14723" lon="4.09725">
        <ele>316.012022</ele>
        <time>2023-09-29T09:26:22.212Z</time>
      </trkpt>
      <trkpt lat="46.14721" lon="4.09739">
        <ele>316.200604</ele>
        <time>2023-09-29T09:26:26.213Z</time>
      </trkpt>
      <trkpt lat="46.1472" lon="4.09752">
        <ele>316.217872</ele>
        <time>2023-09-29T09:26:30.211Z</time>
      </trkpt>
      <trkpt lat="46.14719" lon="4.09767">
        <ele>315.993441</ele>
        <time>2023-09-29T09:26:34.233Z</time>
      </trkpt>
      <trkpt lat="46.14717" lon="4.09781">
        <ele>315.778924</ele>
        <time>2023-09-29T09:26:38.199Z</time>
      </trkpt>
      <trkpt lat="46.14715" lon="4.09797">
        <ele>315.531847</ele>
        <time>2023-09-29T09:26:42.217Z</time>
      </trkpt>
      <trkpt lat="46.14713" lon="4.09811">
        <ele>315.323432</ele>
        <time>2023-09-29T09:26:45.224Z</time>
      </trkpt>
      <trkpt lat="46.14711" lon="4.09828">
        <ele>315.062419</ele>
        <time>2023-09-29T09:26:48.215Z</time>
      </trkpt>
      <trkpt lat="46.14709" lon="4.09847">
        <ele>314.776146</ele>
        <time>2023-09-29T09:26:51.214Z</time>
      </trkpt>
      <trkpt lat="46.14708" lon="4.0986">
        <ele>314.57492</ele>
        <time>2023-09-29T09:26:53.228Z</time>
      </trkpt>
      <trkpt lat="46.14706" lon="4.09874">
        <ele>314.354252</ele>
        <time>2023-09-29T09:26:55.224Z</time>
      </trkpt>
      <trkpt lat="46.14705" lon="4.0989">
        <ele>314.118045</ele>
        <time>2023-09-29T09:26:57.207Z</time>
      </trkpt>
      <trkpt lat="46.14703" lon="4.09906">
        <ele>313.868083</ele>
        <time>2023-09-29T09:26:59.220Z</time>
      </trkpt>
      <trkpt lat="46.14701" lon="4.09923">
        <ele>313.605975</ele>
        <time>2023-09-29T09:27:01.210Z</time>
      </trkpt>
      <trkpt lat="46.14699" lon="4.0994">
        <ele>313.343102</ele>
        <time>2023-09-29T09:27:03.220Z</time>
      </trkpt>
      <trkpt lat="46.14698" lon="4.09958">
        <ele>313.076396</ele>
        <time>2023-09-29T09:27:05.220Z</time>
      </trkpt>
      <trkpt lat="46.14695" lon="4.09976">
        <ele>312.804991</ele>
        <time>2023-09-29T09:27:07.215Z</time>
      </trkpt>
      <trkpt lat="46.14694" lon="4.09993">
        <ele>312.540627</ele>
        <time>2023-09-29T09:27:09.212Z</time>
      </trkpt>
      <trkpt lat="46.14692" lon="4.1001">
        <ele>312.281627</ele>
        <time>2023-09-29T09:27:11.212Z</time>
      </trkpt>
      <trkpt lat="46.1469" lon="4.10025">
        <ele>312.054299</ele>
        <time>2023-09-29T09:27:13.209Z</time>
      </trkpt>
      <trkpt lat="46.14684" lon="4.10042">
        <ele>311.764912</ele>
        <time>2023-09-29T09:27:16.202Z</time>
      </trkpt>
      <trkpt lat="46.14676" lon="4.10052">
        <ele>311.552469</ele>
        <time>2023-09-29T09:27:18.207Z</time>
      </trkpt>
      <trkpt lat="46.14673" lon="4.10066">
        <ele>311.332331</ele>
        <time>2023-09-29T09:27:20.190Z</time>
      </trkpt>
      <trkpt lat="46.14668" lon="4.1008">
        <ele>311.10489</ele>
        <time>2023-09-29T09:27:22.199Z</time>
      </trkpt>
      <trkpt lat="46.1466" lon="4.1009">
        <ele>310.868162</ele>
        <time>2023-09-29T09:27:24.213Z</time>
      </trkpt>
      <trkpt lat="46.14649" lon="4.10097">
        <ele>310.615232</ele>
        <time>2023-09-29T09:27:26.220Z</time>
      </trkpt>
      <trkpt lat="46.14637" lon="4.101">
        <ele>310.357025</ele>
        <time>2023-09-29T09:27:28.201Z</time>
      </trkpt>
      <trkpt lat="46.14625" lon="4.10101">
        <ele>310.101751</ele>
        <time>2023-09-29T09:27:30.200Z</time>
      </trkpt>
      <trkpt lat="46.14614" lon="4.10099">
        <ele>309.859884</ele>
        <time>2023-09-29T09:27:32.215Z</time>
      </trkpt>
      <trkpt lat="46.14608" lon="4.10087">
        <ele>309.64876</ele>
        <time>2023-09-29T09:27:34.203Z</time>
      </trkpt>
      <trkpt lat="46.14608" lon="4.10073">
        <ele>309.42913</ele>
        <time>2023-09-29T09:27:36.190Z</time>
      </trkpt>
      <trkpt lat="46.14608" lon="4.10058">
        <ele>309.212509</ele>
        <time>2023-09-29T09:27:38.190Z</time>
      </trkpt>
      <trkpt lat="46.14607" lon="4.10044">
        <ele>309.007479</ele>
        <time>2023-09-29T09:27:40.211Z</time>
      </trkpt>
      <trkpt lat="46.14607" lon="4.10026">
        <ele>308.731377</ele>
        <time>2023-09-29T09:27:43.210Z</time>
      </trkpt>
      <trkpt lat="46.14605" lon="4.10008">
        <ele>308.512521</ele>
        <time>2023-09-29T09:27:46.201Z</time>
      </trkpt>
      <trkpt lat="46.14606" lon="4.09989">
        <ele>308.43626</ele>
        <time>2023-09-29T09:27:49.209Z</time>
      </trkpt>
      <trkpt lat="46.14615" lon="4.09975">
        <ele>308.35915</ele>
        <time>2023-09-29T09:27:52.197Z</time>
      </trkpt>
      <trkpt lat="46.14622" lon="4.09966">
        <ele>308.300444</ele>
        <time>2023-09-29T09:27:54.201Z</time>
      </trkpt>
      <trkpt lat="46.1463" lon="4.09955">
        <ele>308.238794</ele>
        <time>2023-09-29T09:27:56.216Z</time>
      </trkpt>
      <trkpt lat="46.14639" lon="4.09945">
        <ele>308.171622</ele>
        <time>2023-09-29T09:27:58.208Z</time>
      </trkpt>
      <trkpt lat="46.14648" lon="4.09934">
        <ele>308.100511</ele>
        <time>2023-09-29T09:28:00.220Z</time>
      </trkpt>
      <trkpt lat="46.14657" lon="4.09924">
        <ele>308.034569</ele>
        <time>2023-09-29T09:28:02.210Z</time>
      </trkpt>
      <trkpt lat="46.14665" lon="4.09914">
        <ele>307.971935</ele>
        <time>2023-09-29T09:28:04.205Z</time>
      </trkpt>
      <trkpt lat="46.14673" lon="4.09906">
        <ele>307.917541</ele>
        <time>2023-09-29T09:28:06.195Z</time>
      </trkpt>
      <trkpt lat="46.14684" lon="4.09897">
        <ele>307.840299</ele>
        <time>2023-09-29T09:28:09.212Z</time>
      </trkpt>
      <trkpt lat="46.14693" lon="4.09892">
        <ele>307.786451</ele>
        <time>2023-09-29T09:28:11.214Z</time>
      </trkpt>
      <trkpt lat="46.14701" lon="4.09887">
        <ele>307.732492</ele>
        <time>2023-09-29T09:28:13.230Z</time>
      </trkpt>
      <trkpt lat="46.1471" lon="4.09885">
        <ele>307.678492</ele>
        <time>2023-09-29T09:28:15.230Z</time>
      </trkpt>
      <trkpt lat="46.14719" lon="4.09893">
        <ele>307.617853</ele>
        <time>2023-09-29T09:28:17.213Z</time>
      </trkpt>
      <trkpt lat="46.14719" lon="4.09911">
        <ele>307.544448</ele>
        <time>2023-09-29T09:28:20.201Z</time>
      </trkpt>
      <trkpt lat="46.14715" lon="4.09928">
        <ele>307.47295</ele>
        <time>2023-09-29T09:28:23.205Z</time>
      </trkpt>
      <trkpt lat="46.14713" lon="4.09945">
        <ele>307.688034</ele>
        <time>2023-09-29T09:28:26.223Z</time>
      </trkpt>
      <trkpt lat="46.1471" lon="4.09962">
        <ele>307.910725</ele>
        <time>2023-09-29T09:28:29.217Z</time>
      </trkpt>
      <trkpt lat="46.14707" lon="4.09979">
        <ele>308.144016</ele>
        <time>2023-09-29T09:28:32.214Z</time>
      </trkpt>
      <trkpt lat="46.14704" lon="4.09997">
        <ele>308.380574</ele>
        <time>2023-09-29T09:28:35.220Z</time>
      </trkpt>
      <trkpt lat="46.14701" lon="4.10016">
        <ele>308.626629</ele>
        <time>2023-09-29T09:28:38.221Z</time>
      </trkpt>
      <trkpt lat="46.14698" lon="4.10035">
        <ele>308.867458</ele>
        <time>2023-09-29T09:28:41.230Z</time>
      </trkpt>
      <trkpt lat="46.14696" lon="4.10053">
        <ele>309.098624</ele>
        <time>2023-09-29T09:28:44.216Z</time>
      </trkpt>
      <trkpt lat="46.14695" lon="4.10068">
        <ele>309.295819</ele>
        <time>2023-09-29T09:28:47.217Z</time>
      </trkpt>
      <trkpt lat="46.14695" lon="4.10085">
        <ele>309.508216</ele>
        <time>2023-09-29T09:28:51.226Z</time>
      </trkpt>
      <trkpt lat="46.1469" lon="4.10096">
        <ele>309.678643</ele>
        <time>2023-09-29T09:28:54.220Z</time>
      </trkpt>
      <trkpt lat="46.14688" lon="4.10111">
        <ele>309.863473</ele>
        <time>2023-09-29T09:28:57.214Z</time>
      </trkpt>
      <trkpt lat="46.14687" lon="4.10126">
        <ele>310.064922</ele>
        <time>2023-09-29T09:29:00.195Z</time>
      </trkpt>
      <trkpt lat="46.14685" lon="4.10144">
        <ele>310.292055</ele>
        <time>2023-09-29T09:29:03.228Z</time>
      </trkpt>
      <trkpt lat="46.14683" lon="4.10158">
        <ele>310.471796</ele>
        <time>2023-09-29T09:29:05.218Z</time>
      </trkpt>
      <trkpt lat="46.14681" lon="4.10172">
        <ele>310.649038</ele>
        <time>2023-09-29T09:29:07.220Z</time>
      </trkpt>
      <trkpt lat="46.1468" lon="4.10186">
        <ele>310.84239</ele>
        <time>2023-09-29T09:29:09.220Z</time>
      </trkpt>
      <trkpt lat="46.14679" lon="4.10201">
        <ele>311.046712</ele>
        <time>2023-09-29T09:29:11.214Z</time>
      </trkpt>
      <trkpt lat="46.14678" lon="4.10214">
        <ele>311.231436</ele>
        <time>2023-09-29T09:29:13.210Z</time>
      </trkpt>
      <trkpt lat="46.14677" lon="4.10227">
        <ele>311.418915</ele>
        <time>2023-09-29T09:29:15.195Z</time>
      </trkpt>
      <trkpt lat="46.14675" lon="4.1024">
        <ele>311.604223</ele>
        <time>2023-09-29T09:29:17.209Z</time>
      </trkpt>
      <trkpt lat="46.14674" lon="4.10253">
        <ele>311.797043</ele>
        <time>2023-09-29T09:29:19.218Z</time>
      </trkpt>
      <trkpt lat="46.14672" lon="4.10266">
        <ele>311.989677</ele>
        <time>2023-09-29T09:29:21.210Z</time>
      </trkpt>
      <trkpt lat="46.1467" lon="4.1028">
        <ele>312.183868</ele>
        <time>2023-09-29T09:29:23.228Z</time>
      </trkpt>
      <trkpt lat="46.1467" lon="4.10294">
        <ele>312.387288</ele>
        <time>2023-09-29T09:29:25.206Z</time>
      </trkpt>
      <trkpt lat="46.14668" lon="4.10314">
        <ele>312.664314</ele>
        <time>2023-09-29T09:29:28.214Z</time>
      </trkpt>
      <trkpt lat="46.14666" lon="4.10332">
        <ele>312.922813</ele>
        <time>2023-09-29T09:29:31.215Z</time>
      </trkpt>
      <trkpt lat="46.14665" lon="4.1035">
        <ele>313.179654</ele>
        <time>2023-09-29T09:29:34.210Z</time>
      </trkpt>
      <trkpt lat="46.14663" lon="4.10367">
        <ele>313.431402</ele>
        <time>2023-09-29T09:29:37.219Z</time>
      </trkpt>
      <trkpt lat="46.14661" lon="4.10385">
        <ele>313.679549</ele>
        <time>2023-09-29T09:29:40.210Z</time>
      </trkpt>
      <trkpt lat="46.14659" lon="4.10402">
        <ele>313.925983</ele>
        <time>2023-09-29T09:29:43.223Z</time>
      </trkpt>
      <trkpt lat="46.14658" lon="4.10418">
        <ele>314.156703</ele>
        <time>2023-09-29T09:29:46.214Z</time>
      </trkpt>
      <trkpt lat="46.14657" lon="4.10433">
        <ele>314.37817</ele>
        <time>2023-09-29T09:29:49.230Z</time>
      </trkpt>
      <trkpt lat="46.14655" lon="4.10448">
        <ele>314.448181</ele>
        <time>2023-09-29T09:29:52.209Z</time>
      </trkpt>
      <trkpt lat="46.14652" lon="4.10464">
        <ele>314.445936</ele>
        <time>2023-09-29T09:29:55.236Z</time>
      </trkpt>
      <trkpt lat="46.1465" lon="4.10479">
        <ele>314.443768</ele>
        <time>2023-09-29T09:29:58.228Z</time>
      </trkpt>
      <trkpt lat="46.14647" lon="4.10494">
        <ele>314.441472</ele>
        <time>2023-09-29T09:30:01.232Z</time>
      </trkpt>
      <trkpt lat="46.14645" lon="4.10511">
        <ele>314.439136</ele>
        <time>2023-09-29T09:30:04.209Z</time>
      </trkpt>
      <trkpt lat="46.14644" lon="4.10526">
        <ele>314.436902</ele>
        <time>2023-09-29T09:30:07.233Z</time>
      </trkpt>
      <trkpt lat="46.14643" lon="4.1054">
        <ele>314.43499</ele>
        <time>2023-09-29T09:30:10.222Z</time>
      </trkpt>
      <trkpt lat="46.14643" lon="4.10555">
        <ele>314.43286</ele>
        <time>2023-09-29T09:30:14.209Z</time>
      </trkpt>
      <trkpt lat="46.14653" lon="4.1056">
        <ele>314.43074</ele>
        <time>2023-09-29T09:30:18.222Z</time>
      </trkpt>
      <trkpt lat="46.14664" lon="4.10555">
        <ele>314.428348</ele>
        <time>2023-09-29T09:30:22.207Z</time>
      </trkpt>
      <trkpt lat="46.14676" lon="4.10555">
        <ele>314.425868</ele>
        <time>2023-09-29T09:30:26.202Z</time>
      </trkpt>
      <trkpt lat="46.14687" lon="4.10556">
        <ele>314.423507</ele>
        <time>2023-09-29T09:30:29.208Z</time>
      </trkpt>
      <trkpt lat="46.14679" lon="4.10551">
        <ele>314.421649</ele>
        <time>2023-09-29T09:30:35.216Z</time>
      </trkpt>
      <trkpt lat="46.14667" lon="4.10553">
        <ele>314.419257</ele>
        <time>2023-09-29T09:30:39.200Z</time>
      </trkpt>
      <trkpt lat="46.14658" lon="4.10555">
        <ele>314.417264</ele>
        <time>2023-09-29T09:30:42.226Z</time>
      </trkpt>
      <trkpt lat="46.14659" lon="4.10569">
        <ele>314.41535</ele>
        <time>2023-09-29T09:30:47.209Z</time>
      </trkpt>
      <trkpt lat="46.14657" lon="4.10584">
        <ele>314.413163</ele>
        <time>2023-09-29T09:30:51.208Z</time>
      </trkpt>
      <trkpt lat="46.14656" lon="4.10598">
        <ele>314.423323</ele>
        <time>2023-09-29T09:30:54.204Z</time>
      </trkpt>
      <trkpt lat="46.14657" lon="4.10612">
        <ele>314.436898</ele>
        <time>2023-09-29T09:30:58.217Z</time>
      </trkpt>
      <trkpt lat="46.14667" lon="4.10611">
        <ele>314.449998</ele>
        <time>2023-09-29T09:31:01.201Z</time>
      </trkpt>
      <trkpt lat="46.14679" lon="4.10609">
        <ele>314.46649</ele>
        <time>2023-09-29T09:31:04.224Z</time>
      </trkpt>
      <trkpt lat="46.14692" lon="4.1061">
        <ele>314.48449</ele>
        <time>2023-09-29T09:31:07.219Z</time>
      </trkpt>
      <trkpt lat="46.14705" lon="4.10611">
        <ele>314.501878</ele>
        <time>2023-09-29T09:31:10.228Z</time>
      </trkpt>
      <trkpt lat="46.14717" lon="4.10611">
        <ele>314.518647</ele>
        <time>2023-09-29T09:31:13.202Z</time>
      </trkpt>
      <trkpt lat="46.14729" lon="4.10613">
        <ele>314.534439</ele>
        <time>2023-09-29T09:31:16.203Z</time>
      </trkpt>
      <trkpt lat="46.1474" lon="4.10616">
        <ele>314.549862</ele>
        <time>2023-09-29T09:31:19.232Z</time>
      </trkpt>
      <trkpt lat="46.1475" lon="4.10618">
        <ele>314.564117</ele>
        <time>2023-09-29T09:31:22.207Z</time>
      </trkpt>
      <trkpt lat="46.14761" lon="4.10623">
        <ele>314.580019</ele>
        <time>2023-09-29T09:31:25.209Z</time>
      </trkpt>
      <trkpt lat="46.14774" lon="4.10626">
        <ele>314.597236</ele>
        <time>2023-09-29T09:31:28.197Z</time>
      </trkpt>
      <trkpt lat="46.14787" lon="4.10629">
        <ele>314.614846</ele>
        <time>2023-09-29T09:31:31.213Z</time>
      </trkpt>
      <trkpt lat="46.148" lon="4.10633">
        <ele>314.633215</ele>
        <time>2023-09-29T09:31:34.224Z</time>
      </trkpt>
      <trkpt lat="46.14809" lon="4.10636">
        <ele>314.645875</ele>
        <time>2023-09-29T09:31:36.194Z</time>
      </trkpt>
      <trkpt lat="46.14818" lon="4.10638">
        <ele>314.655465</ele>
        <time>2023-09-29T09:31:38.219Z</time>
      </trkpt>
      <trkpt lat="46.14827" lon="4.1064">
        <ele>314.526877</ele>
        <time>2023-09-29T09:31:40.215Z</time>
      </trkpt>
      <trkpt lat="46.14837" lon="4.10643">
        <ele>314.397611</ele>
        <time>2023-09-29T09:31:42.214Z</time>
      </trkpt>
      <trkpt lat="46.14846" lon="4.10645">
        <ele>314.264249</ele>
        <time>2023-09-29T09:31:44.212Z</time>
      </trkpt>
      <trkpt lat="46.14856" lon="4.10647">
        <ele>314.138903</ele>
        <time>2023-09-29T09:31:46.207Z</time>
      </trkpt>
      <trkpt lat="46.14866" lon="4.10648">
        <ele>314.001963</ele>
        <time>2023-09-29T09:31:48.206Z</time>
      </trkpt>
      <trkpt lat="46.14875" lon="4.1065">
        <ele>313.873813</ele>
        <time>2023-09-29T09:31:50.210Z</time>
      </trkpt>
      <trkpt lat="46.14885" lon="4.10653">
        <ele>313.742713</ele>
        <time>2023-09-29T09:31:52.224Z</time>
      </trkpt>
      <trkpt lat="46.14894" lon="4.10654">
        <ele>313.613485</ele>
        <time>2023-09-29T09:31:54.213Z</time>
      </trkpt>
      <trkpt lat="46.14904" lon="4.10656">
        <ele>313.487166</ele>
        <time>2023-09-29T09:31:56.214Z</time>
      </trkpt>
      <trkpt lat="46.14914" lon="4.10658">
        <ele>313.348957</ele>
        <time>2023-09-29T09:31:58.214Z</time>
      </trkpt>
      <trkpt lat="46.14923" lon="4.10661">
        <ele>313.21572</ele>
        <time>2023-09-29T09:32:00.215Z</time>
      </trkpt>
      <trkpt lat="46.14934" lon="4.10663">
        <ele>313.071539</ele>
        <time>2023-09-29T09:32:02.221Z</time>
      </trkpt>
      <trkpt lat="46.14944" lon="4.10667">
        <ele>312.928823</ele>
        <time>2023-09-29T09:32:04.215Z</time>
      </trkpt>
      <trkpt lat="46.14955" lon="4.10669">
        <ele>312.784811</ele>
        <time>2023-09-29T09:32:06.214Z</time>
      </trkpt>
      <trkpt lat="46.14965" lon="4.10672">
        <ele>312.644598</ele>
        <time>2023-09-29T09:32:08.211Z</time>
      </trkpt>
      <trkpt lat="46.14975" lon="4.10675">
        <ele>312.501068</ele>
        <time>2023-09-29T09:32:10.211Z</time>
      </trkpt>
      <trkpt lat="46.14986" lon="4.10677">
        <ele>312.359435</ele>
        <time>2023-09-29T09:32:12.230Z</time>
      </trkpt>
      <trkpt lat="46.14996" lon="4.1068">
        <ele>312.200395</ele>
        <time>2023-09-29T09:32:14.228Z</time>
      </trkpt>
      <trkpt lat="46.15007" lon="4.10682">
        <ele>311.906477</ele>
        <time>2023-09-29T09:32:16.215Z</time>
      </trkpt>
      <trkpt lat="46.15017" lon="4.10686">
        <ele>311.608373</ele>
        <time>2023-09-29T09:32:18.219Z</time>
      </trkpt>
      <trkpt lat="46.15027" lon="4.10688">
        <ele>311.32334</ele>
        <time>2023-09-29T09:32:20.211Z</time>
      </trkpt>
      <trkpt lat="46.15037" lon="4.10691">
        <ele>311.035721</ele>
        <time>2023-09-29T09:32:22.212Z</time>
      </trkpt>
      <trkpt lat="46.15047" lon="4.10694">
        <ele>310.77066</ele>
        <time>2023-09-29T09:32:24.232Z</time>
      </trkpt>
      <trkpt lat="46.15059" lon="4.10697">
        <ele>310.422667</ele>
        <time>2023-09-29T09:32:27.192Z</time>
      </trkpt>
      <trkpt lat="46.15068" lon="4.10699">
        <ele>310.17083</ele>
        <time>2023-09-29T09:32:30.211Z</time>
      </trkpt>
      <trkpt lat="46.15075" lon="4.1071">
        <ele>309.892908</ele>
        <time>2023-09-29T09:32:39.191Z</time>
      </trkpt>
      <trkpt lat="46.15079" lon="4.10705">
        <ele>309.743903</ele>
        <time>2023-09-29T09:32:51.021Z</time>
      </trkpt>
      <trkpt lat="46.15071" lon="4.10697">
        <ele>309.483402</ele>
        <time>2023-09-29T09:50:07.196Z</time>
      </trkpt>
      <trkpt lat="46.15081" lon="4.10697">
        <ele>309.216266</ele>
        <time>2023-09-29T09:50:15.202Z</time>
      </trkpt>
      <trkpt lat="46.15091" lon="4.107">
        <ele>308.939455</ele>
        <time>2023-09-29T09:50:24.210Z</time>
      </trkpt>
      <trkpt lat="46.15101" lon="4.10703">
        <ele>308.648274</ele>
        <time>2023-09-29T09:50:31.201Z</time>
      </trkpt>
      <trkpt lat="46.15112" lon="4.10704">
        <ele>308.348639</ele>
        <time>2023-09-29T09:50:35.220Z</time>
      </trkpt>
      <trkpt lat="46.15121" lon="4.10708">
        <ele>308.079094</ele>
        <time>2023-09-29T09:50:38.222Z</time>
      </trkpt>
      <trkpt lat="46.15131" lon="4.1071">
        <ele>307.788891</ele>
        <time>2023-09-29T09:50:41.223Z</time>
      </trkpt>
      <trkpt lat="46.15143" lon="4.10714">
        <ele>307.4643</ele>
        <time>2023-09-29T09:50:44.200Z</time>
      </trkpt>
      <trkpt lat="46.15155" lon="4.10717">
        <ele>307.247194</ele>
        <time>2023-09-29T09:50:47.217Z</time>
      </trkpt>
      <trkpt lat="46.15167" lon="4.10721">
        <ele>307.298807</ele>
        <time>2023-09-29T09:50:50.223Z</time>
      </trkpt>
      <trkpt lat="46.15179" lon="4.10726">
        <ele>307.350233</ele>
        <time>2023-09-29T09:50:53.232Z</time>
      </trkpt>
      <trkpt lat="46.15191" lon="4.1073">
        <ele>307.403471</ele>
        <time>2023-09-29T09:50:56.233Z</time>
      </trkpt>
      <trkpt lat="46.15203" lon="4.10735">
        <ele>307.455822</ele>
        <time>2023-09-29T09:50:59.203Z</time>
      </trkpt>
      <trkpt lat="46.15217" lon="4.10738">
        <ele>307.512428</ele>
        <time>2023-09-29T09:51:02.219Z</time>
      </trkpt>
      <trkpt lat="46.15226" lon="4.10742">
        <ele>307.551338</ele>
        <time>2023-09-29T09:51:04.210Z</time>
      </trkpt>
      <trkpt lat="46.15235" lon="4.10747">
        <ele>307.592055</ele>
        <time>2023-09-29T09:51:06.223Z</time>
      </trkpt>
      <trkpt lat="46.15244" lon="4.10751">
        <ele>307.632758</ele>
        <time>2023-09-29T09:51:08.225Z</time>
      </trkpt>
      <trkpt lat="46.15253" lon="4.10756">
        <ele>307.673768</ele>
        <time>2023-09-29T09:51:10.227Z</time>
      </trkpt>
      <trkpt lat="46.15262" lon="4.10763">
        <ele>307.716168</ele>
        <time>2023-09-29T09:51:12.232Z</time>
      </trkpt>
      <trkpt lat="46.15271" lon="4.10771">
        <ele>307.760141</ele>
        <time>2023-09-29T09:51:14.218Z</time>
      </trkpt>
      <trkpt lat="46.1528" lon="4.1078">
        <ele>307.805788</ele>
        <time>2023-09-29T09:51:16.222Z</time>
      </trkpt>
      <trkpt lat="46.15289" lon="4.10789">
        <ele>307.853254</ele>
        <time>2023-09-29T09:51:18.209Z</time>
      </trkpt>
      <trkpt lat="46.15298" lon="4.10799">
        <ele>307.901289</ele>
        <time>2023-09-29T09:51:20.208Z</time>
      </trkpt>
      <trkpt lat="46.15307" lon="4.10809">
        <ele>307.948671</ele>
        <time>2023-09-29T09:51:22.229Z</time>
      </trkpt>
      <trkpt lat="46.15317" lon="4.10818">
        <ele>307.996709</ele>
        <time>2023-09-29T09:51:24.207Z</time>
      </trkpt>
      <trkpt lat="46.15325" lon="4.10829">
        <ele>308.04311</ele>
        <time>2023-09-29T09:51:26.220Z</time>
      </trkpt>
      <trkpt lat="46.15334" lon="4.10841">
        <ele>308.091434</ele>
        <time>2023-09-29T09:51:28.204Z</time>
      </trkpt>
      <trkpt lat="46.15342" lon="4.10853">
        <ele>308.138399</ele>
        <time>2023-09-29T09:51:30.230Z</time>
      </trkpt>
      <trkpt lat="46.15351" lon="4.10865">
        <ele>308.187704</ele>
        <time>2023-09-29T09:51:32.220Z</time>
      </trkpt>
      <trkpt lat="46.15362" lon="4.10871">
        <ele>308.23905</ele>
        <time>2023-09-29T09:51:34.213Z</time>
      </trkpt>
      <trkpt lat="46.15375" lon="4.10869">
        <ele>308.293016</ele>
        <time>2023-09-29T09:51:36.208Z</time>
      </trkpt>
      <trkpt lat="46.15388" lon="4.10864">
        <ele>308.347113</ele>
        <time>2023-09-29T09:51:38.208Z</time>
      </trkpt>
      <trkpt lat="46.15401" lon="4.10859">
        <ele>308.400918</ele>
        <time>2023-09-29T09:51:40.214Z</time>
      </trkpt>
      <trkpt lat="46.15413" lon="4.10852">
        <ele>308.454474</ele>
        <time>2023-09-29T09:51:42.239Z</time>
      </trkpt>
      <trkpt lat="46.15425" lon="4.10844">
        <ele>308.5078</ele>
        <time>2023-09-29T09:51:44.205Z</time>
      </trkpt>
      <trkpt lat="46.15436" lon="4.10834">
        <ele>308.561258</ele>
        <time>2023-09-29T09:51:46.205Z</time>
      </trkpt>
      <trkpt lat="46.15446" lon="4.10822">
        <ele>308.613791</ele>
        <time>2023-09-29T09:51:48.219Z</time>
      </trkpt>
      <trkpt lat="46.15455" lon="4.1081">
        <ele>308.664208</ele>
        <time>2023-09-29T09:51:50.218Z</time>
      </trkpt>
      <trkpt lat="46.15465" lon="4.108">
        <ele>308.711863</ele>
        <time>2023-09-29T09:51:52.219Z</time>
      </trkpt>
      <trkpt lat="46.15473" lon="4.10791">
        <ele>308.941873</ele>
        <time>2023-09-29T09:51:54.215Z</time>
      </trkpt>
      <trkpt lat="46.1548" lon="4.10783">
        <ele>309.178306</ele>
        <time>2023-09-29T09:51:56.211Z</time>
      </trkpt>
      <trkpt lat="46.15488" lon="4.10776">
        <ele>309.415675</ele>
        <time>2023-09-29T09:51:58.220Z</time>
      </trkpt>
      <trkpt lat="46.15494" lon="4.10767">
        <ele>309.650003</ele>
        <time>2023-09-29T09:52:00.211Z</time>
      </trkpt>
      <trkpt lat="46.15504" lon="4.10755">
        <ele>309.979897</ele>
        <time>2023-09-29T09:52:03.209Z</time>
      </trkpt>
      <trkpt lat="46.15516" lon="4.10749">
        <ele>310.307671</ele>
        <time>2023-09-29T09:52:06.211Z</time>
      </trkpt>
      <trkpt lat="46.15525" lon="4.10737">
        <ele>310.627497</ele>
        <time>2023-09-29T09:52:09.210Z</time>
      </trkpt>
      <trkpt lat="46.15534" lon="4.10727">
        <ele>310.922984</ele>
        <time>2023-09-29T09:52:12.223Z</time>
      </trkpt>
      <trkpt lat="46.15543" lon="4.10717">
        <ele>311.211552</ele>
        <time>2023-09-29T09:52:15.210Z</time>
      </trkpt>
      <trkpt lat="46.15551" lon="4.10706">
        <ele>311.507573</ele>
        <time>2023-09-29T09:52:18.200Z</time>
      </trkpt>
      <trkpt lat="46.15559" lon="4.10695">
        <ele>311.794287</ele>
        <time>2023-09-29T09:52:21.207Z</time>
      </trkpt>
      <trkpt lat="46.15567" lon="4.10685">
        <ele>312.071967</ele>
        <time>2023-09-29T09:52:24.205Z</time>
      </trkpt>
      <trkpt lat="46.15575" lon="4.10675">
        <ele>312.336224</ele>
        <time>2023-09-29T09:52:27.214Z</time>
      </trkpt>
      <trkpt lat="46.15582" lon="4.10665">
        <ele>312.601651</ele>
        <time>2023-09-29T09:52:30.212Z</time>
      </trkpt>
      <trkpt lat="46.15589" lon="4.10655">
        <ele>312.846461</ele>
        <time>2023-09-29T09:52:33.210Z</time>
      </trkpt>
      <trkpt lat="46.15596" lon="4.10647">
        <ele>313.093292</ele>
        <time>2023-09-29T09:52:36.228Z</time>
      </trkpt>
      <trkpt lat="46.15601" lon="4.10632">
        <ele>313.386072</ele>
        <time>2023-09-29T09:52:40.197Z</time>
      </trkpt>
      <trkpt lat="46.15593" lon="4.10618">
        <ele>313.442265</ele>
        <time>2023-09-29T09:52:43.206Z</time>
      </trkpt>
      <trkpt lat="46.15586" lon="4.1061">
        <ele>313.477868</ele>
        <time>2023-09-29T09:52:45.210Z</time>
      </trkpt>
      <trkpt lat="46.15579" lon="4.10601">
        <ele>313.515634</ele>
        <time>2023-09-29T09:52:47.216Z</time>
      </trkpt>
      <trkpt lat="46.15571" lon="4.10592">
        <ele>313.553873</ele>
        <time>2023-09-29T09:52:49.218Z</time>
      </trkpt>
      <trkpt lat="46.15566" lon="4.10579">
        <ele>313.5954</ele>
        <time>2023-09-29T09:52:51.212Z</time>
      </trkpt>
      <trkpt lat="46.1557" lon="4.10564">
        <ele>313.639731</ele>
        <time>2023-09-29T09:52:53.216Z</time>
      </trkpt>
      <trkpt lat="46.15579" lon="4.10555">
        <ele>313.682985</ele>
        <time>2023-09-29T09:52:55.200Z</time>
      </trkpt>
      <trkpt lat="46.15587" lon="4.10546">
        <ele>313.722386</ele>
        <time>2023-09-29T09:52:57.208Z</time>
      </trkpt>
      <trkpt lat="46.15595" lon="4.10538">
        <ele>313.761474</ele>
        <time>2023-09-29T09:52:59.229Z</time>
      </trkpt>
      <trkpt lat="46.15603" lon="4.10529">
        <ele>313.800485</ele>
        <time>2023-09-29T09:53:01.218Z</time>
      </trkpt>
      <trkpt lat="46.15611" lon="4.1052">
        <ele>313.838038</ele>
        <time>2023-09-29T09:53:03.213Z</time>
      </trkpt>
      <trkpt lat="46.15619" lon="4.10512">
        <ele>313.876014</ele>
        <time>2023-09-29T09:53:05.219Z</time>
      </trkpt>
      <trkpt lat="46.15626" lon="4.10504">
        <ele>313.913064</ele>
        <time>2023-09-29T09:53:07.183Z</time>
      </trkpt>
      <trkpt lat="46.15634" lon="4.10495">
        <ele>313.952176</ele>
        <time>2023-09-29T09:53:09.226Z</time>
      </trkpt>
      <trkpt lat="46.15642" lon="4.10486">
        <ele>313.990648</ele>
        <time>2023-09-29T09:53:11.187Z</time>
      </trkpt>
      <trkpt lat="46.1565" lon="4.10477">
        <ele>314.030841</ele>
        <time>2023-09-29T09:53:13.216Z</time>
      </trkpt>
      <trkpt lat="46.15658" lon="4.10468">
        <ele>314.071849</ele>
        <time>2023-09-29T09:53:15.221Z</time>
      </trkpt>
      <trkpt lat="46.15667" lon="4.10459">
        <ele>314.100436</ele>
        <time>2023-09-29T09:53:17.226Z</time>
      </trkpt>
      <trkpt lat="46.15675" lon="4.1045">
        <ele>314.107054</ele>
        <time>2023-09-29T09:53:19.223Z</time>
      </trkpt>
      <trkpt lat="46.15683" lon="4.10441">
        <ele>314.113719</ele>
        <time>2023-09-29T09:53:21.221Z</time>
      </trkpt>
      <trkpt lat="46.15691" lon="4.1043">
        <ele>314.12045</ele>
        <time>2023-09-29T09:53:23.229Z</time>
      </trkpt>
      <trkpt lat="46.15698" lon="4.1042">
        <ele>314.127056</ele>
        <time>2023-09-29T09:53:25.232Z</time>
      </trkpt>
      <trkpt lat="46.15706" lon="4.10412">
        <ele>314.133254</ele>
        <time>2023-09-29T09:53:27.210Z</time>
      </trkpt>
      <trkpt lat="46.15713" lon="4.10403">
        <ele>314.139593</ele>
        <time>2023-09-29T09:53:29.216Z</time>
      </trkpt>
      <trkpt lat="46.1572" lon="4.10393">
        <ele>314.145701</ele>
        <time>2023-09-29T09:53:31.220Z</time>
      </trkpt>
      <trkpt lat="46.1573" lon="4.10383">
        <ele>314.15365</ele>
        <time>2023-09-29T09:53:34.218Z</time>
      </trkpt>
      <trkpt lat="46.15739" lon="4.10373">
        <ele>314.160859</ele>
        <time>2023-09-29T09:53:37.216Z</time>
      </trkpt>
      <trkpt lat="46.1575" lon="4.10364">
        <ele>314.168927</ele>
        <time>2023-09-29T09:53:40.228Z</time>
      </trkpt>
      <trkpt lat="46.15757" lon="4.10357">
        <ele>314.174804</ele>
        <time>2023-09-29T09:53:42.231Z</time>
      </trkpt>
      <trkpt lat="46.15765" lon="4.10348">
        <ele>314.180997</ele>
        <time>2023-09-29T09:53:44.223Z</time>
      </trkpt>
      <trkpt lat="46.15772" lon="4.10339">
        <ele>314.187351</ele>
        <time>2023-09-29T09:53:46.234Z</time>
      </trkpt>
      <trkpt lat="46.1578" lon="4.10331">
        <ele>314.193911</ele>
        <time>2023-09-29T09:53:48.212Z</time>
      </trkpt>
      <trkpt lat="46.15788" lon="4.10322">
        <ele>314.200285</ele>
        <time>2023-09-29T09:53:50.210Z</time>
      </trkpt>
      <trkpt lat="46.15797" lon="4.10313">
        <ele>314.20695</ele>
        <time>2023-09-29T09:53:52.210Z</time>
      </trkpt>
      <trkpt lat="46.15804" lon="4.10304">
        <ele>314.213533</ele>
        <time>2023-09-29T09:53:54.218Z</time>
      </trkpt>
      <trkpt lat="46.15812" lon="4.10294">
        <ele>314.278181</ele>
        <time>2023-09-29T09:53:56.209Z</time>
      </trkpt>
      <trkpt lat="46.1582" lon="4.10285">
        <ele>314.348077</ele>
        <time>2023-09-29T09:53:58.198Z</time>
      </trkpt>
      <trkpt lat="46.15828" lon="4.10275">
        <ele>314.419886</ele>
        <time>2023-09-29T09:54:00.216Z</time>
      </trkpt>
      <trkpt lat="46.15836" lon="4.10265">
        <ele>314.493071</ele>
        <time>2023-09-29T09:54:02.217Z</time>
      </trkpt>
      <trkpt lat="46.15845" lon="4.10257">
        <ele>314.563986</ele>
        <time>2023-09-29T09:54:04.214Z</time>
      </trkpt>
      <trkpt lat="46.15853" lon="4.10247">
        <ele>314.635553</ele>
        <time>2023-09-29T09:54:06.221Z</time>
      </trkpt>
      <trkpt lat="46.1586" lon="4.10238">
        <ele>314.703778</ele>
        <time>2023-09-29T09:54:08.218Z</time>
      </trkpt>
      <trkpt lat="46.15868" lon="4.10229">
        <ele>314.774509</ele>
        <time>2023-09-29T09:54:10.274Z</time>
      </trkpt>
      <trkpt lat="46.15877" lon="4.1022">
        <ele>314.846261</ele>
        <time>2023-09-29T09:54:12.219Z</time>
      </trkpt>
      <trkpt lat="46.15885" lon="4.1021">
        <ele>314.918128</ele>
        <time>2023-09-29T09:54:14.212Z</time>
      </trkpt>
      <trkpt lat="46.15894" lon="4.10201">
        <ele>314.993282</ele>
        <time>2023-09-29T09:54:16.221Z</time>
      </trkpt>
      <trkpt lat="46.15902" lon="4.10192">
        <ele>315.066986</ele>
        <time>2023-09-29T09:54:18.220Z</time>
      </trkpt>
      <trkpt lat="46.1591" lon="4.10182">
        <ele>315.139154</ele>
        <time>2023-09-29T09:54:20.232Z</time>
      </trkpt>
      <trkpt lat="46.15919" lon="4.10173">
        <ele>315.212931</ele>
        <time>2023-09-29T09:54:22.207Z</time>
      </trkpt>
      <trkpt lat="46.15927" lon="4.10163">
        <ele>315.285283</ele>
        <time>2023-09-29T09:54:24.206Z</time>
      </trkpt>
      <trkpt lat="46.15935" lon="4.10154">
        <ele>315.357091</ele>
        <time>2023-09-29T09:54:26.212Z</time>
      </trkpt>
      <trkpt lat="46.15943" lon="4.10145">
        <ele>315.427524</ele>
        <time>2023-09-29T09:54:28.212Z</time>
      </trkpt>
      <trkpt lat="46.15951" lon="4.10135">
        <ele>315.416849</ele>
        <time>2023-09-29T09:54:30.194Z</time>
      </trkpt>
      <trkpt lat="46.15959" lon="4.10125">
        <ele>315.356717</ele>
        <time>2023-09-29T09:54:32.211Z</time>
      </trkpt>
      <trkpt lat="46.15967" lon="4.10116">
        <ele>315.29757</ele>
        <time>2023-09-29T09:54:34.229Z</time>
      </trkpt>
      <trkpt lat="46.15975" lon="4.10106">
        <ele>315.240165</ele>
        <time>2023-09-29T09:54:36.214Z</time>
      </trkpt>
      <trkpt lat="46.15982" lon="4.10097">
        <ele>315.185075</ele>
        <time>2023-09-29T09:54:38.211Z</time>
      </trkpt>
      <trkpt lat="46.1599" lon="4.1009">
        <ele>315.132146</ele>
        <time>2023-09-29T09:54:40.213Z</time>
      </trkpt>
      <trkpt lat="46.16" lon="4.10078">
        <ele>315.05862</ele>
        <time>2023-09-29T09:54:43.216Z</time>
      </trkpt>
      <trkpt lat="46.16009" lon="4.10072">
        <ele>315.004467</ele>
        <time>2023-09-29T09:54:45.217Z</time>
      </trkpt>
      <trkpt lat="46.16016" lon="4.10063">
        <ele>314.948993</ele>
        <time>2023-09-29T09:54:47.203Z</time>
      </trkpt>
      <trkpt lat="46.16025" lon="4.10054">
        <ele>314.890823</ele>
        <time>2023-09-29T09:54:49.204Z</time>
      </trkpt>
      <trkpt lat="46.16033" lon="4.10045">
        <ele>314.830787</ele>
        <time>2023-09-29T09:54:51.219Z</time>
      </trkpt>
      <trkpt lat="46.16041" lon="4.10035">
        <ele>314.770584</ele>
        <time>2023-09-29T09:54:53.210Z</time>
      </trkpt>
      <trkpt lat="46.16049" lon="4.10026">
        <ele>314.714929</ele>
        <time>2023-09-29T09:54:55.214Z</time>
      </trkpt>
      <trkpt lat="46.16058" lon="4.10018">
        <ele>314.657868</ele>
        <time>2023-09-29T09:54:57.221Z</time>
      </trkpt>
      <trkpt lat="46.16066" lon="4.1001">
        <ele>314.60012</ele>
        <time>2023-09-29T09:54:59.216Z</time>
      </trkpt>
      <trkpt lat="46.16074" lon="4.10003">
        <ele>314.545719</ele>
        <time>2023-09-29T09:55:01.205Z</time>
      </trkpt>
      <trkpt lat="46.16083" lon="4.09996">
        <ele>314.488774</ele>
        <time>2023-09-29T09:55:03.215Z</time>
      </trkpt>
      <trkpt lat="46.16092" lon="4.09989">
        <ele>314.42189</ele>
        <time>2023-09-29T09:55:05.202Z</time>
      </trkpt>
      <trkpt lat="46.16102" lon="4.09981">
        <ele>314.285531</ele>
        <time>2023-09-29T09:55:07.226Z</time>
      </trkpt>
      <trkpt lat="46.16111" lon="4.09974">
        <ele>314.151377</ele>
        <time>2023-09-29T09:55:09.231Z</time>
      </trkpt>
      <trkpt lat="46.1612" lon="4.09966">
        <ele>314.021156</ele>
        <time>2023-09-29T09:55:11.208Z</time>
      </trkpt>
      <trkpt lat="46.16129" lon="4.09959">
        <ele>313.895042</ele>
        <time>2023-09-29T09:55:13.217Z</time>
      </trkpt>
      <trkpt lat="46.16138" lon="4.09953">
        <ele>313.762633</ele>
        <time>2023-09-29T09:55:15.226Z</time>
      </trkpt>
      <trkpt lat="46.16147" lon="4.09946">
        <ele>313.635137</ele>
        <time>2023-09-29T09:55:17.210Z</time>
      </trkpt>
      <trkpt lat="46.16157" lon="4.0994">
        <ele>313.5016</ele>
        <time>2023-09-29T09:55:19.196Z</time>
      </trkpt>
      <trkpt lat="46.16166" lon="4.09933">
        <ele>313.368449</ele>
        <time>2023-09-29T09:55:21.214Z</time>
      </trkpt>
      <trkpt lat="46.16176" lon="4.09927">
        <ele>313.233349</ele>
        <time>2023-09-29T09:55:23.215Z</time>
      </trkpt>
      <trkpt lat="46.16186" lon="4.09921">
        <ele>313.103915</ele>
        <time>2023-09-29T09:55:25.219Z</time>
      </trkpt>
      <trkpt lat="46.16196" lon="4.09914">
        <ele>312.965356</ele>
        <time>2023-09-29T09:55:27.213Z</time>
      </trkpt>
      <trkpt lat="46.16206" lon="4.09908">
        <ele>312.826316</ele>
        <time>2023-09-29T09:55:29.224Z</time>
      </trkpt>
      <trkpt lat="46.16216" lon="4.09902">
        <ele>312.685594</ele>
        <time>2023-09-29T09:55:31.209Z</time>
      </trkpt>
      <trkpt lat="46.16226" lon="4.09896">
        <ele>312.555805</ele>
        <time>2023-09-29T09:55:33.215Z</time>
      </trkpt>
      <trkpt lat="46.16235" lon="4.09891">
        <ele>312.429032</ele>
        <time>2023-09-29T09:55:35.201Z</time>
      </trkpt>
      <trkpt lat="46.16245" lon="4.09886">
        <ele>312.294267</ele>
        <time>2023-09-29T09:55:37.217Z</time>
      </trkpt>
      <trkpt lat="46.16255" lon="4.09881">
        <ele>312.166338</ele>
        <time>2023-09-29T09:55:39.225Z</time>
      </trkpt>
      <trkpt lat="46.16265" lon="4.09876">
        <ele>312.091962</ele>
        <time>2023-09-29T09:55:41.228Z</time>
      </trkpt>
      <trkpt lat="46.16274" lon="4.09872">
        <ele>312.022857</ele>
        <time>2023-09-29T09:55:43.237Z</time>
      </trkpt>
      <trkpt lat="46.16283" lon="4.09867">
        <ele>311.953981</ele>
        <time>2023-09-29T09:55:45.217Z</time>
      </trkpt>
      <trkpt lat="46.16292" lon="4.09863">
        <ele>311.889139</ele>
        <time>2023-09-29T09:55:47.225Z</time>
      </trkpt>
      <trkpt lat="46.16301" lon="4.09858">
        <ele>311.822284</ele>
        <time>2023-09-29T09:55:49.207Z</time>
      </trkpt>
      <trkpt lat="46.1631" lon="4.09854">
        <ele>311.756865</ele>
        <time>2023-09-29T09:55:51.210Z</time>
      </trkpt>
      <trkpt lat="46.16319" lon="4.0985">
        <ele>311.687989</ele>
        <time>2023-09-29T09:55:53.215Z</time>
      </trkpt>
      <trkpt lat="46.16328" lon="4.09846">
        <ele>311.619301</ele>
        <time>2023-09-29T09:55:55.229Z</time>
      </trkpt>
      <trkpt lat="46.16337" lon="4.09843">
        <ele>311.552621</ele>
        <time>2023-09-29T09:55:57.209Z</time>
      </trkpt>
      <trkpt lat="46.16346" lon="4.09839">
        <ele>311.486377</ele>
        <time>2023-09-29T09:55:59.228Z</time>
      </trkpt>
      <trkpt lat="46.16355" lon="4.09835">
        <ele>311.419874</ele>
        <time>2023-09-29T09:56:01.214Z</time>
      </trkpt>
      <trkpt lat="46.16364" lon="4.09832">
        <ele>311.353883</ele>
        <time>2023-09-29T09:56:03.212Z</time>
      </trkpt>
      <trkpt lat="46.16376" lon="4.09827">
        <ele>311.267706</ele>
        <time>2023-09-29T09:56:06.199Z</time>
      </trkpt>
      <trkpt lat="46.16388" lon="4.09823">
        <ele>311.17949</ele>
        <time>2023-09-29T09:56:09.227Z</time>
      </trkpt>
      <trkpt lat="46.16399" lon="4.09819">
        <ele>311.097376</ele>
        <time>2023-09-29T09:56:12.213Z</time>
      </trkpt>
      <trkpt lat="46.16411" lon="4.09818">
        <ele>311.015358</ele>
        <time>2023-09-29T09:56:15.207Z</time>
      </trkpt>
      <trkpt lat="46.16421" lon="4.09816">
        <ele>310.945151</ele>
        <time>2023-09-29T09:56:18.207Z</time>
      </trkpt>
      <trkpt lat="46.1643" lon="4.09816">
        <ele>310.886957</ele>
        <time>2023-09-29T09:56:21.202Z</time>
      </trkpt>
      <trkpt lat="46.16442" lon="4.09811">
        <ele>310.854212</ele>
        <time>2023-09-29T09:56:24.200Z</time>
      </trkpt>
      <trkpt lat="46.16454" lon="4.09806">
        <ele>310.819615</ele>
        <time>2023-09-29T09:56:27.210Z</time>
      </trkpt>
      <trkpt lat="46.16467" lon="4.09803">
        <ele>310.786219</ele>
        <time>2023-09-29T09:56:30.196Z</time>
      </trkpt>
      <trkpt lat="46.16475" lon="4.098">
        <ele>310.76209</ele>
        <time>2023-09-29T09:56:32.208Z</time>
      </trkpt>
      <trkpt lat="46.16488" lon="4.09796">
        <ele>310.726583</ele>
        <time>2023-09-29T09:56:35.211Z</time>
      </trkpt>
      <trkpt lat="46.16501" lon="4.09792">
        <ele>310.690555</ele>
        <time>2023-09-29T09:56:38.215Z</time>
      </trkpt>
      <trkpt lat="46.16515" lon="4.09789">
        <ele>310.653334</ele>
        <time>2023-09-29T09:56:41.209Z</time>
      </trkpt>
      <trkpt lat="46.16525" lon="4.09785">
        <ele>310.626536</ele>
        <time>2023-09-29T09:56:43.215Z</time>
      </trkpt>
      <trkpt lat="46.16534" lon="4.09782">
        <ele>310.600569</ele>
        <time>2023-09-29T09:56:45.220Z</time>
      </trkpt>
      <trkpt lat="46.16543" lon="4.0978">
        <ele>310.575759</ele>
        <time>2023-09-29T09:56:47.209Z</time>
      </trkpt>
      <trkpt lat="46.16553" lon="4.09776">
        <ele>310.549553</ele>
        <time>2023-09-29T09:56:49.225Z</time>
      </trkpt>
      <trkpt lat="46.16562" lon="4.09773">
        <ele>310.523651</ele>
        <time>2023-09-29T09:56:51.225Z</time>
      </trkpt>
      <trkpt lat="46.16572" lon="4.0977">
        <ele>310.497662</ele>
        <time>2023-09-29T09:56:53.221Z</time>
      </trkpt>
      <trkpt lat="46.1658" lon="4.09765">
        <ele>310.472745</ele>
        <time>2023-09-29T09:56:55.207Z</time>
      </trkpt>
      <trkpt lat="46.16589" lon="4.09761">
        <ele>310.448513</ele>
        <time>2023-09-29T09:56:57.213Z</time>
      </trkpt>
      <trkpt lat="46.16598" lon="4.09757">
        <ele>310.423851</ele>
        <time>2023-09-29T09:56:59.223Z</time>
      </trkpt>
      <trkpt lat="46.16607" lon="4.09752">
        <ele>310.40463</ele>
        <time>2023-09-29T09:57:01.232Z</time>
      </trkpt>
      <trkpt lat="46.16615" lon="4.09747">
        <ele>310.391814</ele>
        <time>2023-09-29T09:57:03.217Z</time>
      </trkpt>
      <trkpt lat="46.16628" lon="4.0974">
        <ele>310.373632</ele>
        <time>2023-09-29T09:57:06.208Z</time>
      </trkpt>
      <trkpt lat="46.16637" lon="4.09736">
        <ele>310.361046</ele>
        <time>2023-09-29T09:57:08.202Z</time>
      </trkpt>
      <trkpt lat="46.16646" lon="4.0973">
        <ele>310.34735</ele>
        <time>2023-09-29T09:57:10.225Z</time>
      </trkpt>
      <trkpt lat="46.16654" lon="4.09724">
        <ele>310.334226</ele>
        <time>2023-09-29T09:57:12.212Z</time>
      </trkpt>
      <trkpt lat="46.16663" lon="4.09719">
        <ele>310.321837</ele>
        <time>2023-09-29T09:57:14.215Z</time>
      </trkpt>
      <trkpt lat="46.16672" lon="4.09714">
        <ele>310.309021</ele>
        <time>2023-09-29T09:57:16.224Z</time>
      </trkpt>
      <trkpt lat="46.16684" lon="4.09706">
        <ele>310.290867</ele>
        <time>2023-09-29T09:57:19.217Z</time>
      </trkpt>
      <trkpt lat="46.16692" lon="4.097">
        <ele>310.278234</ele>
        <time>2023-09-29T09:57:21.208Z</time>
      </trkpt>
      <trkpt lat="46.16701" lon="4.09693">
        <ele>310.264977</ele>
        <time>2023-09-29T09:57:23.222Z</time>
      </trkpt>
      <trkpt lat="46.1671" lon="4.09687">
        <ele>310.251568</ele>
        <time>2023-09-29T09:57:25.220Z</time>
      </trkpt>
      <trkpt lat="46.16718" lon="4.09681">
        <ele>310.238235</ele>
        <time>2023-09-29T09:57:27.211Z</time>
      </trkpt>
      <trkpt lat="46.16727" lon="4.09674">
        <ele>310.225172</ele>
        <time>2023-09-29T09:57:29.209Z</time>
      </trkpt>
      <trkpt lat="46.16735" lon="4.09667">
        <ele>310.212156</ele>
        <time>2023-09-29T09:57:31.202Z</time>
      </trkpt>
      <trkpt lat="46.16743" lon="4.09661">
        <ele>310.199826</ele>
        <time>2023-09-29T09:57:33.222Z</time>
      </trkpt>
      <trkpt lat="46.16751" lon="4.09655">
        <ele>310.187232</ele>
        <time>2023-09-29T09:57:35.208Z</time>
      </trkpt>
      <trkpt lat="46.16763" lon="4.09647">
        <ele>310.168876</ele>
        <time>2023-09-29T09:57:38.206Z</time>
      </trkpt>
      <trkpt lat="46.16771" lon="4.0964">
        <ele>310.095763</ele>
        <time>2023-09-29T09:57:40.191Z</time>
      </trkpt>
      <trkpt lat="46.16779" lon="4.09634">
        <ele>310.002711</ele>
        <time>2023-09-29T09:57:42.222Z</time>
      </trkpt>
      <trkpt lat="46.16788" lon="4.09627">
        <ele>309.909213</ele>
        <time>2023-09-29T09:57:44.205Z</time>
      </trkpt>
      <trkpt lat="46.16796" lon="4.09622">
        <ele>309.819153</ele>
        <time>2023-09-29T09:57:46.213Z</time>
      </trkpt>
      <trkpt lat="46.16808" lon="4.09615">
        <ele>309.68731</ele>
        <time>2023-09-29T09:57:49.211Z</time>
      </trkpt>
      <trkpt lat="46.16819" lon="4.09608">
        <ele>309.566593</ele>
        <time>2023-09-29T09:57:52.205Z</time>
      </trkpt>
      <trkpt lat="46.16832" lon="4.09602">
        <ele>309.43861</ele>
        <time>2023-09-29T09:57:55.212Z</time>
      </trkpt>
      <trkpt lat="46.1684" lon="4.09597">
        <ele>309.345171</ele>
        <time>2023-09-29T09:57:57.226Z</time>
      </trkpt>
      <trkpt lat="46.1685" lon="4.09592">
        <ele>309.247538</ele>
        <time>2023-09-29T09:57:59.208Z</time>
      </trkpt>
      <trkpt lat="46.16858" lon="4.09586">
        <ele>309.151738</ele>
        <time>2023-09-29T09:58:01.224Z</time>
      </trkpt>
      <trkpt lat="46.16868" lon="4.09581">
        <ele>309.053022</ele>
        <time>2023-09-29T09:58:03.219Z</time>
      </trkpt>
      <trkpt lat="46.16877" lon="4.09577">
        <ele>308.953144</ele>
        <time>2023-09-29T09:58:05.236Z</time>
      </trkpt>
      <trkpt lat="46.16887" lon="4.09572">
        <ele>308.850552</ele>
        <time>2023-09-29T09:58:07.225Z</time>
      </trkpt>
      <trkpt lat="46.16896" lon="4.09569">
        <ele>308.756547</ele>
        <time>2023-09-29T09:58:09.222Z</time>
      </trkpt>
      <trkpt lat="46.16905" lon="4.09564">
        <ele>308.665731</ele>
        <time>2023-09-29T09:58:11.215Z</time>
      </trkpt>
      <trkpt lat="46.16914" lon="4.09562">
        <ele>308.57354</ele>
        <time>2023-09-29T09:58:13.224Z</time>
      </trkpt>
      <trkpt lat="46.16923" lon="4.09559">
        <ele>308.480756</ele>
        <time>2023-09-29T09:58:15.214Z</time>
      </trkpt>
      <trkpt lat="46.16933" lon="4.09555">
        <ele>308.3833</ele>
        <time>2023-09-29T09:58:17.224Z</time>
      </trkpt>
      <trkpt lat="46.16944" lon="4.09551">
        <ele>308.447101</ele>
        <time>2023-09-29T09:58:19.214Z</time>
      </trkpt>
      <trkpt lat="46.16953" lon="4.09547">
        <ele>308.508203</ele>
        <time>2023-09-29T09:58:21.225Z</time>
      </trkpt>
      <trkpt lat="46.16963" lon="4.09543">
        <ele>308.56727</ele>
        <time>2023-09-29T09:58:23.223Z</time>
      </trkpt>
      <trkpt lat="46.16973" lon="4.0954">
        <ele>308.627033</ele>
        <time>2023-09-29T09:58:25.218Z</time>
      </trkpt>
      <trkpt lat="46.16983" lon="4.09537">
        <ele>308.68639</ele>
        <time>2023-09-29T09:58:27.230Z</time>
      </trkpt>
      <trkpt lat="46.16992" lon="4.09534">
        <ele>308.744493</ele>
        <time>2023-09-29T09:58:29.223Z</time>
      </trkpt>
      <trkpt lat="46.17002" lon="4.0953">
        <ele>308.803191</ele>
        <time>2023-09-29T09:58:31.220Z</time>
      </trkpt>
      <trkpt lat="46.17011" lon="4.09527">
        <ele>308.863041</ele>
        <time>2023-09-29T09:58:33.211Z</time>
      </trkpt>
      <trkpt lat="46.17021" lon="4.09524">
        <ele>308.920471</ele>
        <time>2023-09-29T09:58:35.207Z</time>
      </trkpt>
      <trkpt lat="46.1703" lon="4.0952">
        <ele>308.977671</ele>
        <time>2023-09-29T09:58:37.212Z</time>
      </trkpt>
      <trkpt lat="46.17039" lon="4.09517">
        <ele>309.035101</ele>
        <time>2023-09-29T09:58:39.208Z</time>
      </trkpt>
      <trkpt lat="46.17049" lon="4.09515">
        <ele>309.094543</ele>
        <time>2023-09-29T09:58:41.232Z</time>
      </trkpt>
      <trkpt lat="46.17059" lon="4.09511">
        <ele>309.155871</ele>
        <time>2023-09-29T09:58:43.226Z</time>
      </trkpt>
      <trkpt lat="46.17069" lon="4.09507">
        <ele>309.218611</ele>
        <time>2023-09-29T09:58:45.218Z</time>
      </trkpt>
      <trkpt lat="46.17079" lon="4.09504">
        <ele>309.278358</ele>
        <time>2023-09-29T09:58:47.218Z</time>
      </trkpt>
      <trkpt lat="46.17089" lon="4.095">
        <ele>309.337905</ele>
        <time>2023-09-29T09:58:49.235Z</time>
      </trkpt>
      <trkpt lat="46.17098" lon="4.09497">
        <ele>309.396195</ele>
        <time>2023-09-29T09:58:51.211Z</time>
      </trkpt>
      <trkpt lat="46.17107" lon="4.09493">
        <ele>309.45227</ele>
        <time>2023-09-29T09:58:53.217Z</time>
      </trkpt>
      <trkpt lat="46.17117" lon="4.09491">
        <ele>309.473539</ele>
        <time>2023-09-29T09:58:55.214Z</time>
      </trkpt>
      <trkpt lat="46.17127" lon="4.09487">
        <ele>309.494052</ele>
        <time>2023-09-29T09:58:57.222Z</time>
      </trkpt>
      <trkpt lat="46.17136" lon="4.09484">
        <ele>309.513826</ele>
        <time>2023-09-29T09:58:59.218Z</time>
      </trkpt>
      <trkpt lat="46.17146" lon="4.0948">
        <ele>309.534191</ele>
        <time>2023-09-29T09:59:01.213Z</time>
      </trkpt>
      <trkpt lat="46.17155" lon="4.09475">
        <ele>309.554273</ele>
        <time>2023-09-29T09:59:03.211Z</time>
      </trkpt>
      <trkpt lat="46.17165" lon="4.09471">
        <ele>309.574517</ele>
        <time>2023-09-29T09:59:05.217Z</time>
      </trkpt>
      <trkpt lat="46.17174" lon="4.09466">
        <ele>309.594506</ele>
        <time>2023-09-29T09:59:07.209Z</time>
      </trkpt>
      <trkpt lat="46.17183" lon="4.09462">
        <ele>309.614406</ele>
        <time>2023-09-29T09:59:09.228Z</time>
      </trkpt>
      <trkpt lat="46.17192" lon="4.09456">
        <ele>309.634632</ele>
        <time>2023-09-29T09:59:11.214Z</time>
      </trkpt>
      <trkpt lat="46.17202" lon="4.09451">
        <ele>309.656105</ele>
        <time>2023-09-29T09:59:13.216Z</time>
      </trkpt>
      <trkpt lat="46.17212" lon="4.09448">
        <ele>309.676309</ele>
        <time>2023-09-29T09:59:15.228Z</time>
      </trkpt>
      <trkpt lat="46.17221" lon="4.09444">
        <ele>309.69647</ele>
        <time>2023-09-29T09:59:17.211Z</time>
      </trkpt>
      <trkpt lat="46.17231" lon="4.09439">
        <ele>309.716994</ele>
        <time>2023-09-29T09:59:19.220Z</time>
      </trkpt>
      <trkpt lat="46.1724" lon="4.09435">
        <ele>309.736808</ele>
        <time>2023-09-29T09:59:21.211Z</time>
      </trkpt>
      <trkpt lat="46.1725" lon="4.09429">
        <ele>309.757947</ele>
        <time>2023-09-29T09:59:23.214Z</time>
      </trkpt>
      <trkpt lat="46.1726" lon="4.09425">
        <ele>309.779182</ele>
        <time>2023-09-29T09:59:25.212Z</time>
      </trkpt>
      <trkpt lat="46.17269" lon="4.0942">
        <ele>309.799275</ele>
        <time>2023-09-29T09:59:27.227Z</time>
      </trkpt>
      <trkpt lat="46.17278" lon="4.09416">
        <ele>309.818034</ele>
        <time>2023-09-29T09:59:29.218Z</time>
      </trkpt>
      <trkpt lat="46.17287" lon="4.09411">
        <ele>309.713511</ele>
        <time>2023-09-29T09:59:31.211Z</time>
      </trkpt>
      <trkpt lat="46.17297" lon="4.09407">
        <ele>309.591987</ele>
        <time>2023-09-29T09:59:33.210Z</time>
      </trkpt>
      <trkpt lat="46.17307" lon="4.09404">
        <ele>309.472961</ele>
        <time>2023-09-29T09:59:35.204Z</time>
      </trkpt>
      <trkpt lat="46.17316" lon="4.094">
        <ele>309.356745</ele>
        <time>2023-09-29T09:59:37.211Z</time>
      </trkpt>
      <trkpt lat="46.17325" lon="4.09396">
        <ele>309.24767</ele>
        <time>2023-09-29T09:59:39.225Z</time>
      </trkpt>
      <trkpt lat="46.17334" lon="4.09391">
        <ele>309.129996</ele>
        <time>2023-09-29T09:59:41.216Z</time>
      </trkpt>
      <trkpt lat="46.17344" lon="4.09387">
        <ele>309.008471</ele>
        <time>2023-09-29T09:59:43.225Z</time>
      </trkpt>
      <trkpt lat="46.17353" lon="4.09383">
        <ele>308.888794</ele>
        <time>2023-09-29T09:59:45.223Z</time>
      </trkpt>
      <trkpt lat="46.17363" lon="4.09378">
        <ele>308.768285</ele>
        <time>2023-09-29T09:59:47.218Z</time>
      </trkpt>
      <trkpt lat="46.17372" lon="4.09374">
        <ele>308.647672</ele>
        <time>2023-09-29T09:59:49.230Z</time>
      </trkpt>
      <trkpt lat="46.17382" lon="4.09369">
        <ele>308.522664</ele>
        <time>2023-09-29T09:59:51.232Z</time>
      </trkpt>
      <trkpt lat="46.17392" lon="4.09365">
        <ele>308.4004</ele>
        <time>2023-09-29T09:59:53.213Z</time>
      </trkpt>
      <trkpt lat="46.17402" lon="4.0936">
        <ele>308.278388</ele>
        <time>2023-09-29T09:59:55.227Z</time>
      </trkpt>
      <trkpt lat="46.17411" lon="4.09355">
        <ele>308.155635</ele>
        <time>2023-09-29T09:59:57.211Z</time>
      </trkpt>
      <trkpt lat="46.17421" lon="4.09351">
        <ele>308.032852</ele>
        <time>2023-09-29T09:59:59.218Z</time>
      </trkpt>
      <trkpt lat="46.1743" lon="4.09347">
        <ele>307.919624</ele>
        <time>2023-09-29T10:00:01.235Z</time>
      </trkpt>
      <trkpt lat="46.1744" lon="4.09343">
        <ele>307.797183</ele>
        <time>2023-09-29T10:00:03.205Z</time>
      </trkpt>
      <trkpt lat="46.1745" lon="4.09339">
        <ele>307.668969</ele>
        <time>2023-09-29T10:00:05.205Z</time>
      </trkpt>
      <trkpt lat="46.1746" lon="4.09334">
        <ele>307.724538</ele>
        <time>2023-09-29T10:00:07.230Z</time>
      </trkpt>
      <trkpt lat="46.17469" lon="4.0933">
        <ele>307.78812</ele>
        <time>2023-09-29T10:00:09.215Z</time>
      </trkpt>
      <trkpt lat="46.17479" lon="4.09326">
        <ele>307.853955</ele>
        <time>2023-09-29T10:00:11.202Z</time>
      </trkpt>
      <trkpt lat="46.17489" lon="4.09322">
        <ele>307.921526</ele>
        <time>2023-09-29T10:00:13.213Z</time>
      </trkpt>
      <trkpt lat="46.17498" lon="4.09317">
        <ele>307.985605</ele>
        <time>2023-09-29T10:00:15.210Z</time>
      </trkpt>
      <trkpt lat="46.17508" lon="4.09314">
        <ele>308.04797</ele>
        <time>2023-09-29T10:00:17.215Z</time>
      </trkpt>
      <trkpt lat="46.17517" lon="4.0931">
        <ele>308.112175</ele>
        <time>2023-09-29T10:00:19.198Z</time>
      </trkpt>
      <trkpt lat="46.17526" lon="4.09305">
        <ele>308.173532</ele>
        <time>2023-09-29T10:00:21.203Z</time>
      </trkpt>
      <trkpt lat="46.17535" lon="4.093">
        <ele>308.234889</ele>
        <time>2023-09-29T10:00:23.213Z</time>
      </trkpt>
      <trkpt lat="46.17544" lon="4.09295">
        <ele>308.296083</ele>
        <time>2023-09-29T10:00:25.199Z</time>
      </trkpt>
      <trkpt lat="46.17553" lon="4.09291">
        <ele>308.357732</ele>
        <time>2023-09-29T10:00:27.212Z</time>
      </trkpt>
      <trkpt lat="46.17565" lon="4.09284">
        <ele>308.442259</ele>
        <time>2023-09-29T10:00:30.203Z</time>
      </trkpt>
      <trkpt lat="46.17577" lon="4.0928">
        <ele>308.525439</ele>
        <time>2023-09-29T10:00:33.203Z</time>
      </trkpt>
      <trkpt lat="46.17588" lon="4.09275">
        <ele>308.596279</ele>
        <time>2023-09-29T10:00:36.211Z</time>
      </trkpt>
      <trkpt lat="46.17599" lon="4.0927">
        <ele>308.675074</ele>
        <time>2023-09-29T10:00:39.212Z</time>
      </trkpt>
      <trkpt lat="46.17612" lon="4.09264">
        <ele>308.762735</ele>
        <time>2023-09-29T10:00:42.218Z</time>
      </trkpt>
      <trkpt lat="46.17621" lon="4.0926">
        <ele>308.822397</ele>
        <time>2023-09-29T10:00:44.225Z</time>
      </trkpt>
      <trkpt lat="46.1763" lon="4.09255">
        <ele>308.873843</ele>
        <time>2023-09-29T10:00:46.215Z</time>
      </trkpt>
      <trkpt lat="46.17639" lon="4.09251">
        <ele>308.925033</ele>
        <time>2023-09-29T10:00:48.209Z</time>
      </trkpt>
      <trkpt lat="46.17647" lon="4.09247">
        <ele>308.976101</ele>
        <time>2023-09-29T10:00:50.213Z</time>
      </trkpt>
      <trkpt lat="46.17657" lon="4.09242">
        <ele>309.029332</ele>
        <time>2023-09-29T10:00:52.210Z</time>
      </trkpt>
      <trkpt lat="46.17666" lon="4.09237">
        <ele>309.081943</ele>
        <time>2023-09-29T10:00:54.197Z</time>
      </trkpt>
      <trkpt lat="46.17675" lon="4.09233">
        <ele>309.134101</ele>
        <time>2023-09-29T10:00:56.224Z</time>
      </trkpt>
      <trkpt lat="46.17684" lon="4.09229">
        <ele>309.185928</ele>
        <time>2023-09-29T10:00:58.211Z</time>
      </trkpt>
      <trkpt lat="46.17693" lon="4.09224">
        <ele>309.236241</ele>
        <time>2023-09-29T10:01:00.222Z</time>
      </trkpt>
      <trkpt lat="46.17702" lon="4.0922">
        <ele>309.291515</ele>
        <time>2023-09-29T10:01:02.208Z</time>
      </trkpt>
      <trkpt lat="46.17711" lon="4.09215">
        <ele>309.343729</ele>
        <time>2023-09-29T10:01:04.226Z</time>
      </trkpt>
      <trkpt lat="46.1772" lon="4.0921">
        <ele>309.392909</ele>
        <time>2023-09-29T10:01:06.234Z</time>
      </trkpt>
      <trkpt lat="46.17729" lon="4.09205">
        <ele>309.444992</ele>
        <time>2023-09-29T10:01:08.216Z</time>
      </trkpt>
      <trkpt lat="46.17738" lon="4.092">
        <ele>309.495685</ele>
        <time>2023-09-29T10:01:10.231Z</time>
      </trkpt>
      <trkpt lat="46.17747" lon="4.09196">
        <ele>309.551287</ele>
        <time>2023-09-29T10:01:12.206Z</time>
      </trkpt>
      <trkpt lat="46.17757" lon="4.09192">
        <ele>309.603554</ele>
        <time>2023-09-29T10:01:14.215Z</time>
      </trkpt>
      <trkpt lat="46.17766" lon="4.09187">
        <ele>309.656277</ele>
        <time>2023-09-29T10:01:16.201Z</time>
      </trkpt>
      <trkpt lat="46.17774" lon="4.09182">
        <ele>309.706195</ele>
        <time>2023-09-29T10:01:18.216Z</time>
      </trkpt>
      <trkpt lat="46.17783" lon="4.09179">
        <ele>309.755745</ele>
        <time>2023-09-29T10:01:20.206Z</time>
      </trkpt>
      <trkpt lat="46.17793" lon="4.09174">
        <ele>309.795133</ele>
        <time>2023-09-29T10:01:22.197Z</time>
      </trkpt>
      <trkpt lat="46.17802" lon="4.09169">
        <ele>309.706043</ele>
        <time>2023-09-29T10:01:24.198Z</time>
      </trkpt>
      <trkpt lat="46.17811" lon="4.09165">
        <ele>309.617781</ele>
        <time>2023-09-29T10:01:26.224Z</time>
      </trkpt>
      <trkpt lat="46.1782" lon="4.0916">
        <ele>309.527945</ele>
        <time>2023-09-29T10:01:28.214Z</time>
      </trkpt>
      <trkpt lat="46.17829" lon="4.09156">
        <ele>309.441035</ele>
        <time>2023-09-29T10:01:30.212Z</time>
      </trkpt>
      <trkpt lat="46.17838" lon="4.09152">
        <ele>309.356743</ele>
        <time>2023-09-29T10:01:32.218Z</time>
      </trkpt>
      <trkpt lat="46.17847" lon="4.09146">
        <ele>309.265233</ele>
        <time>2023-09-29T10:01:34.222Z</time>
      </trkpt>
      <trkpt lat="46.17856" lon="4.09141">
        <ele>309.176533</ele>
        <time>2023-09-29T10:01:36.215Z</time>
      </trkpt>
      <trkpt lat="46.17864" lon="4.09136">
        <ele>309.089376</ele>
        <time>2023-09-29T10:01:38.211Z</time>
      </trkpt>
      <trkpt lat="46.17874" lon="4.09131">
        <ele>308.998133</ele>
        <time>2023-09-29T10:01:40.211Z</time>
      </trkpt>
      <trkpt lat="46.17883" lon="4.09126">
        <ele>308.909058</ele>
        <time>2023-09-29T10:01:42.220Z</time>
      </trkpt>
      <trkpt lat="46.17892" lon="4.09121">
        <ele>308.821286</ele>
        <time>2023-09-29T10:01:44.200Z</time>
      </trkpt>
      <trkpt lat="46.179" lon="4.09117">
        <ele>308.734376</ele>
        <time>2023-09-29T10:01:46.209Z</time>
      </trkpt>
      <trkpt lat="46.17909" lon="4.09113">
        <ele>308.649212</ele>
        <time>2023-09-29T10:01:48.210Z</time>
      </trkpt>
      <trkpt lat="46.17918" lon="4.09108">
        <ele>308.560552</ele>
        <time>2023-09-29T10:01:50.204Z</time>
      </trkpt>
      <trkpt lat="46.17927" lon="4.09103">
        <ele>308.471264</ele>
        <time>2023-09-29T10:01:52.214Z</time>
      </trkpt>
      <trkpt lat="46.17936" lon="4.09099">
        <ele>308.383881</ele>
        <time>2023-09-29T10:01:54.194Z</time>
      </trkpt>
      <trkpt lat="46.17946" lon="4.09095">
        <ele>308.290505</ele>
        <time>2023-09-29T10:01:56.230Z</time>
      </trkpt>
      <trkpt lat="46.17956" lon="4.0909">
        <ele>308.194481</ele>
        <time>2023-09-29T10:01:58.210Z</time>
      </trkpt>
      <trkpt lat="46.17965" lon="4.09085">
        <ele>308.124958</ele>
        <time>2023-09-29T10:02:00.214Z</time>
      </trkpt>
      <trkpt lat="46.17974" lon="4.0908">
        <ele>308.084948</ele>
        <time>2023-09-29T10:02:02.206Z</time>
      </trkpt>
      <trkpt lat="46.17983" lon="4.09075">
        <ele>308.042796</ele>
        <time>2023-09-29T10:02:04.208Z</time>
      </trkpt>
      <trkpt lat="46.17992" lon="4.09069">
        <ele>307.999045</ele>
        <time>2023-09-29T10:02:06.206Z</time>
      </trkpt>
      <trkpt lat="46.18001" lon="4.09065">
        <ele>307.958913</ele>
        <time>2023-09-29T10:02:08.213Z</time>
      </trkpt>
      <trkpt lat="46.1801" lon="4.09061">
        <ele>307.9181</ele>
        <time>2023-09-29T10:02:10.228Z</time>
      </trkpt>
      <trkpt lat="46.18019" lon="4.09056">
        <ele>307.877491</ele>
        <time>2023-09-29T10:02:12.226Z</time>
      </trkpt>
      <trkpt lat="46.18028" lon="4.09052">
        <ele>307.837035</ele>
        <time>2023-09-29T10:02:14.218Z</time>
      </trkpt>
      <trkpt lat="46.18037" lon="4.09048">
        <ele>307.797739</ele>
        <time>2023-09-29T10:02:16.207Z</time>
      </trkpt>
      <trkpt lat="46.18045" lon="4.09042">
        <ele>307.756062</ele>
        <time>2023-09-29T10:02:18.211Z</time>
      </trkpt>
      <trkpt lat="46.18054" lon="4.09037">
        <ele>307.715437</ele>
        <time>2023-09-29T10:02:20.194Z</time>
      </trkpt>
      <trkpt lat="46.18063" lon="4.09033">
        <ele>307.675714</ele>
        <time>2023-09-29T10:02:22.231Z</time>
      </trkpt>
      <trkpt lat="46.18071" lon="4.09028">
        <ele>307.636822</ele>
        <time>2023-09-29T10:02:24.217Z</time>
      </trkpt>
      <trkpt lat="46.1808" lon="4.09024">
        <ele>307.59669</ele>
        <time>2023-09-29T10:02:26.203Z</time>
      </trkpt>
      <trkpt lat="46.1809" lon="4.09019">
        <ele>307.553253</ele>
        <time>2023-09-29T10:02:28.209Z</time>
      </trkpt>
      <trkpt lat="46.18099" lon="4.09014">
        <ele>307.51123</ele>
        <time>2023-09-29T10:02:30.198Z</time>
      </trkpt>
      <trkpt lat="46.18108" lon="4.0901">
        <ele>307.47052</ele>
        <time>2023-09-29T10:02:32.196Z</time>
      </trkpt>
      <trkpt lat="46.18117" lon="4.09005">
        <ele>307.429507</ele>
        <time>2023-09-29T10:02:34.187Z</time>
      </trkpt>
      <trkpt lat="46.18126" lon="4.09">
        <ele>307.387682</ele>
        <time>2023-09-29T10:02:36.211Z</time>
      </trkpt>
      <trkpt lat="46.18135" lon="4.08996">
        <ele>307.402977</ele>
        <time>2023-09-29T10:02:38.224Z</time>
      </trkpt>
      <trkpt lat="46.18144" lon="4.08992">
        <ele>307.456864</ele>
        <time>2023-09-29T10:02:40.217Z</time>
      </trkpt>
      <trkpt lat="46.18153" lon="4.08987">
        <ele>307.512248</ele>
        <time>2023-09-29T10:02:42.218Z</time>
      </trkpt>
      <trkpt lat="46.18162" lon="4.08983">
        <ele>307.567571</ele>
        <time>2023-09-29T10:02:44.206Z</time>
      </trkpt>
      <trkpt lat="46.18172" lon="4.08979">
        <ele>307.622459</ele>
        <time>2023-09-29T10:02:46.206Z</time>
      </trkpt>
      <trkpt lat="46.18181" lon="4.08974">
        <ele>307.677841</ele>
        <time>2023-09-29T10:02:48.221Z</time>
      </trkpt>
      <trkpt lat="46.1819" lon="4.0897">
        <ele>307.733398</ele>
        <time>2023-09-29T10:02:50.218Z</time>
      </trkpt>
      <trkpt lat="46.18199" lon="4.08966">
        <ele>307.789077</ele>
        <time>2023-09-29T10:02:52.215Z</time>
      </trkpt>
      <trkpt lat="46.18208" lon="4.08961">
        <ele>307.844998</ele>
        <time>2023-09-29T10:02:54.203Z</time>
      </trkpt>
      <trkpt lat="46.18217" lon="4.08956">
        <ele>307.900279</ele>
        <time>2023-09-29T10:02:56.209Z</time>
      </trkpt>
      <trkpt lat="46.18226" lon="4.0895">
        <ele>307.954804</ele>
        <time>2023-09-29T10:02:58.208Z</time>
      </trkpt>
      <trkpt lat="46.18234" lon="4.08946">
        <ele>308.007355</ele>
        <time>2023-09-29T10:03:00.228Z</time>
      </trkpt>
      <trkpt lat="46.18243" lon="4.08941">
        <ele>308.059082</ele>
        <time>2023-09-29T10:03:02.211Z</time>
      </trkpt>
      <trkpt lat="46.18251" lon="4.08936">
        <ele>308.113106</ele>
        <time>2023-09-29T10:03:04.202Z</time>
      </trkpt>
      <trkpt lat="46.1826" lon="4.08931">
        <ele>308.165658</ele>
        <time>2023-09-29T10:03:06.214Z</time>
      </trkpt>
      <trkpt lat="46.18272" lon="4.08925">
        <ele>308.240418</ele>
        <time>2023-09-29T10:03:09.209Z</time>
      </trkpt>
      <trkpt lat="46.18283" lon="4.08919">
        <ele>308.306225</ele>
        <time>2023-09-29T10:03:12.209Z</time>
      </trkpt>
      <trkpt lat="46.18293" lon="4.08912">
        <ele>308.371602</ele>
        <time>2023-09-29T10:03:15.230Z</time>
      </trkpt>
      <trkpt lat="46.18305" lon="4.08907">
        <ele>308.32869</ele>
        <time>2023-09-29T10:03:18.206Z</time>
      </trkpt>
      <trkpt lat="46.18318" lon="4.089">
        <ele>308.180695</ele>
        <time>2023-09-29T10:03:21.212Z</time>
      </trkpt>
      <trkpt lat="46.18331" lon="4.08894">
        <ele>308.029276</ele>
        <time>2023-09-29T10:03:24.205Z</time>
      </trkpt>
      <trkpt lat="46.18339" lon="4.08889">
        <ele>307.927022</ele>
        <time>2023-09-29T10:03:26.229Z</time>
      </trkpt>
      <trkpt lat="46.18348" lon="4.08884">
        <ele>307.819555</ele>
        <time>2023-09-29T10:03:28.205Z</time>
      </trkpt>
      <trkpt lat="46.18358" lon="4.08879">
        <ele>307.70577</ele>
        <time>2023-09-29T10:03:30.209Z</time>
      </trkpt>
      <trkpt lat="46.18367" lon="4.08874">
        <ele>307.595428</ele>
        <time>2023-09-29T10:03:32.203Z</time>
      </trkpt>
      <trkpt lat="46.18377" lon="4.08869">
        <ele>307.476352</ele>
        <time>2023-09-29T10:03:34.206Z</time>
      </trkpt>
      <trkpt lat="46.18388" lon="4.08863">
        <ele>307.350246</ele>
        <time>2023-09-29T10:03:36.208Z</time>
      </trkpt>
      <trkpt lat="46.18399" lon="4.08857">
        <ele>307.214403</ele>
        <time>2023-09-29T10:03:38.216Z</time>
      </trkpt>
      <trkpt lat="46.18411" lon="4.08851">
        <ele>307.075686</ele>
        <time>2023-09-29T10:03:40.201Z</time>
      </trkpt>
      <trkpt lat="46.18422" lon="4.08845">
        <ele>306.937991</ele>
        <time>2023-09-29T10:03:42.197Z</time>
      </trkpt>
      <trkpt lat="46.18433" lon="4.08839">
        <ele>306.806106</ele>
        <time>2023-09-29T10:03:44.215Z</time>
      </trkpt>
      <trkpt lat="46.18444" lon="4.08834">
        <ele>306.676196</ele>
        <time>2023-09-29T10:03:46.222Z</time>
      </trkpt>
      <trkpt lat="46.18455" lon="4.08829">
        <ele>306.554443</ele>
        <time>2023-09-29T10:03:48.207Z</time>
      </trkpt>
      <trkpt lat="46.18464" lon="4.08825">
        <ele>306.441677</ele>
        <time>2023-09-29T10:03:50.195Z</time>
      </trkpt>
      <trkpt lat="46.18474" lon="4.0882">
        <ele>306.390826</ele>
        <time>2023-09-29T10:03:52.210Z</time>
      </trkpt>
      <trkpt lat="46.18483" lon="4.08816">
        <ele>306.380746</ele>
        <time>2023-09-29T10:03:54.219Z</time>
      </trkpt>
      <trkpt lat="46.18492" lon="4.08812">
        <ele>306.370999</ele>
        <time>2023-09-29T10:03:56.184Z</time>
      </trkpt>
      <trkpt lat="46.185" lon="4.08807">
        <ele>306.36112</ele>
        <time>2023-09-29T10:03:58.192Z</time>
      </trkpt>
      <trkpt lat="46.18509" lon="4.08801">
        <ele>306.351287</ele>
        <time>2023-09-29T10:04:00.196Z</time>
      </trkpt>
      <trkpt lat="46.18518" lon="4.08796">
        <ele>306.340977</ele>
        <time>2023-09-29T10:04:02.197Z</time>
      </trkpt>
      <trkpt lat="46.18527" lon="4.08788">
        <ele>306.32994</ele>
        <time>2023-09-29T10:04:04.184Z</time>
      </trkpt>
      <trkpt lat="46.18537" lon="4.08782">
        <ele>306.31891</ele>
        <time>2023-09-29T10:04:06.210Z</time>
      </trkpt>
      <trkpt lat="46.18546" lon="4.08776">
        <ele>306.307943</ele>
        <time>2023-09-29T10:04:08.203Z</time>
      </trkpt>
      <trkpt lat="46.18555" lon="4.08769">
        <ele>306.296945</ele>
        <time>2023-09-29T10:04:10.214Z</time>
      </trkpt>
      <trkpt lat="46.18565" lon="4.08762">
        <ele>306.28601</ele>
        <time>2023-09-29T10:04:12.205Z</time>
      </trkpt>
      <trkpt lat="46.18574" lon="4.08757">
        <ele>306.275217</ele>
        <time>2023-09-29T10:04:14.209Z</time>
      </trkpt>
      <trkpt lat="46.18584" lon="4.0875">
        <ele>306.263932</ele>
        <time>2023-09-29T10:04:16.205Z</time>
      </trkpt>
      <trkpt lat="46.18594" lon="4.08743">
        <ele>306.25249</ele>
        <time>2023-09-29T10:04:18.190Z</time>
      </trkpt>
      <trkpt lat="46.18603" lon="4.08738">
        <ele>306.241724</ele>
        <time>2023-09-29T10:04:20.202Z</time>
      </trkpt>
      <trkpt lat="46.18613" lon="4.08732">
        <ele>306.230874</ele>
        <time>2023-09-29T10:04:22.194Z</time>
      </trkpt>
      <trkpt lat="46.18622" lon="4.08724">
        <ele>306.220191</ele>
        <time>2023-09-29T10:04:24.185Z</time>
      </trkpt>
      <trkpt lat="46.18631" lon="4.08718">
        <ele>306.209318</ele>
        <time>2023-09-29T10:04:26.172Z</time>
      </trkpt>
      <trkpt lat="46.18641" lon="4.08711">
        <ele>306.238394</ele>
        <time>2023-09-29T10:04:28.171Z</time>
      </trkpt>
      <trkpt lat="46.18651" lon="4.08705">
        <ele>306.272681</ele>
        <time>2023-09-29T10:04:30.172Z</time>
      </trkpt>
      <trkpt lat="46.18661" lon="4.08698">
        <ele>306.307327</ele>
        <time>2023-09-29T10:04:32.168Z</time>
      </trkpt>
      <trkpt lat="46.18671" lon="4.08689">
        <ele>306.344092</ele>
        <time>2023-09-29T10:04:34.173Z</time>
      </trkpt>
      <trkpt lat="46.18681" lon="4.08681">
        <ele>306.377879</ele>
        <time>2023-09-29T10:04:36.167Z</time>
      </trkpt>
      <trkpt lat="46.18689" lon="4.08674">
        <ele>306.408489</ele>
        <time>2023-09-29T10:04:38.167Z</time>
      </trkpt>
      <trkpt lat="46.18698" lon="4.08666">
        <ele>306.440227</ele>
        <time>2023-09-29T10:04:40.289Z</time>
      </trkpt>
      <trkpt lat="46.18712" lon="4.08664">
        <ele>306.482948</ele>
        <time>2023-09-29T10:04:43.176Z</time>
      </trkpt>
      <trkpt lat="46.18724" lon="4.08659">
        <ele>306.523583</ele>
        <time>2023-09-29T10:04:46.211Z</time>
      </trkpt>
      <trkpt lat="46.18733" lon="4.08656">
        <ele>306.55213</ele>
        <time>2023-09-29T10:04:48.205Z</time>
      </trkpt>
      <trkpt lat="46.18746" lon="4.08652">
        <ele>306.59274</ele>
        <time>2023-09-29T10:04:51.211Z</time>
      </trkpt>
      <trkpt lat="46.18759" lon="4.08647">
        <ele>306.634102</ele>
        <time>2023-09-29T10:04:54.205Z</time>
      </trkpt>
      <trkpt lat="46.18768" lon="4.08645">
        <ele>306.663597</ele>
        <time>2023-09-29T10:04:56.212Z</time>
      </trkpt>
      <trkpt lat="46.18777" lon="4.08643">
        <ele>306.691691</ele>
        <time>2023-09-29T10:04:58.223Z</time>
      </trkpt>
      <trkpt lat="46.1879" lon="4.0864">
        <ele>306.732584</ele>
        <time>2023-09-29T10:05:01.206Z</time>
      </trkpt>
      <trkpt lat="46.18803" lon="4.08637">
        <ele>306.760387</ele>
        <time>2023-09-29T10:05:04.188Z</time>
      </trkpt>
      <trkpt lat="46.18815" lon="4.08633">
        <ele>306.73251</ele>
        <time>2023-09-29T10:05:07.224Z</time>
      </trkpt>
      <trkpt lat="46.18828" lon="4.08628">
        <ele>306.700973</ele>
        <time>2023-09-29T10:05:10.191Z</time>
      </trkpt>
      <trkpt lat="46.1884" lon="4.08624">
        <ele>306.671839</ele>
        <time>2023-09-29T10:05:13.208Z</time>
      </trkpt>
      <trkpt lat="46.18852" lon="4.08619">
        <ele>306.642988</ele>
        <time>2023-09-29T10:05:16.211Z</time>
      </trkpt>
      <trkpt lat="46.18864" lon="4.08615">
        <ele>306.615917</ele>
        <time>2023-09-29T10:05:19.219Z</time>
      </trkpt>
      <trkpt lat="46.18877" lon="4.08612">
        <ele>306.58457</ele>
        <time>2023-09-29T10:05:22.209Z</time>
      </trkpt>
      <trkpt lat="46.18887" lon="4.0861">
        <ele>306.561879</ele>
        <time>2023-09-29T10:05:24.204Z</time>
      </trkpt>
      <trkpt lat="46.18896" lon="4.08607">
        <ele>306.540842</ele>
        <time>2023-09-29T10:05:26.206Z</time>
      </trkpt>
      <trkpt lat="46.18905" lon="4.08604">
        <ele>306.519704</ele>
        <time>2023-09-29T10:05:28.202Z</time>
      </trkpt>
      <trkpt lat="46.18914" lon="4.08602">
        <ele>306.496903</ele>
        <time>2023-09-29T10:05:30.211Z</time>
      </trkpt>
      <trkpt lat="46.18924" lon="4.08599">
        <ele>306.474074</ele>
        <time>2023-09-29T10:05:32.198Z</time>
      </trkpt>
      <trkpt lat="46.18934" lon="4.08597">
        <ele>306.451017</ele>
        <time>2023-09-29T10:05:34.221Z</time>
      </trkpt>
      <trkpt lat="46.18943" lon="4.08596">
        <ele>306.428475</ele>
        <time>2023-09-29T10:05:36.199Z</time>
      </trkpt>
      <trkpt lat="46.18954" lon="4.08594">
        <ele>306.403995</ele>
        <time>2023-09-29T10:05:38.207Z</time>
      </trkpt>
      <trkpt lat="46.18964" lon="4.08591">
        <ele>306.380254</ele>
        <time>2023-09-29T10:05:40.219Z</time>
      </trkpt>
      <trkpt lat="46.18975" lon="4.08588">
        <ele>306.355131</ele>
        <time>2023-09-29T10:05:42.231Z</time>
      </trkpt>
      <trkpt lat="46.18984" lon="4.08586">
        <ele>306.375285</ele>
        <time>2023-09-29T10:05:44.205Z</time>
      </trkpt>
      <trkpt lat="46.18994" lon="4.08584">
        <ele>306.4121</ele>
        <time>2023-09-29T10:05:46.209Z</time>
      </trkpt>
      <trkpt lat="46.19004" lon="4.08581">
        <ele>306.449386</ele>
        <time>2023-09-29T10:05:48.200Z</time>
      </trkpt>
      <trkpt lat="46.19015" lon="4.0858">
        <ele>306.486706</ele>
        <time>2023-09-29T10:05:50.200Z</time>
      </trkpt>
      <trkpt lat="46.19025" lon="4.08578">
        <ele>306.524352</ele>
        <time>2023-09-29T10:05:52.213Z</time>
      </trkpt>
      <trkpt lat="46.19035" lon="4.08575">
        <ele>306.56114</ele>
        <time>2023-09-29T10:05:54.204Z</time>
      </trkpt>
      <trkpt lat="46.19045" lon="4.08573">
        <ele>306.599147</ele>
        <time>2023-09-29T10:05:56.210Z</time>
      </trkpt>
      <trkpt lat="46.19055" lon="4.08569">
        <ele>306.635901</ele>
        <time>2023-09-29T10:05:58.206Z</time>
      </trkpt>
      <trkpt lat="46.19065" lon="4.08566">
        <ele>306.673555</ele>
        <time>2023-09-29T10:06:00.212Z</time>
      </trkpt>
      <trkpt lat="46.19075" lon="4.08563">
        <ele>306.710076</ele>
        <time>2023-09-29T10:06:02.208Z</time>
      </trkpt>
      <trkpt lat="46.19084" lon="4.08559">
        <ele>306.746512</ele>
        <time>2023-09-29T10:06:04.197Z</time>
      </trkpt>
      <trkpt lat="46.19094" lon="4.08555">
        <ele>306.78362</ele>
        <time>2023-09-29T10:06:06.205Z</time>
      </trkpt>
      <trkpt lat="46.19104" lon="4.08551">
        <ele>306.820696</ele>
        <time>2023-09-29T10:06:08.207Z</time>
      </trkpt>
      <trkpt lat="46.19114" lon="4.08546">
        <ele>306.858543</ele>
        <time>2023-09-29T10:06:10.206Z</time>
      </trkpt>
      <trkpt lat="46.19124" lon="4.08542">
        <ele>306.897013</ele>
        <time>2023-09-29T10:06:12.229Z</time>
      </trkpt>
      <trkpt lat="46.19133" lon="4.08537">
        <ele>306.933972</ele>
        <time>2023-09-29T10:06:14.209Z</time>
      </trkpt>
      <trkpt lat="46.19143" lon="4.08532">
        <ele>306.971529</ele>
        <time>2023-09-29T10:06:16.221Z</time>
      </trkpt>
      <trkpt lat="46.19153" lon="4.08527">
        <ele>307.005556</ele>
        <time>2023-09-29T10:06:18.196Z</time>
      </trkpt>
      <trkpt lat="46.19162" lon="4.08523">
        <ele>307.011124</ele>
        <time>2023-09-29T10:06:20.194Z</time>
      </trkpt>
      <trkpt lat="46.19172" lon="4.0852">
        <ele>307.016503</ele>
        <time>2023-09-29T10:06:22.202Z</time>
      </trkpt>
      <trkpt lat="46.1918" lon="4.08515">
        <ele>307.021736</ele>
        <time>2023-09-29T10:06:24.184Z</time>
      </trkpt>
      <trkpt lat="46.19189" lon="4.08511">
        <ele>307.027052</ele>
        <time>2023-09-29T10:06:26.197Z</time>
      </trkpt>
      <trkpt lat="46.19198" lon="4.08507">
        <ele>307.032364</ele>
        <time>2023-09-29T10:06:28.203Z</time>
      </trkpt>
      <trkpt lat="46.19208" lon="4.08501">
        <ele>307.038076</ele>
        <time>2023-09-29T10:06:30.199Z</time>
      </trkpt>
      <trkpt lat="46.19216" lon="4.08496">
        <ele>307.043375</ele>
        <time>2023-09-29T10:06:32.193Z</time>
      </trkpt>
      <trkpt lat="46.19226" lon="4.08492">
        <ele>307.048798</ele>
        <time>2023-09-29T10:06:34.200Z</time>
      </trkpt>
      <trkpt lat="46.19235" lon="4.08488">
        <ele>307.054455</ele>
        <time>2023-09-29T10:06:36.191Z</time>
      </trkpt>
      <trkpt lat="46.19245" lon="4.08484">
        <ele>307.060225</ele>
        <time>2023-09-29T10:06:38.197Z</time>
      </trkpt>
      <trkpt lat="46.19254" lon="4.0848">
        <ele>307.065405</ele>
        <time>2023-09-29T10:06:40.208Z</time>
      </trkpt>
      <trkpt lat="46.19262" lon="4.08475">
        <ele>307.070623</ele>
        <time>2023-09-29T10:06:42.198Z</time>
      </trkpt>
      <trkpt lat="46.19272" lon="4.08471">
        <ele>307.076078</ele>
        <time>2023-09-29T10:06:44.184Z</time>
      </trkpt>
      <trkpt lat="46.19281" lon="4.08467">
        <ele>307.081675</ele>
        <time>2023-09-29T10:06:46.204Z</time>
      </trkpt>
      <trkpt lat="46.19291" lon="4.08462">
        <ele>307.087292</ele>
        <time>2023-09-29T10:06:48.193Z</time>
      </trkpt>
      <trkpt lat="46.193" lon="4.08457">
        <ele>307.092977</ele>
        <time>2023-09-29T10:06:50.200Z</time>
      </trkpt>
      <trkpt lat="46.19309" lon="4.08453">
        <ele>307.098436</ele>
        <time>2023-09-29T10:06:52.199Z</time>
      </trkpt>
      <trkpt lat="46.19319" lon="4.08448">
        <ele>307.104172</ele>
        <time>2023-09-29T10:06:54.187Z</time>
      </trkpt>
      <trkpt lat="46.19328" lon="4.08443">
        <ele>307.106933</ele>
        <time>2023-09-29T10:06:56.204Z</time>
      </trkpt>
      <trkpt lat="46.19338" lon="4.08439">
        <ele>307.107998</ele>
        <time>2023-09-29T10:06:58.210Z</time>
      </trkpt>
      <trkpt lat="46.19347" lon="4.08434">
        <ele>307.109083</ele>
        <time>2023-09-29T10:07:00.190Z</time>
      </trkpt>
      <trkpt lat="46.19359" lon="4.08427">
        <ele>307.110513</ele>
        <time>2023-09-29T10:07:03.199Z</time>
      </trkpt>
      <trkpt lat="46.19371" lon="4.08423">
        <ele>307.111855</ele>
        <time>2023-09-29T10:07:06.209Z</time>
      </trkpt>
      <trkpt lat="46.19383" lon="4.08418">
        <ele>307.113218</ele>
        <time>2023-09-29T10:07:09.195Z</time>
      </trkpt>
      <trkpt lat="46.19393" lon="4.08413">
        <ele>307.114432</ele>
        <time>2023-09-29T10:07:12.210Z</time>
      </trkpt>
      <trkpt lat="46.19404" lon="4.08409">
        <ele>307.115661</ele>
        <time>2023-09-29T10:07:15.204Z</time>
      </trkpt>
      <trkpt lat="46.19415" lon="4.08403">
        <ele>307.116921</ele>
        <time>2023-09-29T10:07:18.174Z</time>
      </trkpt>
      <trkpt lat="46.19426" lon="4.08398">
        <ele>307.118144</ele>
        <time>2023-09-29T10:07:21.196Z</time>
      </trkpt>
      <trkpt lat="46.19437" lon="4.08393">
        <ele>307.119434</ele>
        <time>2023-09-29T10:07:24.202Z</time>
      </trkpt>
      <trkpt lat="46.19449" lon="4.08389">
        <ele>307.120807</ele>
        <time>2023-09-29T10:07:27.198Z</time>
      </trkpt>
      <trkpt lat="46.19461" lon="4.08383">
        <ele>307.122234</ele>
        <time>2023-09-29T10:07:30.191Z</time>
      </trkpt>
      <trkpt lat="46.19473" lon="4.08377">
        <ele>307.12357</ele>
        <time>2023-09-29T10:07:33.204Z</time>
      </trkpt>
      <trkpt lat="46.19483" lon="4.08373">
        <ele>307.124785</ele>
        <time>2023-09-29T10:07:36.198Z</time>
      </trkpt>
      <trkpt lat="46.19493" lon="4.08366">
        <ele>307.126458</ele>
        <time>2023-09-29T10:07:39.192Z</time>
      </trkpt>
      <trkpt lat="46.19505" lon="4.08362">
        <ele>307.14697</ele>
        <time>2023-09-29T10:07:42.211Z</time>
      </trkpt>
      <trkpt lat="46.19516" lon="4.08357">
        <ele>307.168661</ele>
        <time>2023-09-29T10:07:45.196Z</time>
      </trkpt>
      <trkpt lat="46.19527" lon="4.08351">
        <ele>307.189409</ele>
        <time>2023-09-29T10:07:48.211Z</time>
      </trkpt>
      <trkpt lat="46.1954" lon="4.08346">
        <ele>307.211986</ele>
        <time>2023-09-29T10:07:51.203Z</time>
      </trkpt>
      <trkpt lat="46.19548" lon="4.08342">
        <ele>307.228154</ele>
        <time>2023-09-29T10:07:53.198Z</time>
      </trkpt>
      <trkpt lat="46.19557" lon="4.08338">
        <ele>307.244734</ele>
        <time>2023-09-29T10:07:55.192Z</time>
      </trkpt>
      <trkpt lat="46.19566" lon="4.08335">
        <ele>307.261387</ele>
        <time>2023-09-29T10:07:57.222Z</time>
      </trkpt>
      <trkpt lat="46.19575" lon="4.0833">
        <ele>307.277375</ele>
        <time>2023-09-29T10:07:59.189Z</time>
      </trkpt>
      <trkpt lat="46.19587" lon="4.08323">
        <ele>307.300997</ele>
        <time>2023-09-29T10:08:02.194Z</time>
      </trkpt>
      <trkpt lat="46.19596" lon="4.0832">
        <ele>307.317401</ele>
        <time>2023-09-29T10:08:04.205Z</time>
      </trkpt>
      <trkpt lat="46.19608" lon="4.08314">
        <ele>307.340535</ele>
        <time>2023-09-29T10:08:07.215Z</time>
      </trkpt>
      <trkpt lat="46.19618" lon="4.08308">
        <ele>307.359196</ele>
        <time>2023-09-29T10:08:09.210Z</time>
      </trkpt>
      <trkpt lat="46.19629" lon="4.08304">
        <ele>307.378405</ele>
        <time>2023-09-29T10:08:11.199Z</time>
      </trkpt>
      <trkpt lat="46.19638" lon="4.08299">
        <ele>307.396357</ele>
        <time>2023-09-29T10:08:13.210Z</time>
      </trkpt>
      <trkpt lat="46.19647" lon="4.08295">
        <ele>307.41341</ele>
        <time>2023-09-29T10:08:15.233Z</time>
      </trkpt>
      <trkpt lat="46.19656" lon="4.0829">
        <ele>307.430285</ele>
        <time>2023-09-29T10:08:17.225Z</time>
      </trkpt>
      <trkpt lat="46.19665" lon="4.08285">
        <ele>307.436122</ele>
        <time>2023-09-29T10:08:19.202Z</time>
      </trkpt>
      <trkpt lat="46.19674" lon="4.0828">
        <ele>307.360366</ele>
        <time>2023-09-29T10:08:21.217Z</time>
      </trkpt>
      <trkpt lat="46.19683" lon="4.08276">
        <ele>307.283432</ele>
        <time>2023-09-29T10:08:23.213Z</time>
      </trkpt>
      <trkpt lat="46.19696" lon="4.08268">
        <ele>307.168327</ele>
        <time>2023-09-29T10:08:26.218Z</time>
      </trkpt>
      <trkpt lat="46.19705" lon="4.08265">
        <ele>307.089248</ele>
        <time>2023-09-29T10:08:28.223Z</time>
      </trkpt>
      <trkpt lat="46.19714" lon="4.0826">
        <ele>307.009993</ele>
        <time>2023-09-29T10:08:30.214Z</time>
      </trkpt>
      <trkpt lat="46.19722" lon="4.08254">
        <ele>306.934621</ele>
        <time>2023-09-29T10:08:32.194Z</time>
      </trkpt>
      <trkpt lat="46.19734" lon="4.08246">
        <ele>306.82971</ele>
        <time>2023-09-29T10:08:35.199Z</time>
      </trkpt>
      <trkpt lat="46.19746" lon="4.08239">
        <ele>306.722096</ele>
        <time>2023-09-29T10:08:38.224Z</time>
      </trkpt>
      <trkpt lat="46.19758" lon="4.08232">
        <ele>306.612538</ele>
        <time>2023-09-29T10:08:41.225Z</time>
      </trkpt>
      <trkpt lat="46.1977" lon="4.08225">
        <ele>306.512186</ele>
        <time>2023-09-29T10:08:44.196Z</time>
      </trkpt>
      <trkpt lat="46.19781" lon="4.08217">
        <ele>306.41001</ele>
        <time>2023-09-29T10:08:47.215Z</time>
      </trkpt>
      <trkpt lat="46.19793" lon="4.08209">
        <ele>306.303894</ele>
        <time>2023-09-29T10:08:50.224Z</time>
      </trkpt>
      <trkpt lat="46.19801" lon="4.08204">
        <ele>306.229483</ele>
        <time>2023-09-29T10:08:52.201Z</time>
      </trkpt>
      <trkpt lat="46.19813" lon="4.08197">
        <ele>306.120861</ele>
        <time>2023-09-29T10:08:55.221Z</time>
      </trkpt>
      <trkpt lat="46.19825" lon="4.08189">
        <ele>306.015486</ele>
        <time>2023-09-29T10:08:58.211Z</time>
      </trkpt>
      <trkpt lat="46.19837" lon="4.08179">
        <ele>306.028598</ele>
        <time>2023-09-29T10:09:01.216Z</time>
      </trkpt>
      <trkpt lat="46.19848" lon="4.08171">
        <ele>306.117235</ele>
        <time>2023-09-29T10:09:04.210Z</time>
      </trkpt>
      <trkpt lat="46.19859" lon="4.08164">
        <ele>306.203504</ele>
        <time>2023-09-29T10:09:07.208Z</time>
      </trkpt>
      <trkpt lat="46.1987" lon="4.08156">
        <ele>306.292348</ele>
        <time>2023-09-29T10:09:10.212Z</time>
      </trkpt>
      <trkpt lat="46.19881" lon="4.08148">
        <ele>306.381625</ele>
        <time>2023-09-29T10:09:13.240Z</time>
      </trkpt>
      <trkpt lat="46.19892" lon="4.0814">
        <ele>306.470468</ele>
        <time>2023-09-29T10:09:16.208Z</time>
      </trkpt>
      <trkpt lat="46.19903" lon="4.08131">
        <ele>306.56253</ele>
        <time>2023-09-29T10:09:19.219Z</time>
      </trkpt>
      <trkpt lat="46.19915" lon="4.08123">
        <ele>306.654808</ele>
        <time>2023-09-29T10:09:22.224Z</time>
      </trkpt>
      <trkpt lat="46.19926" lon="4.08115">
        <ele>306.744726</ele>
        <time>2023-09-29T10:09:25.193Z</time>
      </trkpt>
      <trkpt lat="46.19937" lon="4.08106">
        <ele>306.832137</ele>
        <time>2023-09-29T10:09:28.225Z</time>
      </trkpt>
      <trkpt lat="46.19948" lon="4.08097">
        <ele>306.919275</ele>
        <time>2023-09-29T10:09:31.222Z</time>
      </trkpt>
      <trkpt lat="46.19958" lon="4.08088">
        <ele>307.003913</ele>
        <time>2023-09-29T10:09:34.212Z</time>
      </trkpt>
      <trkpt lat="46.19967" lon="4.08081">
        <ele>307.081203</ele>
        <time>2023-09-29T10:09:37.218Z</time>
      </trkpt>
      <trkpt lat="46.19976" lon="4.08075">
        <ele>307.151418</ele>
        <time>2023-09-29T10:09:40.219Z</time>
      </trkpt>
      <trkpt lat="46.19987" lon="4.08074">
        <ele>307.230075</ele>
        <time>2023-09-29T10:09:43.190Z</time>
      </trkpt>
      <trkpt lat="46.19997" lon="4.08065">
        <ele>307.243253</ele>
        <time>2023-09-29T10:09:46.197Z</time>
      </trkpt>
      <trkpt lat="46.20009" lon="4.08058">
        <ele>307.225357</ele>
        <time>2023-09-29T10:09:49.213Z</time>
      </trkpt>
      <trkpt lat="46.20021" lon="4.08049">
        <ele>307.20561</ele>
        <time>2023-09-29T10:09:52.226Z</time>
      </trkpt>
      <trkpt lat="46.20029" lon="4.08044">
        <ele>307.192216</ele>
        <time>2023-09-29T10:09:54.208Z</time>
      </trkpt>
      <trkpt lat="46.20038" lon="4.08038">
        <ele>307.17799</ele>
        <time>2023-09-29T10:09:56.209Z</time>
      </trkpt>
      <trkpt lat="46.20049" lon="4.0803">
        <ele>307.159261</ele>
        <time>2023-09-29T10:09:59.214Z</time>
      </trkpt>
      <trkpt lat="46.20061" lon="4.08022">
        <ele>307.139443</ele>
        <time>2023-09-29T10:10:02.212Z</time>
      </trkpt>
      <trkpt lat="46.20073" lon="4.08014">
        <ele>307.120222</ele>
        <time>2023-09-29T10:10:05.207Z</time>
      </trkpt>
      <trkpt lat="46.20085" lon="4.08006">
        <ele>307.100906</ele>
        <time>2023-09-29T10:10:08.207Z</time>
      </trkpt>
      <trkpt lat="46.20096" lon="4.07998">
        <ele>307.082355</ele>
        <time>2023-09-29T10:10:11.212Z</time>
      </trkpt>
      <trkpt lat="46.20109" lon="4.0799">
        <ele>307.062298</ele>
        <time>2023-09-29T10:10:14.250Z</time>
      </trkpt>
      <trkpt lat="46.20121" lon="4.07982">
        <ele>307.043006</ele>
        <time>2023-09-29T10:10:17.206Z</time>
      </trkpt>
      <trkpt lat="46.20133" lon="4.07976">
        <ele>307.023865</ele>
        <time>2023-09-29T10:10:20.211Z</time>
      </trkpt>
      <trkpt lat="46.20141" lon="4.0797">
        <ele>307.010317</ele>
        <time>2023-09-29T10:10:22.207Z</time>
      </trkpt>
      <trkpt lat="46.20149" lon="4.07965">
        <ele>306.997</ele>
        <time>2023-09-29T10:10:24.207Z</time>
      </trkpt>
      <trkpt lat="46.20158" lon="4.07959">
        <ele>306.982973</ele>
        <time>2023-09-29T10:10:26.215Z</time>
      </trkpt>
      <trkpt lat="46.20166" lon="4.07953">
        <ele>306.968259</ele>
        <time>2023-09-29T10:10:28.225Z</time>
      </trkpt>
      <trkpt lat="46.20174" lon="4.07946">
        <ele>306.953779</ele>
        <time>2023-09-29T10:10:30.197Z</time>
      </trkpt>
      <trkpt lat="46.20185" lon="4.07936">
        <ele>306.933339</ele>
        <time>2023-09-29T10:10:33.218Z</time>
      </trkpt>
      <trkpt lat="46.20195" lon="4.07927">
        <ele>306.913553</ele>
        <time>2023-09-29T10:10:36.238Z</time>
      </trkpt>
      <trkpt lat="46.20206" lon="4.07918">
        <ele>306.894861</ele>
        <time>2023-09-29T10:10:39.206Z</time>
      </trkpt>
      <trkpt lat="46.20215" lon="4.07912">
        <ele>306.878523</ele>
        <time>2023-09-29T10:10:42.222Z</time>
      </trkpt>
      <trkpt lat="46.20223" lon="4.07906">
        <ele>306.863988</ele>
        <time>2023-09-29T10:10:45.214Z</time>
      </trkpt>
      <trkpt lat="46.20231" lon="4.07898">
        <ele>306.849319</ele>
        <time>2023-09-29T10:10:48.216Z</time>
      </trkpt>
      <trkpt lat="46.2024" lon="4.07892">
        <ele>306.832815</ele>
        <time>2023-09-29T10:10:51.207Z</time>
      </trkpt>
      <trkpt lat="46.2025" lon="4.07885">
        <ele>306.815013</ele>
        <time>2023-09-29T10:10:54.201Z</time>
      </trkpt>
      <trkpt lat="46.20261" lon="4.07876">
        <ele>306.795943</ele>
        <time>2023-09-29T10:10:57.220Z</time>
      </trkpt>
      <trkpt lat="46.20271" lon="4.07866">
        <ele>306.777235</ele>
        <time>2023-09-29T10:11:00.210Z</time>
      </trkpt>
      <trkpt lat="46.20281" lon="4.07857">
        <ele>306.757544</ele>
        <time>2023-09-29T10:11:03.210Z</time>
      </trkpt>
      <trkpt lat="46.2029" lon="4.07844">
        <ele>306.738235</ele>
        <time>2023-09-29T10:11:06.196Z</time>
      </trkpt>
      <trkpt lat="46.20294" lon="4.07828">
        <ele>306.719522</ele>
        <time>2023-09-29T10:11:09.206Z</time>
      </trkpt>
      <trkpt lat="46.20304" lon="4.07816">
        <ele>306.728147</ele>
        <time>2023-09-29T10:11:12.192Z</time>
      </trkpt>
      <trkpt lat="46.20316" lon="4.07807">
        <ele>306.785468</ele>
        <time>2023-09-29T10:11:15.202Z</time>
      </trkpt>
      <trkpt lat="46.20326" lon="4.07797">
        <ele>306.840704</ele>
        <time>2023-09-29T10:11:18.206Z</time>
      </trkpt>
      <trkpt lat="46.20337" lon="4.07788">
        <ele>306.894056</ele>
        <time>2023-09-29T10:11:21.224Z</time>
      </trkpt>
      <trkpt lat="46.20348" lon="4.07778">
        <ele>306.951394</ele>
        <time>2023-09-29T10:11:24.206Z</time>
      </trkpt>
      <trkpt lat="46.2036" lon="4.07768">
        <ele>307.009691</ele>
        <time>2023-09-29T10:11:27.215Z</time>
      </trkpt>
      <trkpt lat="46.20368" lon="4.07762">
        <ele>307.048735</ele>
        <time>2023-09-29T10:11:29.218Z</time>
      </trkpt>
      <trkpt lat="46.20381" lon="4.07756">
        <ele>307.107019</ele>
        <time>2023-09-29T10:11:32.209Z</time>
      </trkpt>
      <trkpt lat="46.20389" lon="4.07752">
        <ele>307.146294</ele>
        <time>2023-09-29T10:11:34.192Z</time>
      </trkpt>
      <trkpt lat="46.20397" lon="4.07745">
        <ele>307.186242</ele>
        <time>2023-09-29T10:11:36.193Z</time>
      </trkpt>
      <trkpt lat="46.20409" lon="4.07735">
        <ele>307.246035</ele>
        <time>2023-09-29T10:11:39.211Z</time>
      </trkpt>
      <trkpt lat="46.20417" lon="4.07728">
        <ele>307.286576</ele>
        <time>2023-09-29T10:11:41.215Z</time>
      </trkpt>
      <trkpt lat="46.20425" lon="4.07721">
        <ele>307.327047</ele>
        <time>2023-09-29T10:11:43.220Z</time>
      </trkpt>
      <trkpt lat="46.20433" lon="4.07713">
        <ele>307.369166</ele>
        <time>2023-09-29T10:11:45.219Z</time>
      </trkpt>
      <trkpt lat="46.20442" lon="4.07706">
        <ele>307.411121</ele>
        <time>2023-09-29T10:11:47.199Z</time>
      </trkpt>
      <trkpt lat="46.20449" lon="4.07698">
        <ele>307.452167</ele>
        <time>2023-09-29T10:11:49.202Z</time>
      </trkpt>
      <trkpt lat="46.2046" lon="4.07687">
        <ele>307.491865</ele>
        <time>2023-09-29T10:11:52.197Z</time>
      </trkpt>
      <trkpt lat="46.20472" lon="4.07679">
        <ele>307.508506</ele>
        <time>2023-09-29T10:11:55.386Z</time>
      </trkpt>
      <trkpt lat="46.20483" lon="4.07668">
        <ele>307.524807</ele>
        <time>2023-09-29T10:11:58.180Z</time>
      </trkpt>
      <trkpt lat="46.20493" lon="4.07658">
        <ele>307.540059</ele>
        <time>2023-09-29T10:12:01.180Z</time>
      </trkpt>
      <trkpt lat="46.20504" lon="4.07648">
        <ele>307.555802</ele>
        <time>2023-09-29T10:12:04.202Z</time>
      </trkpt>
      <trkpt lat="46.20514" lon="4.07638">
        <ele>307.5716</ele>
        <time>2023-09-29T10:12:07.214Z</time>
      </trkpt>
      <trkpt lat="46.20523" lon="4.07626">
        <ele>307.587265</ele>
        <time>2023-09-29T10:12:10.199Z</time>
      </trkpt>
      <trkpt lat="46.20534" lon="4.07618">
        <ele>307.602149</ele>
        <time>2023-09-29T10:12:13.188Z</time>
      </trkpt>
      <trkpt lat="46.20544" lon="4.07609">
        <ele>307.617015</ele>
        <time>2023-09-29T10:12:16.222Z</time>
      </trkpt>
      <trkpt lat="46.20553" lon="4.07601">
        <ele>307.630102</ele>
        <time>2023-09-29T10:12:19.209Z</time>
      </trkpt>
      <trkpt lat="46.20562" lon="4.07594">
        <ele>307.642459</ele>
        <time>2023-09-29T10:12:22.185Z</time>
      </trkpt>
      <trkpt lat="46.20573" lon="4.07587">
        <ele>307.657289</ele>
        <time>2023-09-29T10:12:25.197Z</time>
      </trkpt>
      <trkpt lat="46.20584" lon="4.07578">
        <ele>307.673158</ele>
        <time>2023-09-29T10:12:28.202Z</time>
      </trkpt>
      <trkpt lat="46.20592" lon="4.07572">
        <ele>307.684531</ele>
        <time>2023-09-29T10:12:30.224Z</time>
      </trkpt>
      <trkpt lat="46.206" lon="4.07564">
        <ele>307.696056</ele>
        <time>2023-09-29T10:12:32.214Z</time>
      </trkpt>
      <trkpt lat="46.20608" lon="4.07557">
        <ele>307.707746</ele>
        <time>2023-09-29T10:12:34.232Z</time>
      </trkpt>
      <trkpt lat="46.20616" lon="4.07551">
        <ele>307.580327</ele>
        <time>2023-09-29T10:12:36.188Z</time>
      </trkpt>
      <trkpt lat="46.20624" lon="4.07544">
        <ele>307.428397</ele>
        <time>2023-09-29T10:12:38.206Z</time>
      </trkpt>
      <trkpt lat="46.20632" lon="4.07537">
        <ele>307.27813</ele>
        <time>2023-09-29T10:12:40.211Z</time>
      </trkpt>
      <trkpt lat="46.2064" lon="4.0753">
        <ele>307.130556</ele>
        <time>2023-09-29T10:12:42.211Z</time>
      </trkpt>
      <trkpt lat="46.20648" lon="4.07522">
        <ele>306.983347</ele>
        <time>2023-09-29T10:12:44.208Z</time>
      </trkpt>
      <trkpt lat="46.20656" lon="4.07515">
        <ele>306.832181</ele>
        <time>2023-09-29T10:12:46.218Z</time>
      </trkpt>
      <trkpt lat="46.20665" lon="4.07507">
        <ele>306.669983</ele>
        <time>2023-09-29T10:12:48.218Z</time>
      </trkpt>
      <trkpt lat="46.20673" lon="4.075">
        <ele>306.520717</ele>
        <time>2023-09-29T10:12:50.222Z</time>
      </trkpt>
      <trkpt lat="46.20682" lon="4.07492">
        <ele>306.370875</ele>
        <time>2023-09-29T10:12:52.206Z</time>
      </trkpt>
      <trkpt lat="46.2069" lon="4.07485">
        <ele>306.215149</ele>
        <time>2023-09-29T10:12:54.241Z</time>
      </trkpt>
      <trkpt lat="46.20699" lon="4.07478">
        <ele>306.057844</ele>
        <time>2023-09-29T10:12:56.225Z</time>
      </trkpt>
      <trkpt lat="46.20707" lon="4.07469">
        <ele>305.897437</ele>
        <time>2023-09-29T10:12:58.219Z</time>
      </trkpt>
      <trkpt lat="46.20715" lon="4.07462">
        <ele>305.748741</ele>
        <time>2023-09-29T10:13:00.206Z</time>
      </trkpt>
      <trkpt lat="46.20724" lon="4.07455">
        <ele>305.587362</ele>
        <time>2023-09-29T10:13:02.205Z</time>
      </trkpt>
      <trkpt lat="46.20733" lon="4.07447">
        <ele>305.424949</ele>
        <time>2023-09-29T10:13:04.219Z</time>
      </trkpt>
      <trkpt lat="46.20741" lon="4.07439">
        <ele>305.27394</ele>
        <time>2023-09-29T10:13:06.217Z</time>
      </trkpt>
      <trkpt lat="46.20749" lon="4.07432">
        <ele>305.123125</ele>
        <time>2023-09-29T10:13:08.222Z</time>
      </trkpt>
      <trkpt lat="46.20758" lon="4.07425">
        <ele>304.965002</ele>
        <time>2023-09-29T10:13:10.222Z</time>
      </trkpt>
      <trkpt lat="46.20767" lon="4.07417">
        <ele>304.850128</ele>
        <time>2023-09-29T10:13:12.216Z</time>
      </trkpt>
      <trkpt lat="46.20775" lon="4.07409">
        <ele>304.769879</ele>
        <time>2023-09-29T10:13:14.196Z</time>
      </trkpt>
      <trkpt lat="46.20783" lon="4.07401">
        <ele>304.687509</ele>
        <time>2023-09-29T10:13:16.198Z</time>
      </trkpt>
      <trkpt lat="46.20792" lon="4.07392">
        <ele>304.599799</ele>
        <time>2023-09-29T10:13:18.214Z</time>
      </trkpt>
      <trkpt lat="46.208" lon="4.07383">
        <ele>304.51507</ele>
        <time>2023-09-29T10:13:20.221Z</time>
      </trkpt>
      <trkpt lat="46.20808" lon="4.07374">
        <ele>304.43234</ele>
        <time>2023-09-29T10:13:22.219Z</time>
      </trkpt>
      <trkpt lat="46.20815" lon="4.07364">
        <ele>304.348526</ele>
        <time>2023-09-29T10:13:24.220Z</time>
      </trkpt>
      <trkpt lat="46.20824" lon="4.07355">
        <ele>304.263044</ele>
        <time>2023-09-29T10:13:26.208Z</time>
      </trkpt>
      <trkpt lat="46.20832" lon="4.07345">
        <ele>304.175565</ele>
        <time>2023-09-29T10:13:28.215Z</time>
      </trkpt>
      <trkpt lat="46.2084" lon="4.07336">
        <ele>304.089726</ele>
        <time>2023-09-29T10:13:30.216Z</time>
      </trkpt>
      <trkpt lat="46.20847" lon="4.07324">
        <ele>304.003913</ele>
        <time>2023-09-29T10:13:32.198Z</time>
      </trkpt>
      <trkpt lat="46.20854" lon="4.07314">
        <ele>303.918576</ele>
        <time>2023-09-29T10:13:34.201Z</time>
      </trkpt>
      <trkpt lat="46.2086" lon="4.07303">
        <ele>303.838233</ele>
        <time>2023-09-29T10:13:36.198Z</time>
      </trkpt>
      <trkpt lat="46.20867" lon="4.07292">
        <ele>303.753501</ele>
        <time>2023-09-29T10:13:38.196Z</time>
      </trkpt>
      <trkpt lat="46.20873" lon="4.07279">
        <ele>303.665468</ele>
        <time>2023-09-29T10:13:40.206Z</time>
      </trkpt>
      <trkpt lat="46.2088" lon="4.07267">
        <ele>303.579649</ele>
        <time>2023-09-29T10:13:42.206Z</time>
      </trkpt>
      <trkpt lat="46.20886" lon="4.07255">
        <ele>303.496188</ele>
        <time>2023-09-29T10:13:44.215Z</time>
      </trkpt>
      <trkpt lat="46.20892" lon="4.07243">
        <ele>303.419518</ele>
        <time>2023-09-29T10:13:46.220Z</time>
      </trkpt>
      <trkpt lat="46.20897" lon="4.0723">
        <ele>303.470876</ele>
        <time>2023-09-29T10:13:48.205Z</time>
      </trkpt>
      <trkpt lat="46.20902" lon="4.07218">
        <ele>303.518612</ele>
        <time>2023-09-29T10:13:50.212Z</time>
      </trkpt>
      <trkpt lat="46.20908" lon="4.07206">
        <ele>303.567357</ele>
        <time>2023-09-29T10:13:52.216Z</time>
      </trkpt>
      <trkpt lat="46.20913" lon="4.07194">
        <ele>303.616938</ele>
        <time>2023-09-29T10:13:54.203Z</time>
      </trkpt>
      <trkpt lat="46.20917" lon="4.07181">
        <ele>303.663841</ele>
        <time>2023-09-29T10:13:56.205Z</time>
      </trkpt>
      <trkpt lat="46.2092" lon="4.07169">
        <ele>303.707762</ele>
        <time>2023-09-29T10:13:58.195Z</time>
      </trkpt>
      <trkpt lat="46.20926" lon="4.07159">
        <ele>303.752017</ele>
        <time>2023-09-29T10:14:00.203Z</time>
      </trkpt>
      <trkpt lat="46.20933" lon="4.07144">
        <ele>303.815014</ele>
        <time>2023-09-29T10:14:03.213Z</time>
      </trkpt>
      <trkpt lat="46.20939" lon="4.07127">
        <ele>303.877701</ele>
        <time>2023-09-29T10:14:06.204Z</time>
      </trkpt>
      <trkpt lat="46.20945" lon="4.07117">
        <ele>303.922676</ele>
        <time>2023-09-29T10:14:08.205Z</time>
      </trkpt>
      <trkpt lat="46.20955" lon="4.07105">
        <ele>303.986954</ele>
        <time>2023-09-29T10:14:11.202Z</time>
      </trkpt>
      <trkpt lat="46.20959" lon="4.07093">
        <ele>304.031527</ele>
        <time>2023-09-29T10:14:13.200Z</time>
      </trkpt>
      <trkpt lat="46.20966" lon="4.07077">
        <ele>304.096668</ele>
        <time>2023-09-29T10:14:16.229Z</time>
      </trkpt>
      <trkpt lat="46.20971" lon="4.07065">
        <ele>304.142627</ele>
        <time>2023-09-29T10:14:18.215Z</time>
      </trkpt>
      <trkpt lat="46.20975" lon="4.07054">
        <ele>304.187654</ele>
        <time>2023-09-29T10:14:20.202Z</time>
      </trkpt>
      <trkpt lat="46.2098" lon="4.07042">
        <ele>304.233653</ele>
        <time>2023-09-29T10:14:22.218Z</time>
      </trkpt>
      <trkpt lat="46.20984" lon="4.0703">
        <ele>304.279477</ele>
        <time>2023-09-29T10:14:24.215Z</time>
      </trkpt>
      <trkpt lat="46.20989" lon="4.07018">
        <ele>304.302512</ele>
        <time>2023-09-29T10:14:26.219Z</time>
      </trkpt>
      <trkpt lat="46.20993" lon="4.07005">
        <ele>304.31187</ele>
        <time>2023-09-29T10:14:28.210Z</time>
      </trkpt>
      <trkpt lat="46.20998" lon="4.06994">
        <ele>304.320937</ele>
        <time>2023-09-29T10:14:30.211Z</time>
      </trkpt>
      <trkpt lat="46.21003" lon="4.06981">
        <ele>304.330438</ele>
        <time>2023-09-29T10:14:32.205Z</time>
      </trkpt>
      <trkpt lat="46.21007" lon="4.06969">
        <ele>304.339675</ele>
        <time>2023-09-29T10:14:34.204Z</time>
      </trkpt>
      <trkpt lat="46.21013" lon="4.06958">
        <ele>304.348768</ele>
        <time>2023-09-29T10:14:36.212Z</time>
      </trkpt>
      <trkpt lat="46.21017" lon="4.06946">
        <ele>304.357519</ele>
        <time>2023-09-29T10:14:38.205Z</time>
      </trkpt>
      <trkpt lat="46.21022" lon="4.06934">
        <ele>304.366684</ele>
        <time>2023-09-29T10:14:40.226Z</time>
      </trkpt>
      <trkpt lat="46.21026" lon="4.06922">
        <ele>304.375581</ele>
        <time>2023-09-29T10:14:42.212Z</time>
      </trkpt>
      <trkpt lat="46.21032" lon="4.06911">
        <ele>304.384619</ele>
        <time>2023-09-29T10:14:44.202Z</time>
      </trkpt>
      <trkpt lat="46.21037" lon="4.06899">
        <ele>304.394275</ele>
        <time>2023-09-29T10:14:46.224Z</time>
      </trkpt>
      <trkpt lat="46.21043" lon="4.06888">
        <ele>304.403756</ele>
        <time>2023-09-29T10:14:48.217Z</time>
      </trkpt>
      <trkpt lat="46.21048" lon="4.06875">
        <ele>304.413313</ele>
        <time>2023-09-29T10:14:50.224Z</time>
      </trkpt>
      <trkpt lat="46.21053" lon="4.06863">
        <ele>304.422699</ele>
        <time>2023-09-29T10:14:52.205Z</time>
      </trkpt>
      <trkpt lat="46.21058" lon="4.06851">
        <ele>304.432021</ele>
        <time>2023-09-29T10:14:54.192Z</time>
      </trkpt>
      <trkpt lat="46.21063" lon="4.06838">
        <ele>304.441752</ele>
        <time>2023-09-29T10:14:56.213Z</time>
      </trkpt>
      <trkpt lat="46.21068" lon="4.06826">
        <ele>304.451679</ele>
        <time>2023-09-29T10:14:58.238Z</time>
      </trkpt>
      <trkpt lat="46.21073" lon="4.06814">
        <ele>304.460825</ele>
        <time>2023-09-29T10:15:00.208Z</time>
      </trkpt>
      <trkpt lat="46.21078" lon="4.06802">
        <ele>304.469984</ele>
        <time>2023-09-29T10:15:02.213Z</time>
      </trkpt>
      <trkpt lat="46.21083" lon="4.0679">
        <ele>304.470738</ele>
        <time>2023-09-29T10:15:04.203Z</time>
      </trkpt>
      <trkpt lat="46.21087" lon="4.06778">
        <ele>304.471458</ele>
        <time>2023-09-29T10:15:06.230Z</time>
      </trkpt>
      <trkpt lat="46.21092" lon="4.06767">
        <ele>304.472148</ele>
        <time>2023-09-29T10:15:08.224Z</time>
      </trkpt>
      <trkpt lat="46.21097" lon="4.06755">
        <ele>304.472886</ele>
        <time>2023-09-29T10:15:10.208Z</time>
      </trkpt>
      <trkpt lat="46.21102" lon="4.06743">
        <ele>304.473634</ele>
        <time>2023-09-29T10:15:12.208Z</time>
      </trkpt>
      <trkpt lat="46.21107" lon="4.06732">
        <ele>304.474342</ele>
        <time>2023-09-29T10:15:14.223Z</time>
      </trkpt>
      <trkpt lat="46.21112" lon="4.06719">
        <ele>304.475129</ele>
        <time>2023-09-29T10:15:16.200Z</time>
      </trkpt>
      <trkpt lat="46.21117" lon="4.06706">
        <ele>304.475885</ele>
        <time>2023-09-29T10:15:18.215Z</time>
      </trkpt>
      <trkpt lat="46.21122" lon="4.06694">
        <ele>304.476659</ele>
        <time>2023-09-29T10:15:20.218Z</time>
      </trkpt>
      <trkpt lat="46.21128" lon="4.06681">
        <ele>304.47746</ele>
        <time>2023-09-29T10:15:22.227Z</time>
      </trkpt>
      <trkpt lat="46.21133" lon="4.06668">
        <ele>304.478253</ele>
        <time>2023-09-29T10:15:24.204Z</time>
      </trkpt>
      <trkpt lat="46.21138" lon="4.06656">
        <ele>304.479026</ele>
        <time>2023-09-29T10:15:26.214Z</time>
      </trkpt>
      <trkpt lat="46.21143" lon="4.06644">
        <ele>304.479769</ele>
        <time>2023-09-29T10:15:28.221Z</time>
      </trkpt>
      <trkpt lat="46.21148" lon="4.06632">
        <ele>304.480527</ele>
        <time>2023-09-29T10:15:30.222Z</time>
      </trkpt>
      <trkpt lat="46.21154" lon="4.0662">
        <ele>304.481284</ele>
        <time>2023-09-29T10:15:32.208Z</time>
      </trkpt>
      <trkpt lat="46.21159" lon="4.06608">
        <ele>304.482036</ele>
        <time>2023-09-29T10:15:34.199Z</time>
      </trkpt>
      <trkpt lat="46.21163" lon="4.06595">
        <ele>304.482797</ele>
        <time>2023-09-29T10:15:36.212Z</time>
      </trkpt>
      <trkpt lat="46.21168" lon="4.06582">
        <ele>304.48357</ele>
        <time>2023-09-29T10:15:38.227Z</time>
      </trkpt>
      <trkpt lat="46.21173" lon="4.0657">
        <ele>304.460703</ele>
        <time>2023-09-29T10:15:40.210Z</time>
      </trkpt>
      <trkpt lat="46.21178" lon="4.06558">
        <ele>304.428331</ele>
        <time>2023-09-29T10:15:42.210Z</time>
      </trkpt>
      <trkpt lat="46.21183" lon="4.06546">
        <ele>304.396135</ele>
        <time>2023-09-29T10:15:44.207Z</time>
      </trkpt>
      <trkpt lat="46.21188" lon="4.06534">
        <ele>304.363458</ele>
        <time>2023-09-29T10:15:46.218Z</time>
      </trkpt>
      <trkpt lat="46.21193" lon="4.06522">
        <ele>304.330448</ele>
        <time>2023-09-29T10:15:48.209Z</time>
      </trkpt>
      <trkpt lat="46.21197" lon="4.06509">
        <ele>304.297972</ele>
        <time>2023-09-29T10:15:50.199Z</time>
      </trkpt>
      <trkpt lat="46.21202" lon="4.06497">
        <ele>304.266098</ele>
        <time>2023-09-29T10:15:52.223Z</time>
      </trkpt>
      <trkpt lat="46.21208" lon="4.06486">
        <ele>304.233939</ele>
        <time>2023-09-29T10:15:54.206Z</time>
      </trkpt>
      <trkpt lat="46.21215" lon="4.06469">
        <ele>304.188731</ele>
        <time>2023-09-29T10:15:57.208Z</time>
      </trkpt>
      <trkpt lat="46.2122" lon="4.06458">
        <ele>304.157713</ele>
        <time>2023-09-29T10:15:59.205Z</time>
      </trkpt>
      <trkpt lat="46.21224" lon="4.06446">
        <ele>304.126648</ele>
        <time>2023-09-29T10:16:01.207Z</time>
      </trkpt>
      <trkpt lat="46.21229" lon="4.06435">
        <ele>304.095985</ele>
        <time>2023-09-29T10:16:03.216Z</time>
      </trkpt>
      <trkpt lat="46.21234" lon="4.06423">
        <ele>304.064339</ele>
        <time>2023-09-29T10:16:05.206Z</time>
      </trkpt>
      <trkpt lat="46.21239" lon="4.06412">
        <ele>304.031799</ele>
        <time>2023-09-29T10:16:07.196Z</time>
      </trkpt>
      <trkpt lat="46.21244" lon="4.064">
        <ele>303.999954</ele>
        <time>2023-09-29T10:16:09.198Z</time>
      </trkpt>
      <trkpt lat="46.21249" lon="4.06388">
        <ele>303.967957</ele>
        <time>2023-09-29T10:16:11.218Z</time>
      </trkpt>
      <trkpt lat="46.21255" lon="4.06377">
        <ele>303.936356</ele>
        <time>2023-09-29T10:16:13.217Z</time>
      </trkpt>
      <trkpt lat="46.21261" lon="4.06366">
        <ele>303.903245</ele>
        <time>2023-09-29T10:16:15.217Z</time>
      </trkpt>
      <trkpt lat="46.21266" lon="4.06353">
        <ele>303.873893</ele>
        <time>2023-09-29T10:16:17.213Z</time>
      </trkpt>
      <trkpt lat="46.21272" lon="4.06342">
        <ele>303.852326</ele>
        <time>2023-09-29T10:16:19.228Z</time>
      </trkpt>
      <trkpt lat="46.21278" lon="4.06331">
        <ele>303.830105</ele>
        <time>2023-09-29T10:16:21.219Z</time>
      </trkpt>
      <trkpt lat="46.21283" lon="4.06319">
        <ele>303.808414</ele>
        <time>2023-09-29T10:16:23.227Z</time>
      </trkpt>
      <trkpt lat="46.21288" lon="4.06307">
        <ele>303.78671</ele>
        <time>2023-09-29T10:16:25.216Z</time>
      </trkpt>
      <trkpt lat="46.21294" lon="4.06296">
        <ele>303.764771</ele>
        <time>2023-09-29T10:16:27.208Z</time>
      </trkpt>
      <trkpt lat="46.213" lon="4.06285">
        <ele>303.743314</ele>
        <time>2023-09-29T10:16:29.218Z</time>
      </trkpt>
      <trkpt lat="46.21306" lon="4.06274">
        <ele>303.722239</ele>
        <time>2023-09-29T10:16:31.212Z</time>
      </trkpt>
      <trkpt lat="46.21312" lon="4.06264">
        <ele>303.701006</ele>
        <time>2023-09-29T10:16:33.214Z</time>
      </trkpt>
      <trkpt lat="46.21318" lon="4.06252">
        <ele>303.679329</ele>
        <time>2023-09-29T10:16:35.199Z</time>
      </trkpt>
      <trkpt lat="46.21324" lon="4.06241">
        <ele>303.656739</ele>
        <time>2023-09-29T10:16:37.211Z</time>
      </trkpt>
      <trkpt lat="46.21329" lon="4.06229">
        <ele>303.634936</ele>
        <time>2023-09-29T10:16:39.199Z</time>
      </trkpt>
      <trkpt lat="46.21335" lon="4.06218">
        <ele>303.613129</ele>
        <time>2023-09-29T10:16:41.222Z</time>
      </trkpt>
      <trkpt lat="46.21341" lon="4.06207">
        <ele>303.591345</ele>
        <time>2023-09-29T10:16:43.211Z</time>
      </trkpt>
      <trkpt lat="46.21347" lon="4.06197">
        <ele>303.570088</ele>
        <time>2023-09-29T10:16:45.195Z</time>
      </trkpt>
      <trkpt lat="46.21352" lon="4.06185">
        <ele>303.549016</ele>
        <time>2023-09-29T10:16:47.231Z</time>
      </trkpt>
      <trkpt lat="46.21358" lon="4.06174">
        <ele>303.52745</ele>
        <time>2023-09-29T10:16:49.214Z</time>
      </trkpt>
      <trkpt lat="46.21364" lon="4.06162">
        <ele>303.504626</ele>
        <time>2023-09-29T10:16:51.234Z</time>
      </trkpt>
      <trkpt lat="46.2137" lon="4.0615">
        <ele>303.481288</ele>
        <time>2023-09-29T10:16:53.232Z</time>
      </trkpt>
      <trkpt lat="46.21376" lon="4.06138">
        <ele>303.48876</ele>
        <time>2023-09-29T10:16:55.223Z</time>
      </trkpt>
      <trkpt lat="46.21383" lon="4.06127">
        <ele>303.499225</ele>
        <time>2023-09-29T10:16:57.213Z</time>
      </trkpt>
      <trkpt lat="46.21388" lon="4.06115">
        <ele>303.508977</ele>
        <time>2023-09-29T10:16:59.222Z</time>
      </trkpt>
      <trkpt lat="46.21394" lon="4.06103">
        <ele>303.519082</ele>
        <time>2023-09-29T10:17:01.219Z</time>
      </trkpt>
      <trkpt lat="46.21399" lon="4.06092">
        <ele>303.529009</ele>
        <time>2023-09-29T10:17:03.208Z</time>
      </trkpt>
      <trkpt lat="46.21406" lon="4.0608">
        <ele>303.539371</ele>
        <time>2023-09-29T10:17:05.219Z</time>
      </trkpt>
      <trkpt lat="46.21412" lon="4.06068">
        <ele>303.549765</ele>
        <time>2023-09-29T10:17:07.206Z</time>
      </trkpt>
      <trkpt lat="46.21417" lon="4.06058">
        <ele>303.559242</ele>
        <time>2023-09-29T10:17:09.212Z</time>
      </trkpt>
      <trkpt lat="46.21424" lon="4.06046">
        <ele>303.569714</ele>
        <time>2023-09-29T10:17:11.195Z</time>
      </trkpt>
      <trkpt lat="46.2143" lon="4.06035">
        <ele>303.579539</ele>
        <time>2023-09-29T10:17:13.206Z</time>
      </trkpt>
      <trkpt lat="46.21436" lon="4.06025">
        <ele>303.58919</ele>
        <time>2023-09-29T10:17:15.211Z</time>
      </trkpt>
      <trkpt lat="46.21441" lon="4.06013">
        <ele>303.599291</ele>
        <time>2023-09-29T10:17:17.207Z</time>
      </trkpt>
      <trkpt lat="46.21448" lon="4.06002">
        <ele>303.609297</ele>
        <time>2023-09-29T10:17:19.220Z</time>
      </trkpt>
      <trkpt lat="46.21453" lon="4.05991">
        <ele>303.619059</ele>
        <time>2023-09-29T10:17:21.212Z</time>
      </trkpt>
      <trkpt lat="46.21459" lon="4.0598">
        <ele>303.628934</ele>
        <time>2023-09-29T10:17:23.209Z</time>
      </trkpt>
      <trkpt lat="46.21465" lon="4.05969">
        <ele>303.638355</ele>
        <time>2023-09-29T10:17:25.205Z</time>
      </trkpt>
      <trkpt lat="46.21471" lon="4.05958">
        <ele>303.648518</ele>
        <time>2023-09-29T10:17:27.212Z</time>
      </trkpt>
      <trkpt lat="46.21477" lon="4.05947">
        <ele>303.65824</ele>
        <time>2023-09-29T10:17:29.199Z</time>
      </trkpt>
      <trkpt lat="46.21483" lon="4.05937">
        <ele>303.646636</ele>
        <time>2023-09-29T10:17:31.201Z</time>
      </trkpt>
      <trkpt lat="46.21488" lon="4.05925">
        <ele>303.615371</ele>
        <time>2023-09-29T10:17:33.210Z</time>
      </trkpt>
      <trkpt lat="46.21494" lon="4.05915">
        <ele>303.585022</ele>
        <time>2023-09-29T10:17:35.225Z</time>
      </trkpt>
      <trkpt lat="46.215" lon="4.05903">
        <ele>303.552615</ele>
        <time>2023-09-29T10:17:37.192Z</time>
      </trkpt>
      <trkpt lat="46.21506" lon="4.05892">
        <ele>303.521156</ele>
        <time>2023-09-29T10:17:39.225Z</time>
      </trkpt>
      <trkpt lat="46.21512" lon="4.05881">
        <ele>303.490253</ele>
        <time>2023-09-29T10:17:41.228Z</time>
      </trkpt>
      <trkpt lat="46.21517" lon="4.0587">
        <ele>303.458614</ele>
        <time>2023-09-29T10:17:43.194Z</time>
      </trkpt>
      <trkpt lat="46.21523" lon="4.05859">
        <ele>303.428084</ele>
        <time>2023-09-29T10:17:45.218Z</time>
      </trkpt>
      <trkpt lat="46.21529" lon="4.05847">
        <ele>303.396083</ele>
        <time>2023-09-29T10:17:47.225Z</time>
      </trkpt>
      <trkpt lat="46.21535" lon="4.05836">
        <ele>303.364179</ele>
        <time>2023-09-29T10:17:49.210Z</time>
      </trkpt>
      <trkpt lat="46.21541" lon="4.05825">
        <ele>303.332327</ele>
        <time>2023-09-29T10:17:51.213Z</time>
      </trkpt>
      <trkpt lat="46.21547" lon="4.05814">
        <ele>303.300688</ele>
        <time>2023-09-29T10:17:53.195Z</time>
      </trkpt>
      <trkpt lat="46.21553" lon="4.05802">
        <ele>303.268494</ele>
        <time>2023-09-29T10:17:55.211Z</time>
      </trkpt>
      <trkpt lat="46.21558" lon="4.05791">
        <ele>303.237612</ele>
        <time>2023-09-29T10:17:57.220Z</time>
      </trkpt>
      <trkpt lat="46.21564" lon="4.0578">
        <ele>303.205599</ele>
        <time>2023-09-29T10:17:59.209Z</time>
      </trkpt>
      <trkpt lat="46.2157" lon="4.05768">
        <ele>303.173792</ele>
        <time>2023-09-29T10:18:01.205Z</time>
      </trkpt>
      <trkpt lat="46.21576" lon="4.05757">
        <ele>303.143025</ele>
        <time>2023-09-29T10:18:03.231Z</time>
      </trkpt>
      <trkpt lat="46.21581" lon="4.05747">
        <ele>303.112813</ele>
        <time>2023-09-29T10:18:05.212Z</time>
      </trkpt>
      <trkpt lat="46.21587" lon="4.05736">
        <ele>303.08267</ele>
        <time>2023-09-29T10:18:07.202Z</time>
      </trkpt>
      <trkpt lat="46.21593" lon="4.05725">
        <ele>303.053055</ele>
        <time>2023-09-29T10:18:09.214Z</time>
      </trkpt>
      <trkpt lat="46.21599" lon="4.05714">
        <ele>303.023082</ele>
        <time>2023-09-29T10:18:11.220Z</time>
      </trkpt>
      <trkpt lat="46.21607" lon="4.05699">
        <ele>302.982327</ele>
        <time>2023-09-29T10:18:14.224Z</time>
      </trkpt>
      <trkpt lat="46.21613" lon="4.05688">
        <ele>302.953269</ele>
        <time>2023-09-29T10:18:16.227Z</time>
      </trkpt>
      <trkpt lat="46.21619" lon="4.05676">
        <ele>302.924769</ele>
        <time>2023-09-29T10:18:18.218Z</time>
      </trkpt>
      <trkpt lat="46.21625" lon="4.05665">
        <ele>302.895031</ele>
        <time>2023-09-29T10:18:20.204Z</time>
      </trkpt>
      <trkpt lat="46.2163" lon="4.05654">
        <ele>302.865666</ele>
        <time>2023-09-29T10:18:22.198Z</time>
      </trkpt>
      <trkpt lat="46.21636" lon="4.05642">
        <ele>302.836647</ele>
        <time>2023-09-29T10:18:24.193Z</time>
      </trkpt>
      <trkpt lat="46.21642" lon="4.05631">
        <ele>302.80746</ele>
        <time>2023-09-29T10:18:26.200Z</time>
      </trkpt>
      <trkpt lat="46.21647" lon="4.0562">
        <ele>302.779131</ele>
        <time>2023-09-29T10:18:28.215Z</time>
      </trkpt>
      <trkpt lat="46.21653" lon="4.05608">
        <ele>302.749757</ele>
        <time>2023-09-29T10:18:30.207Z</time>
      </trkpt>
      <trkpt lat="46.21659" lon="4.05597">
        <ele>302.719367</ele>
        <time>2023-09-29T10:18:32.199Z</time>
      </trkpt>
      <trkpt lat="46.21665" lon="4.05587">
        <ele>302.691744</ele>
        <time>2023-09-29T10:18:34.204Z</time>
      </trkpt>
      <trkpt lat="46.21671" lon="4.05576">
        <ele>302.662017</ele>
        <time>2023-09-29T10:18:36.206Z</time>
      </trkpt>
      <trkpt lat="46.21677" lon="4.05565">
        <ele>302.633001</ele>
        <time>2023-09-29T10:18:38.203Z</time>
      </trkpt>
      <trkpt lat="46.21682" lon="4.05553">
        <ele>302.60329</ele>
        <time>2023-09-29T10:18:40.206Z</time>
      </trkpt>
      <trkpt lat="46.21688" lon="4.05542">
        <ele>302.574598</ele>
        <time>2023-09-29T10:18:42.206Z</time>
      </trkpt>
      <trkpt lat="46.21696" lon="4.05526">
        <ele>302.541515</ele>
        <time>2023-09-29T10:18:45.208Z</time>
      </trkpt>
      <trkpt lat="46.21702" lon="4.05515">
        <ele>302.619556</ele>
        <time>2023-09-29T10:18:47.211Z</time>
      </trkpt>
      <trkpt lat="46.21707" lon="4.05504">
        <ele>302.699941</ele>
        <time>2023-09-29T10:18:49.218Z</time>
      </trkpt>
      <trkpt lat="46.21714" lon="4.05492">
        <ele>302.784604</ele>
        <time>2023-09-29T10:18:51.208Z</time>
      </trkpt>
      <trkpt lat="46.21719" lon="4.05481">
        <ele>302.862544</ele>
        <time>2023-09-29T10:18:53.226Z</time>
      </trkpt>
      <trkpt lat="46.21727" lon="4.05467">
        <ele>302.971746</ele>
        <time>2023-09-29T10:18:56.197Z</time>
      </trkpt>
      <trkpt lat="46.21735" lon="4.05451">
        <ele>303.08354</ele>
        <time>2023-09-29T10:18:59.213Z</time>
      </trkpt>
      <trkpt lat="46.21744" lon="4.05437">
        <ele>303.189647</ele>
        <time>2023-09-29T10:19:02.217Z</time>
      </trkpt>
      <trkpt lat="46.21751" lon="4.05423">
        <ele>303.297215</ele>
        <time>2023-09-29T10:19:05.213Z</time>
      </trkpt>
      <trkpt lat="46.21757" lon="4.05412">
        <ele>303.373437</ele>
        <time>2023-09-29T10:19:07.218Z</time>
      </trkpt>
      <trkpt lat="46.21765" lon="4.05399">
        <ele>303.477924</ele>
        <time>2023-09-29T10:19:10.206Z</time>
      </trkpt>
      <trkpt lat="46.21773" lon="4.05383">
        <ele>303.588342</ele>
        <time>2023-09-29T10:19:13.227Z</time>
      </trkpt>
      <trkpt lat="46.21782" lon="4.05369">
        <ele>303.696853</ele>
        <time>2023-09-29T10:19:16.232Z</time>
      </trkpt>
      <trkpt lat="46.2179" lon="4.05355">
        <ele>303.802523</ele>
        <time>2023-09-29T10:19:19.210Z</time>
      </trkpt>
      <trkpt lat="46.21798" lon="4.05342">
        <ele>303.908086</ele>
        <time>2023-09-29T10:19:22.230Z</time>
      </trkpt>
      <trkpt lat="46.21807" lon="4.05328">
        <ele>304.01344</ele>
        <time>2023-09-29T10:19:25.217Z</time>
      </trkpt>
      <trkpt lat="46.21816" lon="4.05315">
        <ele>304.032689</ele>
        <time>2023-09-29T10:19:28.216Z</time>
      </trkpt>
      <trkpt lat="46.21824" lon="4.05299">
        <ele>304.025843</ele>
        <time>2023-09-29T10:19:31.221Z</time>
      </trkpt>
      <trkpt lat="46.21832" lon="4.05286">
        <ele>304.019361</ele>
        <time>2023-09-29T10:19:34.196Z</time>
      </trkpt>
      <trkpt lat="46.21841" lon="4.05272">
        <ele>304.012565</ele>
        <time>2023-09-29T10:19:37.215Z</time>
      </trkpt>
      <trkpt lat="46.2185" lon="4.05258">
        <ele>304.00576</ele>
        <time>2023-09-29T10:19:40.213Z</time>
      </trkpt>
      <trkpt lat="46.21859" lon="4.05245">
        <ele>303.998923</ele>
        <time>2023-09-29T10:19:43.221Z</time>
      </trkpt>
      <trkpt lat="46.21868" lon="4.0523">
        <ele>303.992287</ele>
        <time>2023-09-29T10:19:46.211Z</time>
      </trkpt>
      <trkpt lat="46.21877" lon="4.05218">
        <ele>303.985736</ele>
        <time>2023-09-29T10:19:49.221Z</time>
      </trkpt>
      <trkpt lat="46.21886" lon="4.05203">
        <ele>303.978704</ele>
        <time>2023-09-29T10:19:52.212Z</time>
      </trkpt>
      <trkpt lat="46.21893" lon="4.05194">
        <ele>303.974047</ele>
        <time>2023-09-29T10:19:54.220Z</time>
      </trkpt>
      <trkpt lat="46.21899" lon="4.05185">
        <ele>303.969364</ele>
        <time>2023-09-29T10:19:56.217Z</time>
      </trkpt>
      <trkpt lat="46.21906" lon="4.05176">
        <ele>303.964472</ele>
        <time>2023-09-29T10:19:58.212Z</time>
      </trkpt>
      <trkpt lat="46.21913" lon="4.05166">
        <ele>303.959728</ele>
        <time>2023-09-29T10:20:00.232Z</time>
      </trkpt>
      <trkpt lat="46.21919" lon="4.05157">
        <ele>303.954873</ele>
        <time>2023-09-29T10:20:02.220Z</time>
      </trkpt>
      <trkpt lat="46.21926" lon="4.05147">
        <ele>303.949758</ele>
        <time>2023-09-29T10:20:04.213Z</time>
      </trkpt>
      <trkpt lat="46.21934" lon="4.05137">
        <ele>303.947258</ele>
        <time>2023-09-29T10:20:06.234Z</time>
      </trkpt>
      <trkpt lat="46.2194" lon="4.05127">
        <ele>303.978743</ele>
        <time>2023-09-29T10:20:08.230Z</time>
      </trkpt>
      <trkpt lat="46.21947" lon="4.05118">
        <ele>304.009029</ele>
        <time>2023-09-29T10:20:10.218Z</time>
      </trkpt>
      <trkpt lat="46.21953" lon="4.05109">
        <ele>304.039316</ele>
        <time>2023-09-29T10:20:12.227Z</time>
      </trkpt>
      <trkpt lat="46.21964" lon="4.05096">
        <ele>304.085144</ele>
        <time>2023-09-29T10:20:15.220Z</time>
      </trkpt>
      <trkpt lat="46.21971" lon="4.05086">
        <ele>304.11671</ele>
        <time>2023-09-29T10:20:17.226Z</time>
      </trkpt>
      <trkpt lat="46.21977" lon="4.05077">
        <ele>304.147005</ele>
        <time>2023-09-29T10:20:19.215Z</time>
      </trkpt>
      <trkpt lat="46.21984" lon="4.05069">
        <ele>304.177739</ele>
        <time>2023-09-29T10:20:21.220Z</time>
      </trkpt>
      <trkpt lat="46.21991" lon="4.0506">
        <ele>304.208624</ele>
        <time>2023-09-29T10:20:23.219Z</time>
      </trkpt>
      <trkpt lat="46.21998" lon="4.05051">
        <ele>304.239209</ele>
        <time>2023-09-29T10:20:25.219Z</time>
      </trkpt>
      <trkpt lat="46.22005" lon="4.05043">
        <ele>304.269609</ele>
        <time>2023-09-29T10:20:27.210Z</time>
      </trkpt>
      <trkpt lat="46.22015" lon="4.0503">
        <ele>304.31383</ele>
        <time>2023-09-29T10:20:30.195Z</time>
      </trkpt>
      <trkpt lat="46.22025" lon="4.05019">
        <ele>304.355261</ele>
        <time>2023-09-29T10:20:33.208Z</time>
      </trkpt>
      <trkpt lat="46.22035" lon="4.05009">
        <ele>304.395201</ele>
        <time>2023-09-29T10:20:36.215Z</time>
      </trkpt>
      <trkpt lat="46.22043" lon="4.04996">
        <ele>304.436904</ele>
        <time>2023-09-29T10:20:39.215Z</time>
      </trkpt>
      <trkpt lat="46.22051" lon="4.04988">
        <ele>304.468774</ele>
        <time>2023-09-29T10:20:41.231Z</time>
      </trkpt>
      <trkpt lat="46.22059" lon="4.0498">
        <ele>304.501029</ele>
        <time>2023-09-29T10:20:43.220Z</time>
      </trkpt>
      <trkpt lat="46.22067" lon="4.04971">
        <ele>304.534113</ele>
        <time>2023-09-29T10:20:45.217Z</time>
      </trkpt>
      <trkpt lat="46.22074" lon="4.04962">
        <ele>304.539621</ele>
        <time>2023-09-29T10:20:47.218Z</time>
      </trkpt>
      <trkpt lat="46.22083" lon="4.04953">
        <ele>304.533338</ele>
        <time>2023-09-29T10:20:49.211Z</time>
      </trkpt>
      <trkpt lat="46.2209" lon="4.04944">
        <ele>304.527272</ele>
        <time>2023-09-29T10:20:51.214Z</time>
      </trkpt>
      <trkpt lat="46.22098" lon="4.04934">
        <ele>304.521064</ele>
        <time>2023-09-29T10:20:53.225Z</time>
      </trkpt>
      <trkpt lat="46.22106" lon="4.04925">
        <ele>304.514883</ele>
        <time>2023-09-29T10:20:55.212Z</time>
      </trkpt>
      <trkpt lat="46.22114" lon="4.04916">
        <ele>304.508651</ele>
        <time>2023-09-29T10:20:57.220Z</time>
      </trkpt>
      <trkpt lat="46.22122" lon="4.04907">
        <ele>304.502759</ele>
        <time>2023-09-29T10:20:59.208Z</time>
      </trkpt>
      <trkpt lat="46.2213" lon="4.04899">
        <ele>304.496403</ele>
        <time>2023-09-29T10:21:01.223Z</time>
      </trkpt>
      <trkpt lat="46.22139" lon="4.04891">
        <ele>304.490437</ele>
        <time>2023-09-29T10:21:03.216Z</time>
      </trkpt>
      <trkpt lat="46.22146" lon="4.04883">
        <ele>304.484599</ele>
        <time>2023-09-29T10:21:05.219Z</time>
      </trkpt>
      <trkpt lat="46.22154" lon="4.04874">
        <ele>304.478564</ele>
        <time>2023-09-29T10:21:07.217Z</time>
      </trkpt>
      <trkpt lat="46.22162" lon="4.04865">
        <ele>304.472476</ele>
        <time>2023-09-29T10:21:09.188Z</time>
      </trkpt>
      <trkpt lat="46.22171" lon="4.04857">
        <ele>304.466158</ele>
        <time>2023-09-29T10:21:11.226Z</time>
      </trkpt>
      <trkpt lat="46.22179" lon="4.04848">
        <ele>304.45997</ele>
        <time>2023-09-29T10:21:13.218Z</time>
      </trkpt>
      <trkpt lat="46.22187" lon="4.04839">
        <ele>304.453835</ele>
        <time>2023-09-29T10:21:15.211Z</time>
      </trkpt>
      <trkpt lat="46.22195" lon="4.04831">
        <ele>304.447824</ele>
        <time>2023-09-29T10:21:17.206Z</time>
      </trkpt>
      <trkpt lat="46.22203" lon="4.04823">
        <ele>304.442134</ele>
        <time>2023-09-29T10:21:19.225Z</time>
      </trkpt>
      <trkpt lat="46.22211" lon="4.04815">
        <ele>304.435997</ele>
        <time>2023-09-29T10:21:21.222Z</time>
      </trkpt>
      <trkpt lat="46.22219" lon="4.04807">
        <ele>304.395986</ele>
        <time>2023-09-29T10:21:23.217Z</time>
      </trkpt>
      <trkpt lat="46.22228" lon="4.04798">
        <ele>304.339842</ele>
        <time>2023-09-29T10:21:25.193Z</time>
      </trkpt>
      <trkpt lat="46.22237" lon="4.04789">
        <ele>304.281557</ele>
        <time>2023-09-29T10:21:27.203Z</time>
      </trkpt>
      <trkpt lat="46.22245" lon="4.0478">
        <ele>304.224556</ele>
        <time>2023-09-29T10:21:29.216Z</time>
      </trkpt>
      <trkpt lat="46.22254" lon="4.04771">
        <ele>304.169942</ele>
        <time>2023-09-29T10:21:31.214Z</time>
      </trkpt>
      <trkpt lat="46.22262" lon="4.04763">
        <ele>304.114026</ele>
        <time>2023-09-29T10:21:33.211Z</time>
      </trkpt>
      <trkpt lat="46.2227" lon="4.04752">
        <ele>304.058024</ele>
        <time>2023-09-29T10:21:35.215Z</time>
      </trkpt>
      <trkpt lat="46.22278" lon="4.04743">
        <ele>304.002545</ele>
        <time>2023-09-29T10:21:37.220Z</time>
      </trkpt>
      <trkpt lat="46.22287" lon="4.04735">
        <ele>303.946192</ele>
        <time>2023-09-29T10:21:39.211Z</time>
      </trkpt>
      <trkpt lat="46.22295" lon="4.04726">
        <ele>303.890921</ele>
        <time>2023-09-29T10:21:41.197Z</time>
      </trkpt>
      <trkpt lat="46.22303" lon="4.04717">
        <ele>303.837813</ele>
        <time>2023-09-29T10:21:43.213Z</time>
      </trkpt>
      <trkpt lat="46.22311" lon="4.04709">
        <ele>303.78471</ele>
        <time>2023-09-29T10:21:45.212Z</time>
      </trkpt>
      <trkpt lat="46.2232" lon="4.047">
        <ele>303.730478</ele>
        <time>2023-09-29T10:21:47.216Z</time>
      </trkpt>
      <trkpt lat="46.22328" lon="4.04692">
        <ele>303.678017</ele>
        <time>2023-09-29T10:21:49.223Z</time>
      </trkpt>
      <trkpt lat="46.22336" lon="4.04683">
        <ele>303.624436</ele>
        <time>2023-09-29T10:21:51.209Z</time>
      </trkpt>
      <trkpt lat="46.22344" lon="4.04674">
        <ele>303.570395</ele>
        <time>2023-09-29T10:21:53.230Z</time>
      </trkpt>
      <trkpt lat="46.22352" lon="4.04666">
        <ele>303.518955</ele>
        <time>2023-09-29T10:21:55.213Z</time>
      </trkpt>
      <trkpt lat="46.2236" lon="4.04658">
        <ele>303.481027</ele>
        <time>2023-09-29T10:21:57.213Z</time>
      </trkpt>
      <trkpt lat="46.22368" lon="4.0465">
        <ele>303.499007</ele>
        <time>2023-09-29T10:21:59.234Z</time>
      </trkpt>
      <trkpt lat="46.22376" lon="4.04641">
        <ele>303.517395</ele>
        <time>2023-09-29T10:22:01.207Z</time>
      </trkpt>
      <trkpt lat="46.22383" lon="4.04633">
        <ele>303.535152</ele>
        <time>2023-09-29T10:22:03.220Z</time>
      </trkpt>
      <trkpt lat="46.22391" lon="4.04624">
        <ele>303.553982</ele>
        <time>2023-09-29T10:22:05.187Z</time>
      </trkpt>
      <trkpt lat="46.224" lon="4.04615">
        <ele>303.57379</ele>
        <time>2023-09-29T10:22:07.215Z</time>
      </trkpt>
      <trkpt lat="46.22409" lon="4.04607">
        <ele>303.593403</ele>
        <time>2023-09-29T10:22:09.222Z</time>
      </trkpt>
      <trkpt lat="46.22417" lon="4.046">
        <ele>303.611762</ele>
        <time>2023-09-29T10:22:11.218Z</time>
      </trkpt>
      <trkpt lat="46.22424" lon="4.04591">
        <ele>303.629467</ele>
        <time>2023-09-29T10:22:13.213Z</time>
      </trkpt>
      <trkpt lat="46.22432" lon="4.04582">
        <ele>303.648132</ele>
        <time>2023-09-29T10:22:15.212Z</time>
      </trkpt>
      <trkpt lat="46.22441" lon="4.04574">
        <ele>303.667873</ele>
        <time>2023-09-29T10:22:17.214Z</time>
      </trkpt>
      <trkpt lat="46.22449" lon="4.04565">
        <ele>303.686387</ele>
        <time>2023-09-29T10:22:19.223Z</time>
      </trkpt>
      <trkpt lat="46.22457" lon="4.04557">
        <ele>303.704671</ele>
        <time>2023-09-29T10:22:21.216Z</time>
      </trkpt>
      <trkpt lat="46.22465" lon="4.04549">
        <ele>303.723719</ele>
        <time>2023-09-29T10:22:23.222Z</time>
      </trkpt>
      <trkpt lat="46.22473" lon="4.0454">
        <ele>303.742613</ele>
        <time>2023-09-29T10:22:25.217Z</time>
      </trkpt>
      <trkpt lat="46.22481" lon="4.04533">
        <ele>303.760925</ele>
        <time>2023-09-29T10:22:27.214Z</time>
      </trkpt>
      <trkpt lat="46.22489" lon="4.04524">
        <ele>303.779289</ele>
        <time>2023-09-29T10:22:29.208Z</time>
      </trkpt>
      <trkpt lat="46.22496" lon="4.04516">
        <ele>303.796282</ele>
        <time>2023-09-29T10:22:31.213Z</time>
      </trkpt>
      <trkpt lat="46.22504" lon="4.04508">
        <ele>303.814051</ele>
        <time>2023-09-29T10:22:33.229Z</time>
      </trkpt>
      <trkpt lat="46.22511" lon="4.045">
        <ele>303.857678</ele>
        <time>2023-09-29T10:22:35.206Z</time>
      </trkpt>
      <trkpt lat="46.22519" lon="4.04492">
        <ele>303.901638</ele>
        <time>2023-09-29T10:22:37.215Z</time>
      </trkpt>
      <trkpt lat="46.22527" lon="4.04484">
        <ele>303.949127</ele>
        <time>2023-09-29T10:22:39.211Z</time>
      </trkpt>
      <trkpt lat="46.22538" lon="4.04472">
        <ele>304.014096</ele>
        <time>2023-09-29T10:22:42.220Z</time>
      </trkpt>
      <trkpt lat="46.22546" lon="4.04465">
        <ele>304.058919</ele>
        <time>2023-09-29T10:22:44.204Z</time>
      </trkpt>
      <trkpt lat="46.22553" lon="4.04457">
        <ele>304.102505</ele>
        <time>2023-09-29T10:22:46.219Z</time>
      </trkpt>
      <trkpt lat="46.2256" lon="4.04449">
        <ele>304.14609</ele>
        <time>2023-09-29T10:22:48.215Z</time>
      </trkpt>
      <trkpt lat="46.22571" lon="4.04438">
        <ele>304.210078</ele>
        <time>2023-09-29T10:22:51.212Z</time>
      </trkpt>
      <trkpt lat="46.22578" lon="4.0443">
        <ele>304.253113</ele>
        <time>2023-09-29T10:22:53.213Z</time>
      </trkpt>
      <trkpt lat="46.22587" lon="4.04419">
        <ele>304.312697</ele>
        <time>2023-09-29T10:22:56.208Z</time>
      </trkpt>
      <trkpt lat="46.22598" lon="4.04408">
        <ele>304.374935</ele>
        <time>2023-09-29T10:22:59.209Z</time>
      </trkpt>
      <trkpt lat="46.22605" lon="4.04399">
        <ele>304.419393</ele>
        <time>2023-09-29T10:23:01.206Z</time>
      </trkpt>
      <trkpt lat="46.22612" lon="4.04391">
        <ele>304.462962</ele>
        <time>2023-09-29T10:23:03.209Z</time>
      </trkpt>
      <trkpt lat="46.22623" lon="4.0438">
        <ele>304.526371</ele>
        <time>2023-09-29T10:23:06.218Z</time>
      </trkpt>
      <trkpt lat="46.22631" lon="4.04372">
        <ele>304.57169</ele>
        <time>2023-09-29T10:23:08.215Z</time>
      </trkpt>
      <trkpt lat="46.22639" lon="4.04365">
        <ele>304.615899</ele>
        <time>2023-09-29T10:23:10.219Z</time>
      </trkpt>
      <trkpt lat="46.22648" lon="4.04354">
        <ele>304.674154</ele>
        <time>2023-09-29T10:23:13.224Z</time>
      </trkpt>
      <trkpt lat="46.22658" lon="4.04343">
        <ele>304.530349</ele>
        <time>2023-09-29T10:23:16.190Z</time>
      </trkpt>
      <trkpt lat="46.22669" lon="4.04333">
        <ele>304.369362</ele>
        <time>2023-09-29T10:23:19.217Z</time>
      </trkpt>
      <trkpt lat="46.22677" lon="4.04326">
        <ele>304.259535</ele>
        <time>2023-09-29T10:23:21.227Z</time>
      </trkpt>
      <trkpt lat="46.22687" lon="4.04315">
        <ele>304.0995</ele>
        <time>2023-09-29T10:23:24.199Z</time>
      </trkpt>
      <trkpt lat="46.22698" lon="4.04303">
        <ele>303.934831</ele>
        <time>2023-09-29T10:23:27.214Z</time>
      </trkpt>
      <trkpt lat="46.22706" lon="4.04295">
        <ele>303.821986</ele>
        <time>2023-09-29T10:23:29.211Z</time>
      </trkpt>
      <trkpt lat="46.22717" lon="4.04284">
        <ele>303.655512</ele>
        <time>2023-09-29T10:23:32.212Z</time>
      </trkpt>
      <trkpt lat="46.22725" lon="4.04277">
        <ele>303.539585</ele>
        <time>2023-09-29T10:23:34.221Z</time>
      </trkpt>
      <trkpt lat="46.22736" lon="4.04266">
        <ele>303.378544</ele>
        <time>2023-09-29T10:23:37.210Z</time>
      </trkpt>
      <trkpt lat="46.22744" lon="4.04259">
        <ele>303.262817</ele>
        <time>2023-09-29T10:23:39.210Z</time>
      </trkpt>
      <trkpt lat="46.22751" lon="4.04252">
        <ele>303.15092</ele>
        <time>2023-09-29T10:23:41.191Z</time>
      </trkpt>
      <trkpt lat="46.22759" lon="4.04245">
        <ele>303.033867</ele>
        <time>2023-09-29T10:23:43.212Z</time>
      </trkpt>
      <trkpt lat="46.22767" lon="4.04237">
        <ele>302.915448</ele>
        <time>2023-09-29T10:23:45.221Z</time>
      </trkpt>
      <trkpt lat="46.22775" lon="4.0423">
        <ele>302.802697</ele>
        <time>2023-09-29T10:23:47.235Z</time>
      </trkpt>
      <trkpt lat="46.22784" lon="4.04224">
        <ele>302.681896</ele>
        <time>2023-09-29T10:23:49.215Z</time>
      </trkpt>
      <trkpt lat="46.22793" lon="4.04218">
        <ele>302.564795</ele>
        <time>2023-09-29T10:23:51.217Z</time>
      </trkpt>
      <trkpt lat="46.22801" lon="4.04211">
        <ele>302.46874</ele>
        <time>2023-09-29T10:23:53.211Z</time>
      </trkpt>
      <trkpt lat="46.2281" lon="4.04204">
        <ele>302.454749</ele>
        <time>2023-09-29T10:23:55.213Z</time>
      </trkpt>
      <trkpt lat="46.22819" lon="4.04198">
        <ele>302.440283</ele>
        <time>2023-09-29T10:23:57.216Z</time>
      </trkpt>
      <trkpt lat="46.22828" lon="4.04191">
        <ele>302.425363</ele>
        <time>2023-09-29T10:23:59.215Z</time>
      </trkpt>
      <trkpt lat="46.22836" lon="4.04184">
        <ele>302.411278</ele>
        <time>2023-09-29T10:24:01.213Z</time>
      </trkpt>
      <trkpt lat="46.22846" lon="4.04179">
        <ele>302.395954</ele>
        <time>2023-09-29T10:24:03.212Z</time>
      </trkpt>
      <trkpt lat="46.22855" lon="4.04173">
        <ele>302.381112</ele>
        <time>2023-09-29T10:24:05.228Z</time>
      </trkpt>
      <trkpt lat="46.22865" lon="4.04167">
        <ele>302.365345</ele>
        <time>2023-09-29T10:24:07.216Z</time>
      </trkpt>
      <trkpt lat="46.22875" lon="4.04162">
        <ele>302.350773</ele>
        <time>2023-09-29T10:24:09.209Z</time>
      </trkpt>
      <trkpt lat="46.22884" lon="4.04157">
        <ele>302.336935</ele>
        <time>2023-09-29T10:24:11.205Z</time>
      </trkpt>
      <trkpt lat="46.22894" lon="4.04152">
        <ele>302.321521</ele>
        <time>2023-09-29T10:24:13.210Z</time>
      </trkpt>
      <trkpt lat="46.22903" lon="4.04147">
        <ele>302.306582</ele>
        <time>2023-09-29T10:24:15.210Z</time>
      </trkpt>
      <trkpt lat="46.22913" lon="4.04142">
        <ele>302.29103</ele>
        <time>2023-09-29T10:24:17.210Z</time>
      </trkpt>
      <trkpt lat="46.22923" lon="4.04138">
        <ele>302.275968</ele>
        <time>2023-09-29T10:24:19.217Z</time>
      </trkpt>
      <trkpt lat="46.22932" lon="4.04135">
        <ele>302.262343</ele>
        <time>2023-09-29T10:24:21.235Z</time>
      </trkpt>
      <trkpt lat="46.22942" lon="4.04131">
        <ele>302.248172</ele>
        <time>2023-09-29T10:24:23.222Z</time>
      </trkpt>
      <trkpt lat="46.22951" lon="4.04127">
        <ele>302.233868</ele>
        <time>2023-09-29T10:24:25.210Z</time>
      </trkpt>
      <trkpt lat="46.2296" lon="4.04125">
        <ele>302.220307</ele>
        <time>2023-09-29T10:24:27.208Z</time>
      </trkpt>
      <trkpt lat="46.2297" lon="4.04122">
        <ele>302.197465</ele>
        <time>2023-09-29T10:24:29.212Z</time>
      </trkpt>
      <trkpt lat="46.2298" lon="4.04119">
        <ele>302.149821</ele>
        <time>2023-09-29T10:24:31.210Z</time>
      </trkpt>
      <trkpt lat="46.2299" lon="4.04117">
        <ele>302.103142</ele>
        <time>2023-09-29T10:24:33.215Z</time>
      </trkpt>
      <trkpt lat="46.23" lon="4.04115">
        <ele>302.054565</ele>
        <time>2023-09-29T10:24:35.214Z</time>
      </trkpt>
      <trkpt lat="46.2301" lon="4.04113">
        <ele>302.008893</ele>
        <time>2023-09-29T10:24:37.219Z</time>
      </trkpt>
      <trkpt lat="46.23019" lon="4.04111">
        <ele>301.964406</ele>
        <time>2023-09-29T10:24:39.209Z</time>
      </trkpt>
      <trkpt lat="46.23029" lon="4.04108">
        <ele>301.918329</ele>
        <time>2023-09-29T10:24:41.230Z</time>
      </trkpt>
      <trkpt lat="46.23039" lon="4.04105">
        <ele>301.870637</ele>
        <time>2023-09-29T10:24:43.207Z</time>
      </trkpt>
      <trkpt lat="46.23048" lon="4.04103">
        <ele>301.824783</ele>
        <time>2023-09-29T10:24:45.208Z</time>
      </trkpt>
      <trkpt lat="46.23057" lon="4.04101">
        <ele>301.781434</ele>
        <time>2023-09-29T10:24:47.218Z</time>
      </trkpt>
      <trkpt lat="46.23067" lon="4.04099">
        <ele>301.735872</ele>
        <time>2023-09-29T10:24:49.232Z</time>
      </trkpt>
      <trkpt lat="46.23076" lon="4.04098">
        <ele>301.692591</ele>
        <time>2023-09-29T10:24:51.213Z</time>
      </trkpt>
      <trkpt lat="46.23085" lon="4.04095">
        <ele>301.649681</ele>
        <time>2023-09-29T10:24:53.218Z</time>
      </trkpt>
      <trkpt lat="46.23095" lon="4.04093">
        <ele>301.60268</ele>
        <time>2023-09-29T10:24:55.211Z</time>
      </trkpt>
      <trkpt lat="46.23105" lon="4.0409">
        <ele>301.556603</ele>
        <time>2023-09-29T10:24:57.210Z</time>
      </trkpt>
      <trkpt lat="46.23114" lon="4.04089">
        <ele>301.511513</ele>
        <time>2023-09-29T10:24:59.212Z</time>
      </trkpt>
      <trkpt lat="46.23125" lon="4.04087">
        <ele>301.463274</ele>
        <time>2023-09-29T10:25:01.196Z</time>
      </trkpt>
      <trkpt lat="46.23134" lon="4.04085">
        <ele>301.418324</ele>
        <time>2023-09-29T10:25:03.214Z</time>
      </trkpt>
      <trkpt lat="46.23144" lon="4.04083">
        <ele>301.372028</ele>
        <time>2023-09-29T10:25:05.212Z</time>
      </trkpt>
      <trkpt lat="46.23158" lon="4.0408">
        <ele>301.340699</ele>
        <time>2023-09-29T10:25:08.221Z</time>
      </trkpt>
      <trkpt lat="46.23167" lon="4.04078">
        <ele>301.320903</ele>
        <time>2023-09-29T10:25:10.214Z</time>
      </trkpt>
      <trkpt lat="46.2318" lon="4.04074">
        <ele>301.293924</ele>
        <time>2023-09-29T10:25:13.218Z</time>
      </trkpt>
      <trkpt lat="46.23189" lon="4.04071">
        <ele>301.274837</ele>
        <time>2023-09-29T10:25:15.210Z</time>
      </trkpt>
      <trkpt lat="46.23198" lon="4.04069">
        <ele>301.256122</ele>
        <time>2023-09-29T10:25:17.212Z</time>
      </trkpt>
      <trkpt lat="46.23211" lon="4.04067">
        <ele>301.230434</ele>
        <time>2023-09-29T10:25:20.207Z</time>
      </trkpt>
      <trkpt lat="46.23223" lon="4.04065">
        <ele>301.206025</ele>
        <time>2023-09-29T10:25:23.200Z</time>
      </trkpt>
      <trkpt lat="46.23235" lon="4.04061">
        <ele>301.180763</ele>
        <time>2023-09-29T10:25:26.210Z</time>
      </trkpt>
      <trkpt lat="46.23248" lon="4.04059">
        <ele>301.15449</ele>
        <time>2023-09-29T10:25:29.198Z</time>
      </trkpt>
      <trkpt lat="46.2326" lon="4.04056">
        <ele>301.12854</ele>
        <time>2023-09-29T10:25:32.195Z</time>
      </trkpt>
      <trkpt lat="46.23273" lon="4.04053">
        <ele>301.101216</ele>
        <time>2023-09-29T10:25:35.215Z</time>
      </trkpt>
      <trkpt lat="46.23282" lon="4.0405">
        <ele>301.082169</ele>
        <time>2023-09-29T10:25:37.217Z</time>
      </trkpt>
      <trkpt lat="46.23292" lon="4.04048">
        <ele>301.0631</ele>
        <time>2023-09-29T10:25:39.213Z</time>
      </trkpt>
      <trkpt lat="46.23301" lon="4.04046">
        <ele>301.043328</ele>
        <time>2023-09-29T10:25:41.213Z</time>
      </trkpt>
      <trkpt lat="46.2331" lon="4.04044">
        <ele>301.024362</ele>
        <time>2023-09-29T10:25:43.209Z</time>
      </trkpt>
      <trkpt lat="46.2332" lon="4.04041">
        <ele>301.004677</ele>
        <time>2023-09-29T10:25:45.226Z</time>
      </trkpt>
      <trkpt lat="46.23329" lon="4.04039">
        <ele>300.949125</ele>
        <time>2023-09-29T10:25:47.229Z</time>
      </trkpt>
      <trkpt lat="46.23339" lon="4.04037">
        <ele>300.873408</ele>
        <time>2023-09-29T10:25:49.214Z</time>
      </trkpt>
      <trkpt lat="46.23348" lon="4.04035">
        <ele>300.799415</ele>
        <time>2023-09-29T10:25:51.231Z</time>
      </trkpt>
      <trkpt lat="46.23358" lon="4.04034">
        <ele>300.724598</ele>
        <time>2023-09-29T10:25:53.212Z</time>
      </trkpt>
      <trkpt lat="46.23368" lon="4.04031">
        <ele>300.648709</ele>
        <time>2023-09-29T10:25:55.208Z</time>
      </trkpt>
      <trkpt lat="46.23378" lon="4.04027">
        <ele>300.569869</ele>
        <time>2023-09-29T10:25:57.210Z</time>
      </trkpt>
      <trkpt lat="46.23388" lon="4.04024">
        <ele>300.487616</ele>
        <time>2023-09-29T10:25:59.231Z</time>
      </trkpt>
      <trkpt lat="46.23398" lon="4.04022">
        <ele>300.413743</ele>
        <time>2023-09-29T10:26:01.232Z</time>
      </trkpt>
      <trkpt lat="46.23407" lon="4.04019">
        <ele>300.339773</ele>
        <time>2023-09-29T10:26:03.211Z</time>
      </trkpt>
      <trkpt lat="46.23417" lon="4.04017">
        <ele>300.266349</ele>
        <time>2023-09-29T10:26:05.207Z</time>
      </trkpt>
      <trkpt lat="46.23426" lon="4.04015">
        <ele>300.190631</ele>
        <time>2023-09-29T10:26:07.212Z</time>
      </trkpt>
      <trkpt lat="46.23436" lon="4.04012">
        <ele>300.113165</ele>
        <time>2023-09-29T10:26:09.212Z</time>
      </trkpt>
      <trkpt lat="46.23447" lon="4.04011">
        <ele>300.033854</ele>
        <time>2023-09-29T10:26:11.215Z</time>
      </trkpt>
      <trkpt lat="46.23457" lon="4.04008">
        <ele>299.95537</ele>
        <time>2023-09-29T10:26:13.214Z</time>
      </trkpt>
      <trkpt lat="46.23467" lon="4.04005">
        <ele>299.876592</ele>
        <time>2023-09-29T10:26:15.213Z</time>
      </trkpt>
      <trkpt lat="46.23476" lon="4.04002">
        <ele>299.802331</ele>
        <time>2023-09-29T10:26:17.194Z</time>
      </trkpt>
      <trkpt lat="46.23486" lon="4.03997">
        <ele>299.726483</ele>
        <time>2023-09-29T10:26:19.233Z</time>
      </trkpt>
      <trkpt lat="46.23495" lon="4.03993">
        <ele>299.651285</ele>
        <time>2023-09-29T10:26:21.215Z</time>
      </trkpt>
      <trkpt lat="46.23504" lon="4.0399">
        <ele>299.643833</ele>
        <time>2023-09-29T10:26:23.190Z</time>
      </trkpt>
      <trkpt lat="46.23514" lon="4.03985">
        <ele>299.681301</ele>
        <time>2023-09-29T10:26:25.231Z</time>
      </trkpt>
      <trkpt lat="46.23524" lon="4.0398">
        <ele>299.71903</ele>
        <time>2023-09-29T10:26:27.228Z</time>
      </trkpt>
      <trkpt lat="46.23534" lon="4.03975">
        <ele>299.755738</ele>
        <time>2023-09-29T10:26:29.215Z</time>
      </trkpt>
      <trkpt lat="46.23543" lon="4.03971">
        <ele>299.789581</ele>
        <time>2023-09-29T10:26:31.187Z</time>
      </trkpt>
      <trkpt lat="46.23553" lon="4.03967">
        <ele>299.826732</ele>
        <time>2023-09-29T10:26:33.215Z</time>
      </trkpt>
      <trkpt lat="46.23562" lon="4.03962">
        <ele>299.863018</ele>
        <time>2023-09-29T10:26:35.228Z</time>
      </trkpt>
      <trkpt lat="46.23571" lon="4.03957">
        <ele>299.89798</ele>
        <time>2023-09-29T10:26:37.232Z</time>
      </trkpt>
      <trkpt lat="46.2358" lon="4.03953">
        <ele>299.931065</ele>
        <time>2023-09-29T10:26:39.217Z</time>
      </trkpt>
      <trkpt lat="46.23589" lon="4.03948">
        <ele>299.964826</ele>
        <time>2023-09-29T10:26:41.207Z</time>
      </trkpt>
      <trkpt lat="46.23598" lon="4.03945">
        <ele>299.998262</ele>
        <time>2023-09-29T10:26:43.215Z</time>
      </trkpt>
      <trkpt lat="46.23608" lon="4.03941">
        <ele>300.033968</ele>
        <time>2023-09-29T10:26:45.220Z</time>
      </trkpt>
      <trkpt lat="46.23617" lon="4.03936">
        <ele>300.071127</ele>
        <time>2023-09-29T10:26:47.217Z</time>
      </trkpt>
      <trkpt lat="46.23627" lon="4.03931">
        <ele>300.105812</ele>
        <time>2023-09-29T10:26:49.223Z</time>
      </trkpt>
      <trkpt lat="46.23636" lon="4.03927">
        <ele>300.139869</ele>
        <time>2023-09-29T10:26:51.211Z</time>
      </trkpt>
      <trkpt lat="46.23645" lon="4.03923">
        <ele>300.174567</ele>
        <time>2023-09-29T10:26:53.214Z</time>
      </trkpt>
      <trkpt lat="46.23654" lon="4.03919">
        <ele>300.207181</ele>
        <time>2023-09-29T10:26:55.215Z</time>
      </trkpt>
      <trkpt lat="46.23667" lon="4.03917">
        <ele>300.253967</ele>
        <time>2023-09-29T10:26:58.212Z</time>
      </trkpt>
      <trkpt lat="46.23679" lon="4.03914">
        <ele>300.263452</ele>
        <time>2023-09-29T10:27:01.211Z</time>
      </trkpt>
      <trkpt lat="46.2369" lon="4.0391">
        <ele>300.257505</ele>
        <time>2023-09-29T10:27:04.201Z</time>
      </trkpt>
      <trkpt lat="46.23704" lon="4.03908">
        <ele>300.251029</ele>
        <time>2023-09-29T10:27:07.214Z</time>
      </trkpt>
      <trkpt lat="46.23716" lon="4.03904">
        <ele>300.244638</ele>
        <time>2023-09-29T10:27:10.208Z</time>
      </trkpt>
      <trkpt lat="46.2373" lon="4.03903">
        <ele>300.237971</ele>
        <time>2023-09-29T10:27:13.209Z</time>
      </trkpt>
      <trkpt lat="46.2374" lon="4.03902">
        <ele>300.233228</ele>
        <time>2023-09-29T10:27:15.196Z</time>
      </trkpt>
      <trkpt lat="46.23749" lon="4.03901">
        <ele>300.228666</ele>
        <time>2023-09-29T10:27:17.196Z</time>
      </trkpt>
      <trkpt lat="46.23759" lon="4.03901">
        <ele>300.223926</ele>
        <time>2023-09-29T10:27:19.206Z</time>
      </trkpt>
      <trkpt lat="46.23769" lon="4.03901">
        <ele>300.218942</ele>
        <time>2023-09-29T10:27:21.213Z</time>
      </trkpt>
      <trkpt lat="46.23779" lon="4.03901">
        <ele>300.213958</ele>
        <time>2023-09-29T10:27:23.212Z</time>
      </trkpt>
      <trkpt lat="46.23789" lon="4.03901">
        <ele>300.209118</ele>
        <time>2023-09-29T10:27:25.212Z</time>
      </trkpt>
      <trkpt lat="46.23799" lon="4.03902">
        <ele>300.204369</ele>
        <time>2023-09-29T10:27:27.212Z</time>
      </trkpt>
      <trkpt lat="46.23808" lon="4.03903">
        <ele>300.199703</ele>
        <time>2023-09-29T10:27:29.234Z</time>
      </trkpt>
      <trkpt lat="46.23818" lon="4.03905">
        <ele>300.19504</ele>
        <time>2023-09-29T10:27:31.214Z</time>
      </trkpt>
      <trkpt lat="46.23828" lon="4.03906">
        <ele>300.190213</ele>
        <time>2023-09-29T10:27:33.215Z</time>
      </trkpt>
      <trkpt lat="46.23838" lon="4.03908">
        <ele>300.185281</ele>
        <time>2023-09-29T10:27:35.199Z</time>
      </trkpt>
      <trkpt lat="46.23847" lon="4.03911">
        <ele>300.180387</ele>
        <time>2023-09-29T10:27:37.203Z</time>
      </trkpt>
      <trkpt lat="46.23857" lon="4.03914">
        <ele>300.263303</ele>
        <time>2023-09-29T10:27:39.222Z</time>
      </trkpt>
      <trkpt lat="46.23866" lon="4.03917">
        <ele>300.362946</ele>
        <time>2023-09-29T10:27:41.210Z</time>
      </trkpt>
      <trkpt lat="46.23876" lon="4.03921">
        <ele>300.46493</ele>
        <time>2023-09-29T10:27:43.216Z</time>
      </trkpt>
      <trkpt lat="46.23885" lon="4.03924">
        <ele>300.564269</ele>
        <time>2023-09-29T10:27:45.203Z</time>
      </trkpt>
      <trkpt lat="46.23894" lon="4.03928">
        <ele>300.665251</ele>
        <time>2023-09-29T10:27:47.216Z</time>
      </trkpt>
      <trkpt lat="46.23904" lon="4.03932">
        <ele>300.771509</ele>
        <time>2023-09-29T10:27:49.227Z</time>
      </trkpt>
      <trkpt lat="46.23914" lon="4.03936">
        <ele>300.875393</ele>
        <time>2023-09-29T10:27:51.215Z</time>
      </trkpt>
      <trkpt lat="46.23924" lon="4.0394">
        <ele>300.980085</ele>
        <time>2023-09-29T10:27:53.227Z</time>
      </trkpt>
      <trkpt lat="46.23933" lon="4.03944">
        <ele>301.079315</ele>
        <time>2023-09-29T10:27:55.221Z</time>
      </trkpt>
      <trkpt lat="46.23941" lon="4.03951">
        <ele>301.174467</ele>
        <time>2023-09-29T10:27:57.210Z</time>
      </trkpt>
      <trkpt lat="46.23949" lon="4.03956">
        <ele>301.268198</ele>
        <time>2023-09-29T10:27:59.223Z</time>
      </trkpt>
      <trkpt lat="46.23958" lon="4.03961">
        <ele>301.36874</ele>
        <time>2023-09-29T10:28:01.230Z</time>
      </trkpt>
      <trkpt lat="46.23967" lon="4.03968">
        <ele>301.465926</ele>
        <time>2023-09-29T10:28:03.216Z</time>
      </trkpt>
      <trkpt lat="46.23979" lon="4.03976">
        <ele>301.608793</ele>
        <time>2023-09-29T10:28:06.219Z</time>
      </trkpt>
      <trkpt lat="46.23992" lon="4.03985">
        <ele>301.752277</ele>
        <time>2023-09-29T10:28:09.229Z</time>
      </trkpt>
      <trkpt lat="46.24" lon="4.03991">
        <ele>301.849336</ele>
        <time>2023-09-29T10:28:11.234Z</time>
      </trkpt>
      <trkpt lat="46.24008" lon="4.03998">
        <ele>301.943316</ele>
        <time>2023-09-29T10:28:13.223Z</time>
      </trkpt>
      <trkpt lat="46.24016" lon="4.04006">
        <ele>302.032586</ele>
        <time>2023-09-29T10:28:15.215Z</time>
      </trkpt>
      <trkpt lat="46.24024" lon="4.04014">
        <ele>302.00644</ele>
        <time>2023-09-29T10:28:17.223Z</time>
      </trkpt>
      <trkpt lat="46.24033" lon="4.04021">
        <ele>301.980786</ele>
        <time>2023-09-29T10:28:19.211Z</time>
      </trkpt>
      <trkpt lat="46.24041" lon="4.04029">
        <ele>301.954277</ele>
        <time>2023-09-29T10:28:21.215Z</time>
      </trkpt>
      <trkpt lat="46.24049" lon="4.04037">
        <ele>301.927568</ele>
        <time>2023-09-29T10:28:23.214Z</time>
      </trkpt>
      <trkpt lat="46.24057" lon="4.04046">
        <ele>301.902855</ele>
        <time>2023-09-29T10:28:25.212Z</time>
      </trkpt>
      <trkpt lat="46.24064" lon="4.04054">
        <ele>301.877677</ele>
        <time>2023-09-29T10:28:27.209Z</time>
      </trkpt>
      <trkpt lat="46.24072" lon="4.04062">
        <ele>301.852373</ele>
        <time>2023-09-29T10:28:29.211Z</time>
      </trkpt>
      <trkpt lat="46.2408" lon="4.04072">
        <ele>301.825054</ele>
        <time>2023-09-29T10:28:31.203Z</time>
      </trkpt>
      <trkpt lat="46.24087" lon="4.04081">
        <ele>301.798776</ele>
        <time>2023-09-29T10:28:33.201Z</time>
      </trkpt>
      <trkpt lat="46.24095" lon="4.04091">
        <ele>301.771374</ele>
        <time>2023-09-29T10:28:35.198Z</time>
      </trkpt>
      <trkpt lat="46.24102" lon="4.04101">
        <ele>301.744974</ele>
        <time>2023-09-29T10:28:37.217Z</time>
      </trkpt>
      <trkpt lat="46.2411" lon="4.04111">
        <ele>301.7168</ele>
        <time>2023-09-29T10:28:39.206Z</time>
      </trkpt>
      <trkpt lat="46.24117" lon="4.04121">
        <ele>301.691013</ele>
        <time>2023-09-29T10:28:41.221Z</time>
      </trkpt>
      <trkpt lat="46.24123" lon="4.04132">
        <ele>301.664729</ele>
        <time>2023-09-29T10:28:43.227Z</time>
      </trkpt>
      <trkpt lat="46.2413" lon="4.04142">
        <ele>301.639339</ele>
        <time>2023-09-29T10:28:45.223Z</time>
      </trkpt>
      <trkpt lat="46.24137" lon="4.04151">
        <ele>301.614416</ele>
        <time>2023-09-29T10:28:47.226Z</time>
      </trkpt>
      <trkpt lat="46.24144" lon="4.04166">
        <ele>301.580697</ele>
        <time>2023-09-29T10:28:50.208Z</time>
      </trkpt>
      <trkpt lat="46.24152" lon="4.04178">
        <ele>301.562085</ele>
        <time>2023-09-29T10:28:53.210Z</time>
      </trkpt>
      <trkpt lat="46.24159" lon="4.04191">
        <ele>301.578084</ele>
        <time>2023-09-29T10:28:56.216Z</time>
      </trkpt>
      <trkpt lat="46.24165" lon="4.04202">
        <ele>301.59228</ele>
        <time>2023-09-29T10:28:59.209Z</time>
      </trkpt>
      <trkpt lat="46.24172" lon="4.04216">
        <ele>301.609021</ele>
        <time>2023-09-29T10:29:03.210Z</time>
      </trkpt>
      <trkpt lat="46.2418" lon="4.04226">
        <ele>301.624291</ele>
        <time>2023-09-29T10:29:07.213Z</time>
      </trkpt>
      <trkpt lat="46.24187" lon="4.04237">
        <ele>301.638539</ele>
        <time>2023-09-29T10:29:11.214Z</time>
      </trkpt>
      <trkpt lat="46.24192" lon="4.04251">
        <ele>301.654273</ele>
        <time>2023-09-29T10:29:15.208Z</time>
      </trkpt>
      <trkpt lat="46.24198" lon="4.04264">
        <ele>301.669113</ele>
        <time>2023-09-29T10:29:18.207Z</time>
      </trkpt>
      <trkpt lat="46.24205" lon="4.04276">
        <ele>301.684727</ele>
        <time>2023-09-29T10:29:21.193Z</time>
      </trkpt>
      <trkpt lat="46.24212" lon="4.0429">
        <ele>301.701923</ele>
        <time>2023-09-29T10:29:24.216Z</time>
      </trkpt>
      <trkpt lat="46.24221" lon="4.04304">
        <ele>301.720912</ele>
        <time>2023-09-29T10:29:27.210Z</time>
      </trkpt>
      <trkpt lat="46.24229" lon="4.04318">
        <ele>301.738908</ele>
        <time>2023-09-29T10:29:30.213Z</time>
      </trkpt>
      <trkpt lat="46.24238" lon="4.0433">
        <ele>301.75677</ele>
        <time>2023-09-29T10:29:33.224Z</time>
      </trkpt>
      <trkpt lat="46.24246" lon="4.04344">
        <ele>301.774085</ele>
        <time>2023-09-29T10:29:36.218Z</time>
      </trkpt>
      <trkpt lat="46.24252" lon="4.04354">
        <ele>301.787045</ele>
        <time>2023-09-29T10:29:38.213Z</time>
      </trkpt>
      <trkpt lat="46.2426" lon="4.04368">
        <ele>301.805244</ele>
        <time>2023-09-29T10:29:41.220Z</time>
      </trkpt>
      <trkpt lat="46.24269" lon="4.04381">
        <ele>301.752638</ele>
        <time>2023-09-29T10:29:44.227Z</time>
      </trkpt>
      <trkpt lat="46.24279" lon="4.04393">
        <ele>301.629727</ele>
        <time>2023-09-29T10:29:47.210Z</time>
      </trkpt>
      <trkpt lat="46.24289" lon="4.04404">
        <ele>301.511464</ele>
        <time>2023-09-29T10:29:50.218Z</time>
      </trkpt>
      <trkpt lat="46.24298" lon="4.04416">
        <ele>301.395988</ele>
        <time>2023-09-29T10:29:53.206Z</time>
      </trkpt>
      <trkpt lat="46.24308" lon="4.04428">
        <ele>301.278493</ele>
        <time>2023-09-29T10:29:56.215Z</time>
      </trkpt>
      <trkpt lat="46.24318" lon="4.04439">
        <ele>301.160978</ele>
        <time>2023-09-29T10:29:59.221Z</time>
      </trkpt>
      <trkpt lat="46.24325" lon="4.04447">
        <ele>301.076256</ele>
        <time>2023-09-29T10:30:01.222Z</time>
      </trkpt>
      <trkpt lat="46.24335" lon="4.04459">
        <ele>300.947597</ele>
        <time>2023-09-29T10:30:04.198Z</time>
      </trkpt>
      <trkpt lat="46.24343" lon="4.04468">
        <ele>300.86052</ele>
        <time>2023-09-29T10:30:06.221Z</time>
      </trkpt>
      <trkpt lat="46.2435" lon="4.04475">
        <ele>300.775257</ele>
        <time>2023-09-29T10:30:08.203Z</time>
      </trkpt>
      <trkpt lat="46.24358" lon="4.04482">
        <ele>300.687362</ele>
        <time>2023-09-29T10:30:10.223Z</time>
      </trkpt>
      <trkpt lat="46.24369" lon="4.04493">
        <ele>300.562624</ele>
        <time>2023-09-29T10:30:13.210Z</time>
      </trkpt>
      <trkpt lat="46.24377" lon="4.04501">
        <ele>300.470701</ele>
        <time>2023-09-29T10:30:15.225Z</time>
      </trkpt>
      <trkpt lat="46.24384" lon="4.04509">
        <ele>300.383735</ele>
        <time>2023-09-29T10:30:17.223Z</time>
      </trkpt>
      <trkpt lat="46.24393" lon="4.04514">
        <ele>300.298927</ele>
        <time>2023-09-29T10:30:19.206Z</time>
      </trkpt>
      <trkpt lat="46.244" lon="4.04522">
        <ele>300.210399</ele>
        <time>2023-09-29T10:30:21.224Z</time>
      </trkpt>
      <trkpt lat="46.24412" lon="4.04531">
        <ele>300.098593</ele>
        <time>2023-09-29T10:30:24.225Z</time>
      </trkpt>
      <trkpt lat="46.24424" lon="4.04539">
        <ele>300.022276</ele>
        <time>2023-09-29T10:30:27.214Z</time>
      </trkpt>
      <trkpt lat="46.24432" lon="4.04545">
        <ele>299.968041</ele>
        <time>2023-09-29T10:30:29.225Z</time>
      </trkpt>
      <trkpt lat="46.2444" lon="4.04551">
        <ele>299.912669</ele>
        <time>2023-09-29T10:30:31.200Z</time>
      </trkpt>
      <trkpt lat="46.24449" lon="4.04557">
        <ele>299.855679</ele>
        <time>2023-09-29T10:30:33.200Z</time>
      </trkpt>
      <trkpt lat="46.24458" lon="4.04563">
        <ele>299.799724</ele>
        <time>2023-09-29T10:30:35.219Z</time>
      </trkpt>
      <trkpt lat="46.24467" lon="4.04567">
        <ele>299.744137</ele>
        <time>2023-09-29T10:30:37.218Z</time>
      </trkpt>
      <trkpt lat="46.24475" lon="4.04572">
        <ele>299.688833</ele>
        <time>2023-09-29T10:30:39.223Z</time>
      </trkpt>
      <trkpt lat="46.24488" lon="4.04579">
        <ele>299.608211</ele>
        <time>2023-09-29T10:30:42.198Z</time>
      </trkpt>
      <trkpt lat="46.24497" lon="4.04584">
        <ele>299.552026</ele>
        <time>2023-09-29T10:30:44.199Z</time>
      </trkpt>
      <trkpt lat="46.24505" lon="4.04589">
        <ele>299.498377</ele>
        <time>2023-09-29T10:30:46.216Z</time>
      </trkpt>
      <trkpt lat="46.24518" lon="4.04595">
        <ele>299.419583</ele>
        <time>2023-09-29T10:30:49.208Z</time>
      </trkpt>
      <trkpt lat="46.24527" lon="4.04598">
        <ele>299.365174</ele>
        <time>2023-09-29T10:30:51.214Z</time>
      </trkpt>
      <trkpt lat="46.24536" lon="4.04601">
        <ele>299.310895</ele>
        <time>2023-09-29T10:30:53.211Z</time>
      </trkpt>
      <trkpt lat="46.24545" lon="4.04605">
        <ele>299.256954</ele>
        <time>2023-09-29T10:30:55.217Z</time>
      </trkpt>
      <trkpt lat="46.24554" lon="4.04608">
        <ele>299.200932</ele>
        <time>2023-09-29T10:30:57.227Z</time>
      </trkpt>
      <trkpt lat="46.24563" lon="4.04611">
        <ele>299.144291</ele>
        <time>2023-09-29T10:30:59.222Z</time>
      </trkpt>
      <trkpt lat="46.24573" lon="4.04613">
        <ele>299.088385</ele>
        <time>2023-09-29T10:31:01.212Z</time>
      </trkpt>
      <trkpt lat="46.24582" lon="4.04616">
        <ele>299.056313</ele>
        <time>2023-09-29T10:31:03.203Z</time>
      </trkpt>
      <trkpt lat="46.24591" lon="4.04618">
        <ele>299.051963</ele>
        <time>2023-09-29T10:31:05.234Z</time>
      </trkpt>
      <trkpt lat="46.246" lon="4.0462">
        <ele>299.047521</ele>
        <time>2023-09-29T10:31:07.214Z</time>
      </trkpt>
      <trkpt lat="46.24609" lon="4.04622">
        <ele>299.043066</ele>
        <time>2023-09-29T10:31:09.226Z</time>
      </trkpt>
      <trkpt lat="46.24619" lon="4.04623">
        <ele>299.038717</ele>
        <time>2023-09-29T10:31:11.217Z</time>
      </trkpt>
      <trkpt lat="46.24628" lon="4.04625">
        <ele>299.034371</ele>
        <time>2023-09-29T10:31:13.215Z</time>
      </trkpt>
      <trkpt lat="46.24641" lon="4.04627">
        <ele>299.027965</ele>
        <time>2023-09-29T10:31:16.200Z</time>
      </trkpt>
      <trkpt lat="46.2465" lon="4.04626">
        <ele>299.023538</ele>
        <time>2023-09-29T10:31:18.206Z</time>
      </trkpt>
      <trkpt lat="46.24659" lon="4.04625">
        <ele>299.019192</ele>
        <time>2023-09-29T10:31:20.206Z</time>
      </trkpt>
      <trkpt lat="46.24671" lon="4.04628">
        <ele>299.013457</ele>
        <time>2023-09-29T10:31:23.210Z</time>
      </trkpt>
      <trkpt lat="46.24683" lon="4.04626">
        <ele>299.007777</ele>
        <time>2023-09-29T10:31:26.215Z</time>
      </trkpt>
      <trkpt lat="46.24696" lon="4.04628">
        <ele>299.001621</ele>
        <time>2023-09-29T10:31:29.201Z</time>
      </trkpt>
      <trkpt lat="46.24709" lon="4.04628">
        <ele>298.995538</ele>
        <time>2023-09-29T10:31:32.201Z</time>
      </trkpt>
      <trkpt lat="46.24718" lon="4.04627">
        <ele>298.991242</ele>
        <time>2023-09-29T10:31:34.211Z</time>
      </trkpt>
      <trkpt lat="46.24731" lon="4.04624">
        <ele>298.985065</ele>
        <time>2023-09-29T10:31:37.211Z</time>
      </trkpt>
      <trkpt lat="46.24744" lon="4.04623">
        <ele>298.97878</ele>
        <time>2023-09-29T10:31:40.207Z</time>
      </trkpt>
      <trkpt lat="46.24757" lon="4.0462">
        <ele>298.968306</ele>
        <time>2023-09-29T10:31:43.208Z</time>
      </trkpt>
      <trkpt lat="46.24766" lon="4.04617">
        <ele>298.920055</ele>
        <time>2023-09-29T10:31:45.218Z</time>
      </trkpt>
      <trkpt lat="46.24779" lon="4.04614">
        <ele>298.853131</ele>
        <time>2023-09-29T10:31:48.207Z</time>
      </trkpt>
      <trkpt lat="46.24791" lon="4.0461">
        <ele>298.788718</ele>
        <time>2023-09-29T10:31:51.209Z</time>
      </trkpt>
      <trkpt lat="46.24803" lon="4.04608">
        <ele>298.726653</ele>
        <time>2023-09-29T10:31:54.199Z</time>
      </trkpt>
      <trkpt lat="46.24813" lon="4.04603">
        <ele>298.672404</ele>
        <time>2023-09-29T10:31:57.203Z</time>
      </trkpt>
      <trkpt lat="46.24822" lon="4.04599">
        <ele>298.622042</ele>
        <time>2023-09-29T10:32:00.208Z</time>
      </trkpt>
      <trkpt lat="46.24834" lon="4.04594">
        <ele>298.560629</ele>
        <time>2023-09-29T10:32:04.199Z</time>
      </trkpt>
      <trkpt lat="46.24844" lon="4.04591">
        <ele>298.506091</ele>
        <time>2023-09-29T10:32:08.225Z</time>
      </trkpt>
      <trkpt lat="46.24857" lon="4.0458">
        <ele>298.428045</ele>
        <time>2023-09-29T10:33:48.230Z</time>
      </trkpt>
      <trkpt lat="46.24867" lon="4.04575">
        <ele>298.374607</ele>
        <time>2023-09-29T10:33:54.238Z</time>
      </trkpt>
      <trkpt lat="46.24876" lon="4.04571">
        <ele>298.32424</ele>
        <time>2023-09-29T10:33:58.211Z</time>
      </trkpt>
      <trkpt lat="46.24886" lon="4.04566">
        <ele>298.272098</ele>
        <time>2023-09-29T10:34:01.211Z</time>
      </trkpt>
      <trkpt lat="46.24896" lon="4.04562">
        <ele>298.218862</ele>
        <time>2023-09-29T10:34:04.204Z</time>
      </trkpt>
      <trkpt lat="46.24906" lon="4.04557">
        <ele>298.163674</ele>
        <time>2023-09-29T10:34:07.201Z</time>
      </trkpt>
      <trkpt lat="46.24918" lon="4.04553">
        <ele>298.098496</ele>
        <time>2023-09-29T10:34:10.206Z</time>
      </trkpt>
      <trkpt lat="46.24928" lon="4.04547">
        <ele>298.043245</ele>
        <time>2023-09-29T10:34:13.203Z</time>
      </trkpt>
      <trkpt lat="46.24938" lon="4.04541">
        <ele>298.065051</ele>
        <time>2023-09-29T10:34:16.202Z</time>
      </trkpt>
      <trkpt lat="46.2495" lon="4.04537">
        <ele>298.091235</ele>
        <time>2023-09-29T10:34:19.221Z</time>
      </trkpt>
      <trkpt lat="46.24962" lon="4.04532">
        <ele>298.117646</ele>
        <time>2023-09-29T10:34:22.211Z</time>
      </trkpt>
      <trkpt lat="46.24975" lon="4.04525">
        <ele>298.144784</ele>
        <time>2023-09-29T10:34:25.216Z</time>
      </trkpt>
      <trkpt lat="46.24987" lon="4.04519">
        <ele>298.170805</ele>
        <time>2023-09-29T10:34:28.204Z</time>
      </trkpt>
      <trkpt lat="46.24999" lon="4.04513">
        <ele>298.19793</ele>
        <time>2023-09-29T10:34:31.209Z</time>
      </trkpt>
      <trkpt lat="46.25011" lon="4.04507">
        <ele>298.223961</ele>
        <time>2023-09-29T10:34:34.206Z</time>
      </trkpt>
      <trkpt lat="46.25023" lon="4.04502">
        <ele>298.250298</ele>
        <time>2023-09-29T10:34:37.196Z</time>
      </trkpt>
      <trkpt lat="46.25032" lon="4.04497">
        <ele>298.268809</ele>
        <time>2023-09-29T10:34:39.207Z</time>
      </trkpt>
      <trkpt lat="46.25041" lon="4.04493">
        <ele>298.288094</ele>
        <time>2023-09-29T10:34:41.229Z</time>
      </trkpt>
      <trkpt lat="46.25053" lon="4.04486">
        <ele>298.315859</ele>
        <time>2023-09-29T10:34:44.185Z</time>
      </trkpt>
      <trkpt lat="46.25062" lon="4.04482">
        <ele>298.335182</ele>
        <time>2023-09-29T10:34:46.226Z</time>
      </trkpt>
      <trkpt lat="46.25071" lon="4.04479">
        <ele>298.35403</ele>
        <time>2023-09-29T10:34:48.242Z</time>
      </trkpt>
      <trkpt lat="46.2508" lon="4.04475">
        <ele>298.373084</ele>
        <time>2023-09-29T10:34:50.219Z</time>
      </trkpt>
      <trkpt lat="46.25088" lon="4.0447">
        <ele>298.392134</ele>
        <time>2023-09-29T10:34:52.207Z</time>
      </trkpt>
      <trkpt lat="46.25097" lon="4.04466">
        <ele>298.411342</ele>
        <time>2023-09-29T10:34:54.220Z</time>
      </trkpt>
      <trkpt lat="46.25106" lon="4.04462">
        <ele>298.402567</ele>
        <time>2023-09-29T10:34:56.231Z</time>
      </trkpt>
      <trkpt lat="46.25115" lon="4.04458">
        <ele>298.389942</ele>
        <time>2023-09-29T10:34:58.213Z</time>
      </trkpt>
      <trkpt lat="46.25124" lon="4.04453">
        <ele>298.377145</ele>
        <time>2023-09-29T10:35:00.210Z</time>
      </trkpt>
      <trkpt lat="46.25133" lon="4.04449">
        <ele>298.363991</ele>
        <time>2023-09-29T10:35:02.222Z</time>
      </trkpt>
      <trkpt lat="46.25142" lon="4.04444">
        <ele>298.350973</ele>
        <time>2023-09-29T10:35:04.218Z</time>
      </trkpt>
      <trkpt lat="46.25152" lon="4.0444">
        <ele>298.337819</ele>
        <time>2023-09-29T10:35:06.196Z</time>
      </trkpt>
      <trkpt lat="46.25161" lon="4.04435">
        <ele>298.324065</ele>
        <time>2023-09-29T10:35:08.206Z</time>
      </trkpt>
      <trkpt lat="46.2517" lon="4.04431">
        <ele>298.31081</ele>
        <time>2023-09-29T10:35:10.191Z</time>
      </trkpt>
      <trkpt lat="46.25179" lon="4.04427">
        <ele>298.297814</ele>
        <time>2023-09-29T10:35:12.219Z</time>
      </trkpt>
      <trkpt lat="46.25189" lon="4.04422">
        <ele>298.284472</ele>
        <time>2023-09-29T10:35:14.223Z</time>
      </trkpt>
      <trkpt lat="46.25198" lon="4.04418">
        <ele>298.271388</ele>
        <time>2023-09-29T10:35:16.220Z</time>
      </trkpt>
      <trkpt lat="46.25207" lon="4.04414">
        <ele>298.259023</ele>
        <time>2023-09-29T10:35:18.220Z</time>
      </trkpt>
      <trkpt lat="46.25215" lon="4.0441">
        <ele>298.246227</ele>
        <time>2023-09-29T10:35:20.215Z</time>
      </trkpt>
      <trkpt lat="46.25225" lon="4.04405">
        <ele>298.233143</ele>
        <time>2023-09-29T10:35:22.298Z</time>
      </trkpt>
      <trkpt lat="46.25234" lon="4.04401">
        <ele>298.220018</ele>
        <time>2023-09-29T10:35:24.199Z</time>
      </trkpt>
      <trkpt lat="46.25243" lon="4.04396">
        <ele>298.206743</ele>
        <time>2023-09-29T10:35:26.207Z</time>
      </trkpt>
      <trkpt lat="46.25252" lon="4.04393">
        <ele>298.194134</ele>
        <time>2023-09-29T10:35:28.222Z</time>
      </trkpt>
      <trkpt lat="46.25261" lon="4.04388">
        <ele>298.181178</ele>
        <time>2023-09-29T10:35:30.203Z</time>
      </trkpt>
      <trkpt lat="46.2527" lon="4.04383">
        <ele>298.169056</ele>
        <time>2023-09-29T10:35:32.208Z</time>
      </trkpt>
      <trkpt lat="46.25279" lon="4.04379">
        <ele>298.168489</ele>
        <time>2023-09-29T10:35:34.206Z</time>
      </trkpt>
      <trkpt lat="46.25291" lon="4.04372">
        <ele>298.167671</ele>
        <time>2023-09-29T10:35:37.223Z</time>
      </trkpt>
      <trkpt lat="46.253" lon="4.04368">
        <ele>298.167111</ele>
        <time>2023-09-29T10:35:39.220Z</time>
      </trkpt>
      <trkpt lat="46.25309" lon="4.04364">
        <ele>298.16655</ele>
        <time>2023-09-29T10:35:41.220Z</time>
      </trkpt>
      <trkpt lat="46.25318" lon="4.0436">
        <ele>298.165966</ele>
        <time>2023-09-29T10:35:43.214Z</time>
      </trkpt>
      <trkpt lat="46.25326" lon="4.04356">
        <ele>298.165417</ele>
        <time>2023-09-29T10:35:45.209Z</time>
      </trkpt>
      <trkpt lat="46.25339" lon="4.04351">
        <ele>298.164625</ele>
        <time>2023-09-29T10:35:48.183Z</time>
      </trkpt>
      <trkpt lat="46.25351" lon="4.04344">
        <ele>298.163815</ele>
        <time>2023-09-29T10:35:51.214Z</time>
      </trkpt>
      <trkpt lat="46.25363" lon="4.04339">
        <ele>298.163064</ele>
        <time>2023-09-29T10:35:54.208Z</time>
      </trkpt>
      <trkpt lat="46.25375" lon="4.04333">
        <ele>298.162275</ele>
        <time>2023-09-29T10:35:57.188Z</time>
      </trkpt>
      <trkpt lat="46.25388" lon="4.04328">
        <ele>298.161463</ele>
        <time>2023-09-29T10:36:00.227Z</time>
      </trkpt>
      <trkpt lat="46.25397" lon="4.04323">
        <ele>298.160893</ele>
        <time>2023-09-29T10:36:02.210Z</time>
      </trkpt>
      <trkpt lat="46.25409" lon="4.04318">
        <ele>298.160095</ele>
        <time>2023-09-29T10:36:05.211Z</time>
      </trkpt>
      <trkpt lat="46.25421" lon="4.04312">
        <ele>298.159317</ele>
        <time>2023-09-29T10:36:08.206Z</time>
      </trkpt>
      <trkpt lat="46.25434" lon="4.04306">
        <ele>298.158506</ele>
        <time>2023-09-29T10:36:11.234Z</time>
      </trkpt>
      <trkpt lat="46.25445" lon="4.043">
        <ele>298.145207</ele>
        <time>2023-09-29T10:36:14.204Z</time>
      </trkpt>
      <trkpt lat="46.25457" lon="4.04295">
        <ele>298.116057</ele>
        <time>2023-09-29T10:36:17.221Z</time>
      </trkpt>
      <trkpt lat="46.25469" lon="4.0429">
        <ele>298.085613</ele>
        <time>2023-09-29T10:36:20.207Z</time>
      </trkpt>
      <trkpt lat="46.25481" lon="4.04283">
        <ele>298.054844</ele>
        <time>2023-09-29T10:36:23.200Z</time>
      </trkpt>
      <trkpt lat="46.25493" lon="4.04278">
        <ele>298.025816</ele>
        <time>2023-09-29T10:36:26.194Z</time>
      </trkpt>
      <trkpt lat="46.25505" lon="4.04273">
        <ele>297.99656</ele>
        <time>2023-09-29T10:36:29.210Z</time>
      </trkpt>
      <trkpt lat="46.25514" lon="4.04269">
        <ele>297.974385</ele>
        <time>2023-09-29T10:36:31.215Z</time>
      </trkpt>
      <trkpt lat="46.25527" lon="4.04264">
        <ele>297.942478</ele>
        <time>2023-09-29T10:36:34.207Z</time>
      </trkpt>
      <trkpt lat="46.25535" lon="4.04259">
        <ele>297.920324</ele>
        <time>2023-09-29T10:36:36.215Z</time>
      </trkpt>
      <trkpt lat="46.25548" lon="4.04255">
        <ele>297.889058</ele>
        <time>2023-09-29T10:36:39.214Z</time>
      </trkpt>
      <trkpt lat="46.25561" lon="4.04251">
        <ele>297.8574</ele>
        <time>2023-09-29T10:36:42.218Z</time>
      </trkpt>
      <trkpt lat="46.25574" lon="4.04245">
        <ele>297.826492</ele>
        <time>2023-09-29T10:36:45.204Z</time>
      </trkpt>
      <trkpt lat="46.25586" lon="4.0424">
        <ele>297.794539</ele>
        <time>2023-09-29T10:36:48.211Z</time>
      </trkpt>
      <trkpt lat="46.25599" lon="4.04235">
        <ele>297.762772</ele>
        <time>2023-09-29T10:36:51.211Z</time>
      </trkpt>
      <trkpt lat="46.25612" lon="4.04231">
        <ele>297.73247</ele>
        <time>2023-09-29T10:36:54.215Z</time>
      </trkpt>
      <trkpt lat="46.25621" lon="4.04228">
        <ele>297.702371</ele>
        <time>2023-09-29T10:36:56.205Z</time>
      </trkpt>
      <trkpt lat="46.25634" lon="4.04224">
        <ele>297.658226</ele>
        <time>2023-09-29T10:36:59.223Z</time>
      </trkpt>
      <trkpt lat="46.25643" lon="4.04221">
        <ele>297.626985</ele>
        <time>2023-09-29T10:37:01.222Z</time>
      </trkpt>
      <trkpt lat="46.25656" lon="4.04217">
        <ele>297.58224</ele>
        <time>2023-09-29T10:37:04.186Z</time>
      </trkpt>
      <trkpt lat="46.25666" lon="4.04214">
        <ele>297.550856</ele>
        <time>2023-09-29T10:37:06.212Z</time>
      </trkpt>
      <trkpt lat="46.25675" lon="4.04212">
        <ele>297.519919</ele>
        <time>2023-09-29T10:37:08.222Z</time>
      </trkpt>
      <trkpt lat="46.25684" lon="4.0421">
        <ele>297.488288</ele>
        <time>2023-09-29T10:37:10.211Z</time>
      </trkpt>
      <trkpt lat="46.25694" lon="4.04206">
        <ele>297.455603</ele>
        <time>2023-09-29T10:37:12.217Z</time>
      </trkpt>
      <trkpt lat="46.25707" lon="4.04203">
        <ele>297.409973</ele>
        <time>2023-09-29T10:37:15.235Z</time>
      </trkpt>
      <trkpt lat="46.25716" lon="4.042">
        <ele>297.378957</ele>
        <time>2023-09-29T10:37:17.218Z</time>
      </trkpt>
      <trkpt lat="46.25729" lon="4.04198">
        <ele>297.33673</ele>
        <time>2023-09-29T10:37:20.204Z</time>
      </trkpt>
      <trkpt lat="46.25741" lon="4.04195">
        <ele>297.295281</ele>
        <time>2023-09-29T10:37:23.215Z</time>
      </trkpt>
      <trkpt lat="46.25754" lon="4.04193">
        <ele>297.252003</ele>
        <time>2023-09-29T10:37:26.227Z</time>
      </trkpt>
      <trkpt lat="46.25767" lon="4.0419">
        <ele>297.209345</ele>
        <time>2023-09-29T10:37:29.213Z</time>
      </trkpt>
      <trkpt lat="46.25776" lon="4.04188">
        <ele>297.177788</ele>
        <time>2023-09-29T10:37:31.210Z</time>
      </trkpt>
      <trkpt lat="46.2579" lon="4.04185">
        <ele>297.133978</ele>
        <time>2023-09-29T10:37:34.211Z</time>
      </trkpt>
      <trkpt lat="46.25799" lon="4.04183">
        <ele>297.101486</ele>
        <time>2023-09-29T10:37:36.235Z</time>
      </trkpt>
      <trkpt lat="46.25811" lon="4.0418">
        <ele>297.055887</ele>
        <time>2023-09-29T10:37:39.218Z</time>
      </trkpt>
      <trkpt lat="46.25824" lon="4.04178">
        <ele>297.009484</ele>
        <time>2023-09-29T10:37:42.201Z</time>
      </trkpt>
      <trkpt lat="46.25833" lon="4.04176">
        <ele>296.977299</ele>
        <time>2023-09-29T10:37:44.211Z</time>
      </trkpt>
      <trkpt lat="46.25846" lon="4.04173">
        <ele>296.930334</ele>
        <time>2023-09-29T10:37:47.210Z</time>
      </trkpt>
      <trkpt lat="46.25859" lon="4.0417">
        <ele>296.883451</ele>
        <time>2023-09-29T10:37:50.220Z</time>
      </trkpt>
      <trkpt lat="46.25872" lon="4.04167">
        <ele>296.836571</ele>
        <time>2023-09-29T10:37:53.230Z</time>
      </trkpt>
      <trkpt lat="46.25885" lon="4.04164">
        <ele>296.789421</ele>
        <time>2023-09-29T10:37:56.217Z</time>
      </trkpt>
      <trkpt lat="46.25899" lon="4.04162">
        <ele>296.740971</ele>
        <time>2023-09-29T10:37:59.225Z</time>
      </trkpt>
      <trkpt lat="46.25912" lon="4.0416">
        <ele>296.693919</ele>
        <time>2023-09-29T10:38:02.210Z</time>
      </trkpt>
      <trkpt lat="46.25921" lon="4.04158">
        <ele>296.661549</ele>
        <time>2023-09-29T10:38:04.203Z</time>
      </trkpt>
      <trkpt lat="46.2593" lon="4.04156">
        <ele>296.627807</ele>
        <time>2023-09-29T10:38:06.206Z</time>
      </trkpt>
      <trkpt lat="46.25944" lon="4.04153">
        <ele>296.580657</ele>
        <time>2023-09-29T10:38:09.214Z</time>
      </trkpt>
      <trkpt lat="46.25957" lon="4.0415">
        <ele>296.533777</ele>
        <time>2023-09-29T10:38:12.210Z</time>
      </trkpt>
      <trkpt lat="46.25969" lon="4.04147">
        <ele>296.49818</ele>
        <time>2023-09-29T10:38:15.208Z</time>
      </trkpt>
      <trkpt lat="46.25978" lon="4.04144">
        <ele>296.5195</ele>
        <time>2023-09-29T10:38:17.229Z</time>
      </trkpt>
      <trkpt lat="46.25988" lon="4.04143">
        <ele>296.540602</ele>
        <time>2023-09-29T10:38:19.212Z</time>
      </trkpt>
      <trkpt lat="46.26" lon="4.04141">
        <ele>296.5702</ele>
        <time>2023-09-29T10:38:22.213Z</time>
      </trkpt>
      <trkpt lat="46.26013" lon="4.04138">
        <ele>296.599507</ele>
        <time>2023-09-29T10:38:25.196Z</time>
      </trkpt>
      <trkpt lat="46.26022" lon="4.04136">
        <ele>296.62096</ele>
        <time>2023-09-29T10:38:27.207Z</time>
      </trkpt>
      <trkpt lat="46.26031" lon="4.04134">
        <ele>296.641706</ele>
        <time>2023-09-29T10:38:29.220Z</time>
      </trkpt>
      <trkpt lat="46.2604" lon="4.04132">
        <ele>296.663914</ele>
        <time>2023-09-29T10:38:31.210Z</time>
      </trkpt>
      <trkpt lat="46.26054" lon="4.04129">
        <ele>296.695476</ele>
        <time>2023-09-29T10:38:34.214Z</time>
      </trkpt>
      <trkpt lat="46.26063" lon="4.04128">
        <ele>296.71733</ele>
        <time>2023-09-29T10:38:36.211Z</time>
      </trkpt>
      <trkpt lat="46.26076" lon="4.04126">
        <ele>296.747081</ele>
        <time>2023-09-29T10:38:39.206Z</time>
      </trkpt>
      <trkpt lat="46.26086" lon="4.04124">
        <ele>296.770101</ele>
        <time>2023-09-29T10:38:41.215Z</time>
      </trkpt>
      <trkpt lat="46.26096" lon="4.04122">
        <ele>296.794161</ele>
        <time>2023-09-29T10:38:43.213Z</time>
      </trkpt>
      <trkpt lat="46.26106" lon="4.04121">
        <ele>296.817084</ele>
        <time>2023-09-29T10:38:45.240Z</time>
      </trkpt>
      <trkpt lat="46.26117" lon="4.04119">
        <ele>296.84127</ele>
        <time>2023-09-29T10:38:47.212Z</time>
      </trkpt>
      <trkpt lat="46.26127" lon="4.04117">
        <ele>296.866342</ele>
        <time>2023-09-29T10:38:49.212Z</time>
      </trkpt>
      <trkpt lat="46.26138" lon="4.04115">
        <ele>296.891386</ele>
        <time>2023-09-29T10:38:51.211Z</time>
      </trkpt>
      <trkpt lat="46.26148" lon="4.04114">
        <ele>296.91627</ele>
        <time>2023-09-29T10:38:53.225Z</time>
      </trkpt>
      <trkpt lat="46.26158" lon="4.04112">
        <ele>296.945119</ele>
        <time>2023-09-29T10:38:55.214Z</time>
      </trkpt>
      <trkpt lat="46.26168" lon="4.0411">
        <ele>296.972528</ele>
        <time>2023-09-29T10:38:57.226Z</time>
      </trkpt>
      <trkpt lat="46.26178" lon="4.04107">
        <ele>296.999612</ele>
        <time>2023-09-29T10:38:59.203Z</time>
      </trkpt>
      <trkpt lat="46.26188" lon="4.04105">
        <ele>297.028156</ele>
        <time>2023-09-29T10:39:01.211Z</time>
      </trkpt>
      <trkpt lat="46.26197" lon="4.04103">
        <ele>297.054735</ele>
        <time>2023-09-29T10:39:03.216Z</time>
      </trkpt>
      <trkpt lat="46.26206" lon="4.04101">
        <ele>297.081066</ele>
        <time>2023-09-29T10:39:05.210Z</time>
      </trkpt>
      <trkpt lat="46.26217" lon="4.04099">
        <ele>297.109489</ele>
        <time>2023-09-29T10:39:07.194Z</time>
      </trkpt>
      <trkpt lat="46.26229" lon="4.04094">
        <ele>297.145398</ele>
        <time>2023-09-29T10:39:10.193Z</time>
      </trkpt>
      <trkpt lat="46.26237" lon="4.04085">
        <ele>297.175032</ele>
        <time>2023-09-29T10:39:13.208Z</time>
      </trkpt>
      <trkpt lat="46.26245" lon="4.04078">
        <ele>297.200031</ele>
        <time>2023-09-29T10:39:16.195Z</time>
      </trkpt>
      <trkpt lat="46.26253" lon="4.04089">
        <ele>297.231112</ele>
        <time>2023-09-29T10:39:25.208Z</time>
      </trkpt>
      <trkpt lat="46.26263" lon="4.04087">
        <ele>297.261622</ele>
        <time>2023-09-29T10:39:30.202Z</time>
      </trkpt>
      <trkpt lat="46.26273" lon="4.04087">
        <ele>297.289319</ele>
        <time>2023-09-29T10:39:33.218Z</time>
      </trkpt>
      <trkpt lat="46.26284" lon="4.04084">
        <ele>297.318445</ele>
        <time>2023-09-29T10:39:36.214Z</time>
      </trkpt>
      <trkpt lat="46.26295" lon="4.04082">
        <ele>297.350618</ele>
        <time>2023-09-29T10:39:39.218Z</time>
      </trkpt>
      <trkpt lat="46.26306" lon="4.04081">
        <ele>297.38071</ele>
        <time>2023-09-29T10:39:42.222Z</time>
      </trkpt>
      <trkpt lat="46.26318" lon="4.04078">
        <ele>297.411689</ele>
        <time>2023-09-29T10:39:45.206Z</time>
      </trkpt>
      <trkpt lat="46.26329" lon="4.04075">
        <ele>297.388778</ele>
        <time>2023-09-29T10:39:48.206Z</time>
      </trkpt>
      <trkpt lat="46.2634" lon="4.04066">
        <ele>297.365529</ele>
        <time>2023-09-29T10:39:51.196Z</time>
      </trkpt>
      <trkpt lat="46.26347" lon="4.04051">
        <ele>297.340912</ele>
        <time>2023-09-29T10:39:54.225Z</time>
      </trkpt>
      <trkpt lat="46.26353" lon="4.04039">
        <ele>297.320688</ele>
        <time>2023-09-29T10:39:57.215Z</time>
      </trkpt>
      <trkpt lat="46.2636" lon="4.04027">
        <ele>297.300375</ele>
        <time>2023-09-29T10:40:00.217Z</time>
      </trkpt>
      <trkpt lat="46.26368" lon="4.04019">
        <ele>297.281585</ele>
        <time>2023-09-29T10:40:03.206Z</time>
      </trkpt>
      <trkpt lat="46.26378" lon="4.0402">
        <ele>297.261621</ele>
        <time>2023-09-29T10:40:06.234Z</time>
      </trkpt>
      <trkpt lat="46.26389" lon="4.04026">
        <ele>297.238221</ele>
        <time>2023-09-29T10:40:10.200Z</time>
      </trkpt>
      <trkpt lat="46.26399" lon="4.04031">
        <ele>297.218644</ele>
        <time>2023-09-29T10:40:13.222Z</time>
      </trkpt>
      <trkpt lat="46.26409" lon="4.04036">
        <ele>297.197341</ele>
        <time>2023-09-29T10:40:16.211Z</time>
      </trkpt>
      <trkpt lat="46.26422" lon="4.04038">
        <ele>297.173301</ele>
        <time>2023-09-29T10:40:19.218Z</time>
      </trkpt>
      <trkpt lat="46.26431" lon="4.04036">
        <ele>297.155398</ele>
        <time>2023-09-29T10:40:21.212Z</time>
      </trkpt>
      <trkpt lat="46.26441" lon="4.04035">
        <ele>297.136821</ele>
        <time>2023-09-29T10:40:23.224Z</time>
      </trkpt>
      <trkpt lat="46.2645" lon="4.04033">
        <ele>297.117999</ele>
        <time>2023-09-29T10:40:25.214Z</time>
      </trkpt>
      <trkpt lat="46.2646" lon="4.0403">
        <ele>297.098863</ele>
        <time>2023-09-29T10:40:27.210Z</time>
      </trkpt>
      <trkpt lat="46.26469" lon="4.04028">
        <ele>297.080561</ele>
        <time>2023-09-29T10:40:29.186Z</time>
      </trkpt>
      <trkpt lat="46.26479" lon="4.04028">
        <ele>297.070423</ele>
        <time>2023-09-29T10:40:31.190Z</time>
      </trkpt>
      <trkpt lat="46.26489" lon="4.04025">
        <ele>297.097259</ele>
        <time>2023-09-29T10:40:33.209Z</time>
      </trkpt>
      <trkpt lat="46.26499" lon="4.04022">
        <ele>297.124203</ele>
        <time>2023-09-29T10:40:35.223Z</time>
      </trkpt>
      <trkpt lat="46.26509" lon="4.0402">
        <ele>297.152126</ele>
        <time>2023-09-29T10:40:37.220Z</time>
      </trkpt>
      <trkpt lat="46.26518" lon="4.04018">
        <ele>297.177479</ele>
        <time>2023-09-29T10:40:39.227Z</time>
      </trkpt>
      <trkpt lat="46.26528" lon="4.04017">
        <ele>297.2046</ele>
        <time>2023-09-29T10:40:41.221Z</time>
      </trkpt>
      <trkpt lat="46.26538" lon="4.04015">
        <ele>297.230361</ele>
        <time>2023-09-29T10:40:43.207Z</time>
      </trkpt>
      <trkpt lat="46.26548" lon="4.04013">
        <ele>297.258139</ele>
        <time>2023-09-29T10:40:45.219Z</time>
      </trkpt>
      <trkpt lat="46.26558" lon="4.0401">
        <ele>297.284856</ele>
        <time>2023-09-29T10:40:47.231Z</time>
      </trkpt>
      <trkpt lat="46.26568" lon="4.04008">
        <ele>297.311835</ele>
        <time>2023-09-29T10:40:49.189Z</time>
      </trkpt>
      <trkpt lat="46.26577" lon="4.04005">
        <ele>297.337454</ele>
        <time>2023-09-29T10:40:51.211Z</time>
      </trkpt>
      <trkpt lat="46.26591" lon="4.04003">
        <ele>297.374275</ele>
        <time>2023-09-29T10:40:54.207Z</time>
      </trkpt>
      <trkpt lat="46.266" lon="4.04002">
        <ele>297.399524</ele>
        <time>2023-09-29T10:40:56.178Z</time>
      </trkpt>
      <trkpt lat="46.2661" lon="4.03999">
        <ele>297.42613</ele>
        <time>2023-09-29T10:40:58.202Z</time>
      </trkpt>
      <trkpt lat="46.2662" lon="4.03997">
        <ele>297.454261</ele>
        <time>2023-09-29T10:41:00.206Z</time>
      </trkpt>
      <trkpt lat="46.2663" lon="4.03996">
        <ele>297.482336</ele>
        <time>2023-09-29T10:41:02.382Z</time>
      </trkpt>
      <trkpt lat="46.2664" lon="4.03995">
        <ele>297.509861</ele>
        <time>2023-09-29T10:41:04.188Z</time>
      </trkpt>
      <trkpt lat="46.2665" lon="4.03992">
        <ele>297.536307</ele>
        <time>2023-09-29T10:41:06.214Z</time>
      </trkpt>
      <trkpt lat="46.2666" lon="4.0399">
        <ele>297.521548</ele>
        <time>2023-09-29T10:41:08.217Z</time>
      </trkpt>
      <trkpt lat="46.26671" lon="4.03987">
        <ele>297.468353</ele>
        <time>2023-09-29T10:41:10.202Z</time>
      </trkpt>
      <trkpt lat="46.2668" lon="4.03983">
        <ele>297.418117</ele>
        <time>2023-09-29T10:41:12.206Z</time>
      </trkpt>
      <trkpt lat="46.26689" lon="4.03978">
        <ele>297.365339</ele>
        <time>2023-09-29T10:41:14.204Z</time>
      </trkpt>
      <trkpt lat="46.26699" lon="4.03973">
        <ele>297.312681</ele>
        <time>2023-09-29T10:41:16.206Z</time>
      </trkpt>
      <trkpt lat="46.26708" lon="4.03969">
        <ele>297.261895</ele>
        <time>2023-09-29T10:41:18.208Z</time>
      </trkpt>
      <trkpt lat="46.26718" lon="4.03963">
        <ele>297.209355</ele>
        <time>2023-09-29T10:41:20.187Z</time>
      </trkpt>
      <trkpt lat="46.26727" lon="4.03958">
        <ele>297.157297</ele>
        <time>2023-09-29T10:41:22.211Z</time>
      </trkpt>
      <trkpt lat="46.26737" lon="4.03954">
        <ele>297.105098</ele>
        <time>2023-09-29T10:41:24.189Z</time>
      </trkpt>
      <trkpt lat="46.26746" lon="4.03951">
        <ele>297.055305</ele>
        <time>2023-09-29T10:41:26.223Z</time>
      </trkpt>
      <trkpt lat="46.26756" lon="4.03948">
        <ele>297.00493</ele>
        <time>2023-09-29T10:41:28.216Z</time>
      </trkpt>
      <trkpt lat="46.26765" lon="4.03945">
        <ele>296.954536</ele>
        <time>2023-09-29T10:41:30.208Z</time>
      </trkpt>
      <trkpt lat="46.26777" lon="4.0394">
        <ele>296.88914</ele>
        <time>2023-09-29T10:41:33.205Z</time>
      </trkpt>
      <trkpt lat="46.26789" lon="4.0393">
        <ele>296.820012</ele>
        <time>2023-09-29T10:41:36.189Z</time>
      </trkpt>
      <trkpt lat="46.26798" lon="4.03925">
        <ele>296.770975</ele>
        <time>2023-09-29T10:41:38.227Z</time>
      </trkpt>
      <trkpt lat="46.26809" lon="4.03915">
        <ele>296.702761</ele>
        <time>2023-09-29T10:41:41.220Z</time>
      </trkpt>
      <trkpt lat="46.2682" lon="4.03905">
        <ele>296.637004</ele>
        <time>2023-09-29T10:41:44.202Z</time>
      </trkpt>
      <trkpt lat="46.26828" lon="4.03898">
        <ele>296.607843</ele>
        <time>2023-09-29T10:41:46.218Z</time>
      </trkpt>
      <trkpt lat="46.26835" lon="4.03891">
        <ele>296.590192</ele>
        <time>2023-09-29T10:41:48.205Z</time>
      </trkpt>
      <trkpt lat="46.26843" lon="4.03884">
        <ele>296.572592</ele>
        <time>2023-09-29T10:41:50.210Z</time>
      </trkpt>
      <trkpt lat="46.2685" lon="4.03876">
        <ele>296.555266</ele>
        <time>2023-09-29T10:41:52.200Z</time>
      </trkpt>
      <trkpt lat="46.26862" lon="4.03865">
        <ele>296.529444</ele>
        <time>2023-09-29T10:41:55.216Z</time>
      </trkpt>
      <trkpt lat="46.26872" lon="4.03855">
        <ele>296.504812</ele>
        <time>2023-09-29T10:41:58.216Z</time>
      </trkpt>
      <trkpt lat="46.26884" lon="4.03844">
        <ele>296.478857</ele>
        <time>2023-09-29T10:42:01.217Z</time>
      </trkpt>
      <trkpt lat="46.26891" lon="4.03836">
        <ele>296.461298</ele>
        <time>2023-09-29T10:42:03.214Z</time>
      </trkpt>
      <trkpt lat="46.26898" lon="4.03828">
        <ele>296.443586</ele>
        <time>2023-09-29T10:42:05.219Z</time>
      </trkpt>
      <trkpt lat="46.26909" lon="4.03816">
        <ele>296.417562</ele>
        <time>2023-09-29T10:42:08.221Z</time>
      </trkpt>
      <trkpt lat="46.26917" lon="4.03809">
        <ele>296.40023</ele>
        <time>2023-09-29T10:42:10.209Z</time>
      </trkpt>
      <trkpt lat="46.26924" lon="4.03801">
        <ele>296.38244</ele>
        <time>2023-09-29T10:42:12.205Z</time>
      </trkpt>
      <trkpt lat="46.26932" lon="4.03794">
        <ele>296.364789</ele>
        <time>2023-09-29T10:42:14.200Z</time>
      </trkpt>
      <trkpt lat="46.2694" lon="4.03786">
        <ele>296.34637</ele>
        <time>2023-09-29T10:42:16.201Z</time>
      </trkpt>
      <trkpt lat="46.2695" lon="4.03774">
        <ele>296.320726</ele>
        <time>2023-09-29T10:42:19.203Z</time>
      </trkpt>
      <trkpt lat="46.26958" lon="4.03766">
        <ele>296.303169</ele>
        <time>2023-09-29T10:42:21.209Z</time>
      </trkpt>
      <trkpt lat="46.26969" lon="4.03756">
        <ele>296.278061</ele>
        <time>2023-09-29T10:42:24.204Z</time>
      </trkpt>
      <trkpt lat="46.26977" lon="4.03748">
        <ele>296.262102</ele>
        <time>2023-09-29T10:42:26.182Z</time>
      </trkpt>
      <trkpt lat="46.26985" lon="4.0374">
        <ele>296.246555</ele>
        <time>2023-09-29T10:42:28.196Z</time>
      </trkpt>
      <trkpt lat="46.26993" lon="4.03731">
        <ele>296.23076</ele>
        <time>2023-09-29T10:42:30.194Z</time>
      </trkpt>
      <trkpt lat="46.27001" lon="4.03723">
        <ele>296.215148</ele>
        <time>2023-09-29T10:42:32.216Z</time>
      </trkpt>
      <trkpt lat="46.27009" lon="4.03715">
        <ele>296.199917</ele>
        <time>2023-09-29T10:42:34.230Z</time>
      </trkpt>
      <trkpt lat="46.27016" lon="4.03707">
        <ele>296.185385</ele>
        <time>2023-09-29T10:42:36.213Z</time>
      </trkpt>
      <trkpt lat="46.27024" lon="4.037">
        <ele>296.171177</ele>
        <time>2023-09-29T10:42:38.209Z</time>
      </trkpt>
      <trkpt lat="46.27032" lon="4.03692">
        <ele>296.155636</ele>
        <time>2023-09-29T10:42:40.204Z</time>
      </trkpt>
      <trkpt lat="46.2704" lon="4.03683">
        <ele>296.140089</ele>
        <time>2023-09-29T10:42:42.207Z</time>
      </trkpt>
      <trkpt lat="46.27047" lon="4.03675">
        <ele>296.12525</ele>
        <time>2023-09-29T10:42:44.225Z</time>
      </trkpt>
      <trkpt lat="46.27055" lon="4.03667">
        <ele>296.110536</ele>
        <time>2023-09-29T10:42:46.198Z</time>
      </trkpt>
      <trkpt lat="46.27063" lon="4.0366">
        <ele>296.095944</ele>
        <time>2023-09-29T10:42:48.204Z</time>
      </trkpt>
      <trkpt lat="46.2707" lon="4.03652">
        <ele>296.081043</ele>
        <time>2023-09-29T10:42:50.200Z</time>
      </trkpt>
      <trkpt lat="46.27078" lon="4.03644">
        <ele>296.065492</ele>
        <time>2023-09-29T10:42:52.206Z</time>
      </trkpt>
      <trkpt lat="46.27086" lon="4.03637">
        <ele>296.0509</ele>
        <time>2023-09-29T10:42:54.214Z</time>
      </trkpt>
      <trkpt lat="46.27097" lon="4.03625">
        <ele>296.029471</ele>
        <time>2023-09-29T10:42:57.213Z</time>
      </trkpt>
      <trkpt lat="46.27106" lon="4.03619">
        <ele>296.014551</ele>
        <time>2023-09-29T10:42:59.212Z</time>
      </trkpt>
      <trkpt lat="46.27114" lon="4.03612">
        <ele>295.999566</ele>
        <time>2023-09-29T10:43:01.209Z</time>
      </trkpt>
      <trkpt lat="46.27123" lon="4.03606">
        <ele>296.019052</ele>
        <time>2023-09-29T10:43:03.212Z</time>
      </trkpt>
      <trkpt lat="46.27132" lon="4.03599">
        <ele>296.079437</ele>
        <time>2023-09-29T10:43:05.188Z</time>
      </trkpt>
      <trkpt lat="46.2714" lon="4.03594">
        <ele>296.137691</ele>
        <time>2023-09-29T10:43:07.224Z</time>
      </trkpt>
      <trkpt lat="46.27153" lon="4.03586">
        <ele>296.221462</ele>
        <time>2023-09-29T10:43:10.203Z</time>
      </trkpt>
      <trkpt lat="46.27161" lon="4.0358">
        <ele>296.278756</ele>
        <time>2023-09-29T10:43:12.218Z</time>
      </trkpt>
      <trkpt lat="46.27169" lon="4.03574">
        <ele>296.335316</ele>
        <time>2023-09-29T10:43:14.208Z</time>
      </trkpt>
      <trkpt lat="46.27181" lon="4.03568">
        <ele>296.412232</ele>
        <time>2023-09-29T10:43:17.216Z</time>
      </trkpt>
      <trkpt lat="46.2719" lon="4.03565">
        <ele>296.470659</ele>
        <time>2023-09-29T10:43:20.187Z</time>
      </trkpt>
      <trkpt lat="46.27199" lon="4.03564">
        <ele>296.528334</ele>
        <time>2023-09-29T10:43:24.218Z</time>
      </trkpt>
      <trkpt lat="46.2721" lon="4.03573">
        <ele>296.602227</ele>
        <time>2023-09-29T10:43:28.206Z</time>
      </trkpt>
      <trkpt lat="46.27216" lon="4.03584">
        <ele>296.66364</ele>
        <time>2023-09-29T10:43:31.264Z</time>
      </trkpt>
      <trkpt lat="46.27224" lon="4.03591">
        <ele>296.722143</ele>
        <time>2023-09-29T10:43:34.216Z</time>
      </trkpt>
      <trkpt lat="46.27235" lon="4.03598">
        <ele>296.792675</ele>
        <time>2023-09-29T10:43:38.207Z</time>
      </trkpt>
      <trkpt lat="46.27245" lon="4.03599">
        <ele>296.855939</ele>
        <time>2023-09-29T10:43:42.204Z</time>
      </trkpt>
      <trkpt lat="46.27254" lon="4.03591">
        <ele>296.921082</ele>
        <time>2023-09-29T10:43:45.196Z</time>
      </trkpt>
      <trkpt lat="46.27262" lon="4.0358">
        <ele>296.990328</ele>
        <time>2023-09-29T10:43:48.200Z</time>
      </trkpt>
      <trkpt lat="46.27263" lon="4.03564">
        <ele>297.060595</ele>
        <time>2023-09-29T10:43:51.209Z</time>
      </trkpt>
      <trkpt lat="46.27267" lon="4.03551">
        <ele>297.103512</ele>
        <time>2023-09-29T10:43:54.205Z</time>
      </trkpt>
      <trkpt lat="46.27271" lon="4.03539">
        <ele>297.098503</ele>
        <time>2023-09-29T10:43:57.200Z</time>
      </trkpt>
      <trkpt lat="46.27281" lon="4.03537">
        <ele>297.092982</ele>
        <time>2023-09-29T10:44:00.203Z</time>
      </trkpt>
      <trkpt lat="46.27292" lon="4.03535">
        <ele>297.086628</ele>
        <time>2023-09-29T10:44:03.222Z</time>
      </trkpt>
      <trkpt lat="46.27304" lon="4.03534">
        <ele>297.079725</ele>
        <time>2023-09-29T10:44:06.207Z</time>
      </trkpt>
      <trkpt lat="46.27317" lon="4.03533">
        <ele>297.072829</ele>
        <time>2023-09-29T10:44:09.226Z</time>
      </trkpt>
      <trkpt lat="46.27329" lon="4.03533">
        <ele>297.065942</ele>
        <time>2023-09-29T10:44:12.205Z</time>
      </trkpt>
      <trkpt lat="46.27338" lon="4.03532">
        <ele>297.060876</ele>
        <time>2023-09-29T10:44:14.214Z</time>
      </trkpt>
      <trkpt lat="46.27348" lon="4.03531">
        <ele>297.055686</ele>
        <time>2023-09-29T10:44:16.222Z</time>
      </trkpt>
      <trkpt lat="46.27357" lon="4.0353">
        <ele>297.050445</ele>
        <time>2023-09-29T10:44:18.209Z</time>
      </trkpt>
      <trkpt lat="46.27366" lon="4.03529">
        <ele>297.045428</ele>
        <time>2023-09-29T10:44:20.210Z</time>
      </trkpt>
      <trkpt lat="46.27375" lon="4.03529">
        <ele>297.040374</ele>
        <time>2023-09-29T10:44:22.209Z</time>
      </trkpt>
      <trkpt lat="46.27384" lon="4.03529">
        <ele>297.035263</ele>
        <time>2023-09-29T10:44:24.201Z</time>
      </trkpt>
      <trkpt lat="46.27394" lon="4.03529">
        <ele>297.030095</ele>
        <time>2023-09-29T10:44:26.208Z</time>
      </trkpt>
      <trkpt lat="46.27403" lon="4.03528">
        <ele>297.024874</ele>
        <time>2023-09-29T10:44:28.228Z</time>
      </trkpt>
      <trkpt lat="46.27412" lon="4.03528">
        <ele>297.019652</ele>
        <time>2023-09-29T10:44:30.203Z</time>
      </trkpt>
      <trkpt lat="46.27422" lon="4.03528">
        <ele>297.014485</ele>
        <time>2023-09-29T10:44:32.192Z</time>
      </trkpt>
      <trkpt lat="46.27435" lon="4.03529">
        <ele>297.007032</ele>
        <time>2023-09-29T10:44:35.207Z</time>
      </trkpt>
      <trkpt lat="46.27448" lon="4.03528">
        <ele>297.07108</ele>
        <time>2023-09-29T10:44:38.216Z</time>
      </trkpt>
      <trkpt lat="46.2746" lon="4.03529">
        <ele>297.158713</ele>
        <time>2023-09-29T10:44:41.208Z</time>
      </trkpt>
      <trkpt lat="46.2747" lon="4.03528">
        <ele>297.23495</ele>
        <time>2023-09-29T10:44:44.205Z</time>
      </trkpt>
      <trkpt lat="46.27482" lon="4.03527">
        <ele>297.317488</ele>
        <time>2023-09-29T10:44:47.217Z</time>
      </trkpt>
      <trkpt lat="46.27493" lon="4.03527">
        <ele>297.401452</ele>
        <time>2023-09-29T10:44:50.200Z</time>
      </trkpt>
      <trkpt lat="46.27506" lon="4.03526">
        <ele>297.490886</ele>
        <time>2023-09-29T10:44:53.204Z</time>
      </trkpt>
      <trkpt lat="46.27518" lon="4.03525">
        <ele>297.577042</ele>
        <time>2023-09-29T10:44:56.206Z</time>
      </trkpt>
      <trkpt lat="46.27529" lon="4.03524">
        <ele>297.661876</ele>
        <time>2023-09-29T10:44:59.223Z</time>
      </trkpt>
      <trkpt lat="46.27541" lon="4.03523">
        <ele>297.749572</ele>
        <time>2023-09-29T10:45:02.230Z</time>
      </trkpt>
      <trkpt lat="46.27554" lon="4.03526">
        <ele>297.844562</ele>
        <time>2023-09-29T10:45:05.185Z</time>
      </trkpt>
      <trkpt lat="46.27566" lon="4.03527">
        <ele>297.930789</ele>
        <time>2023-09-29T10:45:08.199Z</time>
      </trkpt>
      <trkpt lat="46.27579" lon="4.03524">
        <ele>298.02036</ele>
        <time>2023-09-29T10:45:11.209Z</time>
      </trkpt>
      <trkpt lat="46.27589" lon="4.03522">
        <ele>298.093711</ele>
        <time>2023-09-29T10:45:14.206Z</time>
      </trkpt>
      <trkpt lat="46.27599" lon="4.03522">
        <ele>298.167648</ele>
        <time>2023-09-29T10:45:19.205Z</time>
      </trkpt>
      <trkpt lat="46.27608" lon="4.03521">
        <ele>298.237222</ele>
        <time>2023-09-29T10:45:24.204Z</time>
      </trkpt>
      <trkpt lat="46.27617" lon="4.03517">
        <ele>298.303694</ele>
        <time>2023-09-29T10:45:28.198Z</time>
      </trkpt>
      <trkpt lat="46.27627" lon="4.03517">
        <ele>298.266177</ele>
        <time>2023-09-29T10:45:32.212Z</time>
      </trkpt>
      <trkpt lat="46.27638" lon="4.03516">
        <ele>298.219512</ele>
        <time>2023-09-29T10:45:36.195Z</time>
      </trkpt>
      <trkpt lat="46.27647" lon="4.03516">
        <ele>298.178163</ele>
        <time>2023-09-29T10:45:39.204Z</time>
      </trkpt>
      <trkpt lat="46.27657" lon="4.03516">
        <ele>298.134198</ele>
        <time>2023-09-29T10:45:42.215Z</time>
      </trkpt>
      <trkpt lat="46.27668" lon="4.03516">
        <ele>298.085867</ele>
        <time>2023-09-29T10:45:45.213Z</time>
      </trkpt>
      <trkpt lat="46.2768" lon="4.03517">
        <ele>298.034925</ele>
        <time>2023-09-29T10:45:48.214Z</time>
      </trkpt>
      <trkpt lat="46.27692" lon="4.03518">
        <ele>297.982179</ele>
        <time>2023-09-29T10:45:51.210Z</time>
      </trkpt>
      <trkpt lat="46.27705" lon="4.03518">
        <ele>297.928648</ele>
        <time>2023-09-29T10:45:54.205Z</time>
      </trkpt>
      <trkpt lat="46.27716" lon="4.03519">
        <ele>297.878055</ele>
        <time>2023-09-29T10:45:57.205Z</time>
      </trkpt>
      <trkpt lat="46.27727" lon="4.03521">
        <ele>297.829075</ele>
        <time>2023-09-29T10:46:00.205Z</time>
      </trkpt>
      <trkpt lat="46.27737" lon="4.03522">
        <ele>297.784787</ele>
        <time>2023-09-29T10:46:03.211Z</time>
      </trkpt>
      <trkpt lat="46.27747" lon="4.03528">
        <ele>297.738642</ele>
        <time>2023-09-29T10:46:07.210Z</time>
      </trkpt>
      <trkpt lat="46.27757" lon="4.0353">
        <ele>297.695168</ele>
        <time>2023-09-29T10:46:11.215Z</time>
      </trkpt>
      <trkpt lat="46.27768" lon="4.03535">
        <ele>297.648094</ele>
        <time>2023-09-29T10:46:15.211Z</time>
      </trkpt>
      <trkpt lat="46.27777" lon="4.03539">
        <ele>297.607064</ele>
        <time>2023-09-29T10:46:18.210Z</time>
      </trkpt>
      <trkpt lat="46.27786" lon="4.03543">
        <ele>297.56233</ele>
        <time>2023-09-29T10:46:21.212Z</time>
      </trkpt>
      <trkpt lat="46.27796" lon="4.03546">
        <ele>297.5355</ele>
        <time>2023-09-29T10:46:24.193Z</time>
      </trkpt>
      <trkpt lat="46.27806" lon="4.03553">
        <ele>297.62651</ele>
        <time>2023-09-29T10:46:27.209Z</time>
      </trkpt>
      <trkpt lat="46.27818" lon="4.03559">
        <ele>297.723966</ele>
        <time>2023-09-29T10:46:30.192Z</time>
      </trkpt>
      <trkpt lat="46.27829" lon="4.03565">
        <ele>297.821064</ele>
        <time>2023-09-29T10:46:33.194Z</time>
      </trkpt>
      <trkpt lat="46.27841" lon="4.0357">
        <ele>297.923213</ele>
        <time>2023-09-29T10:46:36.212Z</time>
      </trkpt>
      <trkpt lat="46.27853" lon="4.03575">
        <ele>298.020078</ele>
        <time>2023-09-29T10:46:39.221Z</time>
      </trkpt>
      <trkpt lat="46.27864" lon="4.0358">
        <ele>298.115119</ele>
        <time>2023-09-29T10:46:42.204Z</time>
      </trkpt>
      <trkpt lat="46.27876" lon="4.03585">
        <ele>298.214625</ele>
        <time>2023-09-29T10:46:45.205Z</time>
      </trkpt>
      <trkpt lat="46.27888" lon="4.0359">
        <ele>298.315066</ele>
        <time>2023-09-29T10:46:48.202Z</time>
      </trkpt>
      <trkpt lat="46.279" lon="4.03595">
        <ele>298.415662</ele>
        <time>2023-09-29T10:46:51.213Z</time>
      </trkpt>
      <trkpt lat="46.27911" lon="4.03601">
        <ele>298.515775</ele>
        <time>2023-09-29T10:46:54.205Z</time>
      </trkpt>
      <trkpt lat="46.27923" lon="4.03606">
        <ele>298.614967</ele>
        <time>2023-09-29T10:46:57.210Z</time>
      </trkpt>
      <trkpt lat="46.27935" lon="4.03611">
        <ele>298.712487</ele>
        <time>2023-09-29T10:47:00.196Z</time>
      </trkpt>
      <trkpt lat="46.27947" lon="4.03617">
        <ele>298.812828</ele>
        <time>2023-09-29T10:47:03.217Z</time>
      </trkpt>
      <trkpt lat="46.27959" lon="4.03623">
        <ele>298.920361</ele>
        <time>2023-09-29T10:47:06.210Z</time>
      </trkpt>
      <trkpt lat="46.27968" lon="4.03627">
        <ele>299.00139</ele>
        <time>2023-09-29T10:47:08.215Z</time>
      </trkpt>
      <trkpt lat="46.2798" lon="4.03634">
        <ele>299.173013</ele>
        <time>2023-09-29T10:47:11.206Z</time>
      </trkpt>
      <trkpt lat="46.27993" lon="4.0364">
        <ele>299.341457</ele>
        <time>2023-09-29T10:47:14.203Z</time>
      </trkpt>
      <trkpt lat="46.28005" lon="4.03647">
        <ele>299.505636</ele>
        <time>2023-09-29T10:47:17.215Z</time>
      </trkpt>
      <trkpt lat="46.28017" lon="4.03648">
        <ele>299.650194</ele>
        <time>2023-09-29T10:47:20.197Z</time>
      </trkpt>
      <trkpt lat="46.28027" lon="4.03643">
        <ele>299.792401</ele>
        <time>2023-09-29T10:47:23.207Z</time>
      </trkpt>
      <trkpt lat="46.28037" lon="4.03643">
        <ele>299.917498</ele>
        <time>2023-09-29T10:47:26.210Z</time>
      </trkpt>
      <trkpt lat="46.28046" lon="4.03644">
        <ele>300.035489</ele>
        <time>2023-09-29T10:47:29.212Z</time>
      </trkpt>
      <trkpt lat="46.28056" lon="4.03646">
        <ele>300.162363</ele>
        <time>2023-09-29T10:47:32.216Z</time>
      </trkpt>
      <trkpt lat="46.28066" lon="4.0365">
        <ele>300.290347</ele>
        <time>2023-09-29T10:47:35.215Z</time>
      </trkpt>
      <trkpt lat="46.28073" lon="4.03661">
        <ele>300.4153</ele>
        <time>2023-09-29T10:47:38.197Z</time>
      </trkpt>
      <trkpt lat="46.28082" lon="4.03667">
        <ele>300.546342</ele>
        <time>2023-09-29T10:47:41.205Z</time>
      </trkpt>
      <trkpt lat="46.28094" lon="4.0367">
        <ele>300.691228</ele>
        <time>2023-09-29T10:47:44.211Z</time>
      </trkpt>
      <trkpt lat="46.28105" lon="4.03672">
        <ele>300.83461</ele>
        <time>2023-09-29T10:47:47.197Z</time>
      </trkpt>
      <trkpt lat="46.28116" lon="4.03673">
        <ele>300.979167</ele>
        <time>2023-09-29T10:47:50.192Z</time>
      </trkpt>
      <trkpt lat="46.28128" lon="4.03673">
        <ele>301.128192</ele>
        <time>2023-09-29T10:47:53.223Z</time>
      </trkpt>
      <trkpt lat="46.2814" lon="4.03673">
        <ele>301.269458</ele>
        <time>2023-09-29T10:47:56.204Z</time>
      </trkpt>
      <trkpt lat="46.28152" lon="4.03674">
        <ele>301.394448</ele>
        <time>2023-09-29T10:47:59.210Z</time>
      </trkpt>
      <trkpt lat="46.28165" lon="4.03674">
        <ele>301.519375</ele>
        <time>2023-09-29T10:48:02.206Z</time>
      </trkpt>
      <trkpt lat="46.28177" lon="4.03673">
        <ele>301.645372</ele>
        <time>2023-09-29T10:48:05.189Z</time>
      </trkpt>
      <trkpt lat="46.28189" lon="4.03672">
        <ele>301.76856</ele>
        <time>2023-09-29T10:48:08.218Z</time>
      </trkpt>
      <trkpt lat="46.28202" lon="4.0367">
        <ele>301.8975</ele>
        <time>2023-09-29T10:48:11.188Z</time>
      </trkpt>
      <trkpt lat="46.28214" lon="4.03666">
        <ele>302.023654</ele>
        <time>2023-09-29T10:48:14.179Z</time>
      </trkpt>
      <trkpt lat="46.28227" lon="4.03663">
        <ele>302.157268</ele>
        <time>2023-09-29T10:48:17.211Z</time>
      </trkpt>
      <trkpt lat="46.2824" lon="4.03658">
        <ele>302.288528</ele>
        <time>2023-09-29T10:48:20.182Z</time>
      </trkpt>
      <trkpt lat="46.28253" lon="4.03655">
        <ele>302.421013</ele>
        <time>2023-09-29T10:48:23.225Z</time>
      </trkpt>
      <trkpt lat="46.28266" lon="4.03649">
        <ele>302.555528</ele>
        <time>2023-09-29T10:48:26.204Z</time>
      </trkpt>
      <trkpt lat="46.28278" lon="4.03644">
        <ele>302.682338</ele>
        <time>2023-09-29T10:48:29.212Z</time>
      </trkpt>
      <trkpt lat="46.2829" lon="4.03638">
        <ele>302.814724</ele>
        <time>2023-09-29T10:48:32.202Z</time>
      </trkpt>
      <trkpt lat="46.28302" lon="4.03631">
        <ele>302.941744</ele>
        <time>2023-09-29T10:48:35.207Z</time>
      </trkpt>
      <trkpt lat="46.28311" lon="4.03627">
        <ele>303.035057</ele>
        <time>2023-09-29T10:48:37.207Z</time>
      </trkpt>
      <trkpt lat="46.28323" lon="4.0362">
        <ele>303.120758</ele>
        <time>2023-09-29T10:48:40.221Z</time>
      </trkpt>
      <trkpt lat="46.28331" lon="4.03616">
        <ele>303.174306</ele>
        <time>2023-09-29T10:48:42.206Z</time>
      </trkpt>
      <trkpt lat="46.28343" lon="4.03608">
        <ele>303.252795</ele>
        <time>2023-09-29T10:48:45.213Z</time>
      </trkpt>
      <trkpt lat="46.28352" lon="4.03602">
        <ele>303.309686</ele>
        <time>2023-09-29T10:48:47.201Z</time>
      </trkpt>
      <trkpt lat="46.2836" lon="4.03595">
        <ele>303.363913</ele>
        <time>2023-09-29T10:48:49.196Z</time>
      </trkpt>
      <trkpt lat="46.28368" lon="4.03589">
        <ele>303.417625</ele>
        <time>2023-09-29T10:48:51.235Z</time>
      </trkpt>
      <trkpt lat="46.28376" lon="4.03582">
        <ele>303.471306</ele>
        <time>2023-09-29T10:48:53.216Z</time>
      </trkpt>
      <trkpt lat="46.28384" lon="4.03576">
        <ele>303.524274</ele>
        <time>2023-09-29T10:48:55.213Z</time>
      </trkpt>
      <trkpt lat="46.28392" lon="4.03569">
        <ele>303.580007</ele>
        <time>2023-09-29T10:48:57.216Z</time>
      </trkpt>
      <trkpt lat="46.28403" lon="4.03559">
        <ele>303.660027</ele>
        <time>2023-09-29T10:49:00.215Z</time>
      </trkpt>
      <trkpt lat="46.28415" lon="4.03549">
        <ele>303.737974</ele>
        <time>2023-09-29T10:49:03.230Z</time>
      </trkpt>
      <trkpt lat="46.28422" lon="4.03541">
        <ele>303.791704</ele>
        <time>2023-09-29T10:49:05.212Z</time>
      </trkpt>
      <trkpt lat="46.28433" lon="4.03531">
        <ele>303.868272</ele>
        <time>2023-09-29T10:49:08.211Z</time>
      </trkpt>
      <trkpt lat="46.28444" lon="4.03521">
        <ele>303.943725</ele>
        <time>2023-09-29T10:49:11.214Z</time>
      </trkpt>
      <trkpt lat="46.28455" lon="4.03511">
        <ele>304.019577</ele>
        <time>2023-09-29T10:49:14.207Z</time>
      </trkpt>
      <trkpt lat="46.28466" lon="4.03501">
        <ele>304.095094</ele>
        <time>2023-09-29T10:49:17.203Z</time>
      </trkpt>
      <trkpt lat="46.28476" lon="4.03491">
        <ele>304.164613</ele>
        <time>2023-09-29T10:49:20.205Z</time>
      </trkpt>
      <trkpt lat="46.28487" lon="4.03481">
        <ele>304.232058</ele>
        <time>2023-09-29T10:49:23.207Z</time>
      </trkpt>
      <trkpt lat="46.28498" lon="4.03472">
        <ele>304.300147</ele>
        <time>2023-09-29T10:49:26.206Z</time>
      </trkpt>
      <trkpt lat="46.28509" lon="4.03461">
        <ele>304.368909</ele>
        <time>2023-09-29T10:49:29.215Z</time>
      </trkpt>
      <trkpt lat="46.2852" lon="4.03451">
        <ele>304.439446</ele>
        <time>2023-09-29T10:49:32.214Z</time>
      </trkpt>
      <trkpt lat="46.28531" lon="4.03441">
        <ele>304.505475</ele>
        <time>2023-09-29T10:49:35.229Z</time>
      </trkpt>
      <trkpt lat="46.28541" lon="4.03431">
        <ele>304.572747</ele>
        <time>2023-09-29T10:49:38.204Z</time>
      </trkpt>
      <trkpt lat="46.28553" lon="4.03421">
        <ele>304.642765</ele>
        <time>2023-09-29T10:49:41.231Z</time>
      </trkpt>
      <trkpt lat="46.28563" lon="4.03411">
        <ele>304.710529</ele>
        <time>2023-09-29T10:49:44.230Z</time>
      </trkpt>
      <trkpt lat="46.28574" lon="4.03403">
        <ele>304.773929</ele>
        <time>2023-09-29T10:49:47.219Z</time>
      </trkpt>
      <trkpt lat="46.28585" lon="4.03394">
        <ele>304.84063</ele>
        <time>2023-09-29T10:49:50.229Z</time>
      </trkpt>
      <trkpt lat="46.28595" lon="4.03384">
        <ele>304.904883</ele>
        <time>2023-09-29T10:49:53.212Z</time>
      </trkpt>
      <trkpt lat="46.28605" lon="4.03374">
        <ele>304.97111</ele>
        <time>2023-09-29T10:49:56.225Z</time>
      </trkpt>
      <trkpt lat="46.28616" lon="4.03364">
        <ele>305.039323</ele>
        <time>2023-09-29T10:49:59.213Z</time>
      </trkpt>
      <trkpt lat="46.28627" lon="4.03353">
        <ele>305.129796</ele>
        <time>2023-09-29T10:50:02.212Z</time>
      </trkpt>
      <trkpt lat="46.28637" lon="4.03344">
        <ele>305.227489</ele>
        <time>2023-09-29T10:50:05.206Z</time>
      </trkpt>
      <trkpt lat="46.28648" lon="4.03334">
        <ele>305.333355</ele>
        <time>2023-09-29T10:50:08.213Z</time>
      </trkpt>
      <trkpt lat="46.28658" lon="4.03324">
        <ele>305.431503</ele>
        <time>2023-09-29T10:50:11.207Z</time>
      </trkpt>
      <trkpt lat="46.28669" lon="4.03315">
        <ele>305.530333</ele>
        <time>2023-09-29T10:50:14.211Z</time>
      </trkpt>
      <trkpt lat="46.2868" lon="4.03306">
        <ele>305.632946</ele>
        <time>2023-09-29T10:50:17.207Z</time>
      </trkpt>
      <trkpt lat="46.28691" lon="4.03295">
        <ele>305.7401</ele>
        <time>2023-09-29T10:50:20.223Z</time>
      </trkpt>
      <trkpt lat="46.28699" lon="4.03289">
        <ele>305.813318</ele>
        <time>2023-09-29T10:50:22.182Z</time>
      </trkpt>
      <trkpt lat="46.28709" lon="4.0328">
        <ele>305.914588</ele>
        <time>2023-09-29T10:50:25.219Z</time>
      </trkpt>
      <trkpt lat="46.2872" lon="4.0327">
        <ele>306.016517</ele>
        <time>2023-09-29T10:50:28.218Z</time>
      </trkpt>
      <trkpt lat="46.2873" lon="4.03261">
        <ele>306.108602</ele>
        <time>2023-09-29T10:50:31.211Z</time>
      </trkpt>
      <trkpt lat="46.28741" lon="4.03254">
        <ele>306.206433</ele>
        <time>2023-09-29T10:50:34.198Z</time>
      </trkpt>
      <trkpt lat="46.28752" lon="4.03245">
        <ele>306.312995</ele>
        <time>2023-09-29T10:50:37.209Z</time>
      </trkpt>
      <trkpt lat="46.28764" lon="4.03238">
        <ele>306.413734</ele>
        <time>2023-09-29T10:50:40.198Z</time>
      </trkpt>
      <trkpt lat="46.28775" lon="4.03231">
        <ele>306.512533</ele>
        <time>2023-09-29T10:50:43.209Z</time>
      </trkpt>
      <trkpt lat="46.28787" lon="4.03223">
        <ele>306.643086</ele>
        <time>2023-09-29T10:50:46.206Z</time>
      </trkpt>
      <trkpt lat="46.28799" lon="4.03216">
        <ele>306.778297</ele>
        <time>2023-09-29T10:50:49.222Z</time>
      </trkpt>
      <trkpt lat="46.28811" lon="4.03211">
        <ele>306.907129</ele>
        <time>2023-09-29T10:50:52.207Z</time>
      </trkpt>
      <trkpt lat="46.28824" lon="4.03204">
        <ele>307.04321</ele>
        <time>2023-09-29T10:50:55.209Z</time>
      </trkpt>
      <trkpt lat="46.28836" lon="4.03197">
        <ele>307.179106</ele>
        <time>2023-09-29T10:50:58.212Z</time>
      </trkpt>
      <trkpt lat="46.28849" lon="4.0319">
        <ele>307.31595</ele>
        <time>2023-09-29T10:51:01.231Z</time>
      </trkpt>
      <trkpt lat="46.28861" lon="4.03184">
        <ele>307.450157</ele>
        <time>2023-09-29T10:51:04.206Z</time>
      </trkpt>
      <trkpt lat="46.2887" lon="4.03178">
        <ele>307.542558</ele>
        <time>2023-09-29T10:51:06.209Z</time>
      </trkpt>
      <trkpt lat="46.28882" lon="4.03173">
        <ele>307.676079</ele>
        <time>2023-09-29T10:51:09.209Z</time>
      </trkpt>
      <trkpt lat="46.28891" lon="4.0317">
        <ele>307.768897</ele>
        <time>2023-09-29T10:51:11.209Z</time>
      </trkpt>
      <trkpt lat="46.289" lon="4.03165">
        <ele>307.861376</ele>
        <time>2023-09-29T10:51:13.214Z</time>
      </trkpt>
      <trkpt lat="46.28908" lon="4.03162">
        <ele>307.95483</ele>
        <time>2023-09-29T10:51:15.228Z</time>
      </trkpt>
      <trkpt lat="46.28921" lon="4.03156">
        <ele>308.088756</ele>
        <time>2023-09-29T10:51:18.207Z</time>
      </trkpt>
      <trkpt lat="46.28932" lon="4.03148">
        <ele>308.21637</ele>
        <time>2023-09-29T10:51:21.218Z</time>
      </trkpt>
      <trkpt lat="46.2894" lon="4.03143">
        <ele>308.308473</ele>
        <time>2023-09-29T10:51:23.207Z</time>
      </trkpt>
      <trkpt lat="46.28952" lon="4.03135">
        <ele>308.366273</ele>
        <time>2023-09-29T10:51:26.206Z</time>
      </trkpt>
      <trkpt lat="46.28963" lon="4.03125">
        <ele>308.372018</ele>
        <time>2023-09-29T10:51:29.213Z</time>
      </trkpt>
      <trkpt lat="46.28974" lon="4.03116">
        <ele>308.377677</ele>
        <time>2023-09-29T10:51:32.203Z</time>
      </trkpt>
      <trkpt lat="46.28985" lon="4.03106">
        <ele>308.383249</ele>
        <time>2023-09-29T10:51:35.221Z</time>
      </trkpt>
      <trkpt lat="46.28995" lon="4.03096">
        <ele>308.388742</ele>
        <time>2023-09-29T10:51:38.211Z</time>
      </trkpt>
      <trkpt lat="46.29005" lon="4.03086">
        <ele>308.393962</ele>
        <time>2023-09-29T10:51:41.214Z</time>
      </trkpt>
      <trkpt lat="46.29015" lon="4.03077">
        <ele>308.399319</ele>
        <time>2023-09-29T10:51:44.187Z</time>
      </trkpt>
      <trkpt lat="46.29025" lon="4.03066">
        <ele>308.404785</ele>
        <time>2023-09-29T10:51:47.213Z</time>
      </trkpt>
      <trkpt lat="46.29035" lon="4.03054">
        <ele>308.410532</ele>
        <time>2023-09-29T10:51:50.228Z</time>
      </trkpt>
      <trkpt lat="46.29045" lon="4.03041">
        <ele>308.416396</ele>
        <time>2023-09-29T10:51:53.214Z</time>
      </trkpt>
      <trkpt lat="46.29055" lon="4.03029">
        <ele>308.422114</ele>
        <time>2023-09-29T10:51:56.206Z</time>
      </trkpt>
      <trkpt lat="46.29064" lon="4.03018">
        <ele>308.427426</ele>
        <time>2023-09-29T10:51:59.209Z</time>
      </trkpt>
      <trkpt lat="46.29072" lon="4.03008">
        <ele>308.432202</ele>
        <time>2023-09-29T10:52:02.209Z</time>
      </trkpt>
      <trkpt lat="46.2908" lon="4.02997">
        <ele>308.436704</ele>
        <time>2023-09-29T10:52:05.219Z</time>
      </trkpt>
      <trkpt lat="46.29087" lon="4.02986">
        <ele>308.441394</ele>
        <time>2023-09-29T10:52:09.206Z</time>
      </trkpt>
      <trkpt lat="46.29096" lon="4.02978">
        <ele>308.492101</ele>
        <time>2023-09-29T10:52:14.207Z</time>
      </trkpt>
      <trkpt lat="46.29104" lon="4.02968">
        <ele>308.547354</ele>
        <time>2023-09-29T10:52:18.198Z</time>
      </trkpt>
      <trkpt lat="46.29112" lon="4.02956">
        <ele>308.613326</ele>
        <time>2023-09-29T10:52:22.210Z</time>
      </trkpt>
      <trkpt lat="46.2912" lon="4.02948">
        <ele>308.668452</ele>
        <time>2023-09-29T10:52:25.189Z</time>
      </trkpt>
      <trkpt lat="46.29129" lon="4.02938">
        <ele>308.72809</ele>
        <time>2023-09-29T10:52:28.221Z</time>
      </trkpt>
      <trkpt lat="46.29138" lon="4.02928">
        <ele>308.790483</ele>
        <time>2023-09-29T10:52:31.218Z</time>
      </trkpt>
      <trkpt lat="46.29147" lon="4.02919">
        <ele>308.855119</ele>
        <time>2023-09-29T10:52:34.209Z</time>
      </trkpt>
      <trkpt lat="46.29158" lon="4.0291">
        <ele>308.92323</ele>
        <time>2023-09-29T10:52:37.191Z</time>
      </trkpt>
      <trkpt lat="46.29168" lon="4.029">
        <ele>308.992961</ele>
        <time>2023-09-29T10:52:40.206Z</time>
      </trkpt>
      <trkpt lat="46.29178" lon="4.02891">
        <ele>309.055814</ele>
        <time>2023-09-29T10:52:43.215Z</time>
      </trkpt>
      <trkpt lat="46.29187" lon="4.02882">
        <ele>309.119557</ele>
        <time>2023-09-29T10:52:46.215Z</time>
      </trkpt>
      <trkpt lat="46.29199" lon="4.02874">
        <ele>309.190406</ele>
        <time>2023-09-29T10:52:49.197Z</time>
      </trkpt>
      <trkpt lat="46.29209" lon="4.02867">
        <ele>309.255064</ele>
        <time>2023-09-29T10:52:52.224Z</time>
      </trkpt>
      <trkpt lat="46.29222" lon="4.0286">
        <ele>309.329198</ele>
        <time>2023-09-29T10:52:55.224Z</time>
      </trkpt>
      <trkpt lat="46.29234" lon="4.02852">
        <ele>309.403542</ele>
        <time>2023-09-29T10:52:58.209Z</time>
      </trkpt>
      <trkpt lat="46.29246" lon="4.02845">
        <ele>309.457886</ele>
        <time>2023-09-29T10:53:01.212Z</time>
      </trkpt>
      <trkpt lat="46.29255" lon="4.02841">
        <ele>309.476978</ele>
        <time>2023-09-29T10:53:03.204Z</time>
      </trkpt>
      <trkpt lat="46.29263" lon="4.02836">
        <ele>309.496267</ele>
        <time>2023-09-29T10:53:05.220Z</time>
      </trkpt>
      <trkpt lat="46.29273" lon="4.02832">
        <ele>309.516466</ele>
        <time>2023-09-29T10:53:07.211Z</time>
      </trkpt>
      <trkpt lat="46.29282" lon="4.02828">
        <ele>309.536665</ele>
        <time>2023-09-29T10:53:09.235Z</time>
      </trkpt>
      <trkpt lat="46.29291" lon="4.02824">
        <ele>309.557668</ele>
        <time>2023-09-29T10:53:11.234Z</time>
      </trkpt>
      <trkpt lat="46.29301" lon="4.0282">
        <ele>309.578832</ele>
        <time>2023-09-29T10:53:13.211Z</time>
      </trkpt>
      <trkpt lat="46.29311" lon="4.02817">
        <ele>309.59944</ele>
        <time>2023-09-29T10:53:15.204Z</time>
      </trkpt>
      <trkpt lat="46.29321" lon="4.02814">
        <ele>309.62084</ele>
        <time>2023-09-29T10:53:17.213Z</time>
      </trkpt>
      <trkpt lat="46.29331" lon="4.02811">
        <ele>309.642573</ele>
        <time>2023-09-29T10:53:19.210Z</time>
      </trkpt>
      <trkpt lat="46.29341" lon="4.0281">
        <ele>309.663419</ele>
        <time>2023-09-29T10:53:21.209Z</time>
      </trkpt>
      <trkpt lat="46.29351" lon="4.02807">
        <ele>309.685203</ele>
        <time>2023-09-29T10:53:23.205Z</time>
      </trkpt>
      <trkpt lat="46.29361" lon="4.02805">
        <ele>309.70614</ele>
        <time>2023-09-29T10:53:25.218Z</time>
      </trkpt>
      <trkpt lat="46.29371" lon="4.02803">
        <ele>309.727077</ele>
        <time>2023-09-29T10:53:27.206Z</time>
      </trkpt>
      <trkpt lat="46.29381" lon="4.02802">
        <ele>309.747824</ele>
        <time>2023-09-29T10:53:29.216Z</time>
      </trkpt>
      <trkpt lat="46.2939" lon="4.02802">
        <ele>309.767777</ele>
        <time>2023-09-29T10:53:31.226Z</time>
      </trkpt>
      <trkpt lat="46.29399" lon="4.02803">
        <ele>309.786916</ele>
        <time>2023-09-29T10:53:33.206Z</time>
      </trkpt>
      <trkpt lat="46.29413" lon="4.02803">
        <ele>309.815454</ele>
        <time>2023-09-29T10:53:36.193Z</time>
      </trkpt>
      <trkpt lat="46.29427" lon="4.02805">
        <ele>309.679812</ele>
        <time>2023-09-29T10:53:39.205Z</time>
      </trkpt>
      <trkpt lat="46.29437" lon="4.02805">
        <ele>309.549187</ele>
        <time>2023-09-29T10:53:41.218Z</time>
      </trkpt>
      <trkpt lat="46.29447" lon="4.02807">
        <ele>309.412939</ele>
        <time>2023-09-29T10:53:43.204Z</time>
      </trkpt>
      <trkpt lat="46.29456" lon="4.02809">
        <ele>309.280005</ele>
        <time>2023-09-29T10:53:45.199Z</time>
      </trkpt>
      <trkpt lat="46.29466" lon="4.0281">
        <ele>309.147512</ele>
        <time>2023-09-29T10:53:47.211Z</time>
      </trkpt>
      <trkpt lat="46.29477" lon="4.02812">
        <ele>309.003793</ele>
        <time>2023-09-29T10:53:49.199Z</time>
      </trkpt>
      <trkpt lat="46.29487" lon="4.02815">
        <ele>308.867195</ele>
        <time>2023-09-29T10:53:51.214Z</time>
      </trkpt>
      <trkpt lat="46.29497" lon="4.02818">
        <ele>308.725752</ele>
        <time>2023-09-29T10:53:53.210Z</time>
      </trkpt>
      <trkpt lat="46.29507" lon="4.02821">
        <ele>308.592586</ele>
        <time>2023-09-29T10:53:55.210Z</time>
      </trkpt>
      <trkpt lat="46.29516" lon="4.02824">
        <ele>308.462912</ele>
        <time>2023-09-29T10:53:57.217Z</time>
      </trkpt>
      <trkpt lat="46.29526" lon="4.02829">
        <ele>308.327243</ele>
        <time>2023-09-29T10:53:59.210Z</time>
      </trkpt>
      <trkpt lat="46.29536" lon="4.02833">
        <ele>308.186448</ele>
        <time>2023-09-29T10:54:01.221Z</time>
      </trkpt>
      <trkpt lat="46.29546" lon="4.02838">
        <ele>308.042809</ele>
        <time>2023-09-29T10:54:03.210Z</time>
      </trkpt>
      <trkpt lat="46.29556" lon="4.02842">
        <ele>307.905657</ele>
        <time>2023-09-29T10:54:05.206Z</time>
      </trkpt>
      <trkpt lat="46.29565" lon="4.02847">
        <ele>307.76813</ele>
        <time>2023-09-29T10:54:07.208Z</time>
      </trkpt>
      <trkpt lat="46.29575" lon="4.02853">
        <ele>307.630744</ele>
        <time>2023-09-29T10:54:09.206Z</time>
      </trkpt>
      <trkpt lat="46.29584" lon="4.02857">
        <ele>307.493884</ele>
        <time>2023-09-29T10:54:11.223Z</time>
      </trkpt>
      <trkpt lat="46.29594" lon="4.02863">
        <ele>307.369171</ele>
        <time>2023-09-29T10:54:13.213Z</time>
      </trkpt>
      <trkpt lat="46.29604" lon="4.02869">
        <ele>307.273529</ele>
        <time>2023-09-29T10:54:15.204Z</time>
      </trkpt>
      <trkpt lat="46.29613" lon="4.02876">
        <ele>307.177858</ele>
        <time>2023-09-29T10:54:17.217Z</time>
      </trkpt>
      <trkpt lat="46.29623" lon="4.02883">
        <ele>307.081159</ele>
        <time>2023-09-29T10:54:19.209Z</time>
      </trkpt>
      <trkpt lat="46.29632" lon="4.0289">
        <ele>306.987174</ele>
        <time>2023-09-29T10:54:21.213Z</time>
      </trkpt>
      <trkpt lat="46.29642" lon="4.02897">
        <ele>306.893162</ele>
        <time>2023-09-29T10:54:23.214Z</time>
      </trkpt>
      <trkpt lat="46.2965" lon="4.02904">
        <ele>306.804708</ele>
        <time>2023-09-29T10:54:25.217Z</time>
      </trkpt>
      <trkpt lat="46.29659" lon="4.0291">
        <ele>306.719361</ele>
        <time>2023-09-29T10:54:27.210Z</time>
      </trkpt>
      <trkpt lat="46.29668" lon="4.02916">
        <ele>306.6313</ele>
        <time>2023-09-29T10:54:29.216Z</time>
      </trkpt>
      <trkpt lat="46.29676" lon="4.02922">
        <ele>306.544607</ele>
        <time>2023-09-29T10:54:31.263Z</time>
      </trkpt>
      <trkpt lat="46.29685" lon="4.02927">
        <ele>306.458865</ele>
        <time>2023-09-29T10:54:33.210Z</time>
      </trkpt>
      <trkpt lat="46.29694" lon="4.02932">
        <ele>306.377231</ele>
        <time>2023-09-29T10:54:35.210Z</time>
      </trkpt>
      <trkpt lat="46.29702" lon="4.02938">
        <ele>306.294293</ele>
        <time>2023-09-29T10:54:37.215Z</time>
      </trkpt>
      <trkpt lat="46.29711" lon="4.02948">
        <ele>306.19108</ele>
        <time>2023-09-29T10:54:40.189Z</time>
      </trkpt>
      <trkpt lat="46.29721" lon="4.02952">
        <ele>306.099972</ele>
        <time>2023-09-29T10:54:43.223Z</time>
      </trkpt>
      <trkpt lat="46.2973" lon="4.02956">
        <ele>306.012871</ele>
        <time>2023-09-29T10:54:46.214Z</time>
      </trkpt>
      <trkpt lat="46.29739" lon="4.02962">
        <ele>305.925012</ele>
        <time>2023-09-29T10:54:49.227Z</time>
      </trkpt>
      <trkpt lat="46.2975" lon="4.02966">
        <ele>305.822684</ele>
        <time>2023-09-29T10:54:52.202Z</time>
      </trkpt>
      <trkpt lat="46.29761" lon="4.02972">
        <ele>305.765715</ele>
        <time>2023-09-29T10:54:55.200Z</time>
      </trkpt>
      <trkpt lat="46.29773" lon="4.02976">
        <ele>305.735127</ele>
        <time>2023-09-29T10:54:58.220Z</time>
      </trkpt>
      <trkpt lat="46.29784" lon="4.02981">
        <ele>305.704782</ele>
        <time>2023-09-29T10:55:01.206Z</time>
      </trkpt>
      <trkpt lat="46.29796" lon="4.02986">
        <ele>305.673317</ele>
        <time>2023-09-29T10:55:04.194Z</time>
      </trkpt>
      <trkpt lat="46.29805" lon="4.02989">
        <ele>305.650474</ele>
        <time>2023-09-29T10:55:06.208Z</time>
      </trkpt>
      <trkpt lat="46.29818" lon="4.02994">
        <ele>305.617612</ele>
        <time>2023-09-29T10:55:09.213Z</time>
      </trkpt>
      <trkpt lat="46.2983" lon="4.02997">
        <ele>305.586427</ele>
        <time>2023-09-29T10:55:12.190Z</time>
      </trkpt>
      <trkpt lat="46.29839" lon="4.02999">
        <ele>305.563592</ele>
        <time>2023-09-29T10:55:14.226Z</time>
      </trkpt>
      <trkpt lat="46.29848" lon="4.03">
        <ele>305.540875</ele>
        <time>2023-09-29T10:55:16.194Z</time>
      </trkpt>
      <trkpt lat="46.2986" lon="4.03003">
        <ele>305.509134</ele>
        <time>2023-09-29T10:55:19.225Z</time>
      </trkpt>
      <trkpt lat="46.29873" lon="4.03005">
        <ele>305.47689</ele>
        <time>2023-09-29T10:55:22.205Z</time>
      </trkpt>
      <trkpt lat="46.29882" lon="4.03007">
        <ele>305.453855</ele>
        <time>2023-09-29T10:55:24.208Z</time>
      </trkpt>
      <trkpt lat="46.29895" lon="4.03009">
        <ele>305.419261</ele>
        <time>2023-09-29T10:55:27.218Z</time>
      </trkpt>
      <trkpt lat="46.29904" lon="4.03009">
        <ele>305.396426</ele>
        <time>2023-09-29T10:55:29.211Z</time>
      </trkpt>
      <trkpt lat="46.29918" lon="4.03009">
        <ele>305.361942</ele>
        <time>2023-09-29T10:55:32.215Z</time>
      </trkpt>
      <trkpt lat="46.29927" lon="4.0301">
        <ele>305.338079</ele>
        <time>2023-09-29T10:55:34.210Z</time>
      </trkpt>
      <trkpt lat="46.29941" lon="4.03009">
        <ele>305.30361</ele>
        <time>2023-09-29T10:55:37.197Z</time>
      </trkpt>
      <trkpt lat="46.29954" lon="4.03008">
        <ele>305.269099</ele>
        <time>2023-09-29T10:55:40.205Z</time>
      </trkpt>
      <trkpt lat="46.29963" lon="4.03007">
        <ele>305.245535</ele>
        <time>2023-09-29T10:55:42.188Z</time>
      </trkpt>
      <trkpt lat="46.29973" lon="4.03007">
        <ele>305.222247</ele>
        <time>2023-09-29T10:55:44.211Z</time>
      </trkpt>
      <trkpt lat="46.29982" lon="4.03006">
        <ele>305.198657</ele>
        <time>2023-09-29T10:55:46.200Z</time>
      </trkpt>
      <trkpt lat="46.29991" lon="4.03003">
        <ele>305.174294</ele>
        <time>2023-09-29T10:55:48.196Z</time>
      </trkpt>
      <trkpt lat="46.3" lon="4.03001">
        <ele>305.15119</ele>
        <time>2023-09-29T10:55:50.220Z</time>
      </trkpt>
      <trkpt lat="46.30009" lon="4.03">
        <ele>305.127145</ele>
        <time>2023-09-29T10:55:52.221Z</time>
      </trkpt>
      <trkpt lat="46.30022" lon="4.02999">
        <ele>305.093832</ele>
        <time>2023-09-29T10:55:55.208Z</time>
      </trkpt>
      <trkpt lat="46.30035" lon="4.02996">
        <ele>305.062319</ele>
        <time>2023-09-29T10:55:58.221Z</time>
      </trkpt>
      <trkpt lat="46.30047" lon="4.02994">
        <ele>305.031385</ele>
        <time>2023-09-29T10:56:01.207Z</time>
      </trkpt>
      <trkpt lat="46.30057" lon="4.02995">
        <ele>305.003771</ele>
        <time>2023-09-29T10:56:04.202Z</time>
      </trkpt>
      <trkpt lat="46.30069" lon="4.0299">
        <ele>304.973871</ele>
        <time>2023-09-29T10:56:07.199Z</time>
      </trkpt>
      <trkpt lat="46.30079" lon="4.02987">
        <ele>304.947986</ele>
        <time>2023-09-29T10:56:10.227Z</time>
      </trkpt>
      <trkpt lat="46.30088" lon="4.02986">
        <ele>304.922942</ele>
        <time>2023-09-29T10:56:13.198Z</time>
      </trkpt>
      <trkpt lat="46.30099" lon="4.02984">
        <ele>304.894539</ele>
        <time>2023-09-29T10:56:16.201Z</time>
      </trkpt>
      <trkpt lat="46.30111" lon="4.02982">
        <ele>304.858499</ele>
        <time>2023-09-29T10:56:19.208Z</time>
      </trkpt>
      <trkpt lat="46.30124" lon="4.0298">
        <ele>304.800205</ele>
        <time>2023-09-29T10:56:22.203Z</time>
      </trkpt>
      <trkpt lat="46.30137" lon="4.02977">
        <ele>304.741463</ele>
        <time>2023-09-29T10:56:25.213Z</time>
      </trkpt>
      <trkpt lat="46.3015" lon="4.02975">
        <ele>304.680622</ele>
        <time>2023-09-29T10:56:28.223Z</time>
      </trkpt>
      <trkpt lat="46.30159" lon="4.02974">
        <ele>304.63974</ele>
        <time>2023-09-29T10:56:30.209Z</time>
      </trkpt>
      <trkpt lat="46.30168" lon="4.02973">
        <ele>304.59889</ele>
        <time>2023-09-29T10:56:32.218Z</time>
      </trkpt>
      <trkpt lat="46.30181" lon="4.02971">
        <ele>304.540327</ele>
        <time>2023-09-29T10:56:35.215Z</time>
      </trkpt>
      <trkpt lat="46.3019" lon="4.02969">
        <ele>304.49974</ele>
        <time>2023-09-29T10:56:37.186Z</time>
      </trkpt>
      <trkpt lat="46.30199" lon="4.02968">
        <ele>304.45757</ele>
        <time>2023-09-29T10:56:39.210Z</time>
      </trkpt>
      <trkpt lat="46.30209" lon="4.02966">
        <ele>304.415951</ele>
        <time>2023-09-29T10:56:41.225Z</time>
      </trkpt>
      <trkpt lat="46.30218" lon="4.02964">
        <ele>304.372341</ele>
        <time>2023-09-29T10:56:43.210Z</time>
      </trkpt>
      <trkpt lat="46.30227" lon="4.02962">
        <ele>304.329964</ele>
        <time>2023-09-29T10:56:45.210Z</time>
      </trkpt>
      <trkpt lat="46.30237" lon="4.02961">
        <ele>304.287628</ele>
        <time>2023-09-29T10:56:47.211Z</time>
      </trkpt>
      <trkpt lat="46.30246" lon="4.02959">
        <ele>304.245698</ele>
        <time>2023-09-29T10:56:49.213Z</time>
      </trkpt>
      <trkpt lat="46.30255" lon="4.02957">
        <ele>304.203949</ele>
        <time>2023-09-29T10:56:51.204Z</time>
      </trkpt>
      <trkpt lat="46.30265" lon="4.02957">
        <ele>304.161466</ele>
        <time>2023-09-29T10:56:53.224Z</time>
      </trkpt>
      <trkpt lat="46.30278" lon="4.02955">
        <ele>304.102484</ele>
        <time>2023-09-29T10:56:56.230Z</time>
      </trkpt>
      <trkpt lat="46.3029" lon="4.02952">
        <ele>304.056094</ele>
        <time>2023-09-29T10:56:59.234Z</time>
      </trkpt>
      <trkpt lat="46.30302" lon="4.02949">
        <ele>304.046701</ele>
        <time>2023-09-29T10:57:02.217Z</time>
      </trkpt>
      <trkpt lat="46.30312" lon="4.02949">
        <ele>304.038269</ele>
        <time>2023-09-29T10:57:05.192Z</time>
      </trkpt>
      <trkpt lat="46.30322" lon="4.02947">
        <ele>304.029757</ele>
        <time>2023-09-29T10:57:08.217Z</time>
      </trkpt>
      <trkpt lat="46.30333" lon="4.02944">
        <ele>304.021181</ele>
        <time>2023-09-29T10:57:11.202Z</time>
      </trkpt>
      <trkpt lat="46.30344" lon="4.02941">
        <ele>304.011985</ele>
        <time>2023-09-29T10:57:14.234Z</time>
      </trkpt>
      <trkpt lat="46.30354" lon="4.02941">
        <ele>304.003632</ele>
        <time>2023-09-29T10:57:17.189Z</time>
      </trkpt>
      <trkpt lat="46.30366" lon="4.0294">
        <ele>303.994119</ele>
        <time>2023-09-29T10:57:20.190Z</time>
      </trkpt>
      <trkpt lat="46.30378" lon="4.02937">
        <ele>303.984113</ele>
        <time>2023-09-29T10:57:23.208Z</time>
      </trkpt>
      <trkpt lat="46.3039" lon="4.02936">
        <ele>303.974439</ele>
        <time>2023-09-29T10:57:26.209Z</time>
      </trkpt>
      <trkpt lat="46.30404" lon="4.02934">
        <ele>303.963462</ele>
        <time>2023-09-29T10:57:29.210Z</time>
      </trkpt>
      <trkpt lat="46.30413" lon="4.02932">
        <ele>303.955848</ele>
        <time>2023-09-29T10:57:31.204Z</time>
      </trkpt>
      <trkpt lat="46.30426" lon="4.02931">
        <ele>303.945437</ele>
        <time>2023-09-29T10:57:34.207Z</time>
      </trkpt>
      <trkpt lat="46.30435" lon="4.02929">
        <ele>303.937911</ele>
        <time>2023-09-29T10:57:36.210Z</time>
      </trkpt>
      <trkpt lat="46.30444" lon="4.02927">
        <ele>303.930521</ele>
        <time>2023-09-29T10:57:38.214Z</time>
      </trkpt>
      <trkpt lat="46.30453" lon="4.02925">
        <ele>303.922801</ele>
        <time>2023-09-29T10:57:40.210Z</time>
      </trkpt>
      <trkpt lat="46.30467" lon="4.02923">
        <ele>303.918896</ele>
        <time>2023-09-29T10:57:43.222Z</time>
      </trkpt>
      <trkpt lat="46.30476" lon="4.02921">
        <ele>303.970883</ele>
        <time>2023-09-29T10:57:45.226Z</time>
      </trkpt>
      <trkpt lat="46.30486" lon="4.02919">
        <ele>304.024432</ele>
        <time>2023-09-29T10:57:47.203Z</time>
      </trkpt>
      <trkpt lat="46.30495" lon="4.02917">
        <ele>304.075657</ele>
        <time>2023-09-29T10:57:49.206Z</time>
      </trkpt>
      <trkpt lat="46.30505" lon="4.02917">
        <ele>304.127176</ele>
        <time>2023-09-29T10:57:51.216Z</time>
      </trkpt>
      <trkpt lat="46.30514" lon="4.02916">
        <ele>304.177824</ele>
        <time>2023-09-29T10:57:53.221Z</time>
      </trkpt>
      <trkpt lat="46.30524" lon="4.02914">
        <ele>304.231583</ele>
        <time>2023-09-29T10:57:55.232Z</time>
      </trkpt>
      <trkpt lat="46.30533" lon="4.02912">
        <ele>304.281422</ele>
        <time>2023-09-29T10:57:57.206Z</time>
      </trkpt>
      <trkpt lat="46.30543" lon="4.02911">
        <ele>304.334137</ele>
        <time>2023-09-29T10:57:59.215Z</time>
      </trkpt>
      <trkpt lat="46.30552" lon="4.02909">
        <ele>304.382904</ele>
        <time>2023-09-29T10:58:01.214Z</time>
      </trkpt>
      <trkpt lat="46.30561" lon="4.02907">
        <ele>304.434891</ele>
        <time>2023-09-29T10:58:03.209Z</time>
      </trkpt>
      <trkpt lat="46.30571" lon="4.02906">
        <ele>304.487538</ele>
        <time>2023-09-29T10:58:05.231Z</time>
      </trkpt>
      <trkpt lat="46.3058" lon="4.02904">
        <ele>304.536304</ele>
        <time>2023-09-29T10:58:07.213Z</time>
      </trkpt>
      <trkpt lat="46.30589" lon="4.02902">
        <ele>304.589849</ele>
        <time>2023-09-29T10:58:09.194Z</time>
      </trkpt>
      <trkpt lat="46.30599" lon="4.029">
        <ele>304.639418</ele>
        <time>2023-09-29T10:58:11.184Z</time>
      </trkpt>
      <trkpt lat="46.30611" lon="4.02899">
        <ele>304.708522</ele>
        <time>2023-09-29T10:58:14.186Z</time>
      </trkpt>
      <trkpt lat="46.30624" lon="4.02896">
        <ele>304.779075</ele>
        <time>2023-09-29T10:58:17.209Z</time>
      </trkpt>
      <trkpt lat="46.30636" lon="4.02894">
        <ele>304.844644</ele>
        <time>2023-09-29T10:58:20.206Z</time>
      </trkpt>
      <trkpt lat="46.30648" lon="4.02892">
        <ele>304.907636</ele>
        <time>2023-09-29T10:58:23.206Z</time>
      </trkpt>
      <trkpt lat="46.30661" lon="4.0289">
        <ele>304.971484</ele>
        <time>2023-09-29T10:58:26.196Z</time>
      </trkpt>
      <trkpt lat="46.30674" lon="4.02888">
        <ele>305.034959</ele>
        <time>2023-09-29T10:58:29.211Z</time>
      </trkpt>
      <trkpt lat="46.30686" lon="4.02885">
        <ele>305.093808</ele>
        <time>2023-09-29T10:58:32.209Z</time>
      </trkpt>
      <trkpt lat="46.30695" lon="4.02884">
        <ele>305.138301</ele>
        <time>2023-09-29T10:58:34.186Z</time>
      </trkpt>
      <trkpt lat="46.30707" lon="4.02881">
        <ele>305.196669</ele>
        <time>2023-09-29T10:58:37.216Z</time>
      </trkpt>
      <trkpt lat="46.3072" lon="4.02879">
        <ele>305.257925</ele>
        <time>2023-09-29T10:58:40.191Z</time>
      </trkpt>
      <trkpt lat="46.30731" lon="4.02877">
        <ele>305.312879</ele>
        <time>2023-09-29T10:58:43.219Z</time>
      </trkpt>
      <trkpt lat="46.30743" lon="4.02875">
        <ele>305.37384</ele>
        <time>2023-09-29T10:58:46.206Z</time>
      </trkpt>
      <trkpt lat="46.30753" lon="4.02873">
        <ele>305.419377</ele>
        <time>2023-09-29T10:58:48.206Z</time>
      </trkpt>
      <trkpt lat="46.30762" lon="4.02872">
        <ele>305.464252</ele>
        <time>2023-09-29T10:58:50.222Z</time>
      </trkpt>
      <trkpt lat="46.30771" lon="4.02871">
        <ele>305.508642</ele>
        <time>2023-09-29T10:58:52.219Z</time>
      </trkpt>
      <trkpt lat="46.3078" lon="4.02869">
        <ele>305.553741</ele>
        <time>2023-09-29T10:58:54.194Z</time>
      </trkpt>
      <trkpt lat="46.30793" lon="4.02868">
        <ele>305.618604</ele>
        <time>2023-09-29T10:58:57.197Z</time>
      </trkpt>
      <trkpt lat="46.30803" lon="4.02866">
        <ele>305.663703</ele>
        <time>2023-09-29T10:58:59.198Z</time>
      </trkpt>
      <trkpt lat="46.30812" lon="4.02864">
        <ele>305.708897</ele>
        <time>2023-09-29T10:59:01.208Z</time>
      </trkpt>
      <trkpt lat="46.30825" lon="4.02862">
        <ele>305.757993</ele>
        <time>2023-09-29T10:59:04.188Z</time>
      </trkpt>
      <trkpt lat="46.30837" lon="4.0286">
        <ele>305.737255</ele>
        <time>2023-09-29T10:59:07.207Z</time>
      </trkpt>
      <trkpt lat="46.3085" lon="4.02857">
        <ele>305.714803</ele>
        <time>2023-09-29T10:59:10.225Z</time>
      </trkpt>
      <trkpt lat="46.30859" lon="4.02856">
        <ele>305.698599</ele>
        <time>2023-09-29T10:59:12.231Z</time>
      </trkpt>
      <trkpt lat="46.30869" lon="4.02854">
        <ele>305.68271</ele>
        <time>2023-09-29T10:59:14.195Z</time>
      </trkpt>
      <trkpt lat="46.30878" lon="4.02853">
        <ele>305.667213</ele>
        <time>2023-09-29T10:59:16.203Z</time>
      </trkpt>
      <trkpt lat="46.30887" lon="4.02852">
        <ele>305.65101</ele>
        <time>2023-09-29T10:59:18.210Z</time>
      </trkpt>
      <trkpt lat="46.30897" lon="4.02851">
        <ele>305.635302</ele>
        <time>2023-09-29T10:59:20.198Z</time>
      </trkpt>
      <trkpt lat="46.30906" lon="4.02849">
        <ele>305.619385</ele>
        <time>2023-09-29T10:59:22.214Z</time>
      </trkpt>
      <trkpt lat="46.30915" lon="4.02848">
        <ele>305.604074</ele>
        <time>2023-09-29T10:59:24.205Z</time>
      </trkpt>
      <trkpt lat="46.30925" lon="4.02847">
        <ele>305.587576</ele>
        <time>2023-09-29T10:59:26.207Z</time>
      </trkpt>
      <trkpt lat="46.30934" lon="4.02848">
        <ele>305.571424</ele>
        <time>2023-09-29T10:59:28.231Z</time>
      </trkpt>
      <trkpt lat="46.30944" lon="4.02848">
        <ele>305.555292</ele>
        <time>2023-09-29T10:59:30.209Z</time>
      </trkpt>
      <trkpt lat="46.30953" lon="4.02849">
        <ele>305.538449</ele>
        <time>2023-09-29T10:59:32.204Z</time>
      </trkpt>
      <trkpt lat="46.30963" lon="4.02849">
        <ele>305.521974</ele>
        <time>2023-09-29T10:59:34.210Z</time>
      </trkpt>
      <trkpt lat="46.30973" lon="4.02849">
        <ele>305.505323</ele>
        <time>2023-09-29T10:59:36.206Z</time>
      </trkpt>
      <trkpt lat="46.30983" lon="4.02849">
        <ele>305.488001</ele>
        <time>2023-09-29T10:59:38.208Z</time>
      </trkpt>
      <trkpt lat="46.30993" lon="4.02849">
        <ele>305.47102</ele>
        <time>2023-09-29T10:59:40.202Z</time>
      </trkpt>
      <trkpt lat="46.31003" lon="4.02849">
        <ele>305.454097</ele>
        <time>2023-09-29T10:59:42.204Z</time>
      </trkpt>
      <trkpt lat="46.31013" lon="4.02848">
        <ele>305.422052</ele>
        <time>2023-09-29T10:59:44.220Z</time>
      </trkpt>
      <trkpt lat="46.31022" lon="4.02848">
        <ele>305.391304</ele>
        <time>2023-09-29T10:59:46.221Z</time>
      </trkpt>
      <trkpt lat="46.31032" lon="4.02848">
        <ele>305.359916</ele>
        <time>2023-09-29T10:59:48.211Z</time>
      </trkpt>
      <trkpt lat="46.31042" lon="4.02848">
        <ele>305.326289</ele>
        <time>2023-09-29T10:59:50.207Z</time>
      </trkpt>
      <trkpt lat="46.31053" lon="4.02849">
        <ele>305.292923</ele>
        <time>2023-09-29T10:59:52.206Z</time>
      </trkpt>
      <trkpt lat="46.31063" lon="4.02849">
        <ele>305.26086</ele>
        <time>2023-09-29T10:59:54.201Z</time>
      </trkpt>
      <trkpt lat="46.31073" lon="4.02849">
        <ele>305.228816</ele>
        <time>2023-09-29T10:59:56.206Z</time>
      </trkpt>
      <trkpt lat="46.31083" lon="4.02849">
        <ele>305.19679</ele>
        <time>2023-09-29T10:59:58.206Z</time>
      </trkpt>
      <trkpt lat="46.31093" lon="4.02849">
        <ele>305.16284</ele>
        <time>2023-09-29T11:00:00.208Z</time>
      </trkpt>
      <trkpt lat="46.31104" lon="4.02849">
        <ele>305.12857</ele>
        <time>2023-09-29T11:00:02.198Z</time>
      </trkpt>
      <trkpt lat="46.31114" lon="4.02848">
        <ele>305.096222</ele>
        <time>2023-09-29T11:00:04.198Z</time>
      </trkpt>
      <trkpt lat="46.31124" lon="4.02848">
        <ele>305.065144</ele>
        <time>2023-09-29T11:00:06.212Z</time>
      </trkpt>
      <trkpt lat="46.31133" lon="4.02848">
        <ele>305.03504</ele>
        <time>2023-09-29T11:00:08.220Z</time>
      </trkpt>
      <trkpt lat="46.31147" lon="4.02847">
        <ele>304.992399</ele>
        <time>2023-09-29T11:00:11.209Z</time>
      </trkpt>
      <trkpt lat="46.31159" lon="4.02847">
        <ele>304.953638</ele>
        <time>2023-09-29T11:00:14.202Z</time>
      </trkpt>
      <trkpt lat="46.31168" lon="4.02846">
        <ele>304.923436</ele>
        <time>2023-09-29T11:00:17.218Z</time>
      </trkpt>
      <trkpt lat="46.31178" lon="4.02844">
        <ele>304.891191</ele>
        <time>2023-09-29T11:00:20.208Z</time>
      </trkpt>
      <trkpt lat="46.31188" lon="4.02847">
        <ele>304.852108</ele>
        <time>2023-09-29T11:00:23.230Z</time>
      </trkpt>
      <trkpt lat="46.31201" lon="4.02848">
        <ele>304.797329</ele>
        <time>2023-09-29T11:00:26.211Z</time>
      </trkpt>
      <trkpt lat="46.31214" lon="4.02849">
        <ele>304.742947</ele>
        <time>2023-09-29T11:00:29.239Z</time>
      </trkpt>
      <trkpt lat="46.31227" lon="4.02849">
        <ele>304.688982</ele>
        <time>2023-09-29T11:00:32.206Z</time>
      </trkpt>
      <trkpt lat="46.31236" lon="4.0285">
        <ele>304.650529</ele>
        <time>2023-09-29T11:00:34.213Z</time>
      </trkpt>
      <trkpt lat="46.31246" lon="4.02849">
        <ele>304.609979</ele>
        <time>2023-09-29T11:00:36.204Z</time>
      </trkpt>
      <trkpt lat="46.31259" lon="4.02849">
        <ele>304.553537</ele>
        <time>2023-09-29T11:00:39.189Z</time>
      </trkpt>
      <trkpt lat="46.31269" lon="4.02848">
        <ele>304.514212</ele>
        <time>2023-09-29T11:00:41.228Z</time>
      </trkpt>
      <trkpt lat="46.31278" lon="4.02848">
        <ele>304.474923</ele>
        <time>2023-09-29T11:00:43.204Z</time>
      </trkpt>
      <trkpt lat="46.31288" lon="4.02847">
        <ele>304.43351</ele>
        <time>2023-09-29T11:00:45.185Z</time>
      </trkpt>
      <trkpt lat="46.31298" lon="4.02846">
        <ele>304.390761</ele>
        <time>2023-09-29T11:00:47.227Z</time>
      </trkpt>
      <trkpt lat="46.31308" lon="4.02847">
        <ele>304.348539</ele>
        <time>2023-09-29T11:00:49.222Z</time>
      </trkpt>
      <trkpt lat="46.31318" lon="4.02847">
        <ele>304.30758</ele>
        <time>2023-09-29T11:00:51.224Z</time>
      </trkpt>
      <trkpt lat="46.31329" lon="4.02847">
        <ele>304.264496</ele>
        <time>2023-09-29T11:00:53.217Z</time>
      </trkpt>
      <trkpt lat="46.31339" lon="4.02848">
        <ele>304.221841</ele>
        <time>2023-09-29T11:00:55.216Z</time>
      </trkpt>
      <trkpt lat="46.31349" lon="4.02848">
        <ele>304.177534</ele>
        <time>2023-09-29T11:00:57.209Z</time>
      </trkpt>
      <trkpt lat="46.3136" lon="4.02848">
        <ele>304.134903</ele>
        <time>2023-09-29T11:00:59.206Z</time>
      </trkpt>
      <trkpt lat="46.3137" lon="4.02848">
        <ele>304.080975</ele>
        <time>2023-09-29T11:01:01.222Z</time>
      </trkpt>
      <trkpt lat="46.3138" lon="4.02848">
        <ele>304.026333</ele>
        <time>2023-09-29T11:01:03.213Z</time>
      </trkpt>
      <trkpt lat="46.3139" lon="4.02848">
        <ele>303.972772</ele>
        <time>2023-09-29T11:01:05.195Z</time>
      </trkpt>
      <trkpt lat="46.31401" lon="4.02848">
        <ele>303.918138</ele>
        <time>2023-09-29T11:01:07.201Z</time>
      </trkpt>
      <trkpt lat="46.3141" lon="4.02847">
        <ele>303.866615</ele>
        <time>2023-09-29T11:01:09.211Z</time>
      </trkpt>
      <trkpt lat="46.3142" lon="4.02847">
        <ele>303.813563</ele>
        <time>2023-09-29T11:01:11.202Z</time>
      </trkpt>
      <trkpt lat="46.31431" lon="4.02848">
        <ele>303.75944</ele>
        <time>2023-09-29T11:01:13.211Z</time>
      </trkpt>
      <trkpt lat="46.3144" lon="4.02847">
        <ele>303.707464</ele>
        <time>2023-09-29T11:01:15.213Z</time>
      </trkpt>
      <trkpt lat="46.31451" lon="4.02848">
        <ele>303.652301</ele>
        <time>2023-09-29T11:01:17.210Z</time>
      </trkpt>
      <trkpt lat="46.31461" lon="4.02848">
        <ele>303.596599</ele>
        <time>2023-09-29T11:01:19.212Z</time>
      </trkpt>
      <trkpt lat="46.31472" lon="4.02848">
        <ele>303.540356</ele>
        <time>2023-09-29T11:01:21.216Z</time>
      </trkpt>
      <trkpt lat="46.31482" lon="4.02848">
        <ele>303.487855</ele>
        <time>2023-09-29T11:01:23.212Z</time>
      </trkpt>
      <trkpt lat="46.31496" lon="4.02847">
        <ele>303.414626</ele>
        <time>2023-09-29T11:01:26.191Z</time>
      </trkpt>
      <trkpt lat="46.31505" lon="4.02848">
        <ele>303.363632</ele>
        <time>2023-09-29T11:01:28.204Z</time>
      </trkpt>
      <trkpt lat="46.31516" lon="4.02848">
        <ele>303.305818</ele>
        <time>2023-09-29T11:01:30.220Z</time>
      </trkpt>
      <trkpt lat="46.31526" lon="4.02848">
        <ele>303.252236</ele>
        <time>2023-09-29T11:01:32.200Z</time>
      </trkpt>
      <trkpt lat="46.31537" lon="4.02848">
        <ele>303.196494</ele>
        <time>2023-09-29T11:01:34.200Z</time>
      </trkpt>
      <trkpt lat="46.31547" lon="4.02847">
        <ele>303.113489</ele>
        <time>2023-09-29T11:01:36.203Z</time>
      </trkpt>
      <trkpt lat="46.31557" lon="4.02847">
        <ele>303.01275</ele>
        <time>2023-09-29T11:01:38.196Z</time>
      </trkpt>
      <trkpt lat="46.31567" lon="4.02847">
        <ele>302.907947</ele>
        <time>2023-09-29T11:01:40.204Z</time>
      </trkpt>
      <trkpt lat="46.31578" lon="4.02848">
        <ele>302.802994</ele>
        <time>2023-09-29T11:01:42.209Z</time>
      </trkpt>
      <trkpt lat="46.31588" lon="4.02848">
        <ele>302.700158</ele>
        <time>2023-09-29T11:01:44.217Z</time>
      </trkpt>
      <trkpt lat="46.31598" lon="4.02848">
        <ele>302.594302</ele>
        <time>2023-09-29T11:01:46.223Z</time>
      </trkpt>
      <trkpt lat="46.31609" lon="4.02847">
        <ele>302.487485</ele>
        <time>2023-09-29T11:01:48.204Z</time>
      </trkpt>
      <trkpt lat="46.31619" lon="4.02848">
        <ele>302.384697</ele>
        <time>2023-09-29T11:01:50.229Z</time>
      </trkpt>
      <trkpt lat="46.3163" lon="4.02848">
        <ele>302.277914</ele>
        <time>2023-09-29T11:01:52.211Z</time>
      </trkpt>
      <trkpt lat="46.3164" lon="4.02848">
        <ele>302.17516</ele>
        <time>2023-09-29T11:01:54.216Z</time>
      </trkpt>
      <trkpt lat="46.31651" lon="4.02847">
        <ele>302.069304</ele>
        <time>2023-09-29T11:01:56.211Z</time>
      </trkpt>
      <trkpt lat="46.31661" lon="4.02848">
        <ele>301.959493</ele>
        <time>2023-09-29T11:01:58.210Z</time>
      </trkpt>
      <trkpt lat="46.31672" lon="4.02848">
        <ele>301.855713</ele>
        <time>2023-09-29T11:02:00.225Z</time>
      </trkpt>
      <trkpt lat="46.31682" lon="4.02847">
        <ele>301.752501</ele>
        <time>2023-09-29T11:02:02.208Z</time>
      </trkpt>
      <trkpt lat="46.31693" lon="4.02846">
        <ele>301.64367</ele>
        <time>2023-09-29T11:02:04.207Z</time>
      </trkpt>
      <trkpt lat="46.31703" lon="4.02847">
        <ele>301.539828</ele>
        <time>2023-09-29T11:02:06.205Z</time>
      </trkpt>
      <trkpt lat="46.31714" lon="4.02847">
        <ele>301.430952</ele>
        <time>2023-09-29T11:02:08.191Z</time>
      </trkpt>
      <trkpt lat="46.31724" lon="4.02848">
        <ele>301.346393</ele>
        <time>2023-09-29T11:02:10.209Z</time>
      </trkpt>
      <trkpt lat="46.31734" lon="4.02848">
        <ele>301.304307</ele>
        <time>2023-09-29T11:02:12.198Z</time>
      </trkpt>
      <trkpt lat="46.31744" lon="4.02848">
        <ele>301.261346</ele>
        <time>2023-09-29T11:02:14.201Z</time>
      </trkpt>
      <trkpt lat="46.31755" lon="4.02848">
        <ele>301.216705</ele>
        <time>2023-09-29T11:02:16.186Z</time>
      </trkpt>
      <trkpt lat="46.31765" lon="4.02848">
        <ele>301.17376</ele>
        <time>2023-09-29T11:02:18.209Z</time>
      </trkpt>
      <trkpt lat="46.31775" lon="4.02848">
        <ele>301.133374</ele>
        <time>2023-09-29T11:02:20.196Z</time>
      </trkpt>
      <trkpt lat="46.31784" lon="4.02848">
        <ele>301.091279</ele>
        <time>2023-09-29T11:02:22.219Z</time>
      </trkpt>
      <trkpt lat="46.31795" lon="4.02847">
        <ele>301.047901</ele>
        <time>2023-09-29T11:02:24.203Z</time>
      </trkpt>
      <trkpt lat="46.31804" lon="4.02847">
        <ele>301.006231</ele>
        <time>2023-09-29T11:02:26.226Z</time>
      </trkpt>
      <trkpt lat="46.31815" lon="4.02847">
        <ele>300.962869</ele>
        <time>2023-09-29T11:02:28.210Z</time>
      </trkpt>
      <trkpt lat="46.31825" lon="4.02847">
        <ele>300.919929</ele>
        <time>2023-09-29T11:02:30.182Z</time>
      </trkpt>
      <trkpt lat="46.31835" lon="4.02847">
        <ele>300.877414</ele>
        <time>2023-09-29T11:02:32.205Z</time>
      </trkpt>
      <trkpt lat="46.31845" lon="4.02847">
        <ele>300.834866</ele>
        <time>2023-09-29T11:02:34.201Z</time>
      </trkpt>
      <trkpt lat="46.31855" lon="4.02848">
        <ele>300.791032</ele>
        <time>2023-09-29T11:02:36.210Z</time>
      </trkpt>
      <trkpt lat="46.31865" lon="4.02847">
        <ele>300.747995</ele>
        <time>2023-09-29T11:02:38.221Z</time>
      </trkpt>
      <trkpt lat="46.31876" lon="4.02846">
        <ele>300.70328</ele>
        <time>2023-09-29T11:02:40.194Z</time>
      </trkpt>
      <trkpt lat="46.31886" lon="4.02845">
        <ele>300.659839</ele>
        <time>2023-09-29T11:02:42.201Z</time>
      </trkpt>
      <trkpt lat="46.31896" lon="4.02845">
        <ele>300.616473</ele>
        <time>2023-09-29T11:02:44.214Z</time>
      </trkpt>
      <trkpt lat="46.31906" lon="4.02845">
        <ele>300.601811</ele>
        <time>2023-09-29T11:02:46.205Z</time>
      </trkpt>
      <trkpt lat="46.31916" lon="4.02845">
        <ele>300.608402</ele>
        <time>2023-09-29T11:02:48.222Z</time>
      </trkpt>
      <trkpt lat="46.31926" lon="4.02846">
        <ele>300.614871</ele>
        <time>2023-09-29T11:02:50.228Z</time>
      </trkpt>
      <trkpt lat="46.31937" lon="4.02846">
        <ele>300.621662</ele>
        <time>2023-09-29T11:02:52.182Z</time>
      </trkpt>
      <trkpt lat="46.31947" lon="4.02846">
        <ele>300.628387</ele>
        <time>2023-09-29T11:02:54.203Z</time>
      </trkpt>
      <trkpt lat="46.31957" lon="4.02845">
        <ele>300.634783</ele>
        <time>2023-09-29T11:02:56.210Z</time>
      </trkpt>
      <trkpt lat="46.31967" lon="4.02846">
        <ele>300.641183</ele>
        <time>2023-09-29T11:02:58.209Z</time>
      </trkpt>
      <trkpt lat="46.31977" lon="4.02846">
        <ele>300.647515</ele>
        <time>2023-09-29T11:03:00.226Z</time>
      </trkpt>
      <trkpt lat="46.31987" lon="4.02846">
        <ele>300.654041</ele>
        <time>2023-09-29T11:03:02.229Z</time>
      </trkpt>
      <trkpt lat="46.31997" lon="4.02846">
        <ele>300.660567</ele>
        <time>2023-09-29T11:03:04.228Z</time>
      </trkpt>
      <trkpt lat="46.32007" lon="4.02846">
        <ele>300.666707</ele>
        <time>2023-09-29T11:03:06.209Z</time>
      </trkpt>
      <trkpt lat="46.32016" lon="4.02845">
        <ele>300.67285</ele>
        <time>2023-09-29T11:03:08.204Z</time>
      </trkpt>
      <trkpt lat="46.32026" lon="4.02844">
        <ele>300.67913</ele>
        <time>2023-09-29T11:03:10.209Z</time>
      </trkpt>
      <trkpt lat="46.32036" lon="4.02844">
        <ele>300.685462</ele>
        <time>2023-09-29T11:03:12.207Z</time>
      </trkpt>
      <trkpt lat="46.32046" lon="4.02844">
        <ele>300.691861</ele>
        <time>2023-09-29T11:03:14.222Z</time>
      </trkpt>
      <trkpt lat="46.32056" lon="4.02843">
        <ele>300.69846</ele>
        <time>2023-09-29T11:03:16.206Z</time>
      </trkpt>
      <trkpt lat="46.32065" lon="4.02845">
        <ele>300.704635</ele>
        <time>2023-09-29T11:03:18.196Z</time>
      </trkpt>
      <trkpt lat="46.32076" lon="4.02844">
        <ele>300.711292</ele>
        <time>2023-09-29T11:03:20.218Z</time>
      </trkpt>
      <trkpt lat="46.32085" lon="4.02844">
        <ele>300.70929</ele>
        <time>2023-09-29T11:03:22.212Z</time>
      </trkpt>
      <trkpt lat="46.32095" lon="4.02844">
        <ele>300.70025</ele>
        <time>2023-09-29T11:03:24.213Z</time>
      </trkpt>
      <trkpt lat="46.32104" lon="4.02845">
        <ele>300.691907</ele>
        <time>2023-09-29T11:03:26.214Z</time>
      </trkpt>
      <trkpt lat="46.32114" lon="4.02845">
        <ele>300.682776</ele>
        <time>2023-09-29T11:03:28.226Z</time>
      </trkpt>
      <trkpt lat="46.32124" lon="4.02844">
        <ele>300.673354</ele>
        <time>2023-09-29T11:03:30.225Z</time>
      </trkpt>
      <trkpt lat="46.32134" lon="4.02844">
        <ele>300.664406</ele>
        <time>2023-09-29T11:03:32.211Z</time>
      </trkpt>
      <trkpt lat="46.32143" lon="4.02845">
        <ele>300.65601</ele>
        <time>2023-09-29T11:03:34.206Z</time>
      </trkpt>
      <trkpt lat="46.32157" lon="4.02844">
        <ele>300.643186</ele>
        <time>2023-09-29T11:03:37.232Z</time>
      </trkpt>
      <trkpt lat="46.32167" lon="4.02844">
        <ele>300.634147</ele>
        <time>2023-09-29T11:03:39.202Z</time>
      </trkpt>
      <trkpt lat="46.3218" lon="4.02844">
        <ele>300.622246</ele>
        <time>2023-09-29T11:03:42.207Z</time>
      </trkpt>
      <trkpt lat="46.32191" lon="4.02844">
        <ele>300.612099</ele>
        <time>2023-09-29T11:03:45.208Z</time>
      </trkpt>
      <trkpt lat="46.32201" lon="4.02846">
        <ele>300.602577</ele>
        <time>2023-09-29T11:03:48.200Z</time>
      </trkpt>
      <trkpt lat="46.32212" lon="4.02848">
        <ele>300.592518</ele>
        <time>2023-09-29T11:03:52.200Z</time>
      </trkpt>
      <trkpt lat="46.32221" lon="4.02849">
        <ele>300.58402</ele>
        <time>2023-09-29T11:03:55.225Z</time>
      </trkpt>
      <trkpt lat="46.32232" lon="4.02848">
        <ele>300.573482</ele>
        <time>2023-09-29T11:03:58.213Z</time>
      </trkpt>
      <trkpt lat="46.32244" lon="4.02847">
        <ele>300.562687</ele>
        <time>2023-09-29T11:04:01.214Z</time>
      </trkpt>
      <trkpt lat="46.32257" lon="4.02848">
        <ele>300.55069</ele>
        <time>2023-09-29T11:04:04.208Z</time>
      </trkpt>
      <trkpt lat="46.3227" lon="4.02848">
        <ele>300.587994</ele>
        <time>2023-09-29T11:04:07.209Z</time>
      </trkpt>
      <trkpt lat="46.32283" lon="4.02849">
        <ele>300.639393</ele>
        <time>2023-09-29T11:04:10.210Z</time>
      </trkpt>
      <trkpt lat="46.32296" lon="4.02848">
        <ele>300.69117</ele>
        <time>2023-09-29T11:04:13.203Z</time>
      </trkpt>
      <trkpt lat="46.32309" lon="4.02847">
        <ele>300.744578</ele>
        <time>2023-09-29T11:04:16.192Z</time>
      </trkpt>
      <trkpt lat="46.32322" lon="4.02847">
        <ele>300.795977</ele>
        <time>2023-09-29T11:04:19.193Z</time>
      </trkpt>
      <trkpt lat="46.32335" lon="4.02845">
        <ele>300.848291</ele>
        <time>2023-09-29T11:04:22.190Z</time>
      </trkpt>
      <trkpt lat="46.32349" lon="4.02844">
        <ele>300.90207</ele>
        <time>2023-09-29T11:04:25.193Z</time>
      </trkpt>
      <trkpt lat="46.32358" lon="4.02844">
        <ele>300.938824</ele>
        <time>2023-09-29T11:04:27.197Z</time>
      </trkpt>
      <trkpt lat="46.32368" lon="4.02843">
        <ele>300.975633</ele>
        <time>2023-09-29T11:04:29.208Z</time>
      </trkpt>
      <trkpt lat="46.32377" lon="4.02843">
        <ele>301.011992</ele>
        <time>2023-09-29T11:04:31.186Z</time>
      </trkpt>
      <trkpt lat="46.32386" lon="4.02844">
        <ele>301.049626</ele>
        <time>2023-09-29T11:04:33.198Z</time>
      </trkpt>
      <trkpt lat="46.32396" lon="4.02844">
        <ele>301.085976</ele>
        <time>2023-09-29T11:04:35.211Z</time>
      </trkpt>
      <trkpt lat="46.32405" lon="4.02844">
        <ele>301.12233</ele>
        <time>2023-09-29T11:04:37.209Z</time>
      </trkpt>
      <trkpt lat="46.32418" lon="4.02843">
        <ele>301.172976</ele>
        <time>2023-09-29T11:04:40.205Z</time>
      </trkpt>
      <trkpt lat="46.3243" lon="4.02843">
        <ele>301.223945</ele>
        <time>2023-09-29T11:04:43.210Z</time>
      </trkpt>
      <trkpt lat="46.32442" lon="4.02844">
        <ele>301.254724</ele>
        <time>2023-09-29T11:04:46.207Z</time>
      </trkpt>
      <trkpt lat="46.32453" lon="4.02845">
        <ele>301.239575</ele>
        <time>2023-09-29T11:04:49.207Z</time>
      </trkpt>
      <trkpt lat="46.32464" lon="4.02845">
        <ele>301.224715</ele>
        <time>2023-09-29T11:04:52.213Z</time>
      </trkpt>
      <trkpt lat="46.32476" lon="4.02845">
        <ele>301.208326</ele>
        <time>2023-09-29T11:04:55.209Z</time>
      </trkpt>
      <trkpt lat="46.32488" lon="4.02845">
        <ele>301.191515</ele>
        <time>2023-09-29T11:04:58.215Z</time>
      </trkpt>
      <trkpt lat="46.325" lon="4.02845">
        <ele>301.174708</ele>
        <time>2023-09-29T11:05:01.207Z</time>
      </trkpt>
      <trkpt lat="46.32511" lon="4.02845">
        <ele>301.158871</ele>
        <time>2023-09-29T11:05:04.195Z</time>
      </trkpt>
      <trkpt lat="46.32522" lon="4.02844">
        <ele>301.14413</ele>
        <time>2023-09-29T11:05:07.205Z</time>
      </trkpt>
      <trkpt lat="46.32535" lon="4.02845">
        <ele>301.125924</ele>
        <time>2023-09-29T11:05:10.206Z</time>
      </trkpt>
      <trkpt lat="46.32548" lon="4.02845">
        <ele>301.107453</ele>
        <time>2023-09-29T11:05:13.187Z</time>
      </trkpt>
      <trkpt lat="46.32562" lon="4.02845">
        <ele>301.08912</ele>
        <time>2023-09-29T11:05:16.183Z</time>
      </trkpt>
      <trkpt lat="46.32571" lon="4.02845">
        <ele>301.076062</ele>
        <time>2023-09-29T11:05:18.209Z</time>
      </trkpt>
      <trkpt lat="46.3258" lon="4.02843">
        <ele>301.062768</ele>
        <time>2023-09-29T11:05:20.204Z</time>
      </trkpt>
      <trkpt lat="46.3259" lon="4.02844">
        <ele>301.049117</ele>
        <time>2023-09-29T11:05:22.206Z</time>
      </trkpt>
      <trkpt lat="46.32601" lon="4.02845">
        <ele>301.034804</ele>
        <time>2023-09-29T11:05:24.205Z</time>
      </trkpt>
      <trkpt lat="46.32611" lon="4.02844">
        <ele>301.020063</ele>
        <time>2023-09-29T11:05:26.227Z</time>
      </trkpt>
      <trkpt lat="46.32621" lon="4.02844">
        <ele>301.002812</ele>
        <time>2023-09-29T11:05:28.204Z</time>
      </trkpt>
      <trkpt lat="46.32632" lon="4.02843">
        <ele>300.975328</ele>
        <time>2023-09-29T11:05:30.213Z</time>
      </trkpt>
      <trkpt lat="46.32641" lon="4.02843">
        <ele>300.948944</ele>
        <time>2023-09-29T11:05:32.205Z</time>
      </trkpt>
      <trkpt lat="46.32652" lon="4.02844">
        <ele>300.921211</ele>
        <time>2023-09-29T11:05:34.204Z</time>
      </trkpt>
      <trkpt lat="46.32662" lon="4.02843">
        <ele>300.892365</ele>
        <time>2023-09-29T11:05:36.206Z</time>
      </trkpt>
      <trkpt lat="46.32673" lon="4.02842">
        <ele>300.862472</ele>
        <time>2023-09-29T11:05:38.205Z</time>
      </trkpt>
      <trkpt lat="46.32684" lon="4.02844">
        <ele>300.833831</ele>
        <time>2023-09-29T11:05:40.214Z</time>
      </trkpt>
      <trkpt lat="46.32695" lon="4.02844">
        <ele>300.804485</ele>
        <time>2023-09-29T11:05:42.202Z</time>
      </trkpt>
      <trkpt lat="46.32706" lon="4.02843">
        <ele>300.775403</ele>
        <time>2023-09-29T11:05:44.224Z</time>
      </trkpt>
      <trkpt lat="46.32716" lon="4.02844">
        <ele>300.747373</ele>
        <time>2023-09-29T11:05:46.218Z</time>
      </trkpt>
      <trkpt lat="46.32727" lon="4.02844">
        <ele>300.718835</ele>
        <time>2023-09-29T11:05:48.219Z</time>
      </trkpt>
      <trkpt lat="46.32737" lon="4.02844">
        <ele>300.690565</ele>
        <time>2023-09-29T11:05:50.204Z</time>
      </trkpt>
      <trkpt lat="46.32748" lon="4.02843">
        <ele>300.662266</ele>
        <time>2023-09-29T11:05:52.207Z</time>
      </trkpt>
      <trkpt lat="46.32758" lon="4.02843">
        <ele>300.633726</ele>
        <time>2023-09-29T11:05:54.208Z</time>
      </trkpt>
      <trkpt lat="46.32769" lon="4.02843">
        <ele>300.605721</ele>
        <time>2023-09-29T11:05:56.222Z</time>
      </trkpt>
      <trkpt lat="46.32779" lon="4.02844">
        <ele>300.578254</ele>
        <time>2023-09-29T11:05:58.226Z</time>
      </trkpt>
      <trkpt lat="46.32789" lon="4.02843">
        <ele>300.551846</ele>
        <time>2023-09-29T11:06:00.211Z</time>
      </trkpt>
      <trkpt lat="46.32798" lon="4.02843">
        <ele>300.525999</ele>
        <time>2023-09-29T11:06:02.213Z</time>
      </trkpt>
      <trkpt lat="46.32809" lon="4.02843">
        <ele>300.533467</ele>
        <time>2023-09-29T11:06:04.225Z</time>
      </trkpt>
      <trkpt lat="46.32818" lon="4.02843">
        <ele>300.541487</ele>
        <time>2023-09-29T11:06:06.210Z</time>
      </trkpt>
      <trkpt lat="46.32831" lon="4.02843">
        <ele>300.552399</ele>
        <time>2023-09-29T11:06:09.186Z</time>
      </trkpt>
      <trkpt lat="46.32843" lon="4.02844">
        <ele>300.56263</ele>
        <time>2023-09-29T11:06:12.197Z</time>
      </trkpt>
      <trkpt lat="46.32854" lon="4.02843">
        <ele>300.571669</ele>
        <time>2023-09-29T11:06:15.231Z</time>
      </trkpt>
      <trkpt lat="46.32864" lon="4.02843">
        <ele>300.580449</ele>
        <time>2023-09-29T11:06:18.207Z</time>
      </trkpt>
      <trkpt lat="46.32873" lon="4.02842">
        <ele>300.58839</ele>
        <time>2023-09-29T11:06:21.201Z</time>
      </trkpt>
      <trkpt lat="46.32884" lon="4.02841">
        <ele>300.597445</ele>
        <time>2023-09-29T11:06:25.222Z</time>
      </trkpt>
      <trkpt lat="46.32893" lon="4.02837">
        <ele>300.60542</ele>
        <time>2023-09-29T11:07:07.437Z</time>
      </trkpt>
      <trkpt lat="46.32902" lon="4.0284">
        <ele>300.614042</ele>
        <time>2023-09-29T11:30:54.212Z</time>
      </trkpt>
      <trkpt lat="46.32912" lon="4.02838">
        <ele>300.622132</ele>
        <time>2023-09-29T11:30:59.212Z</time>
      </trkpt>
      <trkpt lat="46.32922" lon="4.02837">
        <ele>300.630664</ele>
        <time>2023-09-29T11:31:05.204Z</time>
      </trkpt>
      <trkpt lat="46.32933" lon="4.02836">
        <ele>300.639978</ele>
        <time>2023-09-29T11:31:10.192Z</time>
      </trkpt>
      <trkpt lat="46.32945" lon="4.02837">
        <ele>300.650132</ele>
        <time>2023-09-29T11:31:15.208Z</time>
      </trkpt>
      <trkpt lat="46.32956" lon="4.02837">
        <ele>300.659681</ele>
        <time>2023-09-29T11:31:19.210Z</time>
      </trkpt>
      <trkpt lat="46.32966" lon="4.02838">
        <ele>300.668634</ele>
        <time>2023-09-29T11:31:24.214Z</time>
      </trkpt>
      <trkpt lat="46.32977" lon="4.02837">
        <ele>300.677594</ele>
        <time>2023-09-29T11:31:28.204Z</time>
      </trkpt>
      <trkpt lat="46.32989" lon="4.02837">
        <ele>300.724588</ele>
        <time>2023-09-29T11:31:32.210Z</time>
      </trkpt>
      <trkpt lat="46.33" lon="4.02836">
        <ele>300.768814</ele>
        <time>2023-09-29T11:31:35.208Z</time>
      </trkpt>
      <trkpt lat="46.33012" lon="4.02837">
        <ele>300.815899</ele>
        <time>2023-09-29T11:31:38.226Z</time>
      </trkpt>
      <trkpt lat="46.33023" lon="4.02837">
        <ele>300.862536</ele>
        <time>2023-09-29T11:31:41.217Z</time>
      </trkpt>
      <trkpt lat="46.33035" lon="4.02838">
        <ele>300.912042</ele>
        <time>2023-09-29T11:31:44.206Z</time>
      </trkpt>
      <trkpt lat="46.33048" lon="4.02837">
        <ele>300.961944</ele>
        <time>2023-09-29T11:31:47.230Z</time>
      </trkpt>
      <trkpt lat="46.3306" lon="4.02837">
        <ele>301.01426</ele>
        <time>2023-09-29T11:31:50.194Z</time>
      </trkpt>
      <trkpt lat="46.33074" lon="4.02837">
        <ele>301.067795</ele>
        <time>2023-09-29T11:31:53.208Z</time>
      </trkpt>
      <trkpt lat="46.33087" lon="4.02838">
        <ele>301.120123</ele>
        <time>2023-09-29T11:31:56.213Z</time>
      </trkpt>
      <trkpt lat="46.331" lon="4.02838">
        <ele>301.173256</ele>
        <time>2023-09-29T11:31:59.209Z</time>
      </trkpt>
      <trkpt lat="46.33112" lon="4.02838">
        <ele>301.222733</ele>
        <time>2023-09-29T11:32:02.201Z</time>
      </trkpt>
      <trkpt lat="46.33123" lon="4.02837">
        <ele>301.269019</ele>
        <time>2023-09-29T11:32:05.223Z</time>
      </trkpt>
      <trkpt lat="46.33136" lon="4.02838">
        <ele>301.321759</ele>
        <time>2023-09-29T11:32:08.206Z</time>
      </trkpt>
      <trkpt lat="46.3315" lon="4.02837">
        <ele>301.375723</ele>
        <time>2023-09-29T11:32:11.211Z</time>
      </trkpt>
      <trkpt lat="46.33159" lon="4.02837">
        <ele>301.398873</ele>
        <time>2023-09-29T11:32:13.185Z</time>
      </trkpt>
      <trkpt lat="46.33171" lon="4.02836">
        <ele>301.307799</ele>
        <time>2023-09-29T11:32:16.220Z</time>
      </trkpt>
      <trkpt lat="46.33184" lon="4.02836">
        <ele>301.214579</ele>
        <time>2023-09-29T11:32:19.212Z</time>
      </trkpt>
      <trkpt lat="46.33198" lon="4.02837">
        <ele>301.117663</ele>
        <time>2023-09-29T11:32:22.210Z</time>
      </trkpt>
      <trkpt lat="46.33211" lon="4.02837">
        <ele>301.022976</ele>
        <time>2023-09-29T11:32:25.211Z</time>
      </trkpt>
      <trkpt lat="46.33224" lon="4.02836">
        <ele>300.928305</ele>
        <time>2023-09-29T11:32:28.220Z</time>
      </trkpt>
      <trkpt lat="46.33237" lon="4.02837">
        <ele>300.832905</ele>
        <time>2023-09-29T11:32:31.223Z</time>
      </trkpt>
      <trkpt lat="46.3325" lon="4.02836">
        <ele>300.736783</ele>
        <time>2023-09-29T11:32:34.200Z</time>
      </trkpt>
      <trkpt lat="46.33263" lon="4.02837">
        <ele>300.641383</ele>
        <time>2023-09-29T11:32:37.209Z</time>
      </trkpt>
      <trkpt lat="46.33273" lon="4.02837">
        <ele>300.573453</ele>
        <time>2023-09-29T11:32:39.206Z</time>
      </trkpt>
      <trkpt lat="46.33282" lon="4.02837">
        <ele>300.508398</ele>
        <time>2023-09-29T11:32:41.216Z</time>
      </trkpt>
      <trkpt lat="46.33291" lon="4.02837">
        <ele>300.442636</ele>
        <time>2023-09-29T11:32:43.213Z</time>
      </trkpt>
      <trkpt lat="46.333" lon="4.02837">
        <ele>300.376869</ele>
        <time>2023-09-29T11:32:45.206Z</time>
      </trkpt>
      <trkpt lat="46.33309" lon="4.02837">
        <ele>300.310384</ele>
        <time>2023-09-29T11:32:47.239Z</time>
      </trkpt>
      <trkpt lat="46.33319" lon="4.02837">
        <ele>300.241734</ele>
        <time>2023-09-29T11:32:49.215Z</time>
      </trkpt>
      <trkpt lat="46.33328" lon="4.02837">
        <ele>300.172344</ele>
        <time>2023-09-29T11:32:51.217Z</time>
      </trkpt>
      <trkpt lat="46.33338" lon="4.02836">
        <ele>300.105262</ele>
        <time>2023-09-29T11:32:53.221Z</time>
      </trkpt>
      <trkpt lat="46.33347" lon="4.02837">
        <ele>300.063068</ele>
        <time>2023-09-29T11:32:55.214Z</time>
      </trkpt>
      <trkpt lat="46.33357" lon="4.02837">
        <ele>300.019035</ele>
        <time>2023-09-29T11:32:57.177Z</time>
      </trkpt>
      <trkpt lat="46.33366" lon="4.02838">
        <ele>299.975392</ele>
        <time>2023-09-29T11:32:59.227Z</time>
      </trkpt>
      <trkpt lat="46.33376" lon="4.02838">
        <ele>299.930017</ele>
        <time>2023-09-29T11:33:01.222Z</time>
      </trkpt>
      <trkpt lat="46.33386" lon="4.02838">
        <ele>299.885103</ele>
        <time>2023-09-29T11:33:03.236Z</time>
      </trkpt>
      <trkpt lat="46.33396" lon="4.02838">
        <ele>299.841098</ele>
        <time>2023-09-29T11:33:05.203Z</time>
      </trkpt>
      <trkpt lat="46.33406" lon="4.02838">
        <ele>299.795731</ele>
        <time>2023-09-29T11:33:07.207Z</time>
      </trkpt>
      <trkpt lat="46.33416" lon="4.02837">
        <ele>299.751263</ele>
        <time>2023-09-29T11:33:09.213Z</time>
      </trkpt>
      <trkpt lat="46.33426" lon="4.02838">
        <ele>299.70635</ele>
        <time>2023-09-29T11:33:11.230Z</time>
      </trkpt>
      <trkpt lat="46.33435" lon="4.02838">
        <ele>299.663247</ele>
        <time>2023-09-29T11:33:13.203Z</time>
      </trkpt>
      <trkpt lat="46.33445" lon="4.02837">
        <ele>299.620575</ele>
        <time>2023-09-29T11:33:15.204Z</time>
      </trkpt>
      <trkpt lat="46.33454" lon="4.02838">
        <ele>299.576542</ele>
        <time>2023-09-29T11:33:17.229Z</time>
      </trkpt>
      <trkpt lat="46.33464" lon="4.02839">
        <ele>299.531107</ele>
        <time>2023-09-29T11:33:19.223Z</time>
      </trkpt>
      <trkpt lat="46.33474" lon="4.02838">
        <ele>299.485688</ele>
        <time>2023-09-29T11:33:21.226Z</time>
      </trkpt>
      <trkpt lat="46.33484" lon="4.02838">
        <ele>299.44122</ele>
        <time>2023-09-29T11:33:23.219Z</time>
      </trkpt>
      <trkpt lat="46.33494" lon="4.02837">
        <ele>299.39629</ele>
        <time>2023-09-29T11:33:25.207Z</time>
      </trkpt>
      <trkpt lat="46.33504" lon="4.02837">
        <ele>299.352275</ele>
        <time>2023-09-29T11:33:27.213Z</time>
      </trkpt>
      <trkpt lat="46.33514" lon="4.02837">
        <ele>299.305547</ele>
        <time>2023-09-29T11:33:29.186Z</time>
      </trkpt>
      <trkpt lat="46.33524" lon="4.02837">
        <ele>299.278114</ele>
        <time>2023-09-29T11:33:31.215Z</time>
      </trkpt>
      <trkpt lat="46.33534" lon="4.02837">
        <ele>299.257765</ele>
        <time>2023-09-29T11:33:33.200Z</time>
      </trkpt>
      <trkpt lat="46.33544" lon="4.02837">
        <ele>299.237425</ele>
        <time>2023-09-29T11:33:35.219Z</time>
      </trkpt>
      <trkpt lat="46.33553" lon="4.02837">
        <ele>299.217884</ele>
        <time>2023-09-29T11:33:37.216Z</time>
      </trkpt>
      <trkpt lat="46.33563" lon="4.02837">
        <ele>299.198157</ele>
        <time>2023-09-29T11:33:39.206Z</time>
      </trkpt>
      <trkpt lat="46.33573" lon="4.02837">
        <ele>299.178024</ele>
        <time>2023-09-29T11:33:41.213Z</time>
      </trkpt>
      <trkpt lat="46.33583" lon="4.02837">
        <ele>299.157686</ele>
        <time>2023-09-29T11:33:43.206Z</time>
      </trkpt>
      <trkpt lat="46.33593" lon="4.02837">
        <ele>299.137756</ele>
        <time>2023-09-29T11:33:45.208Z</time>
      </trkpt>
      <trkpt lat="46.33602" lon="4.02837">
        <ele>299.118639</ele>
        <time>2023-09-29T11:33:47.191Z</time>
      </trkpt>
      <trkpt lat="46.33612" lon="4.02837">
        <ele>299.098709</ele>
        <time>2023-09-29T11:33:49.193Z</time>
      </trkpt>
      <trkpt lat="46.33622" lon="4.02837">
        <ele>299.078355</ele>
        <time>2023-09-29T11:33:51.205Z</time>
      </trkpt>
      <trkpt lat="46.33632" lon="4.02836">
        <ele>299.057183</ele>
        <time>2023-09-29T11:33:53.208Z</time>
      </trkpt>
      <trkpt lat="46.33643" lon="4.02836">
        <ele>299.036631</ele>
        <time>2023-09-29T11:33:55.208Z</time>
      </trkpt>
      <trkpt lat="46.33652" lon="4.02835">
        <ele>299.016903</ele>
        <time>2023-09-29T11:33:57.211Z</time>
      </trkpt>
      <trkpt lat="46.33662" lon="4.02835">
        <ele>298.997176</ele>
        <time>2023-09-29T11:33:59.211Z</time>
      </trkpt>
      <trkpt lat="46.33672" lon="4.02836">
        <ele>298.977222</ele>
        <time>2023-09-29T11:34:01.209Z</time>
      </trkpt>
      <trkpt lat="46.33681" lon="4.02837">
        <ele>298.957895</ele>
        <time>2023-09-29T11:34:03.206Z</time>
      </trkpt>
      <trkpt lat="46.33691" lon="4.02837">
        <ele>298.93855</ele>
        <time>2023-09-29T11:34:05.213Z</time>
      </trkpt>
      <trkpt lat="46.33701" lon="4.02836">
        <ele>298.934031</ele>
        <time>2023-09-29T11:34:07.213Z</time>
      </trkpt>
      <trkpt lat="46.33711" lon="4.02836">
        <ele>298.953766</ele>
        <time>2023-09-29T11:34:09.213Z</time>
      </trkpt>
      <trkpt lat="46.3372" lon="4.02836">
        <ele>298.973102</ele>
        <time>2023-09-29T11:34:11.218Z</time>
      </trkpt>
      <trkpt lat="46.3373" lon="4.02836">
        <ele>298.991446</ele>
        <time>2023-09-29T11:34:13.212Z</time>
      </trkpt>
      <trkpt lat="46.33739" lon="4.02835">
        <ele>299.010385</ele>
        <time>2023-09-29T11:34:15.211Z</time>
      </trkpt>
      <trkpt lat="46.33749" lon="4.02836">
        <ele>299.029523</ele>
        <time>2023-09-29T11:34:17.221Z</time>
      </trkpt>
      <trkpt lat="46.33759" lon="4.02835">
        <ele>299.049667</ele>
        <time>2023-09-29T11:34:19.215Z</time>
      </trkpt>
      <trkpt lat="46.33768" lon="4.02835">
        <ele>299.068804</ele>
        <time>2023-09-29T11:34:21.210Z</time>
      </trkpt>
      <trkpt lat="46.33778" lon="4.02836">
        <ele>299.08756</ele>
        <time>2023-09-29T11:34:23.216Z</time>
      </trkpt>
      <trkpt lat="46.33787" lon="4.02836">
        <ele>299.106103</ele>
        <time>2023-09-29T11:34:25.216Z</time>
      </trkpt>
      <trkpt lat="46.33797" lon="4.02836">
        <ele>299.12624</ele>
        <time>2023-09-29T11:34:27.208Z</time>
      </trkpt>
      <trkpt lat="46.33807" lon="4.02835">
        <ele>299.145799</ele>
        <time>2023-09-29T11:34:29.216Z</time>
      </trkpt>
      <trkpt lat="46.33817" lon="4.02835">
        <ele>299.166729</ele>
        <time>2023-09-29T11:34:31.194Z</time>
      </trkpt>
      <trkpt lat="46.33827" lon="4.02836">
        <ele>299.186276</ele>
        <time>2023-09-29T11:34:33.195Z</time>
      </trkpt>
      <trkpt lat="46.33837" lon="4.02836">
        <ele>299.205013</ele>
        <time>2023-09-29T11:34:35.206Z</time>
      </trkpt>
      <trkpt lat="46.33846" lon="4.02836">
        <ele>299.224351</ele>
        <time>2023-09-29T11:34:37.195Z</time>
      </trkpt>
      <trkpt lat="46.33857" lon="4.02835">
        <ele>299.244691</ele>
        <time>2023-09-29T11:34:39.217Z</time>
      </trkpt>
      <trkpt lat="46.33866" lon="4.02836">
        <ele>299.263233</ele>
        <time>2023-09-29T11:34:41.210Z</time>
      </trkpt>
      <trkpt lat="46.33875" lon="4.02836">
        <ele>299.281182</ele>
        <time>2023-09-29T11:34:43.219Z</time>
      </trkpt>
      <trkpt lat="46.33885" lon="4.02837">
        <ele>299.250169</ele>
        <time>2023-09-29T11:34:45.222Z</time>
      </trkpt>
      <trkpt lat="46.33894" lon="4.02837">
        <ele>299.207993</ele>
        <time>2023-09-29T11:34:47.211Z</time>
      </trkpt>
      <trkpt lat="46.33904" lon="4.02837">
        <ele>299.164081</ele>
        <time>2023-09-29T11:34:49.216Z</time>
      </trkpt>
      <trkpt lat="46.33914" lon="4.02836">
        <ele>299.122305</ele>
        <time>2023-09-29T11:34:51.211Z</time>
      </trkpt>
      <trkpt lat="46.33923" lon="4.02836">
        <ele>299.081427</ele>
        <time>2023-09-29T11:34:53.225Z</time>
      </trkpt>
      <trkpt lat="46.33933" lon="4.02836">
        <ele>299.041357</ele>
        <time>2023-09-29T11:34:55.218Z</time>
      </trkpt>
      <trkpt lat="46.33942" lon="4.02836">
        <ele>298.999567</ele>
        <time>2023-09-29T11:34:57.221Z</time>
      </trkpt>
      <trkpt lat="46.33952" lon="4.02835">
        <ele>298.956943</ele>
        <time>2023-09-29T11:34:59.227Z</time>
      </trkpt>
      <trkpt lat="46.33962" lon="4.02835">
        <ele>298.915196</ele>
        <time>2023-09-29T11:35:01.197Z</time>
      </trkpt>
      <trkpt lat="46.33971" lon="4.02835">
        <ele>298.87258</ele>
        <time>2023-09-29T11:35:03.207Z</time>
      </trkpt>
      <trkpt lat="46.33981" lon="4.02835">
        <ele>298.830399</ele>
        <time>2023-09-29T11:35:05.209Z</time>
      </trkpt>
      <trkpt lat="46.33991" lon="4.02836">
        <ele>298.789069</ele>
        <time>2023-09-29T11:35:07.218Z</time>
      </trkpt>
      <trkpt lat="46.34" lon="4.02836">
        <ele>298.746897</ele>
        <time>2023-09-29T11:35:09.206Z</time>
      </trkpt>
      <trkpt lat="46.3401" lon="4.02835">
        <ele>298.705155</ele>
        <time>2023-09-29T11:35:11.213Z</time>
      </trkpt>
      <trkpt lat="46.34019" lon="4.02835">
        <ele>298.664287</ele>
        <time>2023-09-29T11:35:13.212Z</time>
      </trkpt>
      <trkpt lat="46.34029" lon="4.02835">
        <ele>298.622548</ele>
        <time>2023-09-29T11:35:15.211Z</time>
      </trkpt>
      <trkpt lat="46.34038" lon="4.02835">
        <ele>298.58255</ele>
        <time>2023-09-29T11:35:17.214Z</time>
      </trkpt>
      <trkpt lat="46.34047" lon="4.02835">
        <ele>298.541665</ele>
        <time>2023-09-29T11:35:19.223Z</time>
      </trkpt>
      <trkpt lat="46.34056" lon="4.02834">
        <ele>298.503148</ele>
        <time>2023-09-29T11:35:21.205Z</time>
      </trkpt>
      <trkpt lat="46.34069" lon="4.02835">
        <ele>298.582948</ele>
        <time>2023-09-29T11:35:24.209Z</time>
      </trkpt>
      <trkpt lat="46.34078" lon="4.02835">
        <ele>298.64814</ele>
        <time>2023-09-29T11:35:27.180Z</time>
      </trkpt>
      <trkpt lat="46.34088" lon="4.02834">
        <ele>298.712896</ele>
        <time>2023-09-29T11:35:30.192Z</time>
      </trkpt>
      <trkpt lat="46.34099" lon="4.02836">
        <ele>298.78328</ele>
        <time>2023-09-29T11:35:33.200Z</time>
      </trkpt>
      <trkpt lat="46.3411" lon="4.02835">
        <ele>298.857851</ele>
        <time>2023-09-29T11:35:36.226Z</time>
      </trkpt>
      <trkpt lat="46.34122" lon="4.02835">
        <ele>298.936884</ele>
        <time>2023-09-29T11:35:39.197Z</time>
      </trkpt>
      <trkpt lat="46.34135" lon="4.02836">
        <ele>299.021208</ele>
        <time>2023-09-29T11:35:42.185Z</time>
      </trkpt>
      <trkpt lat="46.34148" lon="4.02835">
        <ele>299.105498</ele>
        <time>2023-09-29T11:35:45.215Z</time>
      </trkpt>
      <trkpt lat="46.34157" lon="4.02835">
        <ele>299.164801</ele>
        <time>2023-09-29T11:35:47.225Z</time>
      </trkpt>
      <trkpt lat="46.3417" lon="4.02834">
        <ele>299.250428</ele>
        <time>2023-09-29T11:35:50.214Z</time>
      </trkpt>
      <trkpt lat="46.34179" lon="4.02834">
        <ele>299.310347</ele>
        <time>2023-09-29T11:35:52.210Z</time>
      </trkpt>
      <trkpt lat="46.34188" lon="4.02834">
        <ele>299.37095</ele>
        <time>2023-09-29T11:35:54.220Z</time>
      </trkpt>
      <trkpt lat="46.34198" lon="4.02835">
        <ele>299.433582</ele>
        <time>2023-09-29T11:35:56.210Z</time>
      </trkpt>
      <trkpt lat="46.34207" lon="4.02834">
        <ele>299.496148</ele>
        <time>2023-09-29T11:35:58.200Z</time>
      </trkpt>
      <trkpt lat="46.34217" lon="4.02834">
        <ele>299.558741</ele>
        <time>2023-09-29T11:36:00.208Z</time>
      </trkpt>
      <trkpt lat="46.34226" lon="4.02834">
        <ele>299.618659</ele>
        <time>2023-09-29T11:36:02.207Z</time>
      </trkpt>
      <trkpt lat="46.34235" lon="4.02834">
        <ele>299.679241</ele>
        <time>2023-09-29T11:36:04.200Z</time>
      </trkpt>
      <trkpt lat="46.34244" lon="4.02834">
        <ele>299.69121</ele>
        <time>2023-09-29T11:36:06.203Z</time>
      </trkpt>
      <trkpt lat="46.34254" lon="4.02834">
        <ele>299.696121</ele>
        <time>2023-09-29T11:36:08.203Z</time>
      </trkpt>
      <trkpt lat="46.34264" lon="4.02834">
        <ele>299.701397</ele>
        <time>2023-09-29T11:36:10.207Z</time>
      </trkpt>
      <trkpt lat="46.34274" lon="4.02834">
        <ele>299.706722</ele>
        <time>2023-09-29T11:36:12.192Z</time>
      </trkpt>
      <trkpt lat="46.34284" lon="4.02834">
        <ele>299.711839</ele>
        <time>2023-09-29T11:36:14.211Z</time>
      </trkpt>
      <trkpt lat="46.34294" lon="4.02833">
        <ele>299.717012</ele>
        <time>2023-09-29T11:36:16.220Z</time>
      </trkpt>
      <trkpt lat="46.34303" lon="4.02832">
        <ele>299.721879</ele>
        <time>2023-09-29T11:36:18.225Z</time>
      </trkpt>
      <trkpt lat="46.34313" lon="4.02833">
        <ele>299.726638</ele>
        <time>2023-09-29T11:36:20.213Z</time>
      </trkpt>
      <trkpt lat="46.34323" lon="4.02833">
        <ele>299.732118</ele>
        <time>2023-09-29T11:36:22.217Z</time>
      </trkpt>
      <trkpt lat="46.34334" lon="4.02833">
        <ele>299.737545</ele>
        <time>2023-09-29T11:36:24.199Z</time>
      </trkpt>
      <trkpt lat="46.34344" lon="4.02832">
        <ele>299.742874</ele>
        <time>2023-09-29T11:36:26.212Z</time>
      </trkpt>
      <trkpt lat="46.34354" lon="4.02832">
        <ele>299.747992</ele>
        <time>2023-09-29T11:36:28.221Z</time>
      </trkpt>
      <trkpt lat="46.34363" lon="4.02833">
        <ele>299.752903</ele>
        <time>2023-09-29T11:36:30.193Z</time>
      </trkpt>
      <trkpt lat="46.34373" lon="4.02833">
        <ele>299.757969</ele>
        <time>2023-09-29T11:36:32.214Z</time>
      </trkpt>
      <trkpt lat="46.34382" lon="4.02833">
        <ele>299.762725</ele>
        <time>2023-09-29T11:36:34.209Z</time>
      </trkpt>
      <trkpt lat="46.34392" lon="4.02833">
        <ele>299.767637</ele>
        <time>2023-09-29T11:36:36.207Z</time>
      </trkpt>
      <trkpt lat="46.34402" lon="4.02833">
        <ele>299.773013</ele>
        <time>2023-09-29T11:36:38.187Z</time>
      </trkpt>
      <trkpt lat="46.34412" lon="4.02832">
        <ele>299.778236</ele>
        <time>2023-09-29T11:36:40.211Z</time>
      </trkpt>
      <trkpt lat="46.34423" lon="4.02832">
        <ele>299.862718</ele>
        <time>2023-09-29T11:36:42.208Z</time>
      </trkpt>
      <trkpt lat="46.34432" lon="4.02832">
        <ele>299.978585</ele>
        <time>2023-09-29T11:36:44.212Z</time>
      </trkpt>
      <trkpt lat="46.34441" lon="4.02832">
        <ele>300.094526</ele>
        <time>2023-09-29T11:36:46.203Z</time>
      </trkpt>
      <trkpt lat="46.3445" lon="4.02831">
        <ele>300.205417</ele>
        <time>2023-09-29T11:36:48.212Z</time>
      </trkpt>
      <trkpt lat="46.3446" lon="4.02832">
        <ele>300.323682</ele>
        <time>2023-09-29T11:36:50.209Z</time>
      </trkpt>
      <trkpt lat="46.34469" lon="4.02831">
        <ele>300.437036</ele>
        <time>2023-09-29T11:36:52.208Z</time>
      </trkpt>
      <trkpt lat="46.34482" lon="4.0283">
        <ele>300.601131</ele>
        <time>2023-09-29T11:36:55.225Z</time>
      </trkpt>
      <trkpt lat="46.34494" lon="4.02831">
        <ele>300.740698</ele>
        <time>2023-09-29T11:36:58.215Z</time>
      </trkpt>
      <trkpt lat="46.34503" lon="4.02834">
        <ele>300.862368</ele>
        <time>2023-09-29T11:37:01.206Z</time>
      </trkpt>
      <trkpt lat="46.34513" lon="4.02832">
        <ele>300.982091</ele>
        <time>2023-09-29T11:37:04.209Z</time>
      </trkpt>
      <trkpt lat="46.34525" lon="4.02833">
        <ele>301.130151</ele>
        <time>2023-09-29T11:37:08.201Z</time>
      </trkpt>
      <trkpt lat="46.34535" lon="4.02833">
        <ele>301.255897</ele>
        <time>2023-09-29T11:37:11.220Z</time>
      </trkpt>
      <trkpt lat="46.34547" lon="4.02832">
        <ele>301.395598</ele>
        <time>2023-09-29T11:37:14.224Z</time>
      </trkpt>
      <trkpt lat="46.34558" lon="4.02832">
        <ele>301.531162</ele>
        <time>2023-09-29T11:37:17.215Z</time>
      </trkpt>
      <trkpt lat="46.34567" lon="4.02831">
        <ele>301.651881</ele>
        <time>2023-09-29T11:37:19.197Z</time>
      </trkpt>
      <trkpt lat="46.34577" lon="4.02832">
        <ele>301.770183</ele>
        <time>2023-09-29T11:37:21.216Z</time>
      </trkpt>
      <trkpt lat="46.34586" lon="4.02831">
        <ele>301.887354</ele>
        <time>2023-09-29T11:37:23.209Z</time>
      </trkpt>
      <trkpt lat="46.34595" lon="4.02831">
        <ele>301.995829</ele>
        <time>2023-09-29T11:37:25.224Z</time>
      </trkpt>
      <trkpt lat="46.34605" lon="4.0283">
        <ele>302.007948</ele>
        <time>2023-09-29T11:37:27.222Z</time>
      </trkpt>
      <trkpt lat="46.34614" lon="4.02831">
        <ele>302.019952</ele>
        <time>2023-09-29T11:37:29.206Z</time>
      </trkpt>
      <trkpt lat="46.34627" lon="4.02834">
        <ele>302.036852</ele>
        <time>2023-09-29T11:37:32.213Z</time>
      </trkpt>
      <trkpt lat="46.34636" lon="4.02834">
        <ele>302.048572</ele>
        <time>2023-09-29T11:37:34.204Z</time>
      </trkpt>
      <trkpt lat="46.34645" lon="4.02834">
        <ele>302.061055</ele>
        <time>2023-09-29T11:37:36.219Z</time>
      </trkpt>
      <trkpt lat="46.34655" lon="4.02834">
        <ele>302.073413</ele>
        <time>2023-09-29T11:37:38.210Z</time>
      </trkpt>
      <trkpt lat="46.34664" lon="4.02834">
        <ele>302.085766</ele>
        <time>2023-09-29T11:37:40.200Z</time>
      </trkpt>
      <trkpt lat="46.34674" lon="4.02834">
        <ele>302.09851</ele>
        <time>2023-09-29T11:37:42.220Z</time>
      </trkpt>
      <trkpt lat="46.34684" lon="4.02833">
        <ele>302.111256</ele>
        <time>2023-09-29T11:37:44.208Z</time>
      </trkpt>
      <trkpt lat="46.34694" lon="4.02833">
        <ele>302.123744</ele>
        <time>2023-09-29T11:37:46.207Z</time>
      </trkpt>
      <trkpt lat="46.34704" lon="4.02833">
        <ele>302.136754</ele>
        <time>2023-09-29T11:37:48.207Z</time>
      </trkpt>
      <trkpt lat="46.34713" lon="4.02832">
        <ele>302.14937</ele>
        <time>2023-09-29T11:37:50.208Z</time>
      </trkpt>
      <trkpt lat="46.34723" lon="4.02832">
        <ele>302.161463</ele>
        <time>2023-09-29T11:37:52.226Z</time>
      </trkpt>
      <trkpt lat="46.34732" lon="4.02832">
        <ele>302.173556</ele>
        <time>2023-09-29T11:37:54.216Z</time>
      </trkpt>
      <trkpt lat="46.34746" lon="4.02832">
        <ele>302.191371</ele>
        <time>2023-09-29T11:37:57.208Z</time>
      </trkpt>
      <trkpt lat="46.34756" lon="4.02831">
        <ele>302.204653</ele>
        <time>2023-09-29T11:37:59.190Z</time>
      </trkpt>
      <trkpt lat="46.34766" lon="4.02831">
        <ele>302.217681</ele>
        <time>2023-09-29T11:38:01.206Z</time>
      </trkpt>
      <trkpt lat="46.34776" lon="4.0283">
        <ele>302.22039</ele>
        <time>2023-09-29T11:38:03.217Z</time>
      </trkpt>
      <trkpt lat="46.34785" lon="4.0283">
        <ele>302.12302</ele>
        <time>2023-09-29T11:38:05.219Z</time>
      </trkpt>
      <trkpt lat="46.34794" lon="4.02829">
        <ele>302.026685</ele>
        <time>2023-09-29T11:38:07.220Z</time>
      </trkpt>
      <trkpt lat="46.34804" lon="4.02829">
        <ele>301.927284</ele>
        <time>2023-09-29T11:38:09.209Z</time>
      </trkpt>
      <trkpt lat="46.34814" lon="4.0283">
        <ele>301.823544</ele>
        <time>2023-09-29T11:38:11.208Z</time>
      </trkpt>
      <trkpt lat="46.34823" lon="4.0283">
        <ele>301.728276</ele>
        <time>2023-09-29T11:38:13.216Z</time>
      </trkpt>
      <trkpt lat="46.34837" lon="4.02831">
        <ele>301.58843</ele>
        <time>2023-09-29T11:38:16.205Z</time>
      </trkpt>
      <trkpt lat="46.34846" lon="4.0283">
        <ele>301.4952</ele>
        <time>2023-09-29T11:38:18.200Z</time>
      </trkpt>
      <trkpt lat="46.34857" lon="4.02832">
        <ele>301.379294</ele>
        <time>2023-09-29T11:38:21.210Z</time>
      </trkpt>
      <trkpt lat="46.34869" lon="4.02832">
        <ele>301.25815</ele>
        <time>2023-09-29T11:38:25.225Z</time>
      </trkpt>
      <trkpt lat="46.34879" lon="4.02831">
        <ele>301.152343</ele>
        <time>2023-09-29T11:38:28.211Z</time>
      </trkpt>
      <trkpt lat="46.3489" lon="4.02831">
        <ele>301.034168</ele>
        <time>2023-09-29T11:38:31.211Z</time>
      </trkpt>
      <trkpt lat="46.34902" lon="4.0283">
        <ele>300.911938</ele>
        <time>2023-09-29T11:38:34.204Z</time>
      </trkpt>
      <trkpt lat="46.34913" lon="4.0283">
        <ele>300.798023</ele>
        <time>2023-09-29T11:38:37.210Z</time>
      </trkpt>
      <trkpt lat="46.34924" lon="4.02833">
        <ele>300.686587</ele>
        <time>2023-09-29T11:38:40.206Z</time>
      </trkpt>
      <trkpt lat="46.34936" lon="4.02832">
        <ele>300.562287</ele>
        <time>2023-09-29T11:38:43.201Z</time>
      </trkpt>
      <trkpt lat="46.34948" lon="4.02832">
        <ele>300.430773</ele>
        <time>2023-09-29T11:38:46.190Z</time>
      </trkpt>
      <trkpt lat="46.34961" lon="4.02832">
        <ele>300.327441</ele>
        <time>2023-09-29T11:38:49.210Z</time>
      </trkpt>
      <trkpt lat="46.34974" lon="4.02832">
        <ele>300.251678</ele>
        <time>2023-09-29T11:38:52.221Z</time>
      </trkpt>
      <trkpt lat="46.34983" lon="4.02831">
        <ele>300.198238</ele>
        <time>2023-09-29T11:38:54.201Z</time>
      </trkpt>
      <trkpt lat="46.34996" lon="4.02832">
        <ele>300.120688</ele>
        <time>2023-09-29T11:38:57.205Z</time>
      </trkpt>
      <trkpt lat="46.35006" lon="4.02832">
        <ele>300.063147</ele>
        <time>2023-09-29T11:38:59.219Z</time>
      </trkpt>
      <trkpt lat="46.35016" lon="4.02832">
        <ele>300.006762</ele>
        <time>2023-09-29T11:39:01.202Z</time>
      </trkpt>
      <trkpt lat="46.35029" lon="4.02833">
        <ele>299.929226</ele>
        <time>2023-09-29T11:39:04.209Z</time>
      </trkpt>
      <trkpt lat="46.35042" lon="4.02833">
        <ele>299.852893</ele>
        <time>2023-09-29T11:39:07.207Z</time>
      </trkpt>
      <trkpt lat="46.35051" lon="4.02833">
        <ele>299.798292</ele>
        <time>2023-09-29T11:39:09.211Z</time>
      </trkpt>
      <trkpt lat="46.35061" lon="4.02833">
        <ele>299.740147</ele>
        <time>2023-09-29T11:39:11.201Z</time>
      </trkpt>
      <trkpt lat="46.35072" lon="4.02833">
        <ele>299.677913</ele>
        <time>2023-09-29T11:39:13.208Z</time>
      </trkpt>
      <trkpt lat="46.35082" lon="4.02833">
        <ele>299.616246</ele>
        <time>2023-09-29T11:39:15.202Z</time>
      </trkpt>
      <trkpt lat="46.35092" lon="4.02832">
        <ele>299.557467</ele>
        <time>2023-09-29T11:39:17.219Z</time>
      </trkpt>
      <trkpt lat="46.35102" lon="4.02831">
        <ele>299.500466</ele>
        <time>2023-09-29T11:39:19.197Z</time>
      </trkpt>
      <trkpt lat="46.35112" lon="4.02831">
        <ele>299.44175</ele>
        <time>2023-09-29T11:39:21.210Z</time>
      </trkpt>
      <trkpt lat="46.35122" lon="4.02831">
        <ele>299.384801</ele>
        <time>2023-09-29T11:39:23.209Z</time>
      </trkpt>
      <trkpt lat="46.35131" lon="4.0283">
        <ele>299.330147</ele>
        <time>2023-09-29T11:39:25.207Z</time>
      </trkpt>
      <trkpt lat="46.35141" lon="4.02831">
        <ele>299.275643</ele>
        <time>2023-09-29T11:39:27.207Z</time>
      </trkpt>
      <trkpt lat="46.35151" lon="4.02831">
        <ele>299.222627</ele>
        <time>2023-09-29T11:39:29.207Z</time>
      </trkpt>
      <trkpt lat="46.35161" lon="4.02831">
        <ele>299.166368</ele>
        <time>2023-09-29T11:39:31.230Z</time>
      </trkpt>
      <trkpt lat="46.35172" lon="4.0283">
        <ele>299.109007</ele>
        <time>2023-09-29T11:39:33.203Z</time>
      </trkpt>
      <trkpt lat="46.35182" lon="4.02831">
        <ele>299.052096</ele>
        <time>2023-09-29T11:39:35.202Z</time>
      </trkpt>
      <trkpt lat="46.35193" lon="4.02832">
        <ele>298.994148</ele>
        <time>2023-09-29T11:39:37.198Z</time>
      </trkpt>
      <trkpt lat="46.35203" lon="4.02832">
        <ele>298.940063</ele>
        <time>2023-09-29T11:39:39.226Z</time>
      </trkpt>
      <trkpt lat="46.35213" lon="4.02832">
        <ele>298.885437</ele>
        <time>2023-09-29T11:39:41.209Z</time>
      </trkpt>
      <trkpt lat="46.35223" lon="4.02833">
        <ele>298.829649</ele>
        <time>2023-09-29T11:39:43.214Z</time>
      </trkpt>
      <trkpt lat="46.35233" lon="4.02832">
        <ele>298.774451</ele>
        <time>2023-09-29T11:39:45.200Z</time>
      </trkpt>
      <trkpt lat="46.35244" lon="4.02831">
        <ele>298.716946</ele>
        <time>2023-09-29T11:39:47.231Z</time>
      </trkpt>
      <trkpt lat="46.35255" lon="4.02831">
        <ele>298.659616</ele>
        <time>2023-09-29T11:39:49.215Z</time>
      </trkpt>
      <trkpt lat="46.35264" lon="4.02831">
        <ele>298.60712</ele>
        <time>2023-09-29T11:39:51.212Z</time>
      </trkpt>
      <trkpt lat="46.35274" lon="4.02832">
        <ele>298.552462</ele>
        <time>2023-09-29T11:39:53.210Z</time>
      </trkpt>
      <trkpt lat="46.35284" lon="4.02832">
        <ele>298.498917</ele>
        <time>2023-09-29T11:39:55.210Z</time>
      </trkpt>
      <trkpt lat="46.35295" lon="4.02832">
        <ele>298.442108</ele>
        <time>2023-09-29T11:39:57.204Z</time>
      </trkpt>
      <trkpt lat="46.35305" lon="4.02832">
        <ele>298.384194</ele>
        <time>2023-09-29T11:39:59.218Z</time>
      </trkpt>
      <trkpt lat="46.35316" lon="4.02831">
        <ele>298.347815</ele>
        <time>2023-09-29T11:40:01.205Z</time>
      </trkpt>
      <trkpt lat="46.35327" lon="4.02831">
        <ele>298.397268</ele>
        <time>2023-09-29T11:40:03.214Z</time>
      </trkpt>
      <trkpt lat="46.35336" lon="4.0283">
        <ele>298.442073</ele>
        <time>2023-09-29T11:40:05.216Z</time>
      </trkpt>
      <trkpt lat="46.35346" lon="4.0283">
        <ele>298.486877</ele>
        <time>2023-09-29T11:40:07.211Z</time>
      </trkpt>
      <trkpt lat="46.35356" lon="4.02831">
        <ele>298.53449</ele>
        <time>2023-09-29T11:40:09.225Z</time>
      </trkpt>
      <trkpt lat="46.35366" lon="4.02831">
        <ele>298.582093</ele>
        <time>2023-09-29T11:40:11.221Z</time>
      </trkpt>
      <trkpt lat="46.35377" lon="4.02831">
        <ele>298.631554</ele>
        <time>2023-09-29T11:40:13.207Z</time>
      </trkpt>
      <trkpt lat="46.35388" lon="4.02831">
        <ele>298.683343</ele>
        <time>2023-09-29T11:40:15.206Z</time>
      </trkpt>
      <trkpt lat="46.35399" lon="4.02831">
        <ele>298.733728</ele>
        <time>2023-09-29T11:40:17.211Z</time>
      </trkpt>
      <trkpt lat="46.35409" lon="4.02831">
        <ele>298.784113</ele>
        <time>2023-09-29T11:40:19.233Z</time>
      </trkpt>
      <trkpt lat="46.3542" lon="4.02831">
        <ele>298.832641</ele>
        <time>2023-09-29T11:40:21.210Z</time>
      </trkpt>
      <trkpt lat="46.3543" lon="4.02831">
        <ele>298.882094</ele>
        <time>2023-09-29T11:40:23.210Z</time>
      </trkpt>
      <trkpt lat="46.35441" lon="4.02831">
        <ele>298.930163</ele>
        <time>2023-09-29T11:40:25.203Z</time>
      </trkpt>
      <trkpt lat="46.35451" lon="4.02832">
        <ele>298.97822</ele>
        <time>2023-09-29T11:40:27.183Z</time>
      </trkpt>
      <trkpt lat="46.35461" lon="4.02832">
        <ele>299.025339</ele>
        <time>2023-09-29T11:40:29.202Z</time>
      </trkpt>
      <trkpt lat="46.35472" lon="4.02831">
        <ele>299.073862</ele>
        <time>2023-09-29T11:40:31.217Z</time>
      </trkpt>
      <trkpt lat="46.35482" lon="4.02832">
        <ele>299.12239</ele>
        <time>2023-09-29T11:40:33.214Z</time>
      </trkpt>
      <trkpt lat="46.35492" lon="4.02832">
        <ele>299.169043</ele>
        <time>2023-09-29T11:40:35.207Z</time>
      </trkpt>
      <trkpt lat="46.35503" lon="4.0283">
        <ele>299.169912</ele>
        <time>2023-09-29T11:40:37.207Z</time>
      </trkpt>
      <trkpt lat="46.35513" lon="4.0283">
        <ele>299.161336</ele>
        <time>2023-09-29T11:40:39.205Z</time>
      </trkpt>
      <trkpt lat="46.35523" lon="4.0283">
        <ele>299.152587</ele>
        <time>2023-09-29T11:40:41.209Z</time>
      </trkpt>
      <trkpt lat="46.35533" lon="4.0283">
        <ele>299.144177</ele>
        <time>2023-09-29T11:40:43.209Z</time>
      </trkpt>
      <trkpt lat="46.35544" lon="4.0283">
        <ele>299.135517</ele>
        <time>2023-09-29T11:40:45.220Z</time>
      </trkpt>
      <trkpt lat="46.35553" lon="4.02831">
        <ele>299.127351</ele>
        <time>2023-09-29T11:40:47.218Z</time>
      </trkpt>
      <trkpt lat="46.35563" lon="4.02831">
        <ele>299.119106</ele>
        <time>2023-09-29T11:40:49.208Z</time>
      </trkpt>
      <trkpt lat="46.35572" lon="4.02832">
        <ele>299.111537</ele>
        <time>2023-09-29T11:40:51.211Z</time>
      </trkpt>
      <trkpt lat="46.35581" lon="4.02833">
        <ele>299.103864</ele>
        <time>2023-09-29T11:40:53.202Z</time>
      </trkpt>
      <trkpt lat="46.35595" lon="4.02833">
        <ele>299.09251</ele>
        <time>2023-09-29T11:40:56.205Z</time>
      </trkpt>
      <trkpt lat="46.35608" lon="4.02833">
        <ele>299.081327</ele>
        <time>2023-09-29T11:40:59.209Z</time>
      </trkpt>
      <trkpt lat="46.35617" lon="4.02833">
        <ele>299.073423</ele>
        <time>2023-09-29T11:41:01.204Z</time>
      </trkpt>
      <trkpt lat="46.35627" lon="4.02833">
        <ele>299.065184</ele>
        <time>2023-09-29T11:41:03.205Z</time>
      </trkpt>
      <trkpt lat="46.35636" lon="4.02833">
        <ele>299.057531</ele>
        <time>2023-09-29T11:41:05.202Z</time>
      </trkpt>
      <trkpt lat="46.35645" lon="4.02833">
        <ele>299.049879</ele>
        <time>2023-09-29T11:41:07.209Z</time>
      </trkpt>
      <trkpt lat="46.35655" lon="4.02833">
        <ele>299.041975</ele>
        <time>2023-09-29T11:41:09.208Z</time>
      </trkpt>
      <trkpt lat="46.35664" lon="4.02833">
        <ele>299.034309</ele>
        <time>2023-09-29T11:41:11.209Z</time>
      </trkpt>
      <trkpt lat="46.35674" lon="4.02833">
        <ele>299.023037</ele>
        <time>2023-09-29T11:41:13.215Z</time>
      </trkpt>
      <trkpt lat="46.35684" lon="4.02833">
        <ele>298.963702</ele>
        <time>2023-09-29T11:41:15.204Z</time>
      </trkpt>
      <trkpt lat="46.35694" lon="4.02834">
        <ele>298.90779</ele>
        <time>2023-09-29T11:41:17.206Z</time>
      </trkpt>
      <trkpt lat="46.35704" lon="4.02834">
        <ele>298.851274</ele>
        <time>2023-09-29T11:41:19.208Z</time>
      </trkpt>
      <trkpt lat="46.35714" lon="4.02834">
        <ele>298.795932</ele>
        <time>2023-09-29T11:41:21.219Z</time>
      </trkpt>
      <trkpt lat="46.35724" lon="4.02834">
        <ele>298.737168</ele>
        <time>2023-09-29T11:41:23.216Z</time>
      </trkpt>
      <trkpt lat="46.35734" lon="4.02834">
        <ele>298.679533</ele>
        <time>2023-09-29T11:41:25.210Z</time>
      </trkpt>
      <trkpt lat="46.35744" lon="4.02834">
        <ele>298.621905</ele>
        <time>2023-09-29T11:41:27.206Z</time>
      </trkpt>
      <trkpt lat="46.35754" lon="4.02832">
        <ele>298.566932</ele>
        <time>2023-09-29T11:41:29.207Z</time>
      </trkpt>
      <trkpt lat="46.35764" lon="4.02832">
        <ele>298.511016</ele>
        <time>2023-09-29T11:41:31.216Z</time>
      </trkpt>
      <trkpt lat="46.35774" lon="4.02832">
        <ele>298.455099</ele>
        <time>2023-09-29T11:41:33.199Z</time>
      </trkpt>
      <trkpt lat="46.35783" lon="4.02832">
        <ele>298.399759</ele>
        <time>2023-09-29T11:41:35.217Z</time>
      </trkpt>
      <trkpt lat="46.35793" lon="4.02832">
        <ele>298.342135</ele>
        <time>2023-09-29T11:41:37.209Z</time>
      </trkpt>
      <trkpt lat="46.35803" lon="4.02832">
        <ele>298.286224</ele>
        <time>2023-09-29T11:41:39.210Z</time>
      </trkpt>
      <trkpt lat="46.35813" lon="4.02832">
        <ele>298.22915</ele>
        <time>2023-09-29T11:41:41.209Z</time>
      </trkpt>
      <trkpt lat="46.35823" lon="4.02833">
        <ele>298.173238</ele>
        <time>2023-09-29T11:41:43.208Z</time>
      </trkpt>
      <trkpt lat="46.35833" lon="4.02832">
        <ele>298.118456</ele>
        <time>2023-09-29T11:41:45.211Z</time>
      </trkpt>
      <trkpt lat="46.35842" lon="4.02833">
        <ele>298.064233</ele>
        <time>2023-09-29T11:41:47.229Z</time>
      </trkpt>
      <trkpt lat="46.35852" lon="4.02833">
        <ele>298.009441</ele>
        <time>2023-09-29T11:41:49.210Z</time>
      </trkpt>
      <trkpt lat="46.35861" lon="4.02832">
        <ele>297.970223</ele>
        <time>2023-09-29T11:41:51.232Z</time>
      </trkpt>
      <trkpt lat="46.35871" lon="4.02832">
        <ele>297.935497</ele>
        <time>2023-09-29T11:41:53.220Z</time>
      </trkpt>
      <trkpt lat="46.3588" lon="4.02832">
        <ele>297.900032</ele>
        <time>2023-09-29T11:41:55.206Z</time>
      </trkpt>
      <trkpt lat="46.3589" lon="4.02832">
        <ele>297.863093</ele>
        <time>2023-09-29T11:41:57.208Z</time>
      </trkpt>
      <trkpt lat="46.359" lon="4.02832">
        <ele>297.825771</ele>
        <time>2023-09-29T11:41:59.209Z</time>
      </trkpt>
      <trkpt lat="46.3591" lon="4.02833">
        <ele>297.789188</ele>
        <time>2023-09-29T11:42:01.223Z</time>
      </trkpt>
      <trkpt lat="46.3592" lon="4.02832">
        <ele>297.752605</ele>
        <time>2023-09-29T11:42:03.207Z</time>
      </trkpt>
      <trkpt lat="46.3593" lon="4.02832">
        <ele>297.716701</ele>
        <time>2023-09-29T11:42:05.216Z</time>
      </trkpt>
      <trkpt lat="46.3594" lon="4.02831">
        <ele>297.680827</ele>
        <time>2023-09-29T11:42:07.211Z</time>
      </trkpt>
      <trkpt lat="46.35949" lon="4.02832">
        <ele>297.644923</ele>
        <time>2023-09-29T11:42:09.210Z</time>
      </trkpt>
      <trkpt lat="46.35959" lon="4.02831">
        <ele>297.610555</ele>
        <time>2023-09-29T11:42:11.225Z</time>
      </trkpt>
      <trkpt lat="46.35968" lon="4.02831">
        <ele>297.577302</ele>
        <time>2023-09-29T11:42:13.200Z</time>
      </trkpt>
      <trkpt lat="46.35981" lon="4.02831">
        <ele>297.528172</ele>
        <time>2023-09-29T11:42:16.205Z</time>
      </trkpt>
      <trkpt lat="46.3599" lon="4.02832">
        <ele>297.494892</ele>
        <time>2023-09-29T11:42:18.216Z</time>
      </trkpt>
      <trkpt lat="46.35999" lon="4.02832">
        <ele>297.461277</ele>
        <time>2023-09-29T11:42:20.204Z</time>
      </trkpt>
      <trkpt lat="46.36008" lon="4.02832">
        <ele>297.427278</ele>
        <time>2023-09-29T11:42:22.209Z</time>
      </trkpt>
      <trkpt lat="46.36022" lon="4.02833">
        <ele>297.377778</ele>
        <time>2023-09-29T11:42:25.208Z</time>
      </trkpt>
      <trkpt lat="46.36031" lon="4.02832">
        <ele>297.34194</ele>
        <time>2023-09-29T11:42:27.208Z</time>
      </trkpt>
      <trkpt lat="46.36041" lon="4.02832">
        <ele>297.300352</ele>
        <time>2023-09-29T11:42:29.208Z</time>
      </trkpt>
      <trkpt lat="46.36051" lon="4.02832">
        <ele>297.257006</ele>
        <time>2023-09-29T11:42:31.203Z</time>
      </trkpt>
      <trkpt lat="46.3606" lon="4.02831">
        <ele>297.213161</ele>
        <time>2023-09-29T11:42:33.193Z</time>
      </trkpt>
      <trkpt lat="46.3607" lon="4.02831">
        <ele>297.169369</ele>
        <time>2023-09-29T11:42:35.201Z</time>
      </trkpt>
      <trkpt lat="46.3608" lon="4.02831">
        <ele>297.125573</ele>
        <time>2023-09-29T11:42:37.218Z</time>
      </trkpt>
      <trkpt lat="46.36094" lon="4.02831">
        <ele>297.064801</ele>
        <time>2023-09-29T11:42:40.231Z</time>
      </trkpt>
      <trkpt lat="46.36103" lon="4.02831">
        <ele>297.024565</ele>
        <time>2023-09-29T11:42:42.205Z</time>
      </trkpt>
      <trkpt lat="46.36112" lon="4.0283">
        <ele>296.98433</ele>
        <time>2023-09-29T11:42:44.208Z</time>
      </trkpt>
      <trkpt lat="46.36121" lon="4.02829">
        <ele>296.941298</ele>
        <time>2023-09-29T11:42:46.209Z</time>
      </trkpt>
      <trkpt lat="46.3613" lon="4.02828">
        <ele>296.900048</ele>
        <time>2023-09-29T11:42:48.206Z</time>
      </trkpt>
      <trkpt lat="46.36143" lon="4.02828">
        <ele>296.845084</ele>
        <time>2023-09-29T11:42:51.223Z</time>
      </trkpt>
      <trkpt lat="46.36154" lon="4.02828">
        <ele>296.794575</ele>
        <time>2023-09-29T11:42:54.200Z</time>
      </trkpt>
      <trkpt lat="46.36165" lon="4.0283">
        <ele>296.746441</ele>
        <time>2023-09-29T11:42:57.207Z</time>
      </trkpt>
      <trkpt lat="46.36175" lon="4.02829">
        <ele>296.700183</ele>
        <time>2023-09-29T11:43:00.202Z</time>
      </trkpt>
      <trkpt lat="46.36185" lon="4.02828">
        <ele>296.657597</ele>
        <time>2023-09-29T11:43:03.206Z</time>
      </trkpt>
      <trkpt lat="46.36195" lon="4.02831">
        <ele>296.611964</ele>
        <time>2023-09-29T11:43:06.190Z</time>
      </trkpt>
      <trkpt lat="46.36205" lon="4.0283">
        <ele>296.563254</ele>
        <time>2023-09-29T11:43:09.209Z</time>
      </trkpt>
      <trkpt lat="46.36216" lon="4.0283">
        <ele>296.58505</ele>
        <time>2023-09-29T11:43:12.205Z</time>
      </trkpt>
      <trkpt lat="46.36227" lon="4.0283">
        <ele>296.743218</ele>
        <time>2023-09-29T11:43:15.208Z</time>
      </trkpt>
      <trkpt lat="46.36239" lon="4.0283">
        <ele>296.925094</ele>
        <time>2023-09-29T11:43:18.204Z</time>
      </trkpt>
      <trkpt lat="46.36252" lon="4.02829">
        <ele>297.11151</ele>
        <time>2023-09-29T11:43:21.202Z</time>
      </trkpt>
      <trkpt lat="46.36265" lon="4.0283">
        <ele>297.30819</ele>
        <time>2023-09-29T11:43:24.205Z</time>
      </trkpt>
      <trkpt lat="46.36274" lon="4.0283">
        <ele>297.442731</ele>
        <time>2023-09-29T11:43:26.196Z</time>
      </trkpt>
      <trkpt lat="46.36283" lon="4.0283">
        <ele>297.578729</ele>
        <time>2023-09-29T11:43:28.212Z</time>
      </trkpt>
      <trkpt lat="46.36293" lon="4.0283">
        <ele>297.722335</ele>
        <time>2023-09-29T11:43:30.206Z</time>
      </trkpt>
      <trkpt lat="46.36306" lon="4.0283">
        <ele>297.914488</ele>
        <time>2023-09-29T11:43:33.183Z</time>
      </trkpt>
      <trkpt lat="46.36319" lon="4.0283">
        <ele>298.112554</ele>
        <time>2023-09-29T11:43:36.208Z</time>
      </trkpt>
      <trkpt lat="46.36329" lon="4.02832">
        <ele>298.253696</ele>
        <time>2023-09-29T11:43:38.225Z</time>
      </trkpt>
      <trkpt lat="46.36342" lon="4.02833">
        <ele>298.447593</ele>
        <time>2023-09-29T11:43:41.207Z</time>
      </trkpt>
      <trkpt lat="46.36351" lon="4.02833">
        <ele>298.583591</ele>
        <time>2023-09-29T11:43:43.218Z</time>
      </trkpt>
      <trkpt lat="46.3636" lon="4.02832">
        <ele>298.716681</ele>
        <time>2023-09-29T11:43:45.203Z</time>
      </trkpt>
      <trkpt lat="46.3637" lon="4.02832">
        <ele>298.857114</ele>
        <time>2023-09-29T11:43:47.209Z</time>
      </trkpt>
      <trkpt lat="46.36379" lon="4.02831">
        <ele>299.000665</ele>
        <time>2023-09-29T11:43:49.203Z</time>
      </trkpt>
      <trkpt lat="46.36389" lon="4.02831">
        <ele>299.145521</ele>
        <time>2023-09-29T11:43:51.210Z</time>
      </trkpt>
      <trkpt lat="46.36403" lon="4.02831">
        <ele>299.155006</ele>
        <time>2023-09-29T11:43:54.220Z</time>
      </trkpt>
      <trkpt lat="46.36413" lon="4.02831">
        <ele>299.12205</ele>
        <time>2023-09-29T11:43:56.216Z</time>
      </trkpt>
      <trkpt lat="46.36422" lon="4.02831">
        <ele>299.091071</ele>
        <time>2023-09-29T11:43:58.210Z</time>
      </trkpt>
      <trkpt lat="46.36432" lon="4.02831">
        <ele>299.058448</ele>
        <time>2023-09-29T11:44:00.206Z</time>
      </trkpt>
      <trkpt lat="46.36442" lon="4.02831">
        <ele>299.02483</ele>
        <time>2023-09-29T11:44:02.208Z</time>
      </trkpt>
      <trkpt lat="46.36452" lon="4.02831">
        <ele>298.993195</ele>
        <time>2023-09-29T11:44:04.211Z</time>
      </trkpt>
      <trkpt lat="46.36461" lon="4.0283">
        <ele>298.962428</ele>
        <time>2023-09-29T11:44:06.201Z</time>
      </trkpt>
      <trkpt lat="46.36471" lon="4.02829">
        <ele>298.930461</ele>
        <time>2023-09-29T11:44:08.212Z</time>
      </trkpt>
      <trkpt lat="46.3648" lon="4.02829">
        <ele>298.899773</ele>
        <time>2023-09-29T11:44:10.206Z</time>
      </trkpt>
      <trkpt lat="46.3649" lon="4.02829">
        <ele>298.869097</ele>
        <time>2023-09-29T11:44:12.206Z</time>
      </trkpt>
      <trkpt lat="46.36503" lon="4.02829">
        <ele>298.8259</ele>
        <time>2023-09-29T11:44:15.212Z</time>
      </trkpt>
      <trkpt lat="46.36514" lon="4.02832">
        <ele>298.787759</ele>
        <time>2023-09-29T11:44:18.201Z</time>
      </trkpt>
      <trkpt lat="46.36524" lon="4.02829">
        <ele>298.754394</ele>
        <time>2023-09-29T11:44:21.212Z</time>
      </trkpt>
      <trkpt lat="46.36534" lon="4.02829">
        <ele>298.721105</ele>
        <time>2023-09-29T11:44:24.213Z</time>
      </trkpt>
      <trkpt lat="46.36545" lon="4.02831">
        <ele>298.686207</ele>
        <time>2023-09-29T11:44:27.201Z</time>
      </trkpt>
      <trkpt lat="46.36555" lon="4.0283">
        <ele>298.651917</ele>
        <time>2023-09-29T11:44:30.213Z</time>
      </trkpt>
      <trkpt lat="46.36567" lon="4.02829">
        <ele>298.612624</ele>
        <time>2023-09-29T11:44:33.210Z</time>
      </trkpt>
      <trkpt lat="46.3658" lon="4.02829">
        <ele>298.613573</ele>
        <time>2023-09-29T11:44:36.217Z</time>
      </trkpt>
      <trkpt lat="46.36593" lon="4.0283">
        <ele>298.639251</ele>
        <time>2023-09-29T11:44:39.219Z</time>
      </trkpt>
      <trkpt lat="46.36606" lon="4.0283">
        <ele>298.664152</ele>
        <time>2023-09-29T11:44:42.422Z</time>
      </trkpt>
      <trkpt lat="46.36615" lon="4.02832">
        <ele>298.681669</ele>
        <time>2023-09-29T11:44:44.219Z</time>
      </trkpt>
      <trkpt lat="46.36624" lon="4.02832">
        <ele>298.699812</ele>
        <time>2023-09-29T11:44:46.215Z</time>
      </trkpt>
      <trkpt lat="46.36634" lon="4.02832">
        <ele>298.718148</ele>
        <time>2023-09-29T11:44:48.229Z</time>
      </trkpt>
      <trkpt lat="46.36643" lon="4.02832">
        <ele>298.736483</ele>
        <time>2023-09-29T11:44:50.189Z</time>
      </trkpt>
      <trkpt lat="46.36653" lon="4.02831">
        <ele>298.755607</ele>
        <time>2023-09-29T11:44:52.213Z</time>
      </trkpt>
      <trkpt lat="46.36663" lon="4.02832">
        <ele>298.774552</ele>
        <time>2023-09-29T11:44:54.189Z</time>
      </trkpt>
      <trkpt lat="46.36673" lon="4.02831">
        <ele>298.793285</ele>
        <time>2023-09-29T11:44:56.214Z</time>
      </trkpt>
      <trkpt lat="46.36682" lon="4.02831">
        <ele>298.811815</ele>
        <time>2023-09-29T11:44:58.230Z</time>
      </trkpt>
      <trkpt lat="46.36692" lon="4.02831">
        <ele>298.831132</ele>
        <time>2023-09-29T11:45:00.260Z</time>
      </trkpt>
      <trkpt lat="46.36702" lon="4.0283">
        <ele>298.850048</ele>
        <time>2023-09-29T11:45:02.207Z</time>
      </trkpt>
      <trkpt lat="46.36712" lon="4.0283">
        <ele>298.869928</ele>
        <time>2023-09-29T11:45:04.212Z</time>
      </trkpt>
      <trkpt lat="46.36722" lon="4.0283">
        <ele>298.889036</ele>
        <time>2023-09-29T11:45:06.209Z</time>
      </trkpt>
      <trkpt lat="46.36732" lon="4.02831">
        <ele>298.908148</ele>
        <time>2023-09-29T11:45:08.211Z</time>
      </trkpt>
      <trkpt lat="46.36742" lon="4.0283">
        <ele>298.927663</ele>
        <time>2023-09-29T11:45:10.200Z</time>
      </trkpt>
      <trkpt lat="46.36753" lon="4.0283">
        <ele>298.944426</ele>
        <time>2023-09-29T11:45:12.219Z</time>
      </trkpt>
      <trkpt lat="46.36763" lon="4.0283">
        <ele>298.941422</ele>
        <time>2023-09-29T11:45:14.219Z</time>
      </trkpt>
      <trkpt lat="46.36773" lon="4.0283">
        <ele>298.938533</ele>
        <time>2023-09-29T11:45:16.210Z</time>
      </trkpt>
      <trkpt lat="46.36784" lon="4.0283">
        <ele>298.935557</ele>
        <time>2023-09-29T11:45:18.218Z</time>
      </trkpt>
      <trkpt lat="46.36794" lon="4.0283">
        <ele>298.932638</ele>
        <time>2023-09-29T11:45:20.199Z</time>
      </trkpt>
      <trkpt lat="46.36804" lon="4.0283">
        <ele>298.929805</ele>
        <time>2023-09-29T11:45:22.213Z</time>
      </trkpt>
      <trkpt lat="46.36813" lon="4.0283">
        <ele>298.926974</ele>
        <time>2023-09-29T11:45:24.205Z</time>
      </trkpt>
      <trkpt lat="46.36823" lon="4.0283">
        <ele>298.924055</ele>
        <time>2023-09-29T11:45:26.215Z</time>
      </trkpt>
      <trkpt lat="46.36833" lon="4.0283">
        <ele>298.921224</ele>
        <time>2023-09-29T11:45:28.207Z</time>
      </trkpt>
      <trkpt lat="46.36843" lon="4.0283">
        <ele>298.918307</ele>
        <time>2023-09-29T11:45:30.206Z</time>
      </trkpt>
      <trkpt lat="46.36853" lon="4.02829">
        <ele>298.915443</ele>
        <time>2023-09-29T11:45:32.207Z</time>
      </trkpt>
      <trkpt lat="46.36863" lon="4.02829">
        <ele>298.912497</ele>
        <time>2023-09-29T11:45:34.208Z</time>
      </trkpt>
      <trkpt lat="46.36873" lon="4.02829">
        <ele>298.909608</ele>
        <time>2023-09-29T11:45:36.206Z</time>
      </trkpt>
      <trkpt lat="46.36884" lon="4.02829">
        <ele>298.906631</ele>
        <time>2023-09-29T11:45:38.211Z</time>
      </trkpt>
      <trkpt lat="46.36893" lon="4.02829">
        <ele>298.903858</ele>
        <time>2023-09-29T11:45:40.215Z</time>
      </trkpt>
      <trkpt lat="46.36903" lon="4.02829">
        <ele>298.900998</ele>
        <time>2023-09-29T11:45:42.215Z</time>
      </trkpt>
      <trkpt lat="46.36913" lon="4.02829">
        <ele>298.898196</ele>
        <time>2023-09-29T11:45:44.217Z</time>
      </trkpt>
      <trkpt lat="46.36923" lon="4.02829">
        <ele>298.895364</ele>
        <time>2023-09-29T11:45:46.220Z</time>
      </trkpt>
      <trkpt lat="46.36933" lon="4.02829">
        <ele>298.896473</ele>
        <time>2023-09-29T11:45:48.221Z</time>
      </trkpt>
      <trkpt lat="46.36943" lon="4.02829">
        <ele>298.917472</ele>
        <time>2023-09-29T11:45:50.203Z</time>
      </trkpt>
      <trkpt lat="46.36952" lon="4.0283">
        <ele>298.938045</ele>
        <time>2023-09-29T11:45:52.210Z</time>
      </trkpt>
      <trkpt lat="46.36962" lon="4.02829">
        <ele>298.958407</ele>
        <time>2023-09-29T11:45:54.187Z</time>
      </trkpt>
      <trkpt lat="46.36972" lon="4.02829">
        <ele>298.980048</ele>
        <time>2023-09-29T11:45:56.204Z</time>
      </trkpt>
      <trkpt lat="46.36981" lon="4.02829">
        <ele>298.999974</ele>
        <time>2023-09-29T11:45:58.208Z</time>
      </trkpt>
      <trkpt lat="46.36991" lon="4.02829">
        <ele>299.021827</ele>
        <time>2023-09-29T11:46:00.204Z</time>
      </trkpt>
      <trkpt lat="46.37001" lon="4.02829">
        <ele>299.041761</ele>
        <time>2023-09-29T11:46:02.226Z</time>
      </trkpt>
      <trkpt lat="46.3701" lon="4.02829">
        <ele>299.062758</ele>
        <time>2023-09-29T11:46:04.208Z</time>
      </trkpt>
      <trkpt lat="46.3702" lon="4.0283">
        <ele>299.083982</ele>
        <time>2023-09-29T11:46:06.207Z</time>
      </trkpt>
      <trkpt lat="46.3703" lon="4.02829">
        <ele>299.105432</ele>
        <time>2023-09-29T11:46:08.219Z</time>
      </trkpt>
      <trkpt lat="46.3704" lon="4.02829">
        <ele>299.126865</ele>
        <time>2023-09-29T11:46:10.212Z</time>
      </trkpt>
      <trkpt lat="46.3705" lon="4.0283">
        <ele>299.147437</ele>
        <time>2023-09-29T11:46:12.213Z</time>
      </trkpt>
      <trkpt lat="46.37059" lon="4.02829">
        <ele>299.166948</ele>
        <time>2023-09-29T11:46:14.210Z</time>
      </trkpt>
      <trkpt lat="46.37069" lon="4.02829">
        <ele>299.187735</ele>
        <time>2023-09-29T11:46:16.212Z</time>
      </trkpt>
      <trkpt lat="46.37078" lon="4.0283">
        <ele>299.207888</ele>
        <time>2023-09-29T11:46:18.191Z</time>
      </trkpt>
      <trkpt lat="46.37087" lon="4.02829">
        <ele>299.227607</ele>
        <time>2023-09-29T11:46:20.221Z</time>
      </trkpt>
      <trkpt lat="46.37097" lon="4.02829">
        <ele>299.248608</ele>
        <time>2023-09-29T11:46:22.205Z</time>
      </trkpt>
      <trkpt lat="46.37107" lon="4.02827">
        <ele>299.269329</ele>
        <time>2023-09-29T11:46:24.194Z</time>
      </trkpt>
      <trkpt lat="46.37117" lon="4.02829">
        <ele>299.276288</ele>
        <time>2023-09-29T11:46:26.208Z</time>
      </trkpt>
      <trkpt lat="46.37126" lon="4.02828">
        <ele>299.273065</ele>
        <time>2023-09-29T11:46:28.205Z</time>
      </trkpt>
      <trkpt lat="46.37136" lon="4.02828">
        <ele>299.269741</ele>
        <time>2023-09-29T11:46:30.201Z</time>
      </trkpt>
      <trkpt lat="46.37146" lon="4.02828">
        <ele>299.266314</ele>
        <time>2023-09-29T11:46:32.208Z</time>
      </trkpt>
      <trkpt lat="46.37156" lon="4.02827">
        <ele>299.262888</ele>
        <time>2023-09-29T11:46:34.206Z</time>
      </trkpt>
      <trkpt lat="46.37166" lon="4.02828">
        <ele>299.259625</ele>
        <time>2023-09-29T11:46:36.212Z</time>
      </trkpt>
      <trkpt lat="46.37176" lon="4.02828">
        <ele>299.256335</ele>
        <time>2023-09-29T11:46:38.220Z</time>
      </trkpt>
      <trkpt lat="46.37185" lon="4.02828">
        <ele>299.253147</ele>
        <time>2023-09-29T11:46:40.211Z</time>
      </trkpt>
      <trkpt lat="46.37195" lon="4.02828">
        <ele>299.249857</ele>
        <time>2023-09-29T11:46:42.233Z</time>
      </trkpt>
      <trkpt lat="46.37204" lon="4.02827">
        <ele>299.246528</ele>
        <time>2023-09-29T11:46:44.205Z</time>
      </trkpt>
      <trkpt lat="46.37214" lon="4.02828">
        <ele>299.243404</ele>
        <time>2023-09-29T11:46:46.210Z</time>
      </trkpt>
      <trkpt lat="46.37224" lon="4.02827">
        <ele>299.240003</ele>
        <time>2023-09-29T11:46:48.206Z</time>
      </trkpt>
      <trkpt lat="46.37233" lon="4.02826">
        <ele>299.236675</ele>
        <time>2023-09-29T11:46:50.218Z</time>
      </trkpt>
      <trkpt lat="46.37243" lon="4.02826">
        <ele>299.233351</ele>
        <time>2023-09-29T11:46:52.218Z</time>
      </trkpt>
      <trkpt lat="46.37253" lon="4.02826">
        <ele>299.229959</ele>
        <time>2023-09-29T11:46:54.227Z</time>
      </trkpt>
      <trkpt lat="46.37265" lon="4.02828">
        <ele>299.225901</ele>
        <time>2023-09-29T11:46:57.230Z</time>
      </trkpt>
      <trkpt lat="46.37275" lon="4.02827">
        <ele>299.222574</ele>
        <time>2023-09-29T11:47:00.218Z</time>
      </trkpt>
      <trkpt lat="46.37287" lon="4.02826">
        <ele>299.218599</ele>
        <time>2023-09-29T11:47:03.209Z</time>
      </trkpt>
      <trkpt lat="46.37299" lon="4.02827">
        <ele>299.177483</ele>
        <time>2023-09-29T11:47:06.190Z</time>
      </trkpt>
      <trkpt lat="46.37312" lon="4.02827">
        <ele>299.118047</ele>
        <time>2023-09-29T11:47:09.214Z</time>
      </trkpt>
      <trkpt lat="46.37325" lon="4.02827">
        <ele>299.057674</ele>
        <time>2023-09-29T11:47:12.211Z</time>
      </trkpt>
      <trkpt lat="46.37334" lon="4.02828">
        <ele>299.012266</ele>
        <time>2023-09-29T11:47:14.203Z</time>
      </trkpt>
      <trkpt lat="46.37344" lon="4.02828">
        <ele>298.967342</ele>
        <time>2023-09-29T11:47:16.220Z</time>
      </trkpt>
      <trkpt lat="46.37354" lon="4.02827">
        <ele>298.920961</ele>
        <time>2023-09-29T11:47:18.215Z</time>
      </trkpt>
      <trkpt lat="46.37364" lon="4.02827">
        <ele>298.874165</ele>
        <time>2023-09-29T11:47:20.212Z</time>
      </trkpt>
      <trkpt lat="46.37373" lon="4.02827">
        <ele>298.829692</ele>
        <time>2023-09-29T11:47:22.214Z</time>
      </trkpt>
      <trkpt lat="46.37383" lon="4.02828">
        <ele>298.783816</ele>
        <time>2023-09-29T11:47:24.211Z</time>
      </trkpt>
      <trkpt lat="46.37393" lon="4.02827">
        <ele>298.738369</ele>
        <time>2023-09-29T11:47:26.191Z</time>
      </trkpt>
      <trkpt lat="46.37402" lon="4.02827">
        <ele>298.692974</ele>
        <time>2023-09-29T11:47:28.213Z</time>
      </trkpt>
      <trkpt lat="46.37413" lon="4.02828">
        <ele>298.645684</ele>
        <time>2023-09-29T11:47:30.206Z</time>
      </trkpt>
      <trkpt lat="46.37423" lon="4.02827">
        <ele>298.595598</ele>
        <time>2023-09-29T11:47:32.192Z</time>
      </trkpt>
      <trkpt lat="46.37434" lon="4.02827">
        <ele>298.546426</ele>
        <time>2023-09-29T11:47:34.201Z</time>
      </trkpt>
      <trkpt lat="46.37445" lon="4.02827">
        <ele>298.495419</ele>
        <time>2023-09-29T11:47:36.210Z</time>
      </trkpt>
      <trkpt lat="46.37455" lon="4.02827">
        <ele>298.447671</ele>
        <time>2023-09-29T11:47:38.219Z</time>
      </trkpt>
      <trkpt lat="46.37465" lon="4.02828">
        <ele>298.400806</ele>
        <time>2023-09-29T11:47:40.222Z</time>
      </trkpt>
      <trkpt lat="46.37475" lon="4.02828">
        <ele>298.362138</ele>
        <time>2023-09-29T11:47:42.225Z</time>
      </trkpt>
      <trkpt lat="46.37484" lon="4.02828">
        <ele>298.332461</ele>
        <time>2023-09-29T11:47:44.203Z</time>
      </trkpt>
      <trkpt lat="46.37494" lon="4.02827">
        <ele>298.299969</ele>
        <time>2023-09-29T11:47:46.212Z</time>
      </trkpt>
      <trkpt lat="46.37505" lon="4.02828">
        <ele>298.26777</ele>
        <time>2023-09-29T11:47:48.228Z</time>
      </trkpt>
      <trkpt lat="46.37515" lon="4.02828">
        <ele>298.236218</ele>
        <time>2023-09-29T11:47:50.223Z</time>
      </trkpt>
      <trkpt lat="46.37525" lon="4.02827">
        <ele>298.205595</ele>
        <time>2023-09-29T11:47:52.207Z</time>
      </trkpt>
      <trkpt lat="46.37535" lon="4.02827">
        <ele>298.174034</ele>
        <time>2023-09-29T11:47:54.208Z</time>
      </trkpt>
      <trkpt lat="46.37545" lon="4.02827">
        <ele>298.14311</ele>
        <time>2023-09-29T11:47:56.207Z</time>
      </trkpt>
      <trkpt lat="46.37555" lon="4.02827">
        <ele>298.110294</ele>
        <time>2023-09-29T11:47:58.214Z</time>
      </trkpt>
      <trkpt lat="46.37565" lon="4.02826">
        <ele>298.079992</ele>
        <time>2023-09-29T11:48:00.214Z</time>
      </trkpt>
      <trkpt lat="46.37575" lon="4.02827">
        <ele>298.049692</ele>
        <time>2023-09-29T11:48:02.209Z</time>
      </trkpt>
      <trkpt lat="46.37585" lon="4.02826">
        <ele>298.017805</ele>
        <time>2023-09-29T11:48:04.210Z</time>
      </trkpt>
      <trkpt lat="46.37595" lon="4.02825">
        <ele>297.986183</ele>
        <time>2023-09-29T11:48:06.208Z</time>
      </trkpt>
      <trkpt lat="46.37604" lon="4.02826">
        <ele>297.957094</ele>
        <time>2023-09-29T11:48:08.227Z</time>
      </trkpt>
      <trkpt lat="46.37617" lon="4.02825">
        <ele>297.917366</ele>
        <time>2023-09-29T11:48:11.223Z</time>
      </trkpt>
      <trkpt lat="46.37629" lon="4.02823">
        <ele>297.877893</ele>
        <time>2023-09-29T11:48:14.222Z</time>
      </trkpt>
      <trkpt lat="46.3764" lon="4.02826">
        <ele>297.843622</ele>
        <time>2023-09-29T11:48:17.235Z</time>
      </trkpt>
      <trkpt lat="46.37651" lon="4.02824">
        <ele>297.816537</ele>
        <time>2023-09-29T11:48:20.211Z</time>
      </trkpt>
      <trkpt lat="46.37663" lon="4.02825">
        <ele>297.836968</ele>
        <time>2023-09-29T11:48:23.204Z</time>
      </trkpt>
      <trkpt lat="46.37675" lon="4.02825">
        <ele>297.858206</ele>
        <time>2023-09-29T11:48:26.199Z</time>
      </trkpt>
      <trkpt lat="46.37687" lon="4.02824">
        <ele>297.879259</ele>
        <time>2023-09-29T11:48:29.209Z</time>
      </trkpt>
      <trkpt lat="46.37701" lon="4.02824">
        <ele>297.902583</ele>
        <time>2023-09-29T11:48:32.204Z</time>
      </trkpt>
      <trkpt lat="46.3771" lon="4.02824">
        <ele>297.918586</ele>
        <time>2023-09-29T11:48:34.200Z</time>
      </trkpt>
      <trkpt lat="46.37719" lon="4.02823">
        <ele>297.934941</ele>
        <time>2023-09-29T11:48:36.176Z</time>
      </trkpt>
      <trkpt lat="46.37729" lon="4.02824">
        <ele>297.951307</ele>
        <time>2023-09-29T11:48:38.195Z</time>
      </trkpt>
      <trkpt lat="46.37738" lon="4.02823">
        <ele>297.968034</ele>
        <time>2023-09-29T11:48:40.195Z</time>
      </trkpt>
      <trkpt lat="46.37747" lon="4.02823">
        <ele>297.983867</ele>
        <time>2023-09-29T11:48:42.205Z</time>
      </trkpt>
      <trkpt lat="46.37757" lon="4.02823">
        <ele>298.000393</ele>
        <time>2023-09-29T11:48:44.209Z</time>
      </trkpt>
      <trkpt lat="46.37767" lon="4.02823">
        <ele>298.017268</ele>
        <time>2023-09-29T11:48:46.216Z</time>
      </trkpt>
      <trkpt lat="46.37776" lon="4.02823">
        <ele>298.033626</ele>
        <time>2023-09-29T11:48:48.207Z</time>
      </trkpt>
      <trkpt lat="46.37786" lon="4.02822">
        <ele>298.050848</ele>
        <time>2023-09-29T11:48:50.213Z</time>
      </trkpt>
      <trkpt lat="46.37796" lon="4.02822">
        <ele>298.068765</ele>
        <time>2023-09-29T11:48:52.203Z</time>
      </trkpt>
      <trkpt lat="46.37806" lon="4.02823">
        <ele>298.086193</ele>
        <time>2023-09-29T11:48:54.214Z</time>
      </trkpt>
      <trkpt lat="46.37817" lon="4.02823">
        <ele>298.104457</ele>
        <time>2023-09-29T11:48:56.203Z</time>
      </trkpt>
      <trkpt lat="46.37827" lon="4.02822">
        <ele>298.12172</ele>
        <time>2023-09-29T11:48:58.214Z</time>
      </trkpt>
      <trkpt lat="46.37837" lon="4.02822">
        <ele>298.122378</ele>
        <time>2023-09-29T11:49:00.207Z</time>
      </trkpt>
      <trkpt lat="46.37848" lon="4.02823">
        <ele>298.116594</ele>
        <time>2023-09-29T11:49:02.223Z</time>
      </trkpt>
      <trkpt lat="46.37858" lon="4.02823">
        <ele>298.111034</ele>
        <time>2023-09-29T11:49:04.208Z</time>
      </trkpt>
      <trkpt lat="46.37868" lon="4.02823">
        <ele>298.105419</ele>
        <time>2023-09-29T11:49:06.214Z</time>
      </trkpt>
      <trkpt lat="46.37878" lon="4.02823">
        <ele>298.099581</ele>
        <time>2023-09-29T11:49:08.210Z</time>
      </trkpt>
      <trkpt lat="46.37888" lon="4.02823">
        <ele>298.093966</ele>
        <time>2023-09-29T11:49:10.213Z</time>
      </trkpt>
      <trkpt lat="46.37898" lon="4.02823">
        <ele>298.088284</ele>
        <time>2023-09-29T11:49:12.230Z</time>
      </trkpt>
      <trkpt lat="46.37908" lon="4.02824">
        <ele>298.082724</ele>
        <time>2023-09-29T11:49:14.216Z</time>
      </trkpt>
      <trkpt lat="46.37919" lon="4.02824">
        <ele>298.076942</ele>
        <time>2023-09-29T11:49:16.207Z</time>
      </trkpt>
      <trkpt lat="46.37929" lon="4.02824">
        <ele>298.071104</ele>
        <time>2023-09-29T11:49:18.218Z</time>
      </trkpt>
      <trkpt lat="46.3794" lon="4.02823">
        <ele>298.065205</ele>
        <time>2023-09-29T11:49:20.214Z</time>
      </trkpt>
      <trkpt lat="46.37951" lon="4.02823">
        <ele>298.059311</ele>
        <time>2023-09-29T11:49:22.211Z</time>
      </trkpt>
      <trkpt lat="46.37961" lon="4.02823">
        <ele>298.053585</ele>
        <time>2023-09-29T11:49:24.204Z</time>
      </trkpt>
      <trkpt lat="46.37971" lon="4.02823">
        <ele>298.047747</ele>
        <time>2023-09-29T11:49:26.204Z</time>
      </trkpt>
      <trkpt lat="46.37982" lon="4.02823">
        <ele>298.041687</ele>
        <time>2023-09-29T11:49:28.211Z</time>
      </trkpt>
      <trkpt lat="46.37993" lon="4.02823">
        <ele>298.035793</ele>
        <time>2023-09-29T11:49:30.207Z</time>
      </trkpt>
      <trkpt lat="46.38003" lon="4.02822">
        <ele>298.030007</ele>
        <time>2023-09-29T11:49:32.206Z</time>
      </trkpt>
      <trkpt lat="46.38014" lon="4.02822">
        <ele>298.02768</ele>
        <time>2023-09-29T11:49:34.206Z</time>
      </trkpt>
      <trkpt lat="46.38024" lon="4.02822">
        <ele>298.029895</ele>
        <time>2023-09-29T11:49:36.218Z</time>
      </trkpt>
      <trkpt lat="46.38034" lon="4.02822">
        <ele>298.032154</ele>
        <time>2023-09-29T11:49:38.207Z</time>
      </trkpt>
      <trkpt lat="46.38045" lon="4.02822">
        <ele>298.034435</ele>
        <time>2023-09-29T11:49:40.219Z</time>
      </trkpt>
      <trkpt lat="46.38055" lon="4.02822">
        <ele>298.036759</ele>
        <time>2023-09-29T11:49:42.208Z</time>
      </trkpt>
      <trkpt lat="46.38065" lon="4.02822">
        <ele>298.039017</ele>
        <time>2023-09-29T11:49:44.214Z</time>
      </trkpt>
      <trkpt lat="46.38076" lon="4.02821">
        <ele>298.041235</ele>
        <time>2023-09-29T11:49:46.204Z</time>
      </trkpt>
      <trkpt lat="46.38086" lon="4.02821">
        <ele>298.043471</ele>
        <time>2023-09-29T11:49:48.219Z</time>
      </trkpt>
      <trkpt lat="46.38096" lon="4.02822">
        <ele>298.04562</ele>
        <time>2023-09-29T11:49:50.220Z</time>
      </trkpt>
      <trkpt lat="46.38106" lon="4.02822">
        <ele>298.047858</ele>
        <time>2023-09-29T11:49:52.208Z</time>
      </trkpt>
      <trkpt lat="46.38116" lon="4.02822">
        <ele>298.050139</ele>
        <time>2023-09-29T11:49:54.226Z</time>
      </trkpt>
      <trkpt lat="46.38126" lon="4.02822">
        <ele>298.052353</ele>
        <time>2023-09-29T11:49:56.216Z</time>
      </trkpt>
      <trkpt lat="46.38136" lon="4.02822">
        <ele>298.054569</ele>
        <time>2023-09-29T11:49:58.225Z</time>
      </trkpt>
      <trkpt lat="46.38146" lon="4.02823">
        <ele>298.056721</ele>
        <time>2023-09-29T11:50:00.208Z</time>
      </trkpt>
      <trkpt lat="46.38156" lon="4.02823">
        <ele>298.058958</ele>
        <time>2023-09-29T11:50:02.199Z</time>
      </trkpt>
      <trkpt lat="46.38166" lon="4.02824">
        <ele>298.06111</ele>
        <time>2023-09-29T11:50:04.207Z</time>
      </trkpt>
      <trkpt lat="46.38176" lon="4.02823">
        <ele>298.063348</ele>
        <time>2023-09-29T11:50:06.220Z</time>
      </trkpt>
      <trkpt lat="46.38186" lon="4.02823">
        <ele>298.065562</ele>
        <time>2023-09-29T11:50:08.185Z</time>
      </trkpt>
      <trkpt lat="46.38197" lon="4.02823">
        <ele>298.006837</ele>
        <time>2023-09-29T11:50:10.215Z</time>
      </trkpt>
      <trkpt lat="46.38207" lon="4.02821">
        <ele>297.929442</ele>
        <time>2023-09-29T11:50:12.222Z</time>
      </trkpt>
      <trkpt lat="46.38217" lon="4.02822">
        <ele>297.850707</ele>
        <time>2023-09-29T11:50:14.206Z</time>
      </trkpt>
      <trkpt lat="46.38227" lon="4.02823">
        <ele>297.774939</ele>
        <time>2023-09-29T11:50:16.214Z</time>
      </trkpt>
      <trkpt lat="46.38237" lon="4.02823">
        <ele>297.700816</ele>
        <time>2023-09-29T11:50:18.205Z</time>
      </trkpt>
      <trkpt lat="46.38247" lon="4.02823">
        <ele>297.6244</ele>
        <time>2023-09-29T11:50:20.214Z</time>
      </trkpt>
      <trkpt lat="46.38257" lon="4.02822">
        <ele>297.548733</ele>
        <time>2023-09-29T11:50:22.206Z</time>
      </trkpt>
      <trkpt lat="46.38266" lon="4.0282">
        <ele>297.476965</ele>
        <time>2023-09-29T11:50:24.201Z</time>
      </trkpt>
      <trkpt lat="46.38275" lon="4.02821">
        <ele>297.404303</ele>
        <time>2023-09-29T11:50:26.188Z</time>
      </trkpt>
      <trkpt lat="46.38288" lon="4.02821">
        <ele>297.30878</ele>
        <time>2023-09-29T11:50:29.212Z</time>
      </trkpt>
      <trkpt lat="46.383" lon="4.0282">
        <ele>297.219276</ele>
        <time>2023-09-29T11:50:32.205Z</time>
      </trkpt>
      <trkpt lat="46.38309" lon="4.02824">
        <ele>297.143682</ele>
        <time>2023-09-29T11:50:35.218Z</time>
      </trkpt>
      <trkpt lat="46.38319" lon="4.02822">
        <ele>297.067252</ele>
        <time>2023-09-29T11:50:38.192Z</time>
      </trkpt>
      <trkpt lat="46.38329" lon="4.02823">
        <ele>296.991418</ele>
        <time>2023-09-29T11:50:41.191Z</time>
      </trkpt>
      <trkpt lat="46.38339" lon="4.02822">
        <ele>296.912667</ele>
        <time>2023-09-29T11:50:44.229Z</time>
      </trkpt>
      <trkpt lat="46.38351" lon="4.02821">
        <ele>296.823762</ele>
        <time>2023-09-29T11:50:47.209Z</time>
      </trkpt>
      <trkpt lat="46.38363" lon="4.0282">
        <ele>296.728985</ele>
        <time>2023-09-29T11:50:50.207Z</time>
      </trkpt>
      <trkpt lat="46.38375" lon="4.02821">
        <ele>296.68195</ele>
        <time>2023-09-29T11:50:53.218Z</time>
      </trkpt>
      <trkpt lat="46.38388" lon="4.02821">
        <ele>296.664927</ele>
        <time>2023-09-29T11:50:56.231Z</time>
      </trkpt>
      <trkpt lat="46.38397" lon="4.02821">
        <ele>296.652558</ele>
        <time>2023-09-29T11:50:58.214Z</time>
      </trkpt>
      <trkpt lat="46.38407" lon="4.02821">
        <ele>296.640323</ele>
        <time>2023-09-29T11:51:00.208Z</time>
      </trkpt>
      <trkpt lat="46.38416" lon="4.02822">
        <ele>296.628212</ele>
        <time>2023-09-29T11:51:02.206Z</time>
      </trkpt>
      <trkpt lat="46.38425" lon="4.02822">
        <ele>296.615842</ele>
        <time>2023-09-29T11:51:04.201Z</time>
      </trkpt>
      <trkpt lat="46.38435" lon="4.02822">
        <ele>296.603073</ele>
        <time>2023-09-29T11:51:06.218Z</time>
      </trkpt>
      <trkpt lat="46.38444" lon="4.02822">
        <ele>296.590832</ele>
        <time>2023-09-29T11:51:08.216Z</time>
      </trkpt>
      <trkpt lat="46.38453" lon="4.02821">
        <ele>296.578181</ele>
        <time>2023-09-29T11:51:10.209Z</time>
      </trkpt>
      <trkpt lat="46.38463" lon="4.02822">
        <ele>296.565278</ele>
        <time>2023-09-29T11:51:12.213Z</time>
      </trkpt>
      <trkpt lat="46.38473" lon="4.02822">
        <ele>296.552245</ele>
        <time>2023-09-29T11:51:14.210Z</time>
      </trkpt>
      <trkpt lat="46.38483" lon="4.02821">
        <ele>296.538934</ele>
        <time>2023-09-29T11:51:16.215Z</time>
      </trkpt>
      <trkpt lat="46.38493" lon="4.02821">
        <ele>296.526032</ele>
        <time>2023-09-29T11:51:18.225Z</time>
      </trkpt>
      <trkpt lat="46.38502" lon="4.02822">
        <ele>296.512996</ele>
        <time>2023-09-29T11:51:20.212Z</time>
      </trkpt>
      <trkpt lat="46.38512" lon="4.02822">
        <ele>296.499961</ele>
        <time>2023-09-29T11:51:22.221Z</time>
      </trkpt>
      <trkpt lat="46.38522" lon="4.02822">
        <ele>296.486654</ele>
        <time>2023-09-29T11:51:24.193Z</time>
      </trkpt>
      <trkpt lat="46.38532" lon="4.02822">
        <ele>296.473618</ele>
        <time>2023-09-29T11:51:26.212Z</time>
      </trkpt>
      <trkpt lat="46.38542" lon="4.02822">
        <ele>296.460185</ele>
        <time>2023-09-29T11:51:28.204Z</time>
      </trkpt>
      <trkpt lat="46.38552" lon="4.02822">
        <ele>296.457299</ele>
        <time>2023-09-29T11:51:30.220Z</time>
      </trkpt>
      <trkpt lat="46.38561" lon="4.02822">
        <ele>296.468827</ele>
        <time>2023-09-29T11:51:32.201Z</time>
      </trkpt>
      <trkpt lat="46.38571" lon="4.02822">
        <ele>296.480844</ele>
        <time>2023-09-29T11:51:34.203Z</time>
      </trkpt>
      <trkpt lat="46.3858" lon="4.02822">
        <ele>296.492003</ele>
        <time>2023-09-29T11:51:36.208Z</time>
      </trkpt>
      <trkpt lat="46.3859" lon="4.02822">
        <ele>296.504143</ele>
        <time>2023-09-29T11:51:38.209Z</time>
      </trkpt>
      <trkpt lat="46.38599" lon="4.02823">
        <ele>296.51567</ele>
        <time>2023-09-29T11:51:40.213Z</time>
      </trkpt>
      <trkpt lat="46.38609" lon="4.02822">
        <ele>296.5272</ele>
        <time>2023-09-29T11:51:42.223Z</time>
      </trkpt>
      <trkpt lat="46.38618" lon="4.02821">
        <ele>296.538879</ele>
        <time>2023-09-29T11:51:44.216Z</time>
      </trkpt>
      <trkpt lat="46.38628" lon="4.02821">
        <ele>296.5509</ele>
        <time>2023-09-29T11:51:46.207Z</time>
      </trkpt>
      <trkpt lat="46.38642" lon="4.02821">
        <ele>296.567698</ele>
        <time>2023-09-29T11:51:49.221Z</time>
      </trkpt>
      <trkpt lat="46.38651" lon="4.02821">
        <ele>296.579104</ele>
        <time>2023-09-29T11:51:51.199Z</time>
      </trkpt>
      <trkpt lat="46.3866" lon="4.0282">
        <ele>296.590527</ele>
        <time>2023-09-29T11:51:53.209Z</time>
      </trkpt>
      <trkpt lat="46.3867" lon="4.0282">
        <ele>296.602176</ele>
        <time>2023-09-29T11:51:55.210Z</time>
      </trkpt>
      <trkpt lat="46.38679" lon="4.0282">
        <ele>296.613457</ele>
        <time>2023-09-29T11:51:57.209Z</time>
      </trkpt>
      <trkpt lat="46.38688" lon="4.02821">
        <ele>296.624758</ele>
        <time>2023-09-29T11:51:59.201Z</time>
      </trkpt>
      <trkpt lat="46.38702" lon="4.02821">
        <ele>296.641071</ele>
        <time>2023-09-29T11:52:02.209Z</time>
      </trkpt>
      <trkpt lat="46.38711" lon="4.02821">
        <ele>296.65223</ele>
        <time>2023-09-29T11:52:04.206Z</time>
      </trkpt>
      <trkpt lat="46.3872" lon="4.02822">
        <ele>296.663516</ele>
        <time>2023-09-29T11:52:06.222Z</time>
      </trkpt>
      <trkpt lat="46.38729" lon="4.02821">
        <ele>296.670038</ele>
        <time>2023-09-29T11:52:08.207Z</time>
      </trkpt>
      <trkpt lat="46.38738" lon="4.02822">
        <ele>296.651105</ele>
        <time>2023-09-29T11:52:10.212Z</time>
      </trkpt>
      <trkpt lat="46.38748" lon="4.02821">
        <ele>296.630501</ele>
        <time>2023-09-29T11:52:12.212Z</time>
      </trkpt>
      <trkpt lat="46.38758" lon="4.02821">
        <ele>296.609684</ele>
        <time>2023-09-29T11:52:14.211Z</time>
      </trkpt>
      <trkpt lat="46.38768" lon="4.0282">
        <ele>296.589699</ele>
        <time>2023-09-29T11:52:16.188Z</time>
      </trkpt>
      <trkpt lat="46.38777" lon="4.02819">
        <ele>296.569279</ele>
        <time>2023-09-29T11:52:18.206Z</time>
      </trkpt>
      <trkpt lat="46.38787" lon="4.02821">
        <ele>296.54944</ele>
        <time>2023-09-29T11:52:20.210Z</time>
      </trkpt>
      <trkpt lat="46.38797" lon="4.02821">
        <ele>296.529463</ele>
        <time>2023-09-29T11:52:22.225Z</time>
      </trkpt>
      <trkpt lat="46.38807" lon="4.02821">
        <ele>296.508657</ele>
        <time>2023-09-29T11:52:24.215Z</time>
      </trkpt>
      <trkpt lat="46.38816" lon="4.02821">
        <ele>296.488268</ele>
        <time>2023-09-29T11:52:26.230Z</time>
      </trkpt>
      <trkpt lat="46.38826" lon="4.02821">
        <ele>296.468502</ele>
        <time>2023-09-29T11:52:28.230Z</time>
      </trkpt>
      <trkpt lat="46.38835" lon="4.0282">
        <ele>296.449357</ele>
        <time>2023-09-29T11:52:30.212Z</time>
      </trkpt>
      <trkpt lat="46.38844" lon="4.02821">
        <ele>296.429793</ele>
        <time>2023-09-29T11:52:32.214Z</time>
      </trkpt>
      <trkpt lat="46.38854" lon="4.02821">
        <ele>296.409192</ele>
        <time>2023-09-29T11:52:34.220Z</time>
      </trkpt>
      <trkpt lat="46.38864" lon="4.02821">
        <ele>296.389419</ele>
        <time>2023-09-29T11:52:36.224Z</time>
      </trkpt>
      <trkpt lat="46.38873" lon="4.02821">
        <ele>296.369653</ele>
        <time>2023-09-29T11:52:38.225Z</time>
      </trkpt>
      <trkpt lat="46.38882" lon="4.02821">
        <ele>296.350719</ele>
        <time>2023-09-29T11:52:40.203Z</time>
      </trkpt>
      <trkpt lat="46.38896" lon="4.02821">
        <ele>296.323048</ele>
        <time>2023-09-29T11:52:43.213Z</time>
      </trkpt>
      <trkpt lat="46.38908" lon="4.02821">
        <ele>296.297802</ele>
        <time>2023-09-29T11:52:46.216Z</time>
      </trkpt>
      <trkpt lat="46.38919" lon="4.0282">
        <ele>296.266404</ele>
        <time>2023-09-29T11:52:49.195Z</time>
      </trkpt>
      <trkpt lat="46.38929" lon="4.0282">
        <ele>296.236716</ele>
        <time>2023-09-29T11:52:52.207Z</time>
      </trkpt>
      <trkpt lat="46.38939" lon="4.02822">
        <ele>296.208763</ele>
        <time>2023-09-29T11:52:55.187Z</time>
      </trkpt>
      <trkpt lat="46.3895" lon="4.02821">
        <ele>296.175895</ele>
        <time>2023-09-29T11:52:59.199Z</time>
      </trkpt>
      <trkpt lat="46.38961" lon="4.02824">
        <ele>296.146035</ele>
        <time>2023-09-29T11:53:02.203Z</time>
      </trkpt>
      <trkpt lat="46.38971" lon="4.02822">
        <ele>296.116764</ele>
        <time>2023-09-29T11:53:05.200Z</time>
      </trkpt>
      <trkpt lat="46.38981" lon="4.02823">
        <ele>296.086791</ele>
        <time>2023-09-29T11:53:08.223Z</time>
      </trkpt>
      <trkpt lat="46.38993" lon="4.02822">
        <ele>296.054523</ele>
        <time>2023-09-29T11:53:11.225Z</time>
      </trkpt>
      <trkpt lat="46.39004" lon="4.02822">
        <ele>296.020552</ele>
        <time>2023-09-29T11:53:14.206Z</time>
      </trkpt>
      <trkpt lat="46.39017" lon="4.02821">
        <ele>295.98601</ele>
        <time>2023-09-29T11:53:17.225Z</time>
      </trkpt>
      <trkpt lat="46.39029" lon="4.02821">
        <ele>295.950917</ele>
        <time>2023-09-29T11:53:20.203Z</time>
      </trkpt>
      <trkpt lat="46.39042" lon="4.02821">
        <ele>295.913543</ele>
        <time>2023-09-29T11:53:23.213Z</time>
      </trkpt>
      <trkpt lat="46.39055" lon="4.0282">
        <ele>295.875009</ele>
        <time>2023-09-29T11:53:26.219Z</time>
      </trkpt>
      <trkpt lat="46.39069" lon="4.0282">
        <ele>295.837634</ele>
        <time>2023-09-29T11:53:29.227Z</time>
      </trkpt>
      <trkpt lat="46.39078" lon="4.0282">
        <ele>295.811635</ele>
        <time>2023-09-29T11:53:31.211Z</time>
      </trkpt>
      <trkpt lat="46.39087" lon="4.0282">
        <ele>295.785686</ele>
        <time>2023-09-29T11:53:33.207Z</time>
      </trkpt>
      <trkpt lat="46.39096" lon="4.0282">
        <ele>295.796829</ele>
        <time>2023-09-29T11:53:35.208Z</time>
      </trkpt>
      <trkpt lat="46.39106" lon="4.0282">
        <ele>295.808331</ele>
        <time>2023-09-29T11:53:37.208Z</time>
      </trkpt>
      <trkpt lat="46.39115" lon="4.0282">
        <ele>295.819953</ele>
        <time>2023-09-29T11:53:39.204Z</time>
      </trkpt>
      <trkpt lat="46.39125" lon="4.0282">
        <ele>295.831585</ele>
        <time>2023-09-29T11:53:41.206Z</time>
      </trkpt>
      <trkpt lat="46.39135" lon="4.0282">
        <ele>295.843344</ele>
        <time>2023-09-29T11:53:43.215Z</time>
      </trkpt>
      <trkpt lat="46.39145" lon="4.0282">
        <ele>295.855325</ele>
        <time>2023-09-29T11:53:45.179Z</time>
      </trkpt>
      <trkpt lat="46.39155" lon="4.02821">
        <ele>295.866947</ele>
        <time>2023-09-29T11:53:47.190Z</time>
      </trkpt>
      <trkpt lat="46.39164" lon="4.02821">
        <ele>295.878569</ele>
        <time>2023-09-29T11:53:49.211Z</time>
      </trkpt>
      <trkpt lat="46.39174" lon="4.02821">
        <ele>295.890311</ele>
        <time>2023-09-29T11:53:51.214Z</time>
      </trkpt>
      <trkpt lat="46.39184" lon="4.02821">
        <ele>295.902172</ele>
        <time>2023-09-29T11:53:53.223Z</time>
      </trkpt>
      <trkpt lat="46.39194" lon="4.02821">
        <ele>295.913674</ele>
        <time>2023-09-29T11:53:55.210Z</time>
      </trkpt>
      <trkpt lat="46.39203" lon="4.02821">
        <ele>295.924943</ele>
        <time>2023-09-29T11:53:57.212Z</time>
      </trkpt>
      <trkpt lat="46.39212" lon="4.02821">
        <ele>295.936205</ele>
        <time>2023-09-29T11:53:59.220Z</time>
      </trkpt>
      <trkpt lat="46.39222" lon="4.0282">
        <ele>295.948204</ele>
        <time>2023-09-29T11:54:01.217Z</time>
      </trkpt>
      <trkpt lat="46.39232" lon="4.02821">
        <ele>295.959828</ele>
        <time>2023-09-29T11:54:03.215Z</time>
      </trkpt>
      <trkpt lat="46.39242" lon="4.02821">
        <ele>295.971209</ele>
        <time>2023-09-29T11:54:05.206Z</time>
      </trkpt>
      <trkpt lat="46.39251" lon="4.02821">
        <ele>295.98307</ele>
        <time>2023-09-29T11:54:07.221Z</time>
      </trkpt>
      <trkpt lat="46.39261" lon="4.0282">
        <ele>295.994459</ele>
        <time>2023-09-29T11:54:09.216Z</time>
      </trkpt>
      <trkpt lat="46.3927" lon="4.0282">
        <ele>295.986018</ele>
        <time>2023-09-29T11:54:11.228Z</time>
      </trkpt>
      <trkpt lat="46.39281" lon="4.0282">
        <ele>295.944933</ele>
        <time>2023-09-29T11:54:13.214Z</time>
      </trkpt>
      <trkpt lat="46.39291" lon="4.0282">
        <ele>295.905059</ele>
        <time>2023-09-29T11:54:15.213Z</time>
      </trkpt>
      <trkpt lat="46.393" lon="4.0282">
        <ele>295.865956</ele>
        <time>2023-09-29T11:54:17.210Z</time>
      </trkpt>
      <trkpt lat="46.39311" lon="4.0282">
        <ele>295.825292</ele>
        <time>2023-09-29T11:54:19.215Z</time>
      </trkpt>
      <trkpt lat="46.39321" lon="4.0282">
        <ele>295.785426</ele>
        <time>2023-09-29T11:54:21.233Z</time>
      </trkpt>
      <trkpt lat="46.39331" lon="4.0282">
        <ele>295.745146</ele>
        <time>2023-09-29T11:54:23.209Z</time>
      </trkpt>
      <trkpt lat="46.39341" lon="4.02819">
        <ele>295.705272</ele>
        <time>2023-09-29T11:54:25.211Z</time>
      </trkpt>
      <trkpt lat="46.39351" lon="4.02819">
        <ele>295.665007</ele>
        <time>2023-09-29T11:54:27.215Z</time>
      </trkpt>
      <trkpt lat="46.39361" lon="4.02819">
        <ele>295.625505</ele>
        <time>2023-09-29T11:54:29.232Z</time>
      </trkpt>
      <trkpt lat="46.3937" lon="4.02819">
        <ele>295.588031</ele>
        <time>2023-09-29T11:54:31.214Z</time>
      </trkpt>
      <trkpt lat="46.39381" lon="4.02818">
        <ele>295.546567</ele>
        <time>2023-09-29T11:54:33.225Z</time>
      </trkpt>
      <trkpt lat="46.39391" lon="4.02819">
        <ele>295.505431</ele>
        <time>2023-09-29T11:54:35.236Z</time>
      </trkpt>
      <trkpt lat="46.39401" lon="4.0282">
        <ele>295.464764</ele>
        <time>2023-09-29T11:54:37.217Z</time>
      </trkpt>
      <trkpt lat="46.39411" lon="4.0282">
        <ele>295.426094</ele>
        <time>2023-09-29T11:54:39.210Z</time>
      </trkpt>
      <trkpt lat="46.39421" lon="4.02819">
        <ele>295.384227</ele>
        <time>2023-09-29T11:54:41.212Z</time>
      </trkpt>
      <trkpt lat="46.39431" lon="4.02819">
        <ele>295.345557</ele>
        <time>2023-09-29T11:54:43.217Z</time>
      </trkpt>
      <trkpt lat="46.39441" lon="4.02819">
        <ele>295.304491</ele>
        <time>2023-09-29T11:54:45.214Z</time>
      </trkpt>
      <trkpt lat="46.39451" lon="4.02819">
        <ele>295.278268</ele>
        <time>2023-09-29T11:54:47.215Z</time>
      </trkpt>
      <trkpt lat="46.39461" lon="4.02819">
        <ele>295.266413</ele>
        <time>2023-09-29T11:54:49.225Z</time>
      </trkpt>
      <trkpt lat="46.39472" lon="4.02819">
        <ele>295.254431</ele>
        <time>2023-09-29T11:54:51.210Z</time>
      </trkpt>
      <trkpt lat="46.39482" lon="4.02819">
        <ele>295.242694</ele>
        <time>2023-09-29T11:54:53.214Z</time>
      </trkpt>
      <trkpt lat="46.39492" lon="4.02819">
        <ele>295.230721</ele>
        <time>2023-09-29T11:54:55.218Z</time>
      </trkpt>
      <trkpt lat="46.39502" lon="4.02819">
        <ele>295.218983</ele>
        <time>2023-09-29T11:54:57.210Z</time>
      </trkpt>
      <trkpt lat="46.39512" lon="4.02818">
        <ele>295.207591</ele>
        <time>2023-09-29T11:54:59.213Z</time>
      </trkpt>
      <trkpt lat="46.39521" lon="4.02818">
        <ele>295.19644</ele>
        <time>2023-09-29T11:55:01.207Z</time>
      </trkpt>
      <trkpt lat="46.3953" lon="4.02818">
        <ele>295.185524</ele>
        <time>2023-09-29T11:55:03.228Z</time>
      </trkpt>
      <trkpt lat="46.39543" lon="4.02817">
        <ele>295.170841</ele>
        <time>2023-09-29T11:55:06.215Z</time>
      </trkpt>
      <trkpt lat="46.39553" lon="4.02819">
        <ele>295.158719</ele>
        <time>2023-09-29T11:55:09.223Z</time>
      </trkpt>
      <trkpt lat="46.39563" lon="4.02816">
        <ele>295.147299</ele>
        <time>2023-09-29T11:55:12.214Z</time>
      </trkpt>
      <trkpt lat="46.39573" lon="4.02818">
        <ele>295.134772</ele>
        <time>2023-09-29T11:55:15.209Z</time>
      </trkpt>
      <trkpt lat="46.39585" lon="4.02819">
        <ele>295.120525</ele>
        <time>2023-09-29T11:55:18.206Z</time>
      </trkpt>
      <trkpt lat="46.39599" lon="4.02819">
        <ele>295.105025</ele>
        <time>2023-09-29T11:55:21.227Z</time>
      </trkpt>
      <trkpt lat="46.39612" lon="4.02818">
        <ele>295.089521</ele>
        <time>2023-09-29T11:55:24.222Z</time>
      </trkpt>
      <trkpt lat="46.39625" lon="4.02819">
        <ele>295.073663</ele>
        <time>2023-09-29T11:55:27.204Z</time>
      </trkpt>
      <trkpt lat="46.39634" lon="4.02818">
        <ele>295.033842</ele>
        <time>2023-09-29T11:55:29.222Z</time>
      </trkpt>
      <trkpt lat="46.39644" lon="4.02818">
        <ele>294.989405</ele>
        <time>2023-09-29T11:55:31.210Z</time>
      </trkpt>
      <trkpt lat="46.39654" lon="4.02819">
        <ele>294.944488</ele>
        <time>2023-09-29T11:55:33.218Z</time>
      </trkpt>
      <trkpt lat="46.39664" lon="4.02819">
        <ele>294.89727</ele>
        <time>2023-09-29T11:55:35.217Z</time>
      </trkpt>
      <trkpt lat="46.39673" lon="4.02819">
        <ele>294.85283</ele>
        <time>2023-09-29T11:55:37.221Z</time>
      </trkpt>
      <trkpt lat="46.39683" lon="4.02819">
        <ele>294.80793</ele>
        <time>2023-09-29T11:55:39.212Z</time>
      </trkpt>
      <trkpt lat="46.39693" lon="4.02819">
        <ele>294.761169</ele>
        <time>2023-09-29T11:55:41.224Z</time>
      </trkpt>
      <trkpt lat="46.39704" lon="4.02819">
        <ele>294.713489</ele>
        <time>2023-09-29T11:55:43.208Z</time>
      </trkpt>
      <trkpt lat="46.39714" lon="4.02818">
        <ele>294.663449</ele>
        <time>2023-09-29T11:55:45.213Z</time>
      </trkpt>
      <trkpt lat="46.39724" lon="4.02818">
        <ele>294.616694</ele>
        <time>2023-09-29T11:55:47.210Z</time>
      </trkpt>
      <trkpt lat="46.39735" lon="4.02818">
        <ele>294.568075</ele>
        <time>2023-09-29T11:55:49.219Z</time>
      </trkpt>
      <trkpt lat="46.39745" lon="4.02818">
        <ele>294.519464</ele>
        <time>2023-09-29T11:55:51.221Z</time>
      </trkpt>
      <trkpt lat="46.39756" lon="4.02817">
        <ele>294.46992</ele>
        <time>2023-09-29T11:55:53.207Z</time>
      </trkpt>
      <trkpt lat="46.39767" lon="4.02818">
        <ele>294.421764</ele>
        <time>2023-09-29T11:55:55.209Z</time>
      </trkpt>
      <trkpt lat="46.39777" lon="4.02817">
        <ele>294.374546</ele>
        <time>2023-09-29T11:55:57.209Z</time>
      </trkpt>
      <trkpt lat="46.39787" lon="4.02818">
        <ele>294.326355</ele>
        <time>2023-09-29T11:55:59.216Z</time>
      </trkpt>
      <trkpt lat="46.39797" lon="4.02818">
        <ele>294.279601</ele>
        <time>2023-09-29T11:56:01.224Z</time>
      </trkpt>
      <trkpt lat="46.39808" lon="4.02818">
        <ele>294.227213</ele>
        <time>2023-09-29T11:56:03.215Z</time>
      </trkpt>
      <trkpt lat="46.39818" lon="4.02818">
        <ele>294.159216</ele>
        <time>2023-09-29T11:56:05.211Z</time>
      </trkpt>
      <trkpt lat="46.39829" lon="4.02819">
        <ele>294.089255</ele>
        <time>2023-09-29T11:56:07.208Z</time>
      </trkpt>
      <trkpt lat="46.39839" lon="4.02819">
        <ele>294.021893</ele>
        <time>2023-09-29T11:56:09.214Z</time>
      </trkpt>
      <trkpt lat="46.3985" lon="4.02819">
        <ele>293.953884</ele>
        <time>2023-09-29T11:56:11.209Z</time>
      </trkpt>
      <trkpt lat="46.39861" lon="4.0282">
        <ele>293.882616</ele>
        <time>2023-09-29T11:56:13.212Z</time>
      </trkpt>
      <trkpt lat="46.39872" lon="4.02819">
        <ele>293.813319</ele>
        <time>2023-09-29T11:56:15.212Z</time>
      </trkpt>
      <trkpt lat="46.39882" lon="4.02816">
        <ele>293.743111</ele>
        <time>2023-09-29T11:56:17.200Z</time>
      </trkpt>
      <trkpt lat="46.39892" lon="4.02811">
        <ele>293.672482</ele>
        <time>2023-09-29T11:56:19.218Z</time>
      </trkpt>
      <trkpt lat="46.39902" lon="4.02803">
        <ele>293.604699</ele>
        <time>2023-09-29T11:56:21.192Z</time>
      </trkpt>
      <trkpt lat="46.3991" lon="4.02795">
        <ele>293.538832</ele>
        <time>2023-09-29T11:56:23.192Z</time>
      </trkpt>
      <trkpt lat="46.39918" lon="4.02786">
        <ele>293.475129</ele>
        <time>2023-09-29T11:56:25.209Z</time>
      </trkpt>
      <trkpt lat="46.39926" lon="4.0278">
        <ele>293.415406</ele>
        <time>2023-09-29T11:56:27.210Z</time>
      </trkpt>
      <trkpt lat="46.39937" lon="4.02771">
        <ele>293.330992</ele>
        <time>2023-09-29T11:56:30.217Z</time>
      </trkpt>
      <trkpt lat="46.39948" lon="4.02762">
        <ele>293.24942</ele>
        <time>2023-09-29T11:56:33.195Z</time>
      </trkpt>
      <trkpt lat="46.39958" lon="4.02752">
        <ele>293.173923</ele>
        <time>2023-09-29T11:56:36.217Z</time>
      </trkpt>
      <trkpt lat="46.39967" lon="4.02747">
        <ele>293.108771</ele>
        <time>2023-09-29T11:56:39.199Z</time>
      </trkpt>
      <trkpt lat="46.39975" lon="4.02752">
        <ele>293.068366</ele>
        <time>2023-09-29T11:56:42.205Z</time>
      </trkpt>
      <trkpt lat="46.39985" lon="4.02759">
        <ele>293.048509</ele>
        <time>2023-09-29T11:56:46.213Z</time>
      </trkpt>
      <trkpt lat="46.39994" lon="4.02765">
        <ele>293.030448</ele>
        <time>2023-09-29T11:56:50.200Z</time>
      </trkpt>
      <trkpt lat="46.40002" lon="4.02771">
        <ele>293.013268</ele>
        <time>2023-09-29T11:56:54.206Z</time>
      </trkpt>
      <trkpt lat="46.40011" lon="4.02777">
        <ele>292.993628</ele>
        <time>2023-09-29T11:56:59.225Z</time>
      </trkpt>
      <trkpt lat="46.4002" lon="4.02782">
        <ele>292.97594</ele>
        <time>2023-09-29T11:57:04.208Z</time>
      </trkpt>
      <trkpt lat="46.40032" lon="4.02788">
        <ele>292.952852</ele>
        <time>2023-09-29T11:58:42.210Z</time>
      </trkpt>
      <trkpt lat="46.40043" lon="4.02792">
        <ele>292.931634</ele>
        <time>2023-09-29T11:58:47.214Z</time>
      </trkpt>
      <trkpt lat="46.40054" lon="4.02797">
        <ele>292.909769</ele>
        <time>2023-09-29T11:58:51.215Z</time>
      </trkpt>
      <trkpt lat="46.40065" lon="4.02803">
        <ele>292.887848</ele>
        <time>2023-09-29T11:58:55.214Z</time>
      </trkpt>
      <trkpt lat="46.40074" lon="4.02809">
        <ele>292.869673</ele>
        <time>2023-09-29T11:58:58.217Z</time>
      </trkpt>
      <trkpt lat="46.40082" lon="4.02818">
        <ele>292.850452</ele>
        <time>2023-09-29T11:59:01.214Z</time>
      </trkpt>
      <trkpt lat="46.40092" lon="4.02822">
        <ele>292.830679</ele>
        <time>2023-09-29T11:59:04.210Z</time>
      </trkpt>
      <trkpt lat="46.40102" lon="4.02824">
        <ele>292.812385</ele>
        <time>2023-09-29T11:59:07.216Z</time>
      </trkpt>
      <trkpt lat="46.40113" lon="4.02819">
        <ele>292.790087</ele>
        <time>2023-09-29T11:59:11.210Z</time>
      </trkpt>
      <trkpt lat="46.40123" lon="4.02815">
        <ele>292.770947</ele>
        <time>2023-09-29T11:59:14.209Z</time>
      </trkpt>
      <trkpt lat="46.40135" lon="4.02815">
        <ele>292.749079</ele>
        <time>2023-09-29T11:59:17.222Z</time>
      </trkpt>
      <trkpt lat="46.40147" lon="4.02816">
        <ele>292.74478</ele>
        <time>2023-09-29T11:59:20.216Z</time>
      </trkpt>
      <trkpt lat="46.40159" lon="4.02816">
        <ele>292.75378</ele>
        <time>2023-09-29T11:59:23.227Z</time>
      </trkpt>
      <trkpt lat="46.40172" lon="4.02817">
        <ele>292.763229</ele>
        <time>2023-09-29T11:59:26.211Z</time>
      </trkpt>
      <trkpt lat="46.40185" lon="4.02817">
        <ele>292.773273</ele>
        <time>2023-09-29T11:59:29.214Z</time>
      </trkpt>
      <trkpt lat="46.40198" lon="4.02817">
        <ele>292.783167</ele>
        <time>2023-09-29T11:59:32.215Z</time>
      </trkpt>
      <trkpt lat="46.40207" lon="4.02817">
        <ele>292.789998</ele>
        <time>2023-09-29T11:59:34.203Z</time>
      </trkpt>
      <trkpt lat="46.40217" lon="4.02817">
        <ele>292.797421</ele>
        <time>2023-09-29T11:59:36.219Z</time>
      </trkpt>
      <trkpt lat="46.40227" lon="4.02817">
        <ele>292.804692</ele>
        <time>2023-09-29T11:59:38.207Z</time>
      </trkpt>
      <trkpt lat="46.40237" lon="4.02817">
        <ele>292.812037</ele>
        <time>2023-09-29T11:59:40.224Z</time>
      </trkpt>
      <trkpt lat="46.40246" lon="4.02817">
        <ele>292.819235</ele>
        <time>2023-09-29T11:59:42.212Z</time>
      </trkpt>
      <trkpt lat="46.40256" lon="4.02818">
        <ele>292.826358</ele>
        <time>2023-09-29T11:59:44.191Z</time>
      </trkpt>
      <trkpt lat="46.40266" lon="4.02817">
        <ele>292.833631</ele>
        <time>2023-09-29T11:59:46.215Z</time>
      </trkpt>
      <trkpt lat="46.40276" lon="4.02817">
        <ele>292.841052</ele>
        <time>2023-09-29T11:59:48.212Z</time>
      </trkpt>
      <trkpt lat="46.40285" lon="4.02817">
        <ele>292.848102</ele>
        <time>2023-09-29T11:59:50.208Z</time>
      </trkpt>
      <trkpt lat="46.40294" lon="4.02816">
        <ele>292.854926</ele>
        <time>2023-09-29T11:59:52.209Z</time>
      </trkpt>
      <trkpt lat="46.40304" lon="4.02817">
        <ele>292.862273</ele>
        <time>2023-09-29T11:59:54.212Z</time>
      </trkpt>
      <trkpt lat="46.40313" lon="4.02817">
        <ele>292.869244</ele>
        <time>2023-09-29T11:59:56.221Z</time>
      </trkpt>
      <trkpt lat="46.40323" lon="4.02817">
        <ele>292.865605</ele>
        <time>2023-09-29T11:59:58.205Z</time>
      </trkpt>
      <trkpt lat="46.40333" lon="4.02816">
        <ele>292.838719</ele>
        <time>2023-09-29T12:00:00.225Z</time>
      </trkpt>
      <trkpt lat="46.40343" lon="4.02816">
        <ele>292.812371</ele>
        <time>2023-09-29T12:00:02.200Z</time>
      </trkpt>
      <trkpt lat="46.40353" lon="4.02817">
        <ele>292.786523</ele>
        <time>2023-09-29T12:00:04.203Z</time>
      </trkpt>
      <trkpt lat="46.40363" lon="4.02817">
        <ele>292.760436</ele>
        <time>2023-09-29T12:00:06.196Z</time>
      </trkpt>
      <trkpt lat="46.40373" lon="4.02816">
        <ele>292.733791</ele>
        <time>2023-09-29T12:00:08.208Z</time>
      </trkpt>
      <trkpt lat="46.40382" lon="4.02816">
        <ele>292.707975</ele>
        <time>2023-09-29T12:00:10.203Z</time>
      </trkpt>
      <trkpt lat="46.40392" lon="4.02815">
        <ele>292.68233</ele>
        <time>2023-09-29T12:00:12.198Z</time>
      </trkpt>
      <trkpt lat="46.40402" lon="4.02814">
        <ele>292.655711</ele>
        <time>2023-09-29T12:00:14.214Z</time>
      </trkpt>
      <trkpt lat="46.40412" lon="4.02815">
        <ele>292.629322</ele>
        <time>2023-09-29T12:00:16.229Z</time>
      </trkpt>
      <trkpt lat="46.40422" lon="4.02815">
        <ele>292.60324</ele>
        <time>2023-09-29T12:00:18.216Z</time>
      </trkpt>
      <trkpt lat="46.40432" lon="4.02816">
        <ele>292.575822</ele>
        <time>2023-09-29T12:00:20.200Z</time>
      </trkpt>
      <trkpt lat="46.40442" lon="4.02815">
        <ele>292.549464</ele>
        <time>2023-09-29T12:00:22.196Z</time>
      </trkpt>
      <trkpt lat="46.40452" lon="4.02815">
        <ele>292.522051</ele>
        <time>2023-09-29T12:00:24.210Z</time>
      </trkpt>
      <trkpt lat="46.40462" lon="4.02815">
        <ele>292.495168</ele>
        <time>2023-09-29T12:00:26.182Z</time>
      </trkpt>
      <trkpt lat="46.40473" lon="4.02815">
        <ele>292.46802</ele>
        <time>2023-09-29T12:00:28.217Z</time>
      </trkpt>
      <trkpt lat="46.40483" lon="4.02816">
        <ele>292.441117</ele>
        <time>2023-09-29T12:00:30.203Z</time>
      </trkpt>
      <trkpt lat="46.40493" lon="4.02816">
        <ele>292.414769</ele>
        <time>2023-09-29T12:00:32.210Z</time>
      </trkpt>
      <trkpt lat="46.40502" lon="4.02816">
        <ele>292.389043</ele>
        <time>2023-09-29T12:00:34.207Z</time>
      </trkpt>
      <trkpt lat="46.40512" lon="4.02816">
        <ele>292.365447</ele>
        <time>2023-09-29T12:00:36.216Z</time>
      </trkpt>
      <trkpt lat="46.40522" lon="4.02815">
        <ele>292.341363</ele>
        <time>2023-09-29T12:00:38.209Z</time>
      </trkpt>
      <trkpt lat="46.40532" lon="4.02815">
        <ele>292.316542</ele>
        <time>2023-09-29T12:00:40.217Z</time>
      </trkpt>
      <trkpt lat="46.40543" lon="4.02815">
        <ele>292.291241</ele>
        <time>2023-09-29T12:00:42.208Z</time>
      </trkpt>
      <trkpt lat="46.40553" lon="4.02815">
        <ele>292.265456</ele>
        <time>2023-09-29T12:00:44.220Z</time>
      </trkpt>
      <trkpt lat="46.40564" lon="4.02816">
        <ele>292.24038</ele>
        <time>2023-09-29T12:00:46.202Z</time>
      </trkpt>
      <trkpt lat="46.40574" lon="4.02816">
        <ele>292.215563</ele>
        <time>2023-09-29T12:00:48.210Z</time>
      </trkpt>
      <trkpt lat="46.40584" lon="4.02817">
        <ele>292.190723</ele>
        <time>2023-09-29T12:00:50.202Z</time>
      </trkpt>
      <trkpt lat="46.40594" lon="4.02818">
        <ele>292.166847</ele>
        <time>2023-09-29T12:00:52.205Z</time>
      </trkpt>
      <trkpt lat="46.40603" lon="4.02819">
        <ele>292.143376</ele>
        <time>2023-09-29T12:00:54.198Z</time>
      </trkpt>
      <trkpt lat="46.40613" lon="4.0282">
        <ele>292.120406</ele>
        <time>2023-09-29T12:00:56.204Z</time>
      </trkpt>
      <trkpt lat="46.40622" lon="4.02822">
        <ele>292.098405</ele>
        <time>2023-09-29T12:00:58.208Z</time>
      </trkpt>
      <trkpt lat="46.40635" lon="4.02822">
        <ele>292.066048</ele>
        <time>2023-09-29T12:01:01.204Z</time>
      </trkpt>
      <trkpt lat="46.40646" lon="4.02825">
        <ele>292.039267</ele>
        <time>2023-09-29T12:01:04.190Z</time>
      </trkpt>
      <trkpt lat="46.40656" lon="4.02826">
        <ele>292.015071</ele>
        <time>2023-09-29T12:01:07.194Z</time>
      </trkpt>
      <trkpt lat="46.40665" lon="4.02827">
        <ele>291.992442</ele>
        <time>2023-09-29T12:01:10.191Z</time>
      </trkpt>
      <trkpt lat="46.40675" lon="4.02831">
        <ele>291.967956</ele>
        <time>2023-09-29T12:01:13.192Z</time>
      </trkpt>
      <trkpt lat="46.40686" lon="4.02832">
        <ele>291.918562</ele>
        <time>2023-09-29T12:01:16.190Z</time>
      </trkpt>
      <trkpt lat="46.40699" lon="4.02837">
        <ele>291.849692</ele>
        <time>2023-09-29T12:01:19.194Z</time>
      </trkpt>
      <trkpt lat="46.40708" lon="4.02838">
        <ele>291.800376</ele>
        <time>2023-09-29T12:01:21.223Z</time>
      </trkpt>
      <trkpt lat="46.40717" lon="4.0284">
        <ele>291.750706</ele>
        <time>2023-09-29T12:01:23.213Z</time>
      </trkpt>
      <trkpt lat="46.40726" lon="4.02844">
        <ele>291.70004</ele>
        <time>2023-09-29T12:01:25.209Z</time>
      </trkpt>
      <trkpt lat="46.40736" lon="4.02847">
        <ele>291.647567</ele>
        <time>2023-09-29T12:01:27.209Z</time>
      </trkpt>
      <trkpt lat="46.40745" lon="4.0285">
        <ele>291.59587</ele>
        <time>2023-09-29T12:01:29.211Z</time>
      </trkpt>
      <trkpt lat="46.40755" lon="4.02853">
        <ele>291.542662</ele>
        <time>2023-09-29T12:01:31.215Z</time>
      </trkpt>
      <trkpt lat="46.40765" lon="4.02857">
        <ele>291.488551</ele>
        <time>2023-09-29T12:01:33.206Z</time>
      </trkpt>
      <trkpt lat="46.40775" lon="4.02861">
        <ele>291.433706</ele>
        <time>2023-09-29T12:01:35.212Z</time>
      </trkpt>
      <trkpt lat="46.40785" lon="4.02865">
        <ele>291.376075</ele>
        <time>2023-09-29T12:01:37.191Z</time>
      </trkpt>
      <trkpt lat="46.40796" lon="4.0287">
        <ele>291.316519</ele>
        <time>2023-09-29T12:01:39.195Z</time>
      </trkpt>
      <trkpt lat="46.40806" lon="4.02876">
        <ele>291.257551</ele>
        <time>2023-09-29T12:01:41.207Z</time>
      </trkpt>
      <trkpt lat="46.40817" lon="4.02881">
        <ele>291.19592</ele>
        <time>2023-09-29T12:01:43.214Z</time>
      </trkpt>
      <trkpt lat="46.40828" lon="4.02886">
        <ele>291.135238</ele>
        <time>2023-09-29T12:01:45.199Z</time>
      </trkpt>
      <trkpt lat="46.40839" lon="4.02892">
        <ele>291.072763</ele>
        <time>2023-09-29T12:01:47.186Z</time>
      </trkpt>
      <trkpt lat="46.4085" lon="4.02897">
        <ele>291.011285</ele>
        <time>2023-09-29T12:01:49.213Z</time>
      </trkpt>
      <trkpt lat="46.40861" lon="4.02903">
        <ele>290.926895</ele>
        <time>2023-09-29T12:01:51.209Z</time>
      </trkpt>
      <trkpt lat="46.40871" lon="4.0291">
        <ele>290.838674</ele>
        <time>2023-09-29T12:01:53.231Z</time>
      </trkpt>
      <trkpt lat="46.40881" lon="4.02916">
        <ele>290.752744</ele>
        <time>2023-09-29T12:01:55.210Z</time>
      </trkpt>
      <trkpt lat="46.40891" lon="4.02922">
        <ele>290.666397</ele>
        <time>2023-09-29T12:01:57.210Z</time>
      </trkpt>
      <trkpt lat="46.40901" lon="4.02929">
        <ele>290.582006</ele>
        <time>2023-09-29T12:01:59.211Z</time>
      </trkpt>
      <trkpt lat="46.40911" lon="4.02936">
        <ele>290.49482</ele>
        <time>2023-09-29T12:02:01.210Z</time>
      </trkpt>
      <trkpt lat="46.40921" lon="4.02943">
        <ele>290.409521</ele>
        <time>2023-09-29T12:02:03.215Z</time>
      </trkpt>
      <trkpt lat="46.4093" lon="4.02949">
        <ele>290.323045</ele>
        <time>2023-09-29T12:02:05.215Z</time>
      </trkpt>
      <trkpt lat="46.4094" lon="4.02957">
        <ele>290.236937</ele>
        <time>2023-09-29T12:02:07.230Z</time>
      </trkpt>
      <trkpt lat="46.4095" lon="4.02964">
        <ele>290.150447</ele>
        <time>2023-09-29T12:02:09.206Z</time>
      </trkpt>
      <trkpt lat="46.4096" lon="4.02971">
        <ele>290.063495</ele>
        <time>2023-09-29T12:02:11.226Z</time>
      </trkpt>
      <trkpt lat="46.40969" lon="4.02979">
        <ele>289.98024</ele>
        <time>2023-09-29T12:02:13.227Z</time>
      </trkpt>
      <trkpt lat="46.40978" lon="4.02986">
        <ele>289.897677</ele>
        <time>2023-09-29T12:02:15.228Z</time>
      </trkpt>
      <trkpt lat="46.40987" lon="4.02993">
        <ele>289.818395</ele>
        <time>2023-09-29T12:02:17.220Z</time>
      </trkpt>
      <trkpt lat="46.40996" lon="4.02998">
        <ele>289.745336</ele>
        <time>2023-09-29T12:02:19.214Z</time>
      </trkpt>
      <trkpt lat="46.41003" lon="4.03005">
        <ele>289.674873</ele>
        <time>2023-09-29T12:02:21.206Z</time>
      </trkpt>
      <trkpt lat="46.41014" lon="4.03014">
        <ele>289.572997</ele>
        <time>2023-09-29T12:02:24.208Z</time>
      </trkpt>
      <trkpt lat="46.41022" lon="4.03024">
        <ele>289.431994</ele>
        <time>2023-09-29T12:02:27.212Z</time>
      </trkpt>
      <trkpt lat="46.41029" lon="4.03031">
        <ele>289.3044</ele>
        <time>2023-09-29T12:02:30.208Z</time>
      </trkpt>
      <trkpt lat="46.41038" lon="4.03036">
        <ele>289.179962</ele>
        <time>2023-09-29T12:02:33.206Z</time>
      </trkpt>
      <trkpt lat="46.41046" lon="4.03047">
        <ele>289.03282</ele>
        <time>2023-09-29T12:02:36.214Z</time>
      </trkpt>
      <trkpt lat="46.41054" lon="4.03061">
        <ele>288.861057</ele>
        <time>2023-09-29T12:02:39.207Z</time>
      </trkpt>
      <trkpt lat="46.41063" lon="4.03067">
        <ele>288.72547</ele>
        <time>2023-09-29T12:02:41.208Z</time>
      </trkpt>
      <trkpt lat="46.41071" lon="4.03074">
        <ele>288.598185</ele>
        <time>2023-09-29T12:02:43.197Z</time>
      </trkpt>
      <trkpt lat="46.41078" lon="4.03086">
        <ele>288.451152</ele>
        <time>2023-09-29T12:02:46.203Z</time>
      </trkpt>
      <trkpt lat="46.41088" lon="4.03094">
        <ele>288.296254</ele>
        <time>2023-09-29T12:02:49.204Z</time>
      </trkpt>
      <trkpt lat="46.41096" lon="4.03104">
        <ele>288.159912</ele>
        <time>2023-09-29T12:02:52.206Z</time>
      </trkpt>
      <trkpt lat="46.41103" lon="4.03111">
        <ele>288.034556</ele>
        <time>2023-09-29T12:02:55.213Z</time>
      </trkpt>
      <trkpt lat="46.4111" lon="4.0312">
        <ele>287.908014</ele>
        <time>2023-09-29T12:02:58.190Z</time>
      </trkpt>
      <trkpt lat="46.41118" lon="4.03128">
        <ele>287.779884</ele>
        <time>2023-09-29T12:03:01.226Z</time>
      </trkpt>
      <trkpt lat="46.41125" lon="4.03137">
        <ele>287.647087</ele>
        <time>2023-09-29T12:03:04.218Z</time>
      </trkpt>
      <trkpt lat="46.41133" lon="4.03146">
        <ele>287.512657</ele>
        <time>2023-09-29T12:03:07.200Z</time>
      </trkpt>
      <trkpt lat="46.4114" lon="4.03156">
        <ele>287.380725</ele>
        <time>2023-09-29T12:03:10.220Z</time>
      </trkpt>
      <trkpt lat="46.41147" lon="4.03165">
        <ele>287.246665</ele>
        <time>2023-09-29T12:03:13.213Z</time>
      </trkpt>
      <trkpt lat="46.41154" lon="4.03175">
        <ele>287.13677</ele>
        <time>2023-09-29T12:03:16.202Z</time>
      </trkpt>
      <trkpt lat="46.41161" lon="4.03184">
        <ele>287.206719</ele>
        <time>2023-09-29T12:03:19.208Z</time>
      </trkpt>
      <trkpt lat="46.41168" lon="4.03194">
        <ele>287.278059</ele>
        <time>2023-09-29T12:03:22.202Z</time>
      </trkpt>
      <trkpt lat="46.41175" lon="4.03204">
        <ele>287.346427</ele>
        <time>2023-09-29T12:03:25.225Z</time>
      </trkpt>
      <trkpt lat="46.41183" lon="4.03215">
        <ele>287.431057</ele>
        <time>2023-09-29T12:03:29.217Z</time>
      </trkpt>
      <trkpt lat="46.41189" lon="4.03225">
        <ele>287.497747</ele>
        <time>2023-09-29T12:03:32.212Z</time>
      </trkpt>
      <trkpt lat="46.41195" lon="4.03237">
        <ele>287.570794</ele>
        <time>2023-09-29T12:03:35.216Z</time>
      </trkpt>
      <trkpt lat="46.41202" lon="4.03248">
        <ele>287.644059</ele>
        <time>2023-09-29T12:03:38.200Z</time>
      </trkpt>
      <trkpt lat="46.41209" lon="4.03258">
        <ele>287.71943</ele>
        <time>2023-09-29T12:03:41.205Z</time>
      </trkpt>
      <trkpt lat="46.41217" lon="4.03271">
        <ele>287.806014</ele>
        <time>2023-09-29T12:03:44.209Z</time>
      </trkpt>
      <trkpt lat="46.41225" lon="4.03283">
        <ele>287.889717</ele>
        <time>2023-09-29T12:03:47.216Z</time>
      </trkpt>
      <trkpt lat="46.41233" lon="4.03297">
        <ele>287.981466</ele>
        <time>2023-09-29T12:03:50.203Z</time>
      </trkpt>
      <trkpt lat="46.41241" lon="4.03311">
        <ele>288.074045</ele>
        <time>2023-09-29T12:03:53.225Z</time>
      </trkpt>
      <trkpt lat="46.4125" lon="4.03325">
        <ele>288.169108</ele>
        <time>2023-09-29T12:03:56.207Z</time>
      </trkpt>
      <trkpt lat="46.41258" lon="4.03339">
        <ele>288.25994</ele>
        <time>2023-09-29T12:03:59.214Z</time>
      </trkpt>
      <trkpt lat="46.41264" lon="4.03354">
        <ele>288.346978</ele>
        <time>2023-09-29T12:04:02.227Z</time>
      </trkpt>
      <trkpt lat="46.41269" lon="4.03368">
        <ele>288.426538</ele>
        <time>2023-09-29T12:04:05.215Z</time>
      </trkpt>
      <trkpt lat="46.41273" lon="4.03383">
        <ele>288.421616</ele>
        <time>2023-09-29T12:04:08.214Z</time>
      </trkpt>
      <trkpt lat="46.41278" lon="4.03398">
        <ele>288.39611</ele>
        <time>2023-09-29T12:04:11.215Z</time>
      </trkpt>
      <trkpt lat="46.41283" lon="4.03413">
        <ele>288.369514</ele>
        <time>2023-09-29T12:04:14.194Z</time>
      </trkpt>
      <trkpt lat="46.41289" lon="4.03428">
        <ele>288.342263</ele>
        <time>2023-09-29T12:04:17.196Z</time>
      </trkpt>
      <trkpt lat="46.41295" lon="4.03441">
        <ele>288.316483</ele>
        <time>2023-09-29T12:04:20.210Z</time>
      </trkpt>
      <trkpt lat="46.41299" lon="4.03455">
        <ele>288.293336</ele>
        <time>2023-09-29T12:04:23.212Z</time>
      </trkpt>
      <trkpt lat="46.41298" lon="4.03468">
        <ele>288.271747</ele>
        <time>2023-09-29T12:04:26.220Z</time>
      </trkpt>
      <trkpt lat="46.41293" lon="4.03481">
        <ele>288.249373</ele>
        <time>2023-09-29T12:04:29.205Z</time>
      </trkpt>
      <trkpt lat="46.41295" lon="4.03496">
        <ele>288.224496</ele>
        <time>2023-09-29T12:04:32.198Z</time>
      </trkpt>
      <trkpt lat="46.41301" lon="4.0351">
        <ele>288.19819</ele>
        <time>2023-09-29T12:04:35.208Z</time>
      </trkpt>
      <trkpt lat="46.41306" lon="4.03525">
        <ele>288.171922</ele>
        <time>2023-09-29T12:04:38.197Z</time>
      </trkpt>
      <trkpt lat="46.41311" lon="4.03539">
        <ele>288.145969</ele>
        <time>2023-09-29T12:04:41.214Z</time>
      </trkpt>
      <trkpt lat="46.41317" lon="4.03554">
        <ele>288.11946</ele>
        <time>2023-09-29T12:04:44.189Z</time>
      </trkpt>
      <trkpt lat="46.41322" lon="4.03569">
        <ele>288.093154</ele>
        <time>2023-09-29T12:04:47.203Z</time>
      </trkpt>
      <trkpt lat="46.41328" lon="4.03582">
        <ele>288.069034</ele>
        <time>2023-09-29T12:04:50.196Z</time>
      </trkpt>
      <trkpt lat="46.41332" lon="4.03595">
        <ele>288.045706</ele>
        <time>2023-09-29T12:04:53.209Z</time>
      </trkpt>
      <trkpt lat="46.41336" lon="4.03607">
        <ele>288.026375</ele>
        <time>2023-09-29T12:04:56.208Z</time>
      </trkpt>
      <trkpt lat="46.41341" lon="4.03621">
        <ele>288.008851</ele>
        <time>2023-09-29T12:05:00.214Z</time>
      </trkpt>
      <trkpt lat="46.41346" lon="4.03634">
        <ele>287.991898</ele>
        <time>2023-09-29T12:05:04.208Z</time>
      </trkpt>
      <trkpt lat="46.41349" lon="4.03647">
        <ele>287.977111</ele>
        <time>2023-09-29T12:05:08.209Z</time>
      </trkpt>
      <trkpt lat="46.41358" lon="4.03653">
        <ele>287.96066</ele>
        <time>2023-09-29T12:05:17.198Z</time>
      </trkpt>
      <trkpt lat="46.41369" lon="4.03647">
        <ele>287.941293</ele>
        <time>2023-09-29T12:05:21.217Z</time>
      </trkpt>
      <trkpt lat="46.41375" lon="4.03657">
        <ele>287.926001</ele>
        <time>2023-09-29T12:05:25.191Z</time>
      </trkpt>
      <trkpt lat="46.41379" lon="4.03671">
        <ele>287.909699</ele>
        <time>2023-09-29T12:05:29.188Z</time>
      </trkpt>
      <trkpt lat="46.41382" lon="4.03687">
        <ele>287.891686</ele>
        <time>2023-09-29T12:05:33.210Z</time>
      </trkpt>
      <trkpt lat="46.41385" lon="4.03703">
        <ele>287.872892</ele>
        <time>2023-09-29T12:05:37.222Z</time>
      </trkpt>
      <trkpt lat="46.41388" lon="4.03717">
        <ele>287.856423</ele>
        <time>2023-09-29T12:05:40.200Z</time>
      </trkpt>
      <trkpt lat="46.41392" lon="4.03732">
        <ele>287.838801</ele>
        <time>2023-09-29T12:05:43.205Z</time>
      </trkpt>
      <trkpt lat="46.41395" lon="4.03746">
        <ele>287.822021</ele>
        <time>2023-09-29T12:05:46.219Z</time>
      </trkpt>
      <trkpt lat="46.41397" lon="4.03762">
        <ele>287.803891</ele>
        <time>2023-09-29T12:05:49.210Z</time>
      </trkpt>
      <trkpt lat="46.41401" lon="4.03778">
        <ele>287.784894</ele>
        <time>2023-09-29T12:05:52.209Z</time>
      </trkpt>
      <trkpt lat="46.41405" lon="4.03796">
        <ele>287.764236</ele>
        <time>2023-09-29T12:05:55.212Z</time>
      </trkpt>
      <trkpt lat="46.41409" lon="4.03814">
        <ele>287.743128</ele>
        <time>2023-09-29T12:05:58.207Z</time>
      </trkpt>
      <trkpt lat="46.41412" lon="4.03832">
        <ele>287.845645</ele>
        <time>2023-09-29T12:06:01.229Z</time>
      </trkpt>
      <trkpt lat="46.41416" lon="4.03844">
        <ele>287.936524</ele>
        <time>2023-09-29T12:06:03.213Z</time>
      </trkpt>
      <trkpt lat="46.41419" lon="4.03857">
        <ele>288.032295</ele>
        <time>2023-09-29T12:06:05.211Z</time>
      </trkpt>
      <trkpt lat="46.41423" lon="4.03875">
        <ele>288.158657</ele>
        <time>2023-09-29T12:06:08.211Z</time>
      </trkpt>
      <trkpt lat="46.41426" lon="4.03893">
        <ele>288.291447</ele>
        <time>2023-09-29T12:06:11.205Z</time>
      </trkpt>
      <trkpt lat="46.4143" lon="4.03911">
        <ele>288.418875</ele>
        <time>2023-09-29T12:06:14.204Z</time>
      </trkpt>
      <trkpt lat="46.41433" lon="4.03924">
        <ele>288.515281</ele>
        <time>2023-09-29T12:06:16.208Z</time>
      </trkpt>
      <trkpt lat="46.41436" lon="4.03938">
        <ele>288.612666</ele>
        <time>2023-09-29T12:06:18.210Z</time>
      </trkpt>
      <trkpt lat="46.41439" lon="4.03957">
        <ele>288.749897</ele>
        <time>2023-09-29T12:06:21.203Z</time>
      </trkpt>
      <trkpt lat="46.41442" lon="4.0397">
        <ele>288.846036</ele>
        <time>2023-09-29T12:06:23.210Z</time>
      </trkpt>
      <trkpt lat="46.41444" lon="4.03983">
        <ele>288.938821</ele>
        <time>2023-09-29T12:06:25.211Z</time>
      </trkpt>
      <trkpt lat="46.41446" lon="4.03996">
        <ele>289.030015</ele>
        <time>2023-09-29T12:06:27.218Z</time>
      </trkpt>
      <trkpt lat="46.41448" lon="4.04009">
        <ele>289.122995</ele>
        <time>2023-09-29T12:06:29.226Z</time>
      </trkpt>
      <trkpt lat="46.41452" lon="4.04027">
        <ele>289.252565</ele>
        <time>2023-09-29T12:06:32.203Z</time>
      </trkpt>
      <trkpt lat="46.41454" lon="4.0404">
        <ele>289.343526</ele>
        <time>2023-09-29T12:06:34.207Z</time>
      </trkpt>
      <trkpt lat="46.41457" lon="4.04053">
        <ele>289.437005</ele>
        <time>2023-09-29T12:06:36.208Z</time>
      </trkpt>
      <trkpt lat="46.4146" lon="4.04066">
        <ele>289.533142</ele>
        <time>2023-09-29T12:06:38.210Z</time>
      </trkpt>
      <trkpt lat="46.41462" lon="4.04079">
        <ele>289.594017</ele>
        <time>2023-09-29T12:06:40.216Z</time>
      </trkpt>
      <trkpt lat="46.41465" lon="4.04092">
        <ele>289.652713</ele>
        <time>2023-09-29T12:06:42.202Z</time>
      </trkpt>
      <trkpt lat="46.41468" lon="4.04105">
        <ele>289.711087</ele>
        <time>2023-09-29T12:06:44.218Z</time>
      </trkpt>
      <trkpt lat="46.41471" lon="4.04119">
        <ele>289.770994</ele>
        <time>2023-09-29T12:06:46.203Z</time>
      </trkpt>
      <trkpt lat="46.41474" lon="4.04132">
        <ele>289.832306</ele>
        <time>2023-09-29T12:06:48.199Z</time>
      </trkpt>
      <trkpt lat="46.41477" lon="4.04145">
        <ele>289.888411</ele>
        <time>2023-09-29T12:06:50.208Z</time>
      </trkpt>
      <trkpt lat="46.4148" lon="4.04158">
        <ele>289.946729</ele>
        <time>2023-09-29T12:06:52.202Z</time>
      </trkpt>
      <trkpt lat="46.41484" lon="4.04177">
        <ele>290.030357</ele>
        <time>2023-09-29T12:06:55.207Z</time>
      </trkpt>
      <trkpt lat="46.41486" lon="4.0419">
        <ele>290.089549</ele>
        <time>2023-09-29T12:06:57.224Z</time>
      </trkpt>
      <trkpt lat="46.41489" lon="4.04204">
        <ele>290.148576</ele>
        <time>2023-09-29T12:06:59.210Z</time>
      </trkpt>
      <trkpt lat="46.41492" lon="4.04217">
        <ele>290.209744</ele>
        <time>2023-09-29T12:07:01.226Z</time>
      </trkpt>
      <trkpt lat="46.41494" lon="4.04231">
        <ele>290.269971</ele>
        <time>2023-09-29T12:07:03.211Z</time>
      </trkpt>
      <trkpt lat="46.41497" lon="4.04244">
        <ele>290.328071</ele>
        <time>2023-09-29T12:07:05.208Z</time>
      </trkpt>
      <trkpt lat="46.415" lon="4.04256">
        <ele>290.383971</ele>
        <time>2023-09-29T12:07:07.225Z</time>
      </trkpt>
      <trkpt lat="46.41504" lon="4.04274">
        <ele>290.462965</ele>
        <time>2023-09-29T12:07:10.209Z</time>
      </trkpt>
      <trkpt lat="46.41508" lon="4.04292">
        <ele>290.540853</ele>
        <time>2023-09-29T12:07:13.220Z</time>
      </trkpt>
      <trkpt lat="46.41512" lon="4.0431">
        <ele>290.623062</ele>
        <time>2023-09-29T12:07:16.201Z</time>
      </trkpt>
      <trkpt lat="46.41515" lon="4.04323">
        <ele>290.658144</ele>
        <time>2023-09-29T12:07:18.214Z</time>
      </trkpt>
      <trkpt lat="46.41518" lon="4.04336">
        <ele>290.672067</ele>
        <time>2023-09-29T12:07:20.207Z</time>
      </trkpt>
      <trkpt lat="46.41521" lon="4.04349">
        <ele>290.686126</ele>
        <time>2023-09-29T12:07:22.201Z</time>
      </trkpt>
      <trkpt lat="46.41524" lon="4.04363">
        <ele>290.699884</ele>
        <time>2023-09-29T12:07:24.215Z</time>
      </trkpt>
      <trkpt lat="46.41526" lon="4.04376">
        <ele>290.712928</ele>
        <time>2023-09-29T12:07:26.217Z</time>
      </trkpt>
      <trkpt lat="46.41529" lon="4.04389">
        <ele>290.726109</ele>
        <time>2023-09-29T12:07:28.198Z</time>
      </trkpt>
      <trkpt lat="46.41533" lon="4.04401">
        <ele>290.739716</ele>
        <time>2023-09-29T12:07:30.207Z</time>
      </trkpt>
      <trkpt lat="46.41536" lon="4.04415">
        <ele>290.753781</ele>
        <time>2023-09-29T12:07:32.197Z</time>
      </trkpt>
      <trkpt lat="46.41539" lon="4.04428">
        <ele>290.767444</ele>
        <time>2023-09-29T12:07:34.189Z</time>
      </trkpt>
      <trkpt lat="46.41542" lon="4.04442">
        <ele>290.781688</ele>
        <time>2023-09-29T12:07:36.201Z</time>
      </trkpt>
      <trkpt lat="46.41545" lon="4.04456">
        <ele>290.795768</ele>
        <time>2023-09-29T12:07:38.212Z</time>
      </trkpt>
      <trkpt lat="46.41547" lon="4.0447">
        <ele>290.810063</ele>
        <time>2023-09-29T12:07:40.187Z</time>
      </trkpt>
      <trkpt lat="46.4155" lon="4.04484">
        <ele>290.824633</ele>
        <time>2023-09-29T12:07:42.214Z</time>
      </trkpt>
      <trkpt lat="46.41552" lon="4.04498">
        <ele>290.838918</ele>
        <time>2023-09-29T12:07:44.199Z</time>
      </trkpt>
      <trkpt lat="46.41555" lon="4.04512">
        <ele>290.852582</ele>
        <time>2023-09-29T12:07:46.206Z</time>
      </trkpt>
      <trkpt lat="46.41558" lon="4.04525">
        <ele>290.866463</ele>
        <time>2023-09-29T12:07:48.180Z</time>
      </trkpt>
      <trkpt lat="46.41561" lon="4.04539">
        <ele>290.880436</ele>
        <time>2023-09-29T12:07:50.207Z</time>
      </trkpt>
      <trkpt lat="46.41564" lon="4.04552">
        <ele>290.894233</ele>
        <time>2023-09-29T12:07:52.209Z</time>
      </trkpt>
      <trkpt lat="46.41567" lon="4.04565">
        <ele>290.91312</ele>
        <time>2023-09-29T12:07:54.207Z</time>
      </trkpt>
      <trkpt lat="46.4157" lon="4.04579">
        <ele>291.104039</ele>
        <time>2023-09-29T12:07:56.191Z</time>
      </trkpt>
      <trkpt lat="46.41573" lon="4.04594">
        <ele>291.301879</ele>
        <time>2023-09-29T12:07:58.196Z</time>
      </trkpt>
      <trkpt lat="46.41577" lon="4.04608">
        <ele>291.502649</ele>
        <time>2023-09-29T12:08:00.228Z</time>
      </trkpt>
      <trkpt lat="46.4158" lon="4.04622">
        <ele>291.697858</ele>
        <time>2023-09-29T12:08:02.221Z</time>
      </trkpt>
      <trkpt lat="46.41583" lon="4.04637">
        <ele>291.89245</ele>
        <time>2023-09-29T12:08:04.219Z</time>
      </trkpt>
      <trkpt lat="46.41587" lon="4.0465">
        <ele>292.083384</ele>
        <time>2023-09-29T12:08:06.221Z</time>
      </trkpt>
      <trkpt lat="46.4159" lon="4.04665">
        <ele>292.281688</ele>
        <time>2023-09-29T12:08:08.208Z</time>
      </trkpt>
      <trkpt lat="46.41594" lon="4.04678">
        <ele>292.472973</ele>
        <time>2023-09-29T12:08:10.224Z</time>
      </trkpt>
      <trkpt lat="46.41598" lon="4.04692">
        <ele>292.667692</ele>
        <time>2023-09-29T12:08:12.201Z</time>
      </trkpt>
      <trkpt lat="46.41602" lon="4.04705">
        <ele>292.858977</ele>
        <time>2023-09-29T12:08:14.221Z</time>
      </trkpt>
      <trkpt lat="46.41605" lon="4.04719">
        <ele>293.053021</ele>
        <time>2023-09-29T12:08:16.206Z</time>
      </trkpt>
      <trkpt lat="46.4161" lon="4.04733">
        <ele>293.24896</ele>
        <time>2023-09-29T12:08:18.207Z</time>
      </trkpt>
      <trkpt lat="46.41613" lon="4.04746">
        <ele>293.434469</ele>
        <time>2023-09-29T12:08:20.203Z</time>
      </trkpt>
      <trkpt lat="46.41617" lon="4.04759">
        <ele>293.61061</ele>
        <time>2023-09-29T12:08:22.213Z</time>
      </trkpt>
      <trkpt lat="46.4162" lon="4.04773">
        <ele>293.807678</ele>
        <time>2023-09-29T12:08:24.209Z</time>
      </trkpt>
      <trkpt lat="46.41624" lon="4.04786">
        <ele>293.985451</ele>
        <time>2023-09-29T12:08:26.205Z</time>
      </trkpt>
      <trkpt lat="46.41628" lon="4.04797">
        <ele>294.156967</ele>
        <time>2023-09-29T12:08:28.223Z</time>
      </trkpt>
      <trkpt lat="46.41631" lon="4.0481">
        <ele>294.33027</ele>
        <time>2023-09-29T12:08:30.196Z</time>
      </trkpt>
      <trkpt lat="46.41635" lon="4.04822">
        <ele>294.460121</ele>
        <time>2023-09-29T12:08:32.211Z</time>
      </trkpt>
      <trkpt lat="46.41641" lon="4.04839">
        <ele>294.647135</ele>
        <time>2023-09-29T12:08:35.201Z</time>
      </trkpt>
      <trkpt lat="46.41646" lon="4.04857">
        <ele>294.835425</ele>
        <time>2023-09-29T12:08:38.192Z</time>
      </trkpt>
      <trkpt lat="46.41649" lon="4.0487">
        <ele>294.964097</ele>
        <time>2023-09-29T12:08:40.213Z</time>
      </trkpt>
      <trkpt lat="46.41653" lon="4.04882">
        <ele>295.096307</ele>
        <time>2023-09-29T12:08:42.208Z</time>
      </trkpt>
      <trkpt lat="46.41659" lon="4.04899">
        <ele>295.28308</ele>
        <time>2023-09-29T12:08:45.212Z</time>
      </trkpt>
      <trkpt lat="46.41665" lon="4.04916">
        <ele>295.473954</ele>
        <time>2023-09-29T12:08:48.209Z</time>
      </trkpt>
      <trkpt lat="46.41669" lon="4.04929">
        <ele>295.602415</ele>
        <time>2023-09-29T12:08:50.206Z</time>
      </trkpt>
      <trkpt lat="46.41672" lon="4.04941">
        <ele>295.729979</ele>
        <time>2023-09-29T12:08:52.206Z</time>
      </trkpt>
      <trkpt lat="46.41677" lon="4.04959">
        <ele>295.920252</ele>
        <time>2023-09-29T12:08:55.205Z</time>
      </trkpt>
      <trkpt lat="46.41682" lon="4.04976">
        <ele>296.103098</ele>
        <time>2023-09-29T12:08:58.217Z</time>
      </trkpt>
      <trkpt lat="46.41686" lon="4.04988">
        <ele>296.230004</ele>
        <time>2023-09-29T12:09:00.210Z</time>
      </trkpt>
      <trkpt lat="46.4169" lon="4.05001">
        <ele>296.360803</ele>
        <time>2023-09-29T12:09:02.221Z</time>
      </trkpt>
      <trkpt lat="46.41694" lon="4.05013">
        <ele>296.493369</ele>
        <time>2023-09-29T12:09:04.207Z</time>
      </trkpt>
      <trkpt lat="46.41698" lon="4.05025">
        <ele>296.622697</ele>
        <time>2023-09-29T12:09:06.205Z</time>
      </trkpt>
      <trkpt lat="46.41702" lon="4.05037">
        <ele>296.757853</ele>
        <time>2023-09-29T12:09:08.208Z</time>
      </trkpt>
      <trkpt lat="46.41706" lon="4.0505">
        <ele>296.867252</ele>
        <time>2023-09-29T12:09:10.193Z</time>
      </trkpt>
      <trkpt lat="46.4171" lon="4.05063">
        <ele>296.924129</ele>
        <time>2023-09-29T12:09:12.211Z</time>
      </trkpt>
      <trkpt lat="46.41713" lon="4.05075">
        <ele>296.978167</ele>
        <time>2023-09-29T12:09:14.194Z</time>
      </trkpt>
      <trkpt lat="46.41717" lon="4.05089">
        <ele>297.034796</ele>
        <time>2023-09-29T12:09:16.199Z</time>
      </trkpt>
      <trkpt lat="46.41721" lon="4.05101">
        <ele>297.089275</ele>
        <time>2023-09-29T12:09:18.196Z</time>
      </trkpt>
      <trkpt lat="46.41726" lon="4.05113">
        <ele>297.14248</ele>
        <time>2023-09-29T12:09:20.196Z</time>
      </trkpt>
      <trkpt lat="46.4173" lon="4.05125">
        <ele>297.195167</ele>
        <time>2023-09-29T12:09:22.176Z</time>
      </trkpt>
      <trkpt lat="46.41734" lon="4.05137">
        <ele>297.249074</ele>
        <time>2023-09-29T12:09:24.197Z</time>
      </trkpt>
      <trkpt lat="46.41738" lon="4.05149">
        <ele>297.30097</ele>
        <time>2023-09-29T12:09:26.211Z</time>
      </trkpt>
      <trkpt lat="46.41743" lon="4.05161">
        <ele>297.353312</ele>
        <time>2023-09-29T12:09:28.208Z</time>
      </trkpt>
      <trkpt lat="46.41747" lon="4.05173">
        <ele>297.409506</ele>
        <time>2023-09-29T12:09:30.211Z</time>
      </trkpt>
      <trkpt lat="46.41753" lon="4.05185">
        <ele>297.463827</ele>
        <time>2023-09-29T12:09:32.213Z</time>
      </trkpt>
      <trkpt lat="46.41758" lon="4.05196">
        <ele>297.51753</ele>
        <time>2023-09-29T12:09:34.199Z</time>
      </trkpt>
      <trkpt lat="46.41763" lon="4.05208">
        <ele>297.570624</ele>
        <time>2023-09-29T12:09:36.187Z</time>
      </trkpt>
      <trkpt lat="46.41768" lon="4.05219">
        <ele>297.623982</ele>
        <time>2023-09-29T12:09:38.201Z</time>
      </trkpt>
      <trkpt lat="46.41774" lon="4.05231">
        <ele>297.679927</ele>
        <time>2023-09-29T12:09:40.219Z</time>
      </trkpt>
      <trkpt lat="46.41782" lon="4.05246">
        <ele>297.756036</ele>
        <time>2023-09-29T12:09:43.210Z</time>
      </trkpt>
      <trkpt lat="46.41788" lon="4.05256">
        <ele>297.808949</ele>
        <time>2023-09-29T12:09:45.213Z</time>
      </trkpt>
      <trkpt lat="46.41795" lon="4.05266">
        <ele>297.862442</ele>
        <time>2023-09-29T12:09:47.203Z</time>
      </trkpt>
      <trkpt lat="46.41801" lon="4.05277">
        <ele>297.875552</ele>
        <time>2023-09-29T12:09:49.212Z</time>
      </trkpt>
      <trkpt lat="46.4181" lon="4.0529">
        <ele>297.870111</ele>
        <time>2023-09-29T12:09:52.215Z</time>
      </trkpt>
      <trkpt lat="46.41817" lon="4.053">
        <ele>297.866374</ele>
        <time>2023-09-29T12:09:54.201Z</time>
      </trkpt>
      <trkpt lat="46.41826" lon="4.05315">
        <ele>297.860976</ele>
        <time>2023-09-29T12:09:57.208Z</time>
      </trkpt>
      <trkpt lat="46.41833" lon="4.05323">
        <ele>297.857285</ele>
        <time>2023-09-29T12:09:59.210Z</time>
      </trkpt>
      <trkpt lat="46.4184" lon="4.05332">
        <ele>297.853473</ele>
        <time>2023-09-29T12:10:01.212Z</time>
      </trkpt>
      <trkpt lat="46.41847" lon="4.05341">
        <ele>297.84973</ele>
        <time>2023-09-29T12:10:03.199Z</time>
      </trkpt>
      <trkpt lat="46.41855" lon="4.05349">
        <ele>297.845782</ele>
        <time>2023-09-29T12:10:05.191Z</time>
      </trkpt>
      <trkpt lat="46.41863" lon="4.05357">
        <ele>297.842122</ele>
        <time>2023-09-29T12:10:07.196Z</time>
      </trkpt>
      <trkpt lat="46.41874" lon="4.05368">
        <ele>297.836715</ele>
        <time>2023-09-29T12:10:10.208Z</time>
      </trkpt>
      <trkpt lat="46.41882" lon="4.05375">
        <ele>297.833097</ele>
        <time>2023-09-29T12:10:12.208Z</time>
      </trkpt>
      <trkpt lat="46.41892" lon="4.05387">
        <ele>297.827773</ele>
        <time>2023-09-29T12:10:15.214Z</time>
      </trkpt>
      <trkpt lat="46.41904" lon="4.05395">
        <ele>297.822458</ele>
        <time>2023-09-29T12:10:18.210Z</time>
      </trkpt>
      <trkpt lat="46.41912" lon="4.05402">
        <ele>297.818786</ele>
        <time>2023-09-29T12:10:20.212Z</time>
      </trkpt>
      <trkpt lat="46.4192" lon="4.05409">
        <ele>297.815078</ele>
        <time>2023-09-29T12:10:22.209Z</time>
      </trkpt>
      <trkpt lat="46.41928" lon="4.05415">
        <ele>297.811406</ele>
        <time>2023-09-29T12:10:24.204Z</time>
      </trkpt>
      <trkpt lat="46.4194" lon="4.05423">
        <ele>297.807698</ele>
        <time>2023-09-29T12:10:27.192Z</time>
      </trkpt>
      <trkpt lat="46.41952" lon="4.0543">
        <ele>297.930829</ele>
        <time>2023-09-29T12:10:30.177Z</time>
      </trkpt>
      <trkpt lat="46.41963" lon="4.05437">
        <ele>298.044022</ele>
        <time>2023-09-29T12:10:33.206Z</time>
      </trkpt>
      <trkpt lat="46.41974" lon="4.05443">
        <ele>298.161374</ele>
        <time>2023-09-29T12:10:36.200Z</time>
      </trkpt>
      <trkpt lat="46.41985" lon="4.05448">
        <ele>298.268054</ele>
        <time>2023-09-29T12:10:39.212Z</time>
      </trkpt>
      <trkpt lat="46.41994" lon="4.05452">
        <ele>298.359921</ele>
        <time>2023-09-29T12:10:42.227Z</time>
      </trkpt>
      <trkpt lat="46.42005" lon="4.05458">
        <ele>298.469794</ele>
        <time>2023-09-29T12:10:46.186Z</time>
      </trkpt>
      <trkpt lat="46.42017" lon="4.0546">
        <ele>298.581933</ele>
        <time>2023-09-29T12:10:50.195Z</time>
      </trkpt>
      <trkpt lat="46.42026" lon="4.05463">
        <ele>298.671897</ele>
        <time>2023-09-29T12:10:53.212Z</time>
      </trkpt>
      <trkpt lat="46.42035" lon="4.05469">
        <ele>298.765944</ele>
        <time>2023-09-29T12:10:56.189Z</time>
      </trkpt>
      <trkpt lat="46.42045" lon="4.05471">
        <ele>298.863766</ele>
        <time>2023-09-29T12:10:59.209Z</time>
      </trkpt>
      <trkpt lat="46.42055" lon="4.05474">
        <ele>298.964287</ele>
        <time>2023-09-29T12:11:02.213Z</time>
      </trkpt>
      <trkpt lat="46.42066" lon="4.05476">
        <ele>299.07034</ele>
        <time>2023-09-29T12:11:05.200Z</time>
      </trkpt>
      <trkpt lat="46.42077" lon="4.0548">
        <ele>299.169563</ele>
        <time>2023-09-29T12:11:08.192Z</time>
      </trkpt>
      <trkpt lat="46.42087" lon="4.05484">
        <ele>299.270958</ele>
        <time>2023-09-29T12:11:11.206Z</time>
      </trkpt>
      <trkpt lat="46.42096" lon="4.05486">
        <ele>299.357892</ele>
        <time>2023-09-29T12:11:14.228Z</time>
      </trkpt>
      <trkpt lat="46.42097" lon="4.05491">
        <ele>299.392036</ele>
        <time>2023-09-29T12:11:24.476Z</time>
      </trkpt>
      <trkpt lat="46.42107" lon="4.05489">
        <ele>299.489521</ele>
        <time>2023-09-29T12:23:58.193Z</time>
      </trkpt>
      <trkpt lat="46.42116" lon="4.05491">
        <ele>299.594986</ele>
        <time>2023-09-29T12:24:02.186Z</time>
      </trkpt>
      <trkpt lat="46.42125" lon="4.05492">
        <ele>299.703017</ele>
        <time>2023-09-29T12:24:05.207Z</time>
      </trkpt>
      <trkpt lat="46.42137" lon="4.05496">
        <ele>299.841877</ele>
        <time>2023-09-29T12:24:09.208Z</time>
      </trkpt>
      <trkpt lat="46.42148" lon="4.05501">
        <ele>299.980858</ele>
        <time>2023-09-29T12:24:13.201Z</time>
      </trkpt>
      <trkpt lat="46.42159" lon="4.05504">
        <ele>300.108992</ele>
        <time>2023-09-29T12:24:16.196Z</time>
      </trkpt>
      <trkpt lat="46.4217" lon="4.05506">
        <ele>300.245303</ele>
        <time>2023-09-29T12:24:19.189Z</time>
      </trkpt>
      <trkpt lat="46.42182" lon="4.0551">
        <ele>300.386707</ele>
        <time>2023-09-29T12:24:22.205Z</time>
      </trkpt>
      <trkpt lat="46.42193" lon="4.05512">
        <ele>300.526773</ele>
        <time>2023-09-29T12:24:25.209Z</time>
      </trkpt>
      <trkpt lat="46.42205" lon="4.05515">
        <ele>300.669675</ele>
        <time>2023-09-29T12:24:28.216Z</time>
      </trkpt>
      <trkpt lat="46.42216" lon="4.05517">
        <ele>300.798977</ele>
        <time>2023-09-29T12:24:31.203Z</time>
      </trkpt>
      <trkpt lat="46.42226" lon="4.05519">
        <ele>300.91587</ele>
        <time>2023-09-29T12:24:33.186Z</time>
      </trkpt>
      <trkpt lat="46.42236" lon="4.05521">
        <ele>301.030533</ele>
        <time>2023-09-29T12:24:35.189Z</time>
      </trkpt>
      <trkpt lat="46.42248" lon="4.05524">
        <ele>301.182532</ele>
        <time>2023-09-29T12:24:38.212Z</time>
      </trkpt>
      <trkpt lat="46.42261" lon="4.05528">
        <ele>301.338158</ele>
        <time>2023-09-29T12:24:41.220Z</time>
      </trkpt>
      <trkpt lat="46.42271" lon="4.0553">
        <ele>301.457993</ele>
        <time>2023-09-29T12:24:44.205Z</time>
      </trkpt>
      <trkpt lat="46.42282" lon="4.05534">
        <ele>301.590921</ele>
        <time>2023-09-29T12:24:47.197Z</time>
      </trkpt>
      <trkpt lat="46.42296" lon="4.05538">
        <ele>301.826329</ele>
        <time>2023-09-29T12:24:50.209Z</time>
      </trkpt>
      <trkpt lat="46.42305" lon="4.05541">
        <ele>302.009677</ele>
        <time>2023-09-29T12:24:52.202Z</time>
      </trkpt>
      <trkpt lat="46.42315" lon="4.05543">
        <ele>302.208196</ele>
        <time>2023-09-29T12:24:54.206Z</time>
      </trkpt>
      <trkpt lat="46.42325" lon="4.05546">
        <ele>302.404373</ele>
        <time>2023-09-29T12:24:56.227Z</time>
      </trkpt>
      <trkpt lat="46.42334" lon="4.05549">
        <ele>302.591254</ele>
        <time>2023-09-29T12:24:58.221Z</time>
      </trkpt>
      <trkpt lat="46.42344" lon="4.05552">
        <ele>302.786037</ele>
        <time>2023-09-29T12:25:00.205Z</time>
      </trkpt>
      <trkpt lat="46.42354" lon="4.05554">
        <ele>302.977033</ele>
        <time>2023-09-29T12:25:02.202Z</time>
      </trkpt>
      <trkpt lat="46.42364" lon="4.05555">
        <ele>303.172243</ele>
        <time>2023-09-29T12:25:04.197Z</time>
      </trkpt>
      <trkpt lat="46.42373" lon="4.05557">
        <ele>303.359811</ele>
        <time>2023-09-29T12:25:06.203Z</time>
      </trkpt>
      <trkpt lat="46.42383" lon="4.05559">
        <ele>303.543539</ele>
        <time>2023-09-29T12:25:08.195Z</time>
      </trkpt>
      <trkpt lat="46.42392" lon="4.05562">
        <ele>303.723908</ele>
        <time>2023-09-29T12:25:10.187Z</time>
      </trkpt>
      <trkpt lat="46.42401" lon="4.05564">
        <ele>303.912979</ele>
        <time>2023-09-29T12:25:12.209Z</time>
      </trkpt>
      <trkpt lat="46.42411" lon="4.05567">
        <ele>304.101506</ele>
        <time>2023-09-29T12:25:14.201Z</time>
      </trkpt>
      <trkpt lat="46.42421" lon="4.05568">
        <ele>304.299229</ele>
        <time>2023-09-29T12:25:16.186Z</time>
      </trkpt>
      <trkpt lat="46.42431" lon="4.05569">
        <ele>304.492327</ele>
        <time>2023-09-29T12:25:18.191Z</time>
      </trkpt>
      <trkpt lat="46.4244" lon="4.05572">
        <ele>304.684935</ele>
        <time>2023-09-29T12:25:20.200Z</time>
      </trkpt>
      <trkpt lat="46.42453" lon="4.05575">
        <ele>304.930451</ele>
        <time>2023-09-29T12:25:23.188Z</time>
      </trkpt>
      <trkpt lat="46.42462" lon="4.05579">
        <ele>305.108152</ele>
        <time>2023-09-29T12:25:25.201Z</time>
      </trkpt>
      <trkpt lat="46.4247" lon="4.05581">
        <ele>305.282947</ele>
        <time>2023-09-29T12:25:27.188Z</time>
      </trkpt>
      <trkpt lat="46.4248" lon="4.05584">
        <ele>305.475088</ele>
        <time>2023-09-29T12:25:29.198Z</time>
      </trkpt>
      <trkpt lat="46.42489" lon="4.05587">
        <ele>305.654808</ele>
        <time>2023-09-29T12:25:31.201Z</time>
      </trkpt>
      <trkpt lat="46.42499" lon="4.05588">
        <ele>305.848144</ele>
        <time>2023-09-29T12:25:33.198Z</time>
      </trkpt>
      <trkpt lat="46.42511" lon="4.05591">
        <ele>306.098548</ele>
        <time>2023-09-29T12:25:36.203Z</time>
      </trkpt>
      <trkpt lat="46.4252" lon="4.05594">
        <ele>306.284839</ele>
        <time>2023-09-29T12:25:38.204Z</time>
      </trkpt>
      <trkpt lat="46.4253" lon="4.05597">
        <ele>306.467535</ele>
        <time>2023-09-29T12:25:40.220Z</time>
      </trkpt>
      <trkpt lat="46.42539" lon="4.05598">
        <ele>306.655355</ele>
        <time>2023-09-29T12:25:42.215Z</time>
      </trkpt>
      <trkpt lat="46.42549" lon="4.056">
        <ele>306.850206</ele>
        <time>2023-09-29T12:25:44.200Z</time>
      </trkpt>
      <trkpt lat="46.42558" lon="4.05601">
        <ele>307.037556</ele>
        <time>2023-09-29T12:25:46.201Z</time>
      </trkpt>
      <trkpt lat="46.42567" lon="4.05603">
        <ele>307.216855</ele>
        <time>2023-09-29T12:25:48.205Z</time>
      </trkpt>
      <trkpt lat="46.4258" lon="4.05606">
        <ele>307.466064</ele>
        <time>2023-09-29T12:25:51.191Z</time>
      </trkpt>
      <trkpt lat="46.42589" lon="4.0561">
        <ele>307.649338</ele>
        <time>2023-09-29T12:25:53.201Z</time>
      </trkpt>
      <trkpt lat="46.42599" lon="4.05614">
        <ele>307.850332</ele>
        <time>2023-09-29T12:25:55.177Z</time>
      </trkpt>
      <trkpt lat="46.42609" lon="4.05618">
        <ele>308.06638</ele>
        <time>2023-09-29T12:25:57.208Z</time>
      </trkpt>
      <trkpt lat="46.4262" lon="4.0562">
        <ele>308.27505</ele>
        <time>2023-09-29T12:25:59.189Z</time>
      </trkpt>
      <trkpt lat="46.4263" lon="4.05621">
        <ele>308.476231</ele>
        <time>2023-09-29T12:26:01.197Z</time>
      </trkpt>
      <trkpt lat="46.4264" lon="4.05624">
        <ele>308.669388</ele>
        <time>2023-09-29T12:26:03.199Z</time>
      </trkpt>
      <trkpt lat="46.42649" lon="4.05626">
        <ele>308.669035</ele>
        <time>2023-09-29T12:26:05.194Z</time>
      </trkpt>
      <trkpt lat="46.42659" lon="4.05628">
        <ele>308.647818</ele>
        <time>2023-09-29T12:26:07.204Z</time>
      </trkpt>
      <trkpt lat="46.42669" lon="4.05631">
        <ele>308.62708</ele>
        <time>2023-09-29T12:26:09.196Z</time>
      </trkpt>
      <trkpt lat="46.42678" lon="4.05634">
        <ele>308.607512</ele>
        <time>2023-09-29T12:26:11.214Z</time>
      </trkpt>
      <trkpt lat="46.4269" lon="4.05638">
        <ele>308.583178</ele>
        <time>2023-09-29T12:26:14.213Z</time>
      </trkpt>
      <trkpt lat="46.42702" lon="4.0564">
        <ele>308.556945</ele>
        <time>2023-09-29T12:26:17.215Z</time>
      </trkpt>
      <trkpt lat="46.42713" lon="4.05642">
        <ele>308.535186</ele>
        <time>2023-09-29T12:26:19.200Z</time>
      </trkpt>
      <trkpt lat="46.42722" lon="4.05645">
        <ele>308.515106</ele>
        <time>2023-09-29T12:26:21.204Z</time>
      </trkpt>
      <trkpt lat="46.42735" lon="4.05647">
        <ele>308.487553</ele>
        <time>2023-09-29T12:26:24.204Z</time>
      </trkpt>
      <trkpt lat="46.42748" lon="4.0565">
        <ele>308.461755</ele>
        <time>2023-09-29T12:26:27.212Z</time>
      </trkpt>
      <trkpt lat="46.42761" lon="4.05654">
        <ele>308.433415</ele>
        <time>2023-09-29T12:26:30.211Z</time>
      </trkpt>
      <trkpt lat="46.42771" lon="4.05656">
        <ele>308.41274</ele>
        <time>2023-09-29T12:26:32.214Z</time>
      </trkpt>
      <trkpt lat="46.4278" lon="4.05657">
        <ele>308.393415</ele>
        <time>2023-09-29T12:26:34.181Z</time>
      </trkpt>
      <trkpt lat="46.4279" lon="4.05659">
        <ele>308.372721</ele>
        <time>2023-09-29T12:26:36.215Z</time>
      </trkpt>
      <trkpt lat="46.428" lon="4.05662">
        <ele>308.352115</ele>
        <time>2023-09-29T12:26:38.193Z</time>
      </trkpt>
      <trkpt lat="46.4281" lon="4.05666">
        <ele>308.331257</ele>
        <time>2023-09-29T12:26:40.210Z</time>
      </trkpt>
      <trkpt lat="46.42819" lon="4.05669">
        <ele>308.297427</ele>
        <time>2023-09-29T12:26:42.201Z</time>
      </trkpt>
      <trkpt lat="46.42828" lon="4.05671">
        <ele>308.136153</ele>
        <time>2023-09-29T12:26:44.197Z</time>
      </trkpt>
      <trkpt lat="46.42838" lon="4.05673">
        <ele>307.975879</ele>
        <time>2023-09-29T12:26:46.205Z</time>
      </trkpt>
      <trkpt lat="46.42847" lon="4.05676">
        <ele>307.821577</ele>
        <time>2023-09-29T12:26:48.193Z</time>
      </trkpt>
      <trkpt lat="46.42856" lon="4.05679">
        <ele>307.670227</ele>
        <time>2023-09-29T12:26:50.207Z</time>
      </trkpt>
      <trkpt lat="46.42869" lon="4.0568">
        <ele>307.454856</ele>
        <time>2023-09-29T12:26:53.206Z</time>
      </trkpt>
      <trkpt lat="46.42879" lon="4.05681">
        <ele>307.302166</ele>
        <time>2023-09-29T12:26:55.191Z</time>
      </trkpt>
      <trkpt lat="46.42888" lon="4.05684">
        <ele>307.144174</ele>
        <time>2023-09-29T12:26:57.194Z</time>
      </trkpt>
      <trkpt lat="46.42897" lon="4.05688">
        <ele>306.986419</ele>
        <time>2023-09-29T12:26:59.201Z</time>
      </trkpt>
      <trkpt lat="46.42907" lon="4.0569">
        <ele>306.830869</ele>
        <time>2023-09-29T12:27:01.196Z</time>
      </trkpt>
      <trkpt lat="46.42916" lon="4.05692">
        <ele>306.669594</ele>
        <time>2023-09-29T12:27:03.199Z</time>
      </trkpt>
      <trkpt lat="46.42926" lon="4.05694">
        <ele>306.511353</ele>
        <time>2023-09-29T12:27:05.176Z</time>
      </trkpt>
      <trkpt lat="46.42935" lon="4.05697">
        <ele>306.353111</ele>
        <time>2023-09-29T12:27:07.208Z</time>
      </trkpt>
      <trkpt lat="46.42945" lon="4.05699">
        <ele>306.201109</ele>
        <time>2023-09-29T12:27:09.205Z</time>
      </trkpt>
      <trkpt lat="46.42954" lon="4.05701">
        <ele>306.042449</ele>
        <time>2023-09-29T12:27:11.208Z</time>
      </trkpt>
      <trkpt lat="46.42964" lon="4.05704">
        <ele>305.884777</ele>
        <time>2023-09-29T12:27:13.206Z</time>
      </trkpt>
      <trkpt lat="46.42973" lon="4.05706">
        <ele>305.72633</ele>
        <time>2023-09-29T12:27:15.212Z</time>
      </trkpt>
      <trkpt lat="46.42982" lon="4.05708">
        <ele>305.573324</ele>
        <time>2023-09-29T12:27:17.211Z</time>
      </trkpt>
      <trkpt lat="46.42992" lon="4.05711">
        <ele>305.413055</ele>
        <time>2023-09-29T12:27:19.222Z</time>
      </trkpt>
      <trkpt lat="46.43002" lon="4.05714">
        <ele>305.484693</ele>
        <time>2023-09-29T12:27:21.207Z</time>
      </trkpt>
      <trkpt lat="46.43012" lon="4.05716">
        <ele>305.641834</ele>
        <time>2023-09-29T12:27:23.216Z</time>
      </trkpt>
      <trkpt lat="46.43021" lon="4.05719">
        <ele>305.797755</ele>
        <time>2023-09-29T12:27:25.203Z</time>
      </trkpt>
      <trkpt lat="46.43031" lon="4.05721">
        <ele>305.949347</ele>
        <time>2023-09-29T12:27:27.205Z</time>
      </trkpt>
      <trkpt lat="46.4304" lon="4.05724">
        <ele>306.100537</ele>
        <time>2023-09-29T12:27:29.220Z</time>
      </trkpt>
      <trkpt lat="46.43049" lon="4.05726">
        <ele>306.250558</ele>
        <time>2023-09-29T12:27:31.216Z</time>
      </trkpt>
      <trkpt lat="46.43059" lon="4.05728">
        <ele>306.418623</ele>
        <time>2023-09-29T12:27:33.213Z</time>
      </trkpt>
      <trkpt lat="46.43069" lon="4.05731">
        <ele>306.570427</ele>
        <time>2023-09-29T12:27:35.201Z</time>
      </trkpt>
      <trkpt lat="46.43078" lon="4.05734">
        <ele>306.718668</ele>
        <time>2023-09-29T12:27:37.215Z</time>
      </trkpt>
      <trkpt lat="46.43087" lon="4.05736">
        <ele>306.867733</ele>
        <time>2023-09-29T12:27:39.207Z</time>
      </trkpt>
      <trkpt lat="46.43096" lon="4.05738">
        <ele>307.01647</ele>
        <time>2023-09-29T12:27:41.216Z</time>
      </trkpt>
      <trkpt lat="46.43105" lon="4.0574">
        <ele>307.166491</ele>
        <time>2023-09-29T12:27:43.214Z</time>
      </trkpt>
      <trkpt lat="46.43115" lon="4.05743">
        <ele>307.325236</ele>
        <time>2023-09-29T12:27:45.207Z</time>
      </trkpt>
      <trkpt lat="46.43125" lon="4.05746">
        <ele>307.492386</ele>
        <time>2023-09-29T12:27:47.216Z</time>
      </trkpt>
      <trkpt lat="46.43135" lon="4.05749">
        <ele>307.646204</ele>
        <time>2023-09-29T12:27:49.218Z</time>
      </trkpt>
      <trkpt lat="46.43145" lon="4.05752">
        <ele>307.811385</ele>
        <time>2023-09-29T12:27:51.207Z</time>
      </trkpt>
      <trkpt lat="46.43155" lon="4.05757">
        <ele>307.985227</ele>
        <time>2023-09-29T12:27:53.217Z</time>
      </trkpt>
      <trkpt lat="46.43164" lon="4.05761">
        <ele>308.140801</ele>
        <time>2023-09-29T12:27:55.188Z</time>
      </trkpt>
      <trkpt lat="46.43174" lon="4.05766">
        <ele>308.292335</ele>
        <time>2023-09-29T12:27:57.190Z</time>
      </trkpt>
      <trkpt lat="46.43183" lon="4.0577">
        <ele>308.421343</ele>
        <time>2023-09-29T12:27:59.205Z</time>
      </trkpt>
      <trkpt lat="46.43192" lon="4.05774">
        <ele>308.548334</ele>
        <time>2023-09-29T12:28:01.203Z</time>
      </trkpt>
      <trkpt lat="46.43201" lon="4.05778">
        <ele>308.673487</ele>
        <time>2023-09-29T12:28:03.205Z</time>
      </trkpt>
      <trkpt lat="46.43211" lon="4.05781">
        <ele>308.805145</ele>
        <time>2023-09-29T12:28:05.217Z</time>
      </trkpt>
      <trkpt lat="46.4322" lon="4.05786">
        <ele>308.935855</ele>
        <time>2023-09-29T12:28:07.206Z</time>
      </trkpt>
      <trkpt lat="46.43229" lon="4.05791">
        <ele>309.061551</ele>
        <time>2023-09-29T12:28:09.217Z</time>
      </trkpt>
      <trkpt lat="46.43238" lon="4.05796">
        <ele>309.196034</ele>
        <time>2023-09-29T12:28:11.216Z</time>
      </trkpt>
      <trkpt lat="46.43247" lon="4.058">
        <ele>309.324304</ele>
        <time>2023-09-29T12:28:13.222Z</time>
      </trkpt>
      <trkpt lat="46.43256" lon="4.05805">
        <ele>309.446163</ele>
        <time>2023-09-29T12:28:15.205Z</time>
      </trkpt>
      <trkpt lat="46.43264" lon="4.0581">
        <ele>309.574387</ele>
        <time>2023-09-29T12:28:17.192Z</time>
      </trkpt>
      <trkpt lat="46.43273" lon="4.05817">
        <ele>309.707404</ele>
        <time>2023-09-29T12:28:19.195Z</time>
      </trkpt>
      <trkpt lat="46.43282" lon="4.05822">
        <ele>309.831577</ele>
        <time>2023-09-29T12:28:21.197Z</time>
      </trkpt>
      <trkpt lat="46.4329" lon="4.05828">
        <ele>309.961407</ele>
        <time>2023-09-29T12:28:23.197Z</time>
      </trkpt>
      <trkpt lat="46.43299" lon="4.05834">
        <ele>310.089586</ele>
        <time>2023-09-29T12:28:25.208Z</time>
      </trkpt>
      <trkpt lat="46.43307" lon="4.0584">
        <ele>310.217029</ele>
        <time>2023-09-29T12:28:27.196Z</time>
      </trkpt>
      <trkpt lat="46.43316" lon="4.05846">
        <ele>310.34481</ele>
        <time>2023-09-29T12:28:29.201Z</time>
      </trkpt>
      <trkpt lat="46.43324" lon="4.05852">
        <ele>310.467347</ele>
        <time>2023-09-29T12:28:31.205Z</time>
      </trkpt>
      <trkpt lat="46.43332" lon="4.05859">
        <ele>310.594929</ele>
        <time>2023-09-29T12:28:33.207Z</time>
      </trkpt>
      <trkpt lat="46.43341" lon="4.05866">
        <ele>310.652544</ele>
        <time>2023-09-29T12:28:35.200Z</time>
      </trkpt>
      <trkpt lat="46.43349" lon="4.05873">
        <ele>310.633783</ele>
        <time>2023-09-29T12:28:37.209Z</time>
      </trkpt>
      <trkpt lat="46.43357" lon="4.0588">
        <ele>310.614853</ele>
        <time>2023-09-29T12:28:39.195Z</time>
      </trkpt>
      <trkpt lat="46.43365" lon="4.05887">
        <ele>310.59541</ele>
        <time>2023-09-29T12:28:41.205Z</time>
      </trkpt>
      <trkpt lat="46.43374" lon="4.05895">
        <ele>310.576037</ele>
        <time>2023-09-29T12:28:43.213Z</time>
      </trkpt>
      <trkpt lat="46.43381" lon="4.05902">
        <ele>310.556994</ele>
        <time>2023-09-29T12:28:45.221Z</time>
      </trkpt>
      <trkpt lat="46.43389" lon="4.0591">
        <ele>310.537786</ele>
        <time>2023-09-29T12:28:47.239Z</time>
      </trkpt>
      <trkpt lat="46.43398" lon="4.05918">
        <ele>310.517776</ele>
        <time>2023-09-29T12:28:49.217Z</time>
      </trkpt>
      <trkpt lat="46.43406" lon="4.05926">
        <ele>310.497842</ele>
        <time>2023-09-29T12:28:51.195Z</time>
      </trkpt>
      <trkpt lat="46.43415" lon="4.05935">
        <ele>310.477191</ele>
        <time>2023-09-29T12:28:53.209Z</time>
      </trkpt>
      <trkpt lat="46.43422" lon="4.05944">
        <ele>310.457343</ele>
        <time>2023-09-29T12:28:55.190Z</time>
      </trkpt>
      <trkpt lat="46.4343" lon="4.05952">
        <ele>310.438704</ele>
        <time>2023-09-29T12:28:57.201Z</time>
      </trkpt>
      <trkpt lat="46.4344" lon="4.05965">
        <ele>310.412129</ele>
        <time>2023-09-29T12:29:00.215Z</time>
      </trkpt>
      <trkpt lat="46.4345" lon="4.05976">
        <ele>310.386964</ele>
        <time>2023-09-29T12:29:03.208Z</time>
      </trkpt>
      <trkpt lat="46.43459" lon="4.05988">
        <ele>310.36228</ele>
        <time>2023-09-29T12:29:06.187Z</time>
      </trkpt>
      <trkpt lat="46.43467" lon="4.05998">
        <ele>310.340906</ele>
        <time>2023-09-29T12:29:09.193Z</time>
      </trkpt>
      <trkpt lat="46.43474" lon="4.06006">
        <ele>310.322509</ele>
        <time>2023-09-29T12:29:12.203Z</time>
      </trkpt>
      <trkpt lat="46.43481" lon="4.06017">
        <ele>310.303352</ele>
        <time>2023-09-29T12:29:16.219Z</time>
      </trkpt>
      <trkpt lat="46.43492" lon="4.06018">
        <ele>310.309788</ele>
        <time>2023-09-29T12:29:22.219Z</time>
      </trkpt>
      <trkpt lat="46.43508" lon="4.06018">
        <ele>310.318843</ele>
        <time>2023-09-29T12:29:57.210Z</time>
      </trkpt>
      <trkpt lat="46.43516" lon="4.06028">
        <ele>310.325103</ele>
        <time>2023-09-29T12:30:01.198Z</time>
      </trkpt>
      <trkpt lat="46.43522" lon="4.06039">
        <ele>310.330854</ele>
        <time>2023-09-29T12:30:04.201Z</time>
      </trkpt>
      <trkpt lat="46.43525" lon="4.06053">
        <ele>310.336548</ele>
        <time>2023-09-29T12:30:07.212Z</time>
      </trkpt>
      <trkpt lat="46.43526" lon="4.06067">
        <ele>310.34248</ele>
        <time>2023-09-29T12:30:10.188Z</time>
      </trkpt>
      <trkpt lat="46.43528" lon="4.06082">
        <ele>310.348784</ele>
        <time>2023-09-29T12:30:13.205Z</time>
      </trkpt>
      <trkpt lat="46.43534" lon="4.06095">
        <ele>310.354833</ele>
        <time>2023-09-29T12:30:16.228Z</time>
      </trkpt>
      <trkpt lat="46.43542" lon="4.06107">
        <ele>310.361481</ele>
        <time>2023-09-29T12:30:19.199Z</time>
      </trkpt>
      <trkpt lat="46.4355" lon="4.0612">
        <ele>310.3688</ele>
        <time>2023-09-29T12:30:22.192Z</time>
      </trkpt>
      <trkpt lat="46.43559" lon="4.06134">
        <ele>310.376337</ele>
        <time>2023-09-29T12:30:25.212Z</time>
      </trkpt>
      <trkpt lat="46.43568" lon="4.06148">
        <ele>310.384074</ele>
        <time>2023-09-29T12:30:28.196Z</time>
      </trkpt>
      <trkpt lat="46.43576" lon="4.06162">
        <ele>310.391479</ele>
        <time>2023-09-29T12:30:31.202Z</time>
      </trkpt>
      <trkpt lat="46.43582" lon="4.06172">
        <ele>310.39695</ele>
        <time>2023-09-29T12:30:33.206Z</time>
      </trkpt>
      <trkpt lat="46.43589" lon="4.06181">
        <ele>310.402344</ele>
        <time>2023-09-29T12:30:35.216Z</time>
      </trkpt>
      <trkpt lat="46.43595" lon="4.0619">
        <ele>310.407823</ele>
        <time>2023-09-29T12:30:37.213Z</time>
      </trkpt>
      <trkpt lat="46.43604" lon="4.06205">
        <ele>310.579894</ele>
        <time>2023-09-29T12:30:40.196Z</time>
      </trkpt>
      <trkpt lat="46.43611" lon="4.06216">
        <ele>310.723216</ele>
        <time>2023-09-29T12:30:42.223Z</time>
      </trkpt>
      <trkpt lat="46.43618" lon="4.06226">
        <ele>310.869569</ele>
        <time>2023-09-29T12:30:44.207Z</time>
      </trkpt>
      <trkpt lat="46.43625" lon="4.06236">
        <ele>311.008323</ele>
        <time>2023-09-29T12:30:46.205Z</time>
      </trkpt>
      <trkpt lat="46.43632" lon="4.06246">
        <ele>311.152648</ele>
        <time>2023-09-29T12:30:48.216Z</time>
      </trkpt>
      <trkpt lat="46.43639" lon="4.06257">
        <ele>311.299141</ele>
        <time>2023-09-29T12:30:50.185Z</time>
      </trkpt>
      <trkpt lat="46.43645" lon="4.06269">
        <ele>311.444793</ele>
        <time>2023-09-29T12:30:52.206Z</time>
      </trkpt>
      <trkpt lat="46.43652" lon="4.0628">
        <ele>311.588843</ele>
        <time>2023-09-29T12:30:54.198Z</time>
      </trkpt>
      <trkpt lat="46.43659" lon="4.06291">
        <ele>311.734076</ele>
        <time>2023-09-29T12:30:56.205Z</time>
      </trkpt>
      <trkpt lat="46.43665" lon="4.06302">
        <ele>311.882483</ele>
        <time>2023-09-29T12:30:58.204Z</time>
      </trkpt>
      <trkpt lat="46.43672" lon="4.06313">
        <ele>312.033114</ele>
        <time>2023-09-29T12:31:00.225Z</time>
      </trkpt>
      <trkpt lat="46.43679" lon="4.06324">
        <ele>312.182259</ele>
        <time>2023-09-29T12:31:02.197Z</time>
      </trkpt>
      <trkpt lat="46.43686" lon="4.06335">
        <ele>312.327593</ele>
        <time>2023-09-29T12:31:04.209Z</time>
      </trkpt>
      <trkpt lat="46.43693" lon="4.06346">
        <ele>312.472826</ele>
        <time>2023-09-29T12:31:06.206Z</time>
      </trkpt>
      <trkpt lat="46.437" lon="4.06357">
        <ele>312.619126</ele>
        <time>2023-09-29T12:31:08.217Z</time>
      </trkpt>
      <trkpt lat="46.43707" lon="4.06367">
        <ele>312.769621</ele>
        <time>2023-09-29T12:31:10.209Z</time>
      </trkpt>
      <trkpt lat="46.43714" lon="4.06379">
        <ele>312.925575</ele>
        <time>2023-09-29T12:31:12.224Z</time>
      </trkpt>
      <trkpt lat="46.43721" lon="4.06392">
        <ele>312.9781</ele>
        <time>2023-09-29T12:31:14.208Z</time>
      </trkpt>
      <trkpt lat="46.43729" lon="4.06402">
        <ele>312.940162</ele>
        <time>2023-09-29T12:31:16.206Z</time>
      </trkpt>
      <trkpt lat="46.43736" lon="4.06413">
        <ele>312.900579</ele>
        <time>2023-09-29T12:31:18.208Z</time>
      </trkpt>
      <trkpt lat="46.43743" lon="4.06425">
        <ele>312.861247</ele>
        <time>2023-09-29T12:31:20.203Z</time>
      </trkpt>
      <trkpt lat="46.4375" lon="4.06436">
        <ele>312.822726</ele>
        <time>2023-09-29T12:31:22.218Z</time>
      </trkpt>
      <trkpt lat="46.43757" lon="4.06447">
        <ele>312.786109</ele>
        <time>2023-09-29T12:31:24.205Z</time>
      </trkpt>
      <trkpt lat="46.43763" lon="4.06458">
        <ele>312.748474</ele>
        <time>2023-09-29T12:31:26.225Z</time>
      </trkpt>
      <trkpt lat="46.4377" lon="4.06469">
        <ele>312.711424</ele>
        <time>2023-09-29T12:31:28.207Z</time>
      </trkpt>
      <trkpt lat="46.43776" lon="4.0648">
        <ele>312.676204</ele>
        <time>2023-09-29T12:31:30.208Z</time>
      </trkpt>
      <trkpt lat="46.43782" lon="4.0649">
        <ele>312.642137</ele>
        <time>2023-09-29T12:31:32.204Z</time>
      </trkpt>
      <trkpt lat="46.43789" lon="4.06501">
        <ele>312.604425</ele>
        <time>2023-09-29T12:31:34.211Z</time>
      </trkpt>
      <trkpt lat="46.43796" lon="4.06511">
        <ele>312.567549</ele>
        <time>2023-09-29T12:31:36.206Z</time>
      </trkpt>
      <trkpt lat="46.43803" lon="4.06521">
        <ele>312.532399</ele>
        <time>2023-09-29T12:31:38.207Z</time>
      </trkpt>
      <trkpt lat="46.43809" lon="4.06531">
        <ele>312.496811</ele>
        <time>2023-09-29T12:31:40.231Z</time>
      </trkpt>
      <trkpt lat="46.43816" lon="4.06542">
        <ele>312.461156</ele>
        <time>2023-09-29T12:31:42.216Z</time>
      </trkpt>
      <trkpt lat="46.43822" lon="4.06552">
        <ele>312.42582</ele>
        <time>2023-09-29T12:31:44.217Z</time>
      </trkpt>
      <trkpt lat="46.43829" lon="4.06562">
        <ele>312.390447</ele>
        <time>2023-09-29T12:31:46.211Z</time>
      </trkpt>
      <trkpt lat="46.43835" lon="4.06573">
        <ele>312.355083</ele>
        <time>2023-09-29T12:31:48.229Z</time>
      </trkpt>
      <trkpt lat="46.43842" lon="4.06584">
        <ele>312.268204</ele>
        <time>2023-09-29T12:31:50.202Z</time>
      </trkpt>
      <trkpt lat="46.43849" lon="4.06594">
        <ele>312.145636</ele>
        <time>2023-09-29T12:31:52.204Z</time>
      </trkpt>
      <trkpt lat="46.43856" lon="4.06603">
        <ele>312.023068</ele>
        <time>2023-09-29T12:31:54.199Z</time>
      </trkpt>
      <trkpt lat="46.43863" lon="4.06614">
        <ele>311.89918</ele>
        <time>2023-09-29T12:31:56.200Z</time>
      </trkpt>
      <trkpt lat="46.43869" lon="4.06624">
        <ele>311.781109</ele>
        <time>2023-09-29T12:31:58.198Z</time>
      </trkpt>
      <trkpt lat="46.43878" lon="4.06638">
        <ele>311.615491</ele>
        <time>2023-09-29T12:32:01.206Z</time>
      </trkpt>
      <trkpt lat="46.43885" lon="4.06648">
        <ele>311.493668</ele>
        <time>2023-09-29T12:32:03.202Z</time>
      </trkpt>
      <trkpt lat="46.43891" lon="4.06659">
        <ele>311.369113</ele>
        <time>2023-09-29T12:32:05.205Z</time>
      </trkpt>
      <trkpt lat="46.43898" lon="4.0667">
        <ele>311.24473</ele>
        <time>2023-09-29T12:32:07.208Z</time>
      </trkpt>
      <trkpt lat="46.43904" lon="4.06681">
        <ele>311.123107</ele>
        <time>2023-09-29T12:32:09.204Z</time>
      </trkpt>
      <trkpt lat="46.4391" lon="4.06691">
        <ele>311.008284</ele>
        <time>2023-09-29T12:32:11.215Z</time>
      </trkpt>
      <trkpt lat="46.43917" lon="4.06701">
        <ele>310.883598</ele>
        <time>2023-09-29T12:32:13.206Z</time>
      </trkpt>
      <trkpt lat="46.43924" lon="4.06711">
        <ele>310.760916</ele>
        <time>2023-09-29T12:32:15.210Z</time>
      </trkpt>
      <trkpt lat="46.4393" lon="4.06722">
        <ele>310.632614</ele>
        <time>2023-09-29T12:32:17.248Z</time>
      </trkpt>
      <trkpt lat="46.43937" lon="4.06734">
        <ele>310.508059</ele>
        <time>2023-09-29T12:32:19.214Z</time>
      </trkpt>
      <trkpt lat="46.43943" lon="4.06744">
        <ele>310.384112</ele>
        <time>2023-09-29T12:32:21.231Z</time>
      </trkpt>
      <trkpt lat="46.4395" lon="4.06755">
        <ele>310.254425</ele>
        <time>2023-09-29T12:32:23.207Z</time>
      </trkpt>
      <trkpt lat="46.43957" lon="4.06767">
        <ele>310.119393</ele>
        <time>2023-09-29T12:32:25.206Z</time>
      </trkpt>
      <trkpt lat="46.43964" lon="4.06778">
        <ele>310.107528</ele>
        <time>2023-09-29T12:32:27.184Z</time>
      </trkpt>
      <trkpt lat="46.4397" lon="4.06788">
        <ele>310.155119</ele>
        <time>2023-09-29T12:32:29.217Z</time>
      </trkpt>
      <trkpt lat="46.43977" lon="4.06799">
        <ele>310.203287</ele>
        <time>2023-09-29T12:32:31.206Z</time>
      </trkpt>
      <trkpt lat="46.43983" lon="4.0681">
        <ele>310.251847</ele>
        <time>2023-09-29T12:32:33.209Z</time>
      </trkpt>
      <trkpt lat="46.43989" lon="4.06821">
        <ele>310.298224</ele>
        <time>2023-09-29T12:32:35.201Z</time>
      </trkpt>
      <trkpt lat="46.43997" lon="4.06832">
        <ele>310.352102</ele>
        <time>2023-09-29T12:32:37.223Z</time>
      </trkpt>
      <trkpt lat="46.44004" lon="4.06843">
        <ele>310.404703</ele>
        <time>2023-09-29T12:32:39.193Z</time>
      </trkpt>
      <trkpt lat="46.44011" lon="4.06854">
        <ele>310.45306</ele>
        <time>2023-09-29T12:32:41.209Z</time>
      </trkpt>
      <trkpt lat="46.44017" lon="4.06865">
        <ele>310.500397</ele>
        <time>2023-09-29T12:32:43.205Z</time>
      </trkpt>
      <trkpt lat="46.44024" lon="4.06875">
        <ele>310.547482</ele>
        <time>2023-09-29T12:32:45.208Z</time>
      </trkpt>
      <trkpt lat="46.44031" lon="4.06886">
        <ele>310.599052</ele>
        <time>2023-09-29T12:32:47.213Z</time>
      </trkpt>
      <trkpt lat="46.44038" lon="4.06897">
        <ele>310.651307</ele>
        <time>2023-09-29T12:32:49.208Z</time>
      </trkpt>
      <trkpt lat="46.44045" lon="4.06908">
        <ele>310.699879</ele>
        <time>2023-09-29T12:32:51.228Z</time>
      </trkpt>
      <trkpt lat="46.44052" lon="4.06919">
        <ele>310.751603</ele>
        <time>2023-09-29T12:32:53.226Z</time>
      </trkpt>
      <trkpt lat="46.44059" lon="4.06929">
        <ele>310.798851</ele>
        <time>2023-09-29T12:32:55.206Z</time>
      </trkpt>
      <trkpt lat="46.44065" lon="4.06939">
        <ele>310.845518</ele>
        <time>2023-09-29T12:32:57.228Z</time>
      </trkpt>
      <trkpt lat="46.44071" lon="4.06949">
        <ele>310.890364</ele>
        <time>2023-09-29T12:32:59.207Z</time>
      </trkpt>
      <trkpt lat="46.44079" lon="4.06959">
        <ele>310.93815</ele>
        <time>2023-09-29T12:33:01.226Z</time>
      </trkpt>
      <trkpt lat="46.44085" lon="4.06969">
        <ele>311.026902</ele>
        <time>2023-09-29T12:33:03.208Z</time>
      </trkpt>
      <trkpt lat="46.44092" lon="4.0698">
        <ele>311.143117</ele>
        <time>2023-09-29T12:33:05.207Z</time>
      </trkpt>
      <trkpt lat="46.44098" lon="4.0699">
        <ele>311.258537</ele>
        <time>2023-09-29T12:33:07.212Z</time>
      </trkpt>
      <trkpt lat="46.44105" lon="4.07001">
        <ele>311.38101</ele>
        <time>2023-09-29T12:33:09.195Z</time>
      </trkpt>
      <trkpt lat="46.44111" lon="4.07012">
        <ele>311.495202</ele>
        <time>2023-09-29T12:33:11.204Z</time>
      </trkpt>
      <trkpt lat="46.44118" lon="4.07022">
        <ele>311.611007</ele>
        <time>2023-09-29T12:33:13.223Z</time>
      </trkpt>
      <trkpt lat="46.44124" lon="4.07032">
        <ele>311.725018</ele>
        <time>2023-09-29T12:33:15.210Z</time>
      </trkpt>
      <trkpt lat="46.44131" lon="4.07043">
        <ele>311.842463</ele>
        <time>2023-09-29T12:33:17.216Z</time>
      </trkpt>
      <trkpt lat="46.44137" lon="4.07054">
        <ele>311.961315</ele>
        <time>2023-09-29T12:33:19.206Z</time>
      </trkpt>
      <trkpt lat="46.44144" lon="4.07064">
        <ele>312.076918</ele>
        <time>2023-09-29T12:33:21.221Z</time>
      </trkpt>
      <trkpt lat="46.4415" lon="4.07075">
        <ele>312.195348</ele>
        <time>2023-09-29T12:33:23.221Z</time>
      </trkpt>
      <trkpt lat="46.44158" lon="4.07085">
        <ele>312.316728</ele>
        <time>2023-09-29T12:33:25.210Z</time>
      </trkpt>
      <trkpt lat="46.44164" lon="4.07096">
        <ele>312.434173</ele>
        <time>2023-09-29T12:33:27.216Z</time>
      </trkpt>
      <trkpt lat="46.44171" lon="4.07106">
        <ele>312.551025</ele>
        <time>2023-09-29T12:33:29.209Z</time>
      </trkpt>
      <trkpt lat="46.44178" lon="4.07116">
        <ele>312.666454</ele>
        <time>2023-09-29T12:33:31.209Z</time>
      </trkpt>
      <trkpt lat="46.44187" lon="4.0713">
        <ele>312.827742</ele>
        <time>2023-09-29T12:33:34.201Z</time>
      </trkpt>
      <trkpt lat="46.44193" lon="4.07141">
        <ele>312.937798</ele>
        <time>2023-09-29T12:33:36.208Z</time>
      </trkpt>
      <trkpt lat="46.44199" lon="4.07151">
        <ele>313.055019</ele>
        <time>2023-09-29T12:33:38.205Z</time>
      </trkpt>
      <trkpt lat="46.44206" lon="4.07161">
        <ele>313.145393</ele>
        <time>2023-09-29T12:33:40.222Z</time>
      </trkpt>
      <trkpt lat="46.44212" lon="4.07171">
        <ele>313.218017</ele>
        <time>2023-09-29T12:33:42.226Z</time>
      </trkpt>
      <trkpt lat="46.44218" lon="4.07181">
        <ele>313.287413</ele>
        <time>2023-09-29T12:33:44.214Z</time>
      </trkpt>
      <trkpt lat="46.44224" lon="4.07191">
        <ele>313.357938</ele>
        <time>2023-09-29T12:33:46.204Z</time>
      </trkpt>
      <trkpt lat="46.44231" lon="4.07201">
        <ele>313.433721</ele>
        <time>2023-09-29T12:33:48.224Z</time>
      </trkpt>
      <trkpt lat="46.44237" lon="4.07211">
        <ele>313.505951</ele>
        <time>2023-09-29T12:33:50.190Z</time>
      </trkpt>
      <trkpt lat="46.44243" lon="4.07222">
        <ele>313.576767</ele>
        <time>2023-09-29T12:33:52.201Z</time>
      </trkpt>
      <trkpt lat="46.4425" lon="4.07231">
        <ele>313.649537</ele>
        <time>2023-09-29T12:33:54.209Z</time>
      </trkpt>
      <trkpt lat="46.44257" lon="4.07242">
        <ele>313.726848</ele>
        <time>2023-09-29T12:33:56.221Z</time>
      </trkpt>
      <trkpt lat="46.44264" lon="4.07252">
        <ele>313.80272</ele>
        <time>2023-09-29T12:33:58.206Z</time>
      </trkpt>
      <trkpt lat="46.44273" lon="4.07266">
        <ele>313.905672</ele>
        <time>2023-09-29T12:34:01.209Z</time>
      </trkpt>
      <trkpt lat="46.44282" lon="4.07278">
        <ele>314.000277</ele>
        <time>2023-09-29T12:34:04.194Z</time>
      </trkpt>
      <trkpt lat="46.4429" lon="4.0729">
        <ele>314.088268</ele>
        <time>2023-09-29T12:34:07.212Z</time>
      </trkpt>
      <trkpt lat="46.44295" lon="4.07302">
        <ele>314.162373</ele>
        <time>2023-09-29T12:34:10.205Z</time>
      </trkpt>
      <trkpt lat="46.44301" lon="4.07311">
        <ele>314.232419</ele>
        <time>2023-09-29T12:34:13.198Z</time>
      </trkpt>
      <trkpt lat="46.44309" lon="4.07321">
        <ele>314.308789</ele>
        <time>2023-09-29T12:34:16.212Z</time>
      </trkpt>
      <trkpt lat="46.44316" lon="4.07335">
        <ele>314.404028</ele>
        <time>2023-09-29T12:34:19.204Z</time>
      </trkpt>
      <trkpt lat="46.44322" lon="4.07345">
        <ele>314.474836</ele>
        <time>2023-09-29T12:34:21.220Z</time>
      </trkpt>
      <trkpt lat="46.44331" lon="4.07359">
        <ele>314.420899</ele>
        <time>2023-09-29T12:34:24.205Z</time>
      </trkpt>
      <trkpt lat="46.44338" lon="4.07369">
        <ele>314.358675</ele>
        <time>2023-09-29T12:34:26.212Z</time>
      </trkpt>
      <trkpt lat="46.44344" lon="4.07379">
        <ele>314.29955</ele>
        <time>2023-09-29T12:34:28.204Z</time>
      </trkpt>
      <trkpt lat="46.44351" lon="4.07389">
        <ele>314.239039</ele>
        <time>2023-09-29T12:34:30.225Z</time>
      </trkpt>
      <trkpt lat="46.44357" lon="4.07399">
        <ele>314.179164</ele>
        <time>2023-09-29T12:34:32.196Z</time>
      </trkpt>
      <trkpt lat="46.44364" lon="4.0741">
        <ele>314.117687</ele>
        <time>2023-09-29T12:34:34.211Z</time>
      </trkpt>
      <trkpt lat="46.4437" lon="4.07421">
        <ele>314.052997</ele>
        <time>2023-09-29T12:34:36.212Z</time>
      </trkpt>
      <trkpt lat="46.44377" lon="4.07432">
        <ele>313.989919</ele>
        <time>2023-09-29T12:34:38.201Z</time>
      </trkpt>
      <trkpt lat="46.44384" lon="4.07443">
        <ele>313.925555</ele>
        <time>2023-09-29T12:34:40.213Z</time>
      </trkpt>
      <trkpt lat="46.44391" lon="4.07454">
        <ele>313.861037</ele>
        <time>2023-09-29T12:34:42.215Z</time>
      </trkpt>
      <trkpt lat="46.44397" lon="4.07465">
        <ele>313.796347</ele>
        <time>2023-09-29T12:34:44.199Z</time>
      </trkpt>
      <trkpt lat="46.44404" lon="4.07476">
        <ele>313.731419</ele>
        <time>2023-09-29T12:34:46.201Z</time>
      </trkpt>
      <trkpt lat="46.44411" lon="4.07487">
        <ele>313.665527</ele>
        <time>2023-09-29T12:34:48.184Z</time>
      </trkpt>
      <trkpt lat="46.44419" lon="4.07498">
        <ele>313.596927</ele>
        <time>2023-09-29T12:34:50.211Z</time>
      </trkpt>
      <trkpt lat="46.44426" lon="4.07509">
        <ele>313.530963</ele>
        <time>2023-09-29T12:34:52.207Z</time>
      </trkpt>
      <trkpt lat="46.44433" lon="4.07521">
        <ele>313.46618</ele>
        <time>2023-09-29T12:34:54.206Z</time>
      </trkpt>
      <trkpt lat="46.4444" lon="4.07532">
        <ele>313.397951</ele>
        <time>2023-09-29T12:34:56.220Z</time>
      </trkpt>
      <trkpt lat="46.44447" lon="4.07544">
        <ele>313.329156</ele>
        <time>2023-09-29T12:34:58.204Z</time>
      </trkpt>
      <trkpt lat="46.44454" lon="4.07556">
        <ele>313.26741</ele>
        <time>2023-09-29T12:35:00.209Z</time>
      </trkpt>
      <trkpt lat="46.44461" lon="4.07567">
        <ele>313.208055</ele>
        <time>2023-09-29T12:35:02.213Z</time>
      </trkpt>
      <trkpt lat="46.44468" lon="4.07578">
        <ele>313.147521</ele>
        <time>2023-09-29T12:35:04.203Z</time>
      </trkpt>
      <trkpt lat="46.44475" lon="4.07589">
        <ele>313.084488</ele>
        <time>2023-09-29T12:35:06.226Z</time>
      </trkpt>
      <trkpt lat="46.44482" lon="4.07601">
        <ele>313.021741</ele>
        <time>2023-09-29T12:35:08.205Z</time>
      </trkpt>
      <trkpt lat="46.44489" lon="4.07613">
        <ele>312.9566</ele>
        <time>2023-09-29T12:35:10.204Z</time>
      </trkpt>
      <trkpt lat="46.44497" lon="4.07624">
        <ele>312.891639</ele>
        <time>2023-09-29T12:35:12.210Z</time>
      </trkpt>
      <trkpt lat="46.44504" lon="4.07636">
        <ele>312.828409</ele>
        <time>2023-09-29T12:35:14.199Z</time>
      </trkpt>
      <trkpt lat="46.44511" lon="4.07647">
        <ele>312.766478</ele>
        <time>2023-09-29T12:35:16.207Z</time>
      </trkpt>
      <trkpt lat="46.44519" lon="4.07659">
        <ele>312.70023</ele>
        <time>2023-09-29T12:35:18.218Z</time>
      </trkpt>
      <trkpt lat="46.44527" lon="4.0767">
        <ele>312.632866</ele>
        <time>2023-09-29T12:35:20.200Z</time>
      </trkpt>
      <trkpt lat="46.44535" lon="4.07682">
        <ele>312.565086</ele>
        <time>2023-09-29T12:35:22.207Z</time>
      </trkpt>
      <trkpt lat="46.44543" lon="4.07694">
        <ele>312.498857</ele>
        <time>2023-09-29T12:35:24.200Z</time>
      </trkpt>
      <trkpt lat="46.4455" lon="4.07706">
        <ele>312.435946</ele>
        <time>2023-09-29T12:35:26.222Z</time>
      </trkpt>
      <trkpt lat="46.44557" lon="4.07718">
        <ele>312.37032</ele>
        <time>2023-09-29T12:35:28.217Z</time>
      </trkpt>
      <trkpt lat="46.44564" lon="4.07729">
        <ele>312.307988</ele>
        <time>2023-09-29T12:35:30.226Z</time>
      </trkpt>
      <trkpt lat="46.44572" lon="4.0774">
        <ele>312.329883</ele>
        <time>2023-09-29T12:35:32.214Z</time>
      </trkpt>
      <trkpt lat="46.44579" lon="4.07752">
        <ele>312.383818</ele>
        <time>2023-09-29T12:35:34.212Z</time>
      </trkpt>
      <trkpt lat="46.44586" lon="4.07763">
        <ele>312.440037</ele>
        <time>2023-09-29T12:35:36.212Z</time>
      </trkpt>
      <trkpt lat="46.44592" lon="4.07774">
        <ele>312.492333</ele>
        <time>2023-09-29T12:35:38.215Z</time>
      </trkpt>
      <trkpt lat="46.44599" lon="4.07786">
        <ele>312.545338</ele>
        <time>2023-09-29T12:35:40.214Z</time>
      </trkpt>
      <trkpt lat="46.44606" lon="4.07797">
        <ele>312.599803</ele>
        <time>2023-09-29T12:35:42.206Z</time>
      </trkpt>
      <trkpt lat="46.44613" lon="4.07809">
        <ele>312.6547</ele>
        <time>2023-09-29T12:35:44.220Z</time>
      </trkpt>
      <trkpt lat="46.4462" lon="4.0782">
        <ele>312.709949</ele>
        <time>2023-09-29T12:35:46.212Z</time>
      </trkpt>
      <trkpt lat="46.44628" lon="4.07831">
        <ele>312.764423</ele>
        <time>2023-09-29T12:35:48.215Z</time>
      </trkpt>
      <trkpt lat="46.44635" lon="4.07843">
        <ele>312.821071</ele>
        <time>2023-09-29T12:35:50.207Z</time>
      </trkpt>
      <trkpt lat="46.44642" lon="4.07854">
        <ele>312.876268</ele>
        <time>2023-09-29T12:35:52.203Z</time>
      </trkpt>
      <trkpt lat="46.44649" lon="4.07865">
        <ele>312.931</ele>
        <time>2023-09-29T12:35:54.211Z</time>
      </trkpt>
      <trkpt lat="46.44657" lon="4.07877">
        <ele>312.986159</ele>
        <time>2023-09-29T12:35:56.221Z</time>
      </trkpt>
      <trkpt lat="46.44664" lon="4.07888">
        <ele>313.040705</ele>
        <time>2023-09-29T12:35:58.212Z</time>
      </trkpt>
      <trkpt lat="46.44672" lon="4.07899">
        <ele>313.097005</ele>
        <time>2023-09-29T12:36:00.205Z</time>
      </trkpt>
      <trkpt lat="46.44679" lon="4.0791">
        <ele>313.151816</ele>
        <time>2023-09-29T12:36:02.227Z</time>
      </trkpt>
      <trkpt lat="46.44685" lon="4.07921">
        <ele>313.203735</ele>
        <time>2023-09-29T12:36:04.221Z</time>
      </trkpt>
      <trkpt lat="46.44692" lon="4.07932">
        <ele>313.233144</ele>
        <time>2023-09-29T12:36:06.220Z</time>
      </trkpt>
      <trkpt lat="46.44699" lon="4.07943">
        <ele>313.251666</ele>
        <time>2023-09-29T12:36:08.191Z</time>
      </trkpt>
      <trkpt lat="46.44706" lon="4.07955">
        <ele>313.270376</ele>
        <time>2023-09-29T12:36:10.210Z</time>
      </trkpt>
      <trkpt lat="46.44713" lon="4.07966">
        <ele>313.289275</ele>
        <time>2023-09-29T12:36:12.186Z</time>
      </trkpt>
      <trkpt lat="46.4472" lon="4.07977">
        <ele>313.307706</ele>
        <time>2023-09-29T12:36:14.208Z</time>
      </trkpt>
      <trkpt lat="46.44728" lon="4.07988">
        <ele>313.327215</ele>
        <time>2023-09-29T12:36:16.225Z</time>
      </trkpt>
      <trkpt lat="46.44735" lon="4.08">
        <ele>313.346234</ele>
        <time>2023-09-29T12:36:18.203Z</time>
      </trkpt>
      <trkpt lat="46.44742" lon="4.08011">
        <ele>313.365797</ele>
        <time>2023-09-29T12:36:20.221Z</time>
      </trkpt>
      <trkpt lat="46.4475" lon="4.08023">
        <ele>313.385149</ele>
        <time>2023-09-29T12:36:22.217Z</time>
      </trkpt>
      <trkpt lat="46.44756" lon="4.08034">
        <ele>313.40339</ele>
        <time>2023-09-29T12:36:24.210Z</time>
      </trkpt>
      <trkpt lat="46.44763" lon="4.08045">
        <ele>313.421724</ele>
        <time>2023-09-29T12:36:26.227Z</time>
      </trkpt>
      <trkpt lat="46.4477" lon="4.08056">
        <ele>313.440243</ele>
        <time>2023-09-29T12:36:28.207Z</time>
      </trkpt>
      <trkpt lat="46.44778" lon="4.08068">
        <ele>313.460141</ele>
        <time>2023-09-29T12:36:30.207Z</time>
      </trkpt>
      <trkpt lat="46.44785" lon="4.08079">
        <ele>313.478832</ele>
        <time>2023-09-29T12:36:32.204Z</time>
      </trkpt>
      <trkpt lat="46.44792" lon="4.08091">
        <ele>313.497761</ele>
        <time>2023-09-29T12:36:34.207Z</time>
      </trkpt>
      <trkpt lat="46.44799" lon="4.08101">
        <ele>313.51603</ele>
        <time>2023-09-29T12:36:36.205Z</time>
      </trkpt>
      <trkpt lat="46.44806" lon="4.08112">
        <ele>313.533994</ele>
        <time>2023-09-29T12:36:38.219Z</time>
      </trkpt>
      <trkpt lat="46.44813" lon="4.08123">
        <ele>313.518529</ele>
        <time>2023-09-29T12:36:40.189Z</time>
      </trkpt>
      <trkpt lat="46.44819" lon="4.08134">
        <ele>313.473251</ele>
        <time>2023-09-29T12:36:42.212Z</time>
      </trkpt>
      <trkpt lat="46.44826" lon="4.08145">
        <ele>313.425853</ele>
        <time>2023-09-29T12:36:44.213Z</time>
      </trkpt>
      <trkpt lat="46.44833" lon="4.08156">
        <ele>313.378553</ele>
        <time>2023-09-29T12:36:46.203Z</time>
      </trkpt>
      <trkpt lat="46.4484" lon="4.08167">
        <ele>313.328036</ele>
        <time>2023-09-29T12:36:48.199Z</time>
      </trkpt>
      <trkpt lat="46.44847" lon="4.08179">
        <ele>313.279087</ele>
        <time>2023-09-29T12:36:50.208Z</time>
      </trkpt>
      <trkpt lat="46.44854" lon="4.0819">
        <ele>313.230138</ele>
        <time>2023-09-29T12:36:52.225Z</time>
      </trkpt>
      <trkpt lat="46.44861" lon="4.08201">
        <ele>313.18158</ele>
        <time>2023-09-29T12:36:54.217Z</time>
      </trkpt>
      <trkpt lat="46.44868" lon="4.08212">
        <ele>313.134486</ele>
        <time>2023-09-29T12:36:56.215Z</time>
      </trkpt>
      <trkpt lat="46.44875" lon="4.08223">
        <ele>313.086554</ele>
        <time>2023-09-29T12:36:58.201Z</time>
      </trkpt>
      <trkpt lat="46.44883" lon="4.08235">
        <ele>313.035092</ele>
        <time>2023-09-29T12:37:00.180Z</time>
      </trkpt>
      <trkpt lat="46.4489" lon="4.08247">
        <ele>312.98376</ele>
        <time>2023-09-29T12:37:02.207Z</time>
      </trkpt>
      <trkpt lat="46.44897" lon="4.0826">
        <ele>312.931821</ele>
        <time>2023-09-29T12:37:04.184Z</time>
      </trkpt>
      <trkpt lat="46.44905" lon="4.08272">
        <ele>312.879421</ele>
        <time>2023-09-29T12:37:06.201Z</time>
      </trkpt>
      <trkpt lat="46.44913" lon="4.08283">
        <ele>312.828635</ele>
        <time>2023-09-29T12:37:08.204Z</time>
      </trkpt>
      <trkpt lat="46.4492" lon="4.08295">
        <ele>312.775918</ele>
        <time>2023-09-29T12:37:10.196Z</time>
      </trkpt>
      <trkpt lat="46.44928" lon="4.08307">
        <ele>312.725551</ele>
        <time>2023-09-29T12:37:12.204Z</time>
      </trkpt>
      <trkpt lat="46.44934" lon="4.08318">
        <ele>312.644109</ele>
        <time>2023-09-29T12:37:14.195Z</time>
      </trkpt>
      <trkpt lat="46.44941" lon="4.0833">
        <ele>312.538212</ele>
        <time>2023-09-29T12:37:16.191Z</time>
      </trkpt>
      <trkpt lat="46.44948" lon="4.08342">
        <ele>312.429739</ele>
        <time>2023-09-29T12:37:18.205Z</time>
      </trkpt>
      <trkpt lat="46.44956" lon="4.08353">
        <ele>312.320925</ele>
        <time>2023-09-29T12:37:20.201Z</time>
      </trkpt>
      <trkpt lat="46.44962" lon="4.08364">
        <ele>312.219433</ele>
        <time>2023-09-29T12:37:22.201Z</time>
      </trkpt>
      <trkpt lat="46.44969" lon="4.08374">
        <ele>312.12163</ele>
        <time>2023-09-29T12:37:24.202Z</time>
      </trkpt>
      <trkpt lat="46.44976" lon="4.08385">
        <ele>312.021999</ele>
        <time>2023-09-29T12:37:26.207Z</time>
      </trkpt>
      <trkpt lat="46.44983" lon="4.08396">
        <ele>311.9178</ele>
        <time>2023-09-29T12:37:28.214Z</time>
      </trkpt>
      <trkpt lat="46.4499" lon="4.08407">
        <ele>311.811862</ele>
        <time>2023-09-29T12:37:30.224Z</time>
      </trkpt>
      <trkpt lat="46.44997" lon="4.08418">
        <ele>311.707663</ele>
        <time>2023-09-29T12:37:32.215Z</time>
      </trkpt>
      <trkpt lat="46.45004" lon="4.08429">
        <ele>311.601924</ele>
        <time>2023-09-29T12:37:34.202Z</time>
      </trkpt>
      <trkpt lat="46.45011" lon="4.08441">
        <ele>311.49802</ele>
        <time>2023-09-29T12:37:36.210Z</time>
      </trkpt>
      <trkpt lat="46.45018" lon="4.08452">
        <ele>311.394637</ele>
        <time>2023-09-29T12:37:38.226Z</time>
      </trkpt>
      <trkpt lat="46.45025" lon="4.08464">
        <ele>311.285643</ele>
        <time>2023-09-29T12:37:40.208Z</time>
      </trkpt>
      <trkpt lat="46.45033" lon="4.08475">
        <ele>311.179004</ele>
        <time>2023-09-29T12:37:42.223Z</time>
      </trkpt>
      <trkpt lat="46.4504" lon="4.08486">
        <ele>311.074637</ele>
        <time>2023-09-29T12:37:44.208Z</time>
      </trkpt>
      <trkpt lat="46.45047" lon="4.08497">
        <ele>310.97027</ele>
        <time>2023-09-29T12:37:46.208Z</time>
      </trkpt>
      <trkpt lat="46.45054" lon="4.08508">
        <ele>310.892513</ele>
        <time>2023-09-29T12:37:48.207Z</time>
      </trkpt>
      <trkpt lat="46.45061" lon="4.08519">
        <ele>310.848984</ele>
        <time>2023-09-29T12:37:50.204Z</time>
      </trkpt>
      <trkpt lat="46.45068" lon="4.08531">
        <ele>310.804045</ele>
        <time>2023-09-29T12:37:52.204Z</time>
      </trkpt>
      <trkpt lat="46.45075" lon="4.08542">
        <ele>310.759106</ele>
        <time>2023-09-29T12:37:54.198Z</time>
      </trkpt>
      <trkpt lat="46.45082" lon="4.08553">
        <ele>310.717186</ele>
        <time>2023-09-29T12:37:56.207Z</time>
      </trkpt>
      <trkpt lat="46.45089" lon="4.08564">
        <ele>310.674433</ele>
        <time>2023-09-29T12:37:58.220Z</time>
      </trkpt>
      <trkpt lat="46.45096" lon="4.08576">
        <ele>310.6299</ele>
        <time>2023-09-29T12:38:00.196Z</time>
      </trkpt>
      <trkpt lat="46.45103" lon="4.08587">
        <ele>310.584722</ele>
        <time>2023-09-29T12:38:02.205Z</time>
      </trkpt>
      <trkpt lat="46.45111" lon="4.08599">
        <ele>310.539133</ele>
        <time>2023-09-29T12:38:04.217Z</time>
      </trkpt>
      <trkpt lat="46.45118" lon="4.08611">
        <ele>310.493064</ele>
        <time>2023-09-29T12:38:06.202Z</time>
      </trkpt>
      <trkpt lat="46.45126" lon="4.08623">
        <ele>310.446781</ele>
        <time>2023-09-29T12:38:08.208Z</time>
      </trkpt>
      <trkpt lat="46.45133" lon="4.08634">
        <ele>310.401558</ele>
        <time>2023-09-29T12:38:10.206Z</time>
      </trkpt>
      <trkpt lat="46.4514" lon="4.08646">
        <ele>310.357516</ele>
        <time>2023-09-29T12:38:12.216Z</time>
      </trkpt>
      <trkpt lat="46.45147" lon="4.08657">
        <ele>310.314482</ele>
        <time>2023-09-29T12:38:14.209Z</time>
      </trkpt>
      <trkpt lat="46.45154" lon="4.08668">
        <ele>310.272009</ele>
        <time>2023-09-29T12:38:16.202Z</time>
      </trkpt>
      <trkpt lat="46.45161" lon="4.08678">
        <ele>310.228843</ele>
        <time>2023-09-29T12:38:18.208Z</time>
      </trkpt>
      <trkpt lat="46.45168" lon="4.0869">
        <ele>310.184186</ele>
        <time>2023-09-29T12:38:20.202Z</time>
      </trkpt>
      <trkpt lat="46.45175" lon="4.08701">
        <ele>310.131111</ele>
        <time>2023-09-29T12:38:22.216Z</time>
      </trkpt>
      <trkpt lat="46.45182" lon="4.08712">
        <ele>310.06362</ele>
        <time>2023-09-29T12:38:24.204Z</time>
      </trkpt>
      <trkpt lat="46.45189" lon="4.08724">
        <ele>309.996559</ele>
        <time>2023-09-29T12:38:26.211Z</time>
      </trkpt>
      <trkpt lat="46.45196" lon="4.08735">
        <ele>309.929829</ele>
        <time>2023-09-29T12:38:28.209Z</time>
      </trkpt>
      <trkpt lat="46.45203" lon="4.08746">
        <ele>309.862522</ele>
        <time>2023-09-29T12:38:30.214Z</time>
      </trkpt>
      <trkpt lat="46.4521" lon="4.08757">
        <ele>309.797755</ele>
        <time>2023-09-29T12:38:32.182Z</time>
      </trkpt>
      <trkpt lat="46.45217" lon="4.08768">
        <ele>309.730733</ele>
        <time>2023-09-29T12:38:34.198Z</time>
      </trkpt>
      <trkpt lat="46.45224" lon="4.08779">
        <ele>309.664553</ele>
        <time>2023-09-29T12:38:36.195Z</time>
      </trkpt>
      <trkpt lat="46.45231" lon="4.0879">
        <ele>309.596908</ele>
        <time>2023-09-29T12:38:38.189Z</time>
      </trkpt>
      <trkpt lat="46.45237" lon="4.08802">
        <ele>309.530906</ele>
        <time>2023-09-29T12:38:40.211Z</time>
      </trkpt>
      <trkpt lat="46.45244" lon="4.08814">
        <ele>309.459978</ele>
        <time>2023-09-29T12:38:42.214Z</time>
      </trkpt>
      <trkpt lat="46.45252" lon="4.08825">
        <ele>309.391292</ele>
        <time>2023-09-29T12:38:44.198Z</time>
      </trkpt>
      <trkpt lat="46.45259" lon="4.08836">
        <ele>309.321646</ele>
        <time>2023-09-29T12:38:46.202Z</time>
      </trkpt>
      <trkpt lat="46.45266" lon="4.08847">
        <ele>309.256437</ele>
        <time>2023-09-29T12:38:48.208Z</time>
      </trkpt>
      <trkpt lat="46.45273" lon="4.08859">
        <ele>309.186003</ele>
        <time>2023-09-29T12:38:50.205Z</time>
      </trkpt>
      <trkpt lat="46.4528" lon="4.0887">
        <ele>309.119257</ele>
        <time>2023-09-29T12:38:52.209Z</time>
      </trkpt>
      <trkpt lat="46.45288" lon="4.08881">
        <ele>309.051662</ele>
        <time>2023-09-29T12:38:54.214Z</time>
      </trkpt>
      <trkpt lat="46.45295" lon="4.08893">
        <ele>308.986971</ele>
        <time>2023-09-29T12:38:56.207Z</time>
      </trkpt>
      <trkpt lat="46.45302" lon="4.08905">
        <ele>308.931059</ele>
        <time>2023-09-29T12:38:58.202Z</time>
      </trkpt>
      <trkpt lat="46.4531" lon="4.08917">
        <ele>308.871958</ele>
        <time>2023-09-29T12:39:00.204Z</time>
      </trkpt>
      <trkpt lat="46.45317" lon="4.08928">
        <ele>308.815531</ele>
        <time>2023-09-29T12:39:02.203Z</time>
      </trkpt>
      <trkpt lat="46.45325" lon="4.0894">
        <ele>308.760118</ele>
        <time>2023-09-29T12:39:04.201Z</time>
      </trkpt>
      <trkpt lat="46.45332" lon="4.08951">
        <ele>308.704643</ele>
        <time>2023-09-29T12:39:06.215Z</time>
      </trkpt>
      <trkpt lat="46.4534" lon="4.08964">
        <ele>308.647342</ele>
        <time>2023-09-29T12:39:08.217Z</time>
      </trkpt>
      <trkpt lat="46.45347" lon="4.08976">
        <ele>308.592495</ele>
        <time>2023-09-29T12:39:10.202Z</time>
      </trkpt>
      <trkpt lat="46.45354" lon="4.08987">
        <ele>308.536577</ele>
        <time>2023-09-29T12:39:12.218Z</time>
      </trkpt>
      <trkpt lat="46.45362" lon="4.08997">
        <ele>308.483245</ele>
        <time>2023-09-29T12:39:14.213Z</time>
      </trkpt>
      <trkpt lat="46.4537" lon="4.09009">
        <ele>308.428082</ele>
        <time>2023-09-29T12:39:16.207Z</time>
      </trkpt>
      <trkpt lat="46.45376" lon="4.09019">
        <ele>308.379557</ele>
        <time>2023-09-29T12:39:18.204Z</time>
      </trkpt>
      <trkpt lat="46.45383" lon="4.09034">
        <ele>308.314247</ele>
        <time>2023-09-29T12:39:21.206Z</time>
      </trkpt>
      <trkpt lat="46.4539" lon="4.09047">
        <ele>308.255718</ele>
        <time>2023-09-29T12:39:25.218Z</time>
      </trkpt>
      <trkpt lat="46.45397" lon="4.09057">
        <ele>308.208867</ele>
        <time>2023-09-29T12:39:28.218Z</time>
      </trkpt>
      <trkpt lat="46.45403" lon="4.09072">
        <ele>308.147788</ele>
        <time>2023-09-29T12:39:31.196Z</time>
      </trkpt>
      <trkpt lat="46.45411" lon="4.09086">
        <ele>308.080124</ele>
        <time>2023-09-29T12:39:34.206Z</time>
      </trkpt>
      <trkpt lat="46.45416" lon="4.09097">
        <ele>308.015343</ele>
        <time>2023-09-29T12:39:36.183Z</time>
      </trkpt>
      <trkpt lat="46.45422" lon="4.09109">
        <ele>307.947698</ele>
        <time>2023-09-29T12:39:38.198Z</time>
      </trkpt>
      <trkpt lat="46.45427" lon="4.09121">
        <ele>307.877229</ele>
        <time>2023-09-29T12:39:40.202Z</time>
      </trkpt>
      <trkpt lat="46.45432" lon="4.09134">
        <ele>307.805557</ele>
        <time>2023-09-29T12:39:42.201Z</time>
      </trkpt>
      <trkpt lat="46.45438" lon="4.09146">
        <ele>307.733844</ele>
        <time>2023-09-29T12:39:44.199Z</time>
      </trkpt>
      <trkpt lat="46.45443" lon="4.0916">
        <ele>307.658703</ele>
        <time>2023-09-29T12:39:46.202Z</time>
      </trkpt>
      <trkpt lat="46.45448" lon="4.09174">
        <ele>307.582736</ele>
        <time>2023-09-29T12:39:48.207Z</time>
      </trkpt>
      <trkpt lat="46.45453" lon="4.09188">
        <ele>307.505691</ele>
        <time>2023-09-29T12:39:50.206Z</time>
      </trkpt>
      <trkpt lat="46.45457" lon="4.09202">
        <ele>307.427561</ele>
        <time>2023-09-29T12:39:52.217Z</time>
      </trkpt>
      <trkpt lat="46.45461" lon="4.09217">
        <ele>307.348182</ele>
        <time>2023-09-29T12:39:54.186Z</time>
      </trkpt>
      <trkpt lat="46.45465" lon="4.09232">
        <ele>307.269338</ele>
        <time>2023-09-29T12:39:56.201Z</time>
      </trkpt>
      <trkpt lat="46.45469" lon="4.09248">
        <ele>307.189877</ele>
        <time>2023-09-29T12:39:58.223Z</time>
      </trkpt>
      <trkpt lat="46.45473" lon="4.09264">
        <ele>307.106495</ele>
        <time>2023-09-29T12:40:00.227Z</time>
      </trkpt>
      <trkpt lat="46.45477" lon="4.0928">
        <ele>307.022875</ele>
        <time>2023-09-29T12:40:02.198Z</time>
      </trkpt>
      <trkpt lat="46.4548" lon="4.09295">
        <ele>306.944346</ele>
        <time>2023-09-29T12:40:04.223Z</time>
      </trkpt>
      <trkpt lat="46.45483" lon="4.09311">
        <ele>306.864028</ele>
        <time>2023-09-29T12:40:06.200Z</time>
      </trkpt>
      <trkpt lat="46.45487" lon="4.09327">
        <ele>306.738268</ele>
        <time>2023-09-29T12:40:08.218Z</time>
      </trkpt>
      <trkpt lat="46.45488" lon="4.09343">
        <ele>306.511836</ele>
        <time>2023-09-29T12:40:10.223Z</time>
      </trkpt>
      <trkpt lat="46.4549" lon="4.09359">
        <ele>306.282383</ele>
        <time>2023-09-29T12:40:12.204Z</time>
      </trkpt>
      <trkpt lat="46.45492" lon="4.09376">
        <ele>306.046859</ele>
        <time>2023-09-29T12:40:14.220Z</time>
      </trkpt>
      <trkpt lat="46.45494" lon="4.09393">
        <ele>305.806863</ele>
        <time>2023-09-29T12:40:16.199Z</time>
      </trkpt>
      <trkpt lat="46.45495" lon="4.09409">
        <ele>305.579555</ele>
        <time>2023-09-29T12:40:18.217Z</time>
      </trkpt>
      <trkpt lat="46.45496" lon="4.09425">
        <ele>305.360945</ele>
        <time>2023-09-29T12:40:20.193Z</time>
      </trkpt>
      <trkpt lat="46.45497" lon="4.0944">
        <ele>305.145766</ele>
        <time>2023-09-29T12:40:22.208Z</time>
      </trkpt>
      <trkpt lat="46.45498" lon="4.09456">
        <ele>304.936348</ele>
        <time>2023-09-29T12:40:24.208Z</time>
      </trkpt>
      <trkpt lat="46.45498" lon="4.0947">
        <ele>304.737754</ele>
        <time>2023-09-29T12:40:26.211Z</time>
      </trkpt>
      <trkpt lat="46.45499" lon="4.09484">
        <ele>304.536246</ele>
        <time>2023-09-29T12:40:28.201Z</time>
      </trkpt>
      <trkpt lat="46.45499" lon="4.09499">
        <ele>304.33522</ele>
        <time>2023-09-29T12:40:30.202Z</time>
      </trkpt>
      <trkpt lat="46.45498" lon="4.09514">
        <ele>304.129845</ele>
        <time>2023-09-29T12:40:32.200Z</time>
      </trkpt>
      <trkpt lat="46.45498" lon="4.09531">
        <ele>303.895698</ele>
        <time>2023-09-29T12:40:34.198Z</time>
      </trkpt>
      <trkpt lat="46.45497" lon="4.09546">
        <ele>303.679629</ele>
        <time>2023-09-29T12:40:36.187Z</time>
      </trkpt>
      <trkpt lat="46.45496" lon="4.0956">
        <ele>303.490546</ele>
        <time>2023-09-29T12:40:38.193Z</time>
      </trkpt>
      <trkpt lat="46.45495" lon="4.09578">
        <ele>303.236395</ele>
        <time>2023-09-29T12:40:41.216Z</time>
      </trkpt>
      <trkpt lat="46.45494" lon="4.09595">
        <ele>302.852086</ele>
        <time>2023-09-29T12:40:44.207Z</time>
      </trkpt>
      <trkpt lat="46.45493" lon="4.0961">
        <ele>302.471545</ele>
        <time>2023-09-29T12:40:47.187Z</time>
      </trkpt>
      <trkpt lat="46.45491" lon="4.09624">
        <ele>302.112544</ele>
        <time>2023-09-29T12:40:50.214Z</time>
      </trkpt>
      <trkpt lat="46.4549" lon="4.09638">
        <ele>301.767564</ele>
        <time>2023-09-29T12:40:55.210Z</time>
      </trkpt>
      <trkpt lat="46.45501" lon="4.09642">
        <ele>301.363313</ele>
        <time>2023-09-29T12:41:01.200Z</time>
      </trkpt>
      <trkpt lat="46.4551" lon="4.09645">
        <ele>301.003119</ele>
        <time>2023-09-29T12:41:04.215Z</time>
      </trkpt>
      <trkpt lat="46.45522" lon="4.09648">
        <ele>300.575249</ele>
        <time>2023-09-29T12:41:07.227Z</time>
      </trkpt>
      <trkpt lat="46.45533" lon="4.0965">
        <ele>300.176645</ele>
        <time>2023-09-29T12:41:10.202Z</time>
      </trkpt>
      <trkpt lat="46.45542" lon="4.09653">
        <ele>299.838235</ele>
        <time>2023-09-29T12:41:13.212Z</time>
      </trkpt>
      <trkpt lat="46.45552" lon="4.09659">
        <ele>299.451301</ele>
        <time>2023-09-29T12:41:17.204Z</time>
      </trkpt>
      <trkpt lat="46.45556" lon="4.09671">
        <ele>299.117663</ele>
        <time>2023-09-29T12:41:20.192Z</time>
      </trkpt>
      <trkpt lat="46.45556" lon="4.09689">
        <ele>298.661829</ele>
        <time>2023-09-29T12:41:23.192Z</time>
      </trkpt>
      <trkpt lat="46.45557" lon="4.09703">
        <ele>298.319039</ele>
        <time>2023-09-29T12:41:25.209Z</time>
      </trkpt>
      <trkpt lat="46.45558" lon="4.09717">
        <ele>297.951108</ele>
        <time>2023-09-29T12:41:27.205Z</time>
      </trkpt>
      <trkpt lat="46.4556" lon="4.09733">
        <ele>297.5467</ele>
        <time>2023-09-29T12:41:29.196Z</time>
      </trkpt>
      <trkpt lat="46.45562" lon="4.09748">
        <ele>297.17297</ele>
        <time>2023-09-29T12:41:31.210Z</time>
      </trkpt>
      <trkpt lat="46.45563" lon="4.09763">
        <ele>296.809658</ele>
        <time>2023-09-29T12:41:33.209Z</time>
      </trkpt>
      <trkpt lat="46.45565" lon="4.09777">
        <ele>296.60212</ele>
        <time>2023-09-29T12:41:35.221Z</time>
      </trkpt>
      <trkpt lat="46.45567" lon="4.09792">
        <ele>296.474308</ele>
        <time>2023-09-29T12:41:37.216Z</time>
      </trkpt>
      <trkpt lat="46.45569" lon="4.09807">
        <ele>296.348389</ele>
        <time>2023-09-29T12:41:39.210Z</time>
      </trkpt>
      <trkpt lat="46.45572" lon="4.09821">
        <ele>296.225908</ele>
        <time>2023-09-29T12:41:41.232Z</time>
      </trkpt>
      <trkpt lat="46.45573" lon="4.09835">
        <ele>296.104383</ele>
        <time>2023-09-29T12:41:43.210Z</time>
      </trkpt>
      <trkpt lat="46.45575" lon="4.09849">
        <ele>295.984955</ele>
        <time>2023-09-29T12:41:45.208Z</time>
      </trkpt>
      <trkpt lat="46.45579" lon="4.09866">
        <ele>295.828619</ele>
        <time>2023-09-29T12:41:48.199Z</time>
      </trkpt>
      <trkpt lat="46.45581" lon="4.09882">
        <ele>295.693905</ele>
        <time>2023-09-29T12:41:51.223Z</time>
      </trkpt>
      <trkpt lat="46.4558" lon="4.09897">
        <ele>295.565396</ele>
        <time>2023-09-29T12:41:55.214Z</time>
      </trkpt>
      <trkpt lat="46.45572" lon="4.09908">
        <ele>295.434921</ele>
        <time>2023-09-29T12:41:59.197Z</time>
      </trkpt>
      <trkpt lat="46.45564" lon="4.09917">
        <ele>295.304664</ele>
        <time>2023-09-29T12:42:02.207Z</time>
      </trkpt>
      <trkpt lat="46.45554" lon="4.09928">
        <ele>295.155869</ele>
        <time>2023-09-29T12:42:05.181Z</time>
      </trkpt>
      <trkpt lat="46.45545" lon="4.0994">
        <ele>294.997144</ele>
        <time>2023-09-29T12:42:08.183Z</time>
      </trkpt>
      <trkpt lat="46.45535" lon="4.09954">
        <ele>294.832387</ele>
        <time>2023-09-29T12:42:11.194Z</time>
      </trkpt>
      <trkpt lat="46.45527" lon="4.09968">
        <ele>294.682007</ele>
        <time>2023-09-29T12:42:14.220Z</time>
      </trkpt>
      <trkpt lat="46.45522" lon="4.0998">
        <ele>294.561253</ele>
        <time>2023-09-29T12:42:16.210Z</time>
      </trkpt>
      <trkpt lat="46.45521" lon="4.09995">
        <ele>294.394043</ele>
        <time>2023-09-29T12:42:18.200Z</time>
      </trkpt>
      <trkpt lat="46.4552" lon="4.10011">
        <ele>294.151163</ele>
        <time>2023-09-29T12:42:20.185Z</time>
      </trkpt>
      <trkpt lat="46.4552" lon="4.10024">
        <ele>293.938513</ele>
        <time>2023-09-29T12:42:22.210Z</time>
      </trkpt>
      <trkpt lat="46.45518" lon="4.10043">
        <ele>293.64232</ele>
        <time>2023-09-29T12:42:25.190Z</time>
      </trkpt>
      <trkpt lat="46.45517" lon="4.10061">
        <ele>293.357773</ele>
        <time>2023-09-29T12:42:28.228Z</time>
      </trkpt>
      <trkpt lat="46.45514" lon="4.10078">
        <ele>293.086511</ele>
        <time>2023-09-29T12:42:31.197Z</time>
      </trkpt>
      <trkpt lat="46.45515" lon="4.10096">
        <ele>292.815398</ele>
        <time>2023-09-29T12:42:34.245Z</time>
      </trkpt>
      <trkpt lat="46.45522" lon="4.10106">
        <ele>292.588674</ele>
        <time>2023-09-29T12:42:37.194Z</time>
      </trkpt>
      <trkpt lat="46.45531" lon="4.10115">
        <ele>292.354402</ele>
        <time>2023-09-29T12:42:46.194Z</time>
      </trkpt>
      <trkpt lat="46.45537" lon="4.10124">
        <ele>292.147093</ele>
        <time>2023-09-29T12:42:50.219Z</time>
      </trkpt>
      <trkpt lat="46.45543" lon="4.10134">
        <ele>291.937085</ele>
        <time>2023-09-29T12:42:54.212Z</time>
      </trkpt>
      <trkpt lat="46.45536" lon="4.10149">
        <ele>291.653573</ele>
        <time>2023-09-29T12:42:58.200Z</time>
      </trkpt>
      <trkpt lat="46.45527" lon="4.1016">
        <ele>291.389993</ele>
        <time>2023-09-29T12:43:00.213Z</time>
      </trkpt>
      <trkpt lat="46.45517" lon="4.10173">
        <ele>291.080206</ele>
        <time>2023-09-29T12:43:02.214Z</time>
      </trkpt>
      <trkpt lat="46.45506" lon="4.10187">
        <ele>290.749196</ele>
        <time>2023-09-29T12:43:04.232Z</time>
      </trkpt>
      <trkpt lat="46.45495" lon="4.10201">
        <ele>290.422985</ele>
        <time>2023-09-29T12:43:06.210Z</time>
      </trkpt>
      <trkpt lat="46.45486" lon="4.10216">
        <ele>290.340012</ele>
        <time>2023-09-29T12:43:08.221Z</time>
      </trkpt>
      <trkpt lat="46.45478" lon="4.10231">
        <ele>290.284481</ele>
        <time>2023-09-29T12:43:10.218Z</time>
      </trkpt>
      <trkpt lat="46.4547" lon="4.10248">
        <ele>290.227774</ele>
        <time>2023-09-29T12:43:12.209Z</time>
      </trkpt>
      <trkpt lat="46.45462" lon="4.10265">
        <ele>290.172412</ele>
        <time>2023-09-29T12:43:14.208Z</time>
      </trkpt>
      <trkpt lat="46.45455" lon="4.10281">
        <ele>290.117482</ele>
        <time>2023-09-29T12:43:16.207Z</time>
      </trkpt>
      <trkpt lat="46.45448" lon="4.10297">
        <ele>290.063079</ele>
        <time>2023-09-29T12:43:18.206Z</time>
      </trkpt>
      <trkpt lat="46.4544" lon="4.10313">
        <ele>290.009819</ele>
        <time>2023-09-29T12:43:20.204Z</time>
      </trkpt>
      <trkpt lat="46.45433" lon="4.10329">
        <ele>289.957026</ele>
        <time>2023-09-29T12:43:22.203Z</time>
      </trkpt>
      <trkpt lat="46.45426" lon="4.10344">
        <ele>289.90562</ele>
        <time>2023-09-29T12:43:24.191Z</time>
      </trkpt>
      <trkpt lat="46.45419" lon="4.10359">
        <ele>289.854205</ele>
        <time>2023-09-29T12:43:26.210Z</time>
      </trkpt>
      <trkpt lat="46.45412" lon="4.10375">
        <ele>289.802077</ele>
        <time>2023-09-29T12:43:28.214Z</time>
      </trkpt>
      <trkpt lat="46.45405" lon="4.1039">
        <ele>289.749751</ele>
        <time>2023-09-29T12:43:30.214Z</time>
      </trkpt>
      <trkpt lat="46.45398" lon="4.10406">
        <ele>289.698094</ele>
        <time>2023-09-29T12:43:32.189Z</time>
      </trkpt>
      <trkpt lat="46.45391" lon="4.10422">
        <ele>289.680429</ele>
        <time>2023-09-29T12:43:34.209Z</time>
      </trkpt>
      <trkpt lat="46.45384" lon="4.10437">
        <ele>289.764691</ele>
        <time>2023-09-29T12:43:36.216Z</time>
      </trkpt>
      <trkpt lat="46.45377" lon="4.10453">
        <ele>289.846732</ele>
        <time>2023-09-29T12:43:38.215Z</time>
      </trkpt>
      <trkpt lat="46.4537" lon="4.10468">
        <ele>289.928772</ele>
        <time>2023-09-29T12:43:40.212Z</time>
      </trkpt>
      <trkpt lat="46.45363" lon="4.10483">
        <ele>290.011186</ele>
        <time>2023-09-29T12:43:42.220Z</time>
      </trkpt>
      <trkpt lat="46.45356" lon="4.10499">
        <ele>290.093618</ele>
        <time>2023-09-29T12:43:44.207Z</time>
      </trkpt>
      <trkpt lat="46.45348" lon="4.10514">
        <ele>290.177122</ele>
        <time>2023-09-29T12:43:46.204Z</time>
      </trkpt>
      <trkpt lat="46.45342" lon="4.10529">
        <ele>290.255522</ele>
        <time>2023-09-29T12:43:48.222Z</time>
      </trkpt>
      <trkpt lat="46.45335" lon="4.10544">
        <ele>290.335357</ele>
        <time>2023-09-29T12:43:50.202Z</time>
      </trkpt>
      <trkpt lat="46.45329" lon="4.10558">
        <ele>290.408598</ele>
        <time>2023-09-29T12:43:52.210Z</time>
      </trkpt>
      <trkpt lat="46.45323" lon="4.10571">
        <ele>290.482535</ele>
        <time>2023-09-29T12:43:54.201Z</time>
      </trkpt>
      <trkpt lat="46.45316" lon="4.10585">
        <ele>290.557621</ele>
        <time>2023-09-29T12:43:56.201Z</time>
      </trkpt>
      <trkpt lat="46.4531" lon="4.10599">
        <ele>290.632751</ele>
        <time>2023-09-29T12:43:58.200Z</time>
      </trkpt>
      <trkpt lat="46.45303" lon="4.10613">
        <ele>290.706699</ele>
        <time>2023-09-29T12:44:00.220Z</time>
      </trkpt>
      <trkpt lat="46.45297" lon="4.10627">
        <ele>290.781372</ele>
        <time>2023-09-29T12:44:02.204Z</time>
      </trkpt>
      <trkpt lat="46.45291" lon="4.1064">
        <ele>290.813117</ele>
        <time>2023-09-29T12:44:04.217Z</time>
      </trkpt>
      <trkpt lat="46.45285" lon="4.10654">
        <ele>290.780021</ele>
        <time>2023-09-29T12:44:06.201Z</time>
      </trkpt>
      <trkpt lat="46.45278" lon="4.10667">
        <ele>290.747926</ele>
        <time>2023-09-29T12:44:08.198Z</time>
      </trkpt>
      <trkpt lat="46.45271" lon="4.10681">
        <ele>290.715517</ele>
        <time>2023-09-29T12:44:10.201Z</time>
      </trkpt>
      <trkpt lat="46.45265" lon="4.10694">
        <ele>290.683429</ele>
        <time>2023-09-29T12:44:12.201Z</time>
      </trkpt>
      <trkpt lat="46.45259" lon="4.10708">
        <ele>290.65133</ele>
        <time>2023-09-29T12:44:14.202Z</time>
      </trkpt>
      <trkpt lat="46.45252" lon="4.10722">
        <ele>290.617946</ele>
        <time>2023-09-29T12:44:16.212Z</time>
      </trkpt>
      <trkpt lat="46.45247" lon="4.10736">
        <ele>290.586284</ele>
        <time>2023-09-29T12:44:18.201Z</time>
      </trkpt>
      <trkpt lat="46.4524" lon="4.10749">
        <ele>290.553704</ele>
        <time>2023-09-29T12:44:20.206Z</time>
      </trkpt>
      <trkpt lat="46.45234" lon="4.10764">
        <ele>290.520251</ele>
        <time>2023-09-29T12:44:22.199Z</time>
      </trkpt>
      <trkpt lat="46.45227" lon="4.10779">
        <ele>290.485567</ele>
        <time>2023-09-29T12:44:24.200Z</time>
      </trkpt>
      <trkpt lat="46.45221" lon="4.10794">
        <ele>290.450493</ele>
        <time>2023-09-29T12:44:26.202Z</time>
      </trkpt>
      <trkpt lat="46.45214" lon="4.10808">
        <ele>290.41613</ele>
        <time>2023-09-29T12:44:28.212Z</time>
      </trkpt>
      <trkpt lat="46.45208" lon="4.10822">
        <ele>290.383222</ele>
        <time>2023-09-29T12:44:30.203Z</time>
      </trkpt>
      <trkpt lat="46.45201" lon="4.10836">
        <ele>290.350164</ele>
        <time>2023-09-29T12:44:32.212Z</time>
      </trkpt>
      <trkpt lat="46.45195" lon="4.10851">
        <ele>290.315743</ele>
        <time>2023-09-29T12:44:34.215Z</time>
      </trkpt>
      <trkpt lat="46.4519" lon="4.10865">
        <ele>290.310884</ele>
        <time>2023-09-29T12:44:36.216Z</time>
      </trkpt>
      <trkpt lat="46.45184" lon="4.10877">
        <ele>290.310294</ele>
        <time>2023-09-29T12:44:38.190Z</time>
      </trkpt>
      <trkpt lat="46.45179" lon="4.1089">
        <ele>290.309717</ele>
        <time>2023-09-29T12:44:40.188Z</time>
      </trkpt>
      <trkpt lat="46.45172" lon="4.10902">
        <ele>290.309114</ele>
        <time>2023-09-29T12:44:42.205Z</time>
      </trkpt>
      <trkpt lat="46.45166" lon="4.10916">
        <ele>290.308501</ele>
        <time>2023-09-29T12:44:44.197Z</time>
      </trkpt>
      <trkpt lat="46.4516" lon="4.10929">
        <ele>290.307853</ele>
        <time>2023-09-29T12:44:46.206Z</time>
      </trkpt>
      <trkpt lat="46.45154" lon="4.10943">
        <ele>290.307228</ele>
        <time>2023-09-29T12:44:48.221Z</time>
      </trkpt>
      <trkpt lat="46.45148" lon="4.10956">
        <ele>290.306606</ele>
        <time>2023-09-29T12:44:50.213Z</time>
      </trkpt>
      <trkpt lat="46.45142" lon="4.1097">
        <ele>290.305988</ele>
        <time>2023-09-29T12:44:52.201Z</time>
      </trkpt>
      <trkpt lat="46.45135" lon="4.10982">
        <ele>290.305375</ele>
        <time>2023-09-29T12:44:54.194Z</time>
      </trkpt>
      <trkpt lat="46.45129" lon="4.10996">
        <ele>290.304759</ele>
        <time>2023-09-29T12:44:56.209Z</time>
      </trkpt>
      <trkpt lat="46.45123" lon="4.11009">
        <ele>290.304131</ele>
        <time>2023-09-29T12:44:58.208Z</time>
      </trkpt>
      <trkpt lat="46.45116" lon="4.11022">
        <ele>290.303503</ele>
        <time>2023-09-29T12:45:00.198Z</time>
      </trkpt>
      <trkpt lat="46.4511" lon="4.11035">
        <ele>290.302894</ele>
        <time>2023-09-29T12:45:02.221Z</time>
      </trkpt>
      <trkpt lat="46.45104" lon="4.11048">
        <ele>290.302281</ele>
        <time>2023-09-29T12:45:04.182Z</time>
      </trkpt>
      <trkpt lat="46.45098" lon="4.11061">
        <ele>290.301694</ele>
        <time>2023-09-29T12:45:06.226Z</time>
      </trkpt>
      <trkpt lat="46.45092" lon="4.11074">
        <ele>290.293983</ele>
        <time>2023-09-29T12:45:08.204Z</time>
      </trkpt>
      <trkpt lat="46.45086" lon="4.11086">
        <ele>290.27253</ele>
        <time>2023-09-29T12:45:10.205Z</time>
      </trkpt>
      <trkpt lat="46.4508" lon="4.11099">
        <ele>290.250587</ele>
        <time>2023-09-29T12:45:12.215Z</time>
      </trkpt>
      <trkpt lat="46.45073" lon="4.11112">
        <ele>290.227142</ele>
        <time>2023-09-29T12:45:14.215Z</time>
      </trkpt>
      <trkpt lat="46.45068" lon="4.11126">
        <ele>290.20509</ele>
        <time>2023-09-29T12:45:16.197Z</time>
      </trkpt>
      <trkpt lat="46.45062" lon="4.1114">
        <ele>290.181287</ele>
        <time>2023-09-29T12:45:18.219Z</time>
      </trkpt>
      <trkpt lat="46.45056" lon="4.11153">
        <ele>290.159138</ele>
        <time>2023-09-29T12:45:20.184Z</time>
      </trkpt>
      <trkpt lat="46.4505" lon="4.11166">
        <ele>290.13815</ele>
        <time>2023-09-29T12:45:22.201Z</time>
      </trkpt>
      <trkpt lat="46.45045" lon="4.11179">
        <ele>290.116338</ele>
        <time>2023-09-29T12:45:24.206Z</time>
      </trkpt>
      <trkpt lat="46.45039" lon="4.1119">
        <ele>290.095934</ele>
        <time>2023-09-29T12:45:26.213Z</time>
      </trkpt>
      <trkpt lat="46.45033" lon="4.11203">
        <ele>290.074478</ele>
        <time>2023-09-29T12:45:28.205Z</time>
      </trkpt>
      <trkpt lat="46.45027" lon="4.11216">
        <ele>290.052097</ele>
        <time>2023-09-29T12:45:30.200Z</time>
      </trkpt>
      <trkpt lat="46.45021" lon="4.1123">
        <ele>290.028567</ele>
        <time>2023-09-29T12:45:32.198Z</time>
      </trkpt>
      <trkpt lat="46.45015" lon="4.11244">
        <ele>290.005486</ele>
        <time>2023-09-29T12:45:34.220Z</time>
      </trkpt>
      <trkpt lat="46.45009" lon="4.11257">
        <ele>289.982975</ele>
        <time>2023-09-29T12:45:36.176Z</time>
      </trkpt>
      <trkpt lat="46.45003" lon="4.11271">
        <ele>289.959544</ele>
        <time>2023-09-29T12:45:38.197Z</time>
      </trkpt>
      <trkpt lat="46.44997" lon="4.11285">
        <ele>289.936573</ele>
        <time>2023-09-29T12:45:40.223Z</time>
      </trkpt>
      <trkpt lat="46.4499" lon="4.11298">
        <ele>290.060234</ele>
        <time>2023-09-29T12:45:42.201Z</time>
      </trkpt>
      <trkpt lat="46.44984" lon="4.11311">
        <ele>290.229249</ele>
        <time>2023-09-29T12:45:44.226Z</time>
      </trkpt>
      <trkpt lat="46.44978" lon="4.11325">
        <ele>290.391592</ele>
        <time>2023-09-29T12:45:46.201Z</time>
      </trkpt>
      <trkpt lat="46.44972" lon="4.11338">
        <ele>290.553935</ele>
        <time>2023-09-29T12:45:48.204Z</time>
      </trkpt>
      <trkpt lat="46.44966" lon="4.11352">
        <ele>290.717382</ele>
        <time>2023-09-29T12:45:50.206Z</time>
      </trkpt>
      <trkpt lat="46.44961" lon="4.11366">
        <ele>290.874187</ele>
        <time>2023-09-29T12:45:52.236Z</time>
      </trkpt>
      <trkpt lat="46.44956" lon="4.11379">
        <ele>291.028649</ele>
        <time>2023-09-29T12:45:54.217Z</time>
      </trkpt>
      <trkpt lat="46.4495" lon="4.11391">
        <ele>291.181778</ele>
        <time>2023-09-29T12:45:56.215Z</time>
      </trkpt>
      <trkpt lat="46.44944" lon="4.11403">
        <ele>291.326501</ele>
        <time>2023-09-29T12:45:58.208Z</time>
      </trkpt>
      <trkpt lat="46.44938" lon="4.11414">
        <ele>291.473711</ele>
        <time>2023-09-29T12:46:00.195Z</time>
      </trkpt>
      <trkpt lat="46.4493" lon="4.11428">
        <ele>291.651596</ele>
        <time>2023-09-29T12:46:03.201Z</time>
      </trkpt>
      <trkpt lat="46.44925" lon="4.1144">
        <ele>291.803199</ele>
        <time>2023-09-29T12:46:06.203Z</time>
      </trkpt>
      <trkpt lat="46.44921" lon="4.11454">
        <ele>291.959838</ele>
        <time>2023-09-29T12:46:09.186Z</time>
      </trkpt>
      <trkpt lat="46.44915" lon="4.11468">
        <ele>292.123035</ele>
        <time>2023-09-29T12:46:12.322Z</time>
      </trkpt>
      <trkpt lat="46.44908" lon="4.11479">
        <ele>292.265839</ele>
        <time>2023-09-29T12:46:15.215Z</time>
      </trkpt>
      <trkpt lat="46.44903" lon="4.11491">
        <ele>292.411493</ele>
        <time>2023-09-29T12:46:21.192Z</time>
      </trkpt>
      <trkpt lat="46.44897" lon="4.11504">
        <ele>292.57225</ele>
        <time>2023-09-29T12:46:25.196Z</time>
      </trkpt>
      <trkpt lat="46.44897" lon="4.11519">
        <ele>292.494295</ele>
        <time>2023-09-29T12:46:28.192Z</time>
      </trkpt>
      <trkpt lat="46.449" lon="4.11535">
        <ele>292.382819</ele>
        <time>2023-09-29T12:46:31.183Z</time>
      </trkpt>
      <trkpt lat="46.44901" lon="4.11549">
        <ele>292.293899</ele>
        <time>2023-09-29T12:46:33.213Z</time>
      </trkpt>
      <trkpt lat="46.44903" lon="4.11562">
        <ele>292.207041</ele>
        <time>2023-09-29T12:46:35.208Z</time>
      </trkpt>
      <trkpt lat="46.44904" lon="4.11577">
        <ele>292.111903</ele>
        <time>2023-09-29T12:46:37.212Z</time>
      </trkpt>
      <trkpt lat="46.44905" lon="4.11592">
        <ele>292.010012</ele>
        <time>2023-09-29T12:46:39.203Z</time>
      </trkpt>
      <trkpt lat="46.44907" lon="4.11608">
        <ele>291.903612</ele>
        <time>2023-09-29T12:46:41.181Z</time>
      </trkpt>
      <trkpt lat="46.44909" lon="4.11626">
        <ele>291.787516</ele>
        <time>2023-09-29T12:46:43.206Z</time>
      </trkpt>
      <trkpt lat="46.44911" lon="4.11643">
        <ele>291.675011</ele>
        <time>2023-09-29T12:46:45.198Z</time>
      </trkpt>
      <trkpt lat="46.44913" lon="4.11659">
        <ele>291.566672</ele>
        <time>2023-09-29T12:46:47.206Z</time>
      </trkpt>
      <trkpt lat="46.44915" lon="4.11676">
        <ele>291.45723</ele>
        <time>2023-09-29T12:46:49.201Z</time>
      </trkpt>
      <trkpt lat="46.44916" lon="4.11693">
        <ele>291.345146</ele>
        <time>2023-09-29T12:46:51.199Z</time>
      </trkpt>
      <trkpt lat="46.44918" lon="4.11709">
        <ele>291.235897</ele>
        <time>2023-09-29T12:46:53.207Z</time>
      </trkpt>
      <trkpt lat="46.44919" lon="4.11727">
        <ele>291.120312</ele>
        <time>2023-09-29T12:46:55.217Z</time>
      </trkpt>
      <trkpt lat="46.44921" lon="4.11744">
        <ele>291.003695</ele>
        <time>2023-09-29T12:46:57.217Z</time>
      </trkpt>
      <trkpt lat="46.44923" lon="4.11761">
        <ele>290.893125</ele>
        <time>2023-09-29T12:46:59.225Z</time>
      </trkpt>
      <trkpt lat="46.44925" lon="4.11776">
        <ele>290.824641</ele>
        <time>2023-09-29T12:47:01.220Z</time>
      </trkpt>
      <trkpt lat="46.44926" lon="4.11791">
        <ele>290.763208</ele>
        <time>2023-09-29T12:47:03.200Z</time>
      </trkpt>
      <trkpt lat="46.44927" lon="4.11807">
        <ele>290.701652</ele>
        <time>2023-09-29T12:47:07.212Z</time>
      </trkpt>
      <trkpt lat="46.44929" lon="4.1182">
        <ele>290.645966</ele>
        <time>2023-09-29T12:47:14.203Z</time>
      </trkpt>
      <trkpt lat="46.44931" lon="4.11833">
        <ele>290.592023</ele>
        <time>2023-09-29T12:47:49.207Z</time>
      </trkpt>
      <trkpt lat="46.44931" lon="4.11849">
        <ele>290.528432</ele>
        <time>2023-09-29T12:47:53.209Z</time>
      </trkpt>
      <trkpt lat="46.44937" lon="4.11859">
        <ele>290.473978</ele>
        <time>2023-09-29T12:47:56.201Z</time>
      </trkpt>
      <trkpt lat="46.44947" lon="4.11864">
        <ele>290.407934</ele>
        <time>2023-09-29T12:47:59.206Z</time>
      </trkpt>
      <trkpt lat="46.44957" lon="4.11871">
        <ele>290.346499</ele>
        <time>2023-09-29T12:48:02.196Z</time>
      </trkpt>
      <trkpt lat="46.44964" lon="4.1188">
        <ele>290.288894</ele>
        <time>2023-09-29T12:48:05.208Z</time>
      </trkpt>
      <trkpt lat="46.44974" lon="4.11886">
        <ele>290.224117</ele>
        <time>2023-09-29T12:48:09.213Z</time>
      </trkpt>
      <trkpt lat="46.44986" lon="4.1189">
        <ele>290.153943</ele>
        <time>2023-09-29T12:48:13.202Z</time>
      </trkpt>
      <trkpt lat="46.44995" lon="4.11899">
        <ele>290.09083</ele>
        <time>2023-09-29T12:48:16.202Z</time>
      </trkpt>
      <trkpt lat="46.45003" lon="4.11906">
        <ele>290.035345</ele>
        <time>2023-09-29T12:48:19.206Z</time>
      </trkpt>
      <trkpt lat="46.4501" lon="4.11915">
        <ele>289.979415</ele>
        <time>2023-09-29T12:48:22.191Z</time>
      </trkpt>
      <trkpt lat="46.45019" lon="4.11924">
        <ele>289.918743</ele>
        <time>2023-09-29T12:48:28.197Z</time>
      </trkpt>
      <trkpt lat="46.45028" lon="4.1193">
        <ele>289.859086</ele>
        <time>2023-09-29T12:48:32.185Z</time>
      </trkpt>
      <trkpt lat="46.45033" lon="4.11934">
        <ele>289.824108</ele>
        <time>2023-09-29T12:48:39.347Z</time>
      </trkpt>
      <trkpt lat="46.45042" lon="4.11939">
        <ele>289.700934</ele>
        <time>2023-09-29T12:50:01.204Z</time>
      </trkpt>
      <trkpt lat="46.45051" lon="4.11945">
        <ele>289.574168</ele>
        <time>2023-09-29T12:50:12.199Z</time>
      </trkpt>
      <trkpt lat="46.45061" lon="4.11948">
        <ele>289.450616</ele>
        <time>2023-09-29T12:50:23.193Z</time>
      </trkpt>
      <trkpt lat="46.45069" lon="4.11955">
        <ele>289.323613</ele>
        <time>2023-09-29T12:50:32.181Z</time>
      </trkpt>
      <trkpt lat="46.45068" lon="4.11971">
        <ele>289.182557</ele>
        <time>2023-09-29T12:50:39.199Z</time>
      </trkpt>
      <trkpt lat="46.45063" lon="4.11983">
        <ele>289.060334</ele>
        <time>2023-09-29T12:50:42.284Z</time>
      </trkpt>
      <trkpt lat="46.45058" lon="4.11997">
        <ele>288.921225</ele>
        <time>2023-09-29T12:50:45.193Z</time>
      </trkpt>
      <trkpt lat="46.45052" lon="4.12012">
        <ele>288.77153</ele>
        <time>2023-09-29T12:50:48.198Z</time>
      </trkpt>
      <trkpt lat="46.45046" lon="4.12026">
        <ele>288.61985</ele>
        <time>2023-09-29T12:50:51.216Z</time>
      </trkpt>
      <trkpt lat="46.45041" lon="4.1204">
        <ele>288.485372</ele>
        <time>2023-09-29T12:50:54.201Z</time>
      </trkpt>
      <trkpt lat="46.45033" lon="4.12053">
        <ele>288.330016</ele>
        <time>2023-09-29T12:50:57.221Z</time>
      </trkpt>
      <trkpt lat="46.45027" lon="4.12068">
        <ele>288.180644</ele>
        <time>2023-09-29T12:51:00.199Z</time>
      </trkpt>
      <trkpt lat="46.45022" lon="4.12081">
        <ele>288.042585</ele>
        <time>2023-09-29T12:51:03.202Z</time>
      </trkpt>
      <trkpt lat="46.45016" lon="4.12093">
        <ele>287.918048</ele>
        <time>2023-09-29T12:51:06.187Z</time>
      </trkpt>
      <trkpt lat="46.45007" lon="4.12096">
        <ele>287.791994</ele>
        <time>2023-09-29T12:51:09.185Z</time>
      </trkpt>
      <trkpt lat="46.44996" lon="4.12098">
        <ele>287.650199</ele>
        <time>2023-09-29T12:51:13.200Z</time>
      </trkpt>
      <trkpt lat="46.44985" lon="4.12102">
        <ele>287.512305</ele>
        <time>2023-09-29T12:51:18.206Z</time>
      </trkpt>
      <trkpt lat="46.4498" lon="4.12113">
        <ele>287.512305</ele>
        <time>2023-09-29T12:51:23.200Z</time>
      </trkpt>
      <trkpt lat="46.44985" lon="4.12127">
        <ele>287.512305</ele>
        <time>2023-09-29T12:51:28.199Z</time>
      </trkpt>
      <trkpt lat="46.44993" lon="4.12137">
        <ele>287.512305</ele>
        <time>2023-09-29T12:51:33.212Z</time>
      </trkpt>
      <trkpt lat="46.44999" lon="4.12148">
        <ele>287.512305</ele>
        <time>2023-09-29T12:51:38.194Z</time>
      </trkpt>
      <trkpt lat="46.44999" lon="4.12153">
        <ele>287.512305</ele>
        <time>2023-09-29T12:51:44.462Z</time>
      </trkpt>
      <trkpt lat="46.44932" lon="4.12304">
        <ele>287.512305</ele>
        <time>2023-09-29T13:24:30.511Z</time>
      </trkpt>
    </trkseg>
  </trk>
</gpx>